<?xml version="1.0" encoding="UTF-8" standalone="no" ?>
<gpx xmlns="http://www.topografix.com/GPX/1/1" xmlns:xsi="http://www.w3.org/2001/XMLSchema-instance" xsi:schemaLocation="http://www.topografix.com/GPX/1/1 http://www.topografix.com/GPX/1/1/gpx.xsd" version="1.1" creator="VisuGPX - https://www.visugpx.com">
  <metadata>
    <name>22es randonnées du plateau PLASNE VTT 35km</name>
    <desc><![CDATA[Belle randonnée organisée par le club cycliste de PLASNE. ]]></desc>
  </metadata>
  <trk>
    <name><![CDATA[2018-05-27-randonnée_plasne]]></name>
    <trkseg>
      <trkpt lat="46.80651" lon="5.68398">
        <ele>516.6</ele>
        <time>2018-05-27T06:24:36Z</time>
      </trkpt>
      <trkpt lat="46.80651" lon="5.68398">
        <ele>518.4</ele>
        <time>2018-05-27T06:24:37Z</time>
      </trkpt>
      <trkpt lat="46.80598" lon="5.68362">
        <ele>528</ele>
        <time>2018-05-27T06:24:44Z</time>
      </trkpt>
      <trkpt lat="46.80557" lon="5.68407">
        <ele>535</ele>
        <time>2018-05-27T06:24:54Z</time>
      </trkpt>
      <trkpt lat="46.80547" lon="5.68407">
        <ele>545.7</ele>
        <time>2018-05-27T06:25:50Z</time>
      </trkpt>
      <trkpt lat="46.80536" lon="5.68405">
        <ele>545.7</ele>
        <time>2018-05-27T06:25:54Z</time>
      </trkpt>
      <trkpt lat="46.80527" lon="5.68404">
        <ele>545.8</ele>
        <time>2018-05-27T06:25:57Z</time>
      </trkpt>
      <trkpt lat="46.80515" lon="5.68403">
        <ele>546</ele>
        <time>2018-05-27T06:26:01Z</time>
      </trkpt>
      <trkpt lat="46.80504" lon="5.68403">
        <ele>546.2</ele>
        <time>2018-05-27T06:26:05Z</time>
      </trkpt>
      <trkpt lat="46.80492" lon="5.68402">
        <ele>546.7</ele>
        <time>2018-05-27T06:26:20Z</time>
      </trkpt>
      <trkpt lat="46.80483" lon="5.68399">
        <ele>546.9</ele>
        <time>2018-05-27T06:26:23Z</time>
      </trkpt>
      <trkpt lat="46.80474" lon="5.68396">
        <ele>547.1</ele>
        <time>2018-05-27T06:26:27Z</time>
      </trkpt>
      <trkpt lat="46.80464" lon="5.68392">
        <ele>547.4</ele>
        <time>2018-05-27T06:26:31Z</time>
      </trkpt>
      <trkpt lat="46.80454" lon="5.68389">
        <ele>547.8</ele>
        <time>2018-05-27T06:26:35Z</time>
      </trkpt>
      <trkpt lat="46.80443" lon="5.68386">
        <ele>548.2</ele>
        <time>2018-05-27T06:26:39Z</time>
      </trkpt>
      <trkpt lat="46.80433" lon="5.68384">
        <ele>548.6</ele>
        <time>2018-05-27T06:26:43Z</time>
      </trkpt>
      <trkpt lat="46.80423" lon="5.68385">
        <ele>549.1</ele>
        <time>2018-05-27T06:26:46Z</time>
      </trkpt>
      <trkpt lat="46.80413" lon="5.68388">
        <ele>549.7</ele>
        <time>2018-05-27T06:26:50Z</time>
      </trkpt>
      <trkpt lat="46.80403" lon="5.6839">
        <ele>550.1</ele>
        <time>2018-05-27T06:26:53Z</time>
      </trkpt>
      <trkpt lat="46.80395" lon="5.68398">
        <ele>550.7</ele>
        <time>2018-05-27T06:26:57Z</time>
      </trkpt>
      <trkpt lat="46.80386" lon="5.68404">
        <ele>551.3</ele>
        <time>2018-05-27T06:27:01Z</time>
      </trkpt>
      <trkpt lat="46.80376" lon="5.68408">
        <ele>551.8</ele>
        <time>2018-05-27T06:27:04Z</time>
      </trkpt>
      <trkpt lat="46.80365" lon="5.68412">
        <ele>552.3</ele>
        <time>2018-05-27T06:27:08Z</time>
      </trkpt>
      <trkpt lat="46.80355" lon="5.68417">
        <ele>552.9</ele>
        <time>2018-05-27T06:27:13Z</time>
      </trkpt>
      <trkpt lat="46.80347" lon="5.68427">
        <ele>553.5</ele>
        <time>2018-05-27T06:27:19Z</time>
      </trkpt>
      <trkpt lat="46.80347" lon="5.6844">
        <ele>554.2</ele>
        <time>2018-05-27T06:27:26Z</time>
      </trkpt>
      <trkpt lat="46.80353" lon="5.6845">
        <ele>555.6</ele>
        <time>2018-05-27T06:28:49Z</time>
      </trkpt>
      <trkpt lat="46.80343" lon="5.68455">
        <ele>556</ele>
        <time>2018-05-27T06:31:34Z</time>
      </trkpt>
      <trkpt lat="46.80343" lon="5.68442">
        <ele>556</ele>
        <time>2018-05-27T06:31:52Z</time>
      </trkpt>
      <trkpt lat="46.80348" lon="5.68431">
        <ele>556.1</ele>
        <time>2018-05-27T06:32:12Z</time>
      </trkpt>
      <trkpt lat="46.80358" lon="5.68425">
        <ele>555.8</ele>
        <time>2018-05-27T06:33:20Z</time>
      </trkpt>
      <trkpt lat="46.80367" lon="5.68418">
        <ele>555.7</ele>
        <time>2018-05-27T06:33:23Z</time>
      </trkpt>
      <trkpt lat="46.80378" lon="5.68409">
        <ele>555.6</ele>
        <time>2018-05-27T06:33:26Z</time>
      </trkpt>
      <trkpt lat="46.80386" lon="5.68402">
        <ele>555.6</ele>
        <time>2018-05-27T06:33:28Z</time>
      </trkpt>
      <trkpt lat="46.80396" lon="5.68394">
        <ele>555.4</ele>
        <time>2018-05-27T06:33:31Z</time>
      </trkpt>
      <trkpt lat="46.80403" lon="5.68403">
        <ele>554.6</ele>
        <time>2018-05-27T06:33:41Z</time>
      </trkpt>
      <trkpt lat="46.80411" lon="5.6841">
        <ele>554.9</ele>
        <time>2018-05-27T06:33:50Z</time>
      </trkpt>
      <trkpt lat="46.80418" lon="5.68418">
        <ele>555.9</ele>
        <time>2018-05-27T06:33:56Z</time>
      </trkpt>
      <trkpt lat="46.80427" lon="5.68427">
        <ele>557.1</ele>
        <time>2018-05-27T06:34:03Z</time>
      </trkpt>
      <trkpt lat="46.80436" lon="5.6843">
        <ele>558.3</ele>
        <time>2018-05-27T06:34:10Z</time>
      </trkpt>
      <trkpt lat="46.80445" lon="5.68433">
        <ele>558.9</ele>
        <time>2018-05-27T06:34:16Z</time>
      </trkpt>
      <trkpt lat="46.80456" lon="5.68442">
        <ele>559.3</ele>
        <time>2018-05-27T06:34:20Z</time>
      </trkpt>
      <trkpt lat="46.80468" lon="5.6845">
        <ele>559.2</ele>
        <time>2018-05-27T06:34:23Z</time>
      </trkpt>
      <trkpt lat="46.80475" lon="5.68457">
        <ele>559.1</ele>
        <time>2018-05-27T06:34:26Z</time>
      </trkpt>
      <trkpt lat="46.80485" lon="5.68462">
        <ele>558.9</ele>
        <time>2018-05-27T06:34:32Z</time>
      </trkpt>
      <trkpt lat="46.80494" lon="5.68467">
        <ele>558.7</ele>
        <time>2018-05-27T06:34:37Z</time>
      </trkpt>
      <trkpt lat="46.80504" lon="5.68472">
        <ele>558.4</ele>
        <time>2018-05-27T06:34:42Z</time>
      </trkpt>
      <trkpt lat="46.80515" lon="5.68477">
        <ele>558</ele>
        <time>2018-05-27T06:34:47Z</time>
      </trkpt>
      <trkpt lat="46.80524" lon="5.68482">
        <ele>556.9</ele>
        <time>2018-05-27T06:34:52Z</time>
      </trkpt>
      <trkpt lat="46.80533" lon="5.68474">
        <ele>555.4</ele>
        <time>2018-05-27T06:34:59Z</time>
      </trkpt>
      <trkpt lat="46.80543" lon="5.68468">
        <ele>554.7</ele>
        <time>2018-05-27T06:35:03Z</time>
      </trkpt>
      <trkpt lat="46.80553" lon="5.68467">
        <ele>553.7</ele>
        <time>2018-05-27T06:35:08Z</time>
      </trkpt>
      <trkpt lat="46.80562" lon="5.68468">
        <ele>548.5</ele>
        <time>2018-05-27T06:35:26Z</time>
      </trkpt>
      <trkpt lat="46.80568" lon="5.68456">
        <ele>543.8</ele>
        <time>2018-05-27T06:36:21Z</time>
      </trkpt>
      <trkpt lat="46.80577" lon="5.68447">
        <ele>543.8</ele>
        <time>2018-05-27T06:36:24Z</time>
      </trkpt>
      <trkpt lat="46.80584" lon="5.68436">
        <ele>543.7</ele>
        <time>2018-05-27T06:36:28Z</time>
      </trkpt>
      <trkpt lat="46.80593" lon="5.68439">
        <ele>543.6</ele>
        <time>2018-05-27T06:36:35Z</time>
      </trkpt>
      <trkpt lat="46.80603" lon="5.68442">
        <ele>543.3</ele>
        <time>2018-05-27T06:36:40Z</time>
      </trkpt>
      <trkpt lat="46.80614" lon="5.68444">
        <ele>543</ele>
        <time>2018-05-27T06:36:45Z</time>
      </trkpt>
      <trkpt lat="46.80623" lon="5.68448">
        <ele>542.9</ele>
        <time>2018-05-27T06:36:49Z</time>
      </trkpt>
      <trkpt lat="46.80633" lon="5.68453">
        <ele>542.8</ele>
        <time>2018-05-27T06:36:53Z</time>
      </trkpt>
      <trkpt lat="46.80644" lon="5.68457">
        <ele>542.6</ele>
        <time>2018-05-27T06:36:57Z</time>
      </trkpt>
      <trkpt lat="46.80655" lon="5.68462">
        <ele>542.4</ele>
        <time>2018-05-27T06:37:00Z</time>
      </trkpt>
      <trkpt lat="46.80666" lon="5.68468">
        <ele>542.3</ele>
        <time>2018-05-27T06:37:04Z</time>
      </trkpt>
      <trkpt lat="46.80675" lon="5.68473">
        <ele>542</ele>
        <time>2018-05-27T06:37:08Z</time>
      </trkpt>
      <trkpt lat="46.80685" lon="5.68478">
        <ele>541.9</ele>
        <time>2018-05-27T06:37:11Z</time>
      </trkpt>
      <trkpt lat="46.80695" lon="5.68482">
        <ele>541.7</ele>
        <time>2018-05-27T06:37:14Z</time>
      </trkpt>
      <trkpt lat="46.80704" lon="5.68485">
        <ele>541.6</ele>
        <time>2018-05-27T06:37:18Z</time>
      </trkpt>
      <trkpt lat="46.80714" lon="5.68489">
        <ele>541.4</ele>
        <time>2018-05-27T06:37:22Z</time>
      </trkpt>
      <trkpt lat="46.80725" lon="5.68494">
        <ele>541.4</ele>
        <time>2018-05-27T06:37:25Z</time>
      </trkpt>
      <trkpt lat="46.80734" lon="5.685">
        <ele>541.2</ele>
        <time>2018-05-27T06:37:35Z</time>
      </trkpt>
      <trkpt lat="46.80743" lon="5.68502">
        <ele>541.3</ele>
        <time>2018-05-27T06:37:40Z</time>
      </trkpt>
      <trkpt lat="46.80751" lon="5.68494">
        <ele>541.5</ele>
        <time>2018-05-27T06:37:46Z</time>
      </trkpt>
      <trkpt lat="46.8076" lon="5.68486">
        <ele>541.6</ele>
        <time>2018-05-27T06:37:50Z</time>
      </trkpt>
      <trkpt lat="46.80771" lon="5.68486">
        <ele>541.8</ele>
        <time>2018-05-27T06:37:54Z</time>
      </trkpt>
      <trkpt lat="46.80782" lon="5.68488">
        <ele>542.1</ele>
        <time>2018-05-27T06:37:57Z</time>
      </trkpt>
      <trkpt lat="46.80792" lon="5.68496">
        <ele>542.5</ele>
        <time>2018-05-27T06:38:01Z</time>
      </trkpt>
      <trkpt lat="46.80799" lon="5.68504">
        <ele>542.8</ele>
        <time>2018-05-27T06:38:04Z</time>
      </trkpt>
      <trkpt lat="46.80807" lon="5.68515">
        <ele>543.1</ele>
        <time>2018-05-27T06:38:07Z</time>
      </trkpt>
      <trkpt lat="46.80814" lon="5.68524">
        <ele>543.3</ele>
        <time>2018-05-27T06:38:10Z</time>
      </trkpt>
      <trkpt lat="46.80821" lon="5.68534">
        <ele>543.6</ele>
        <time>2018-05-27T06:38:13Z</time>
      </trkpt>
      <trkpt lat="46.80829" lon="5.6854">
        <ele>543.9</ele>
        <time>2018-05-27T06:38:16Z</time>
      </trkpt>
      <trkpt lat="46.8084" lon="5.68549">
        <ele>544.3</ele>
        <time>2018-05-27T06:38:20Z</time>
      </trkpt>
      <trkpt lat="46.80849" lon="5.68557">
        <ele>544.5</ele>
        <time>2018-05-27T06:38:23Z</time>
      </trkpt>
      <trkpt lat="46.80858" lon="5.68566">
        <ele>544.7</ele>
        <time>2018-05-27T06:38:26Z</time>
      </trkpt>
      <trkpt lat="46.80869" lon="5.68575">
        <ele>544.9</ele>
        <time>2018-05-27T06:38:29Z</time>
      </trkpt>
      <trkpt lat="46.80878" lon="5.6858">
        <ele>545.1</ele>
        <time>2018-05-27T06:38:32Z</time>
      </trkpt>
      <trkpt lat="46.80887" lon="5.68582">
        <ele>545.2</ele>
        <time>2018-05-27T06:38:35Z</time>
      </trkpt>
      <trkpt lat="46.80897" lon="5.68581">
        <ele>545.4</ele>
        <time>2018-05-27T06:38:38Z</time>
      </trkpt>
      <trkpt lat="46.80909" lon="5.68584">
        <ele>545.5</ele>
        <time>2018-05-27T06:38:41Z</time>
      </trkpt>
      <trkpt lat="46.8092" lon="5.68588">
        <ele>545.6</ele>
        <time>2018-05-27T06:38:43Z</time>
      </trkpt>
      <trkpt lat="46.80929" lon="5.68592">
        <ele>545.6</ele>
        <time>2018-05-27T06:38:45Z</time>
      </trkpt>
      <trkpt lat="46.80941" lon="5.68601">
        <ele>545.6</ele>
        <time>2018-05-27T06:38:48Z</time>
      </trkpt>
      <trkpt lat="46.80951" lon="5.68611">
        <ele>545.6</ele>
        <time>2018-05-27T06:38:51Z</time>
      </trkpt>
      <trkpt lat="46.8096" lon="5.6862">
        <ele>545.6</ele>
        <time>2018-05-27T06:38:54Z</time>
      </trkpt>
      <trkpt lat="46.80969" lon="5.68627">
        <ele>545.6</ele>
        <time>2018-05-27T06:38:57Z</time>
      </trkpt>
      <trkpt lat="46.80975" lon="5.68637">
        <ele>545.6</ele>
        <time>2018-05-27T06:38:59Z</time>
      </trkpt>
      <trkpt lat="46.80983" lon="5.68645">
        <ele>545.6</ele>
        <time>2018-05-27T06:39:01Z</time>
      </trkpt>
      <trkpt lat="46.80991" lon="5.68653">
        <ele>545.6</ele>
        <time>2018-05-27T06:39:03Z</time>
      </trkpt>
      <trkpt lat="46.80999" lon="5.68663">
        <ele>545.6</ele>
        <time>2018-05-27T06:39:05Z</time>
      </trkpt>
      <trkpt lat="46.81007" lon="5.6867">
        <ele>545.6</ele>
        <time>2018-05-27T06:39:07Z</time>
      </trkpt>
      <trkpt lat="46.81018" lon="5.68678">
        <ele>545.5</ele>
        <time>2018-05-27T06:39:10Z</time>
      </trkpt>
      <trkpt lat="46.81028" lon="5.68687">
        <ele>545.5</ele>
        <time>2018-05-27T06:39:13Z</time>
      </trkpt>
      <trkpt lat="46.81039" lon="5.68696">
        <ele>545.4</ele>
        <time>2018-05-27T06:39:16Z</time>
      </trkpt>
      <trkpt lat="46.81048" lon="5.68702">
        <ele>545.3</ele>
        <time>2018-05-27T06:39:18Z</time>
      </trkpt>
      <trkpt lat="46.81058" lon="5.68709">
        <ele>545.1</ele>
        <time>2018-05-27T06:39:20Z</time>
      </trkpt>
      <trkpt lat="46.81067" lon="5.68715">
        <ele>545.1</ele>
        <time>2018-05-27T06:39:22Z</time>
      </trkpt>
      <trkpt lat="46.81078" lon="5.68723">
        <ele>545</ele>
        <time>2018-05-27T06:39:24Z</time>
      </trkpt>
      <trkpt lat="46.81087" lon="5.68729">
        <ele>544.9</ele>
        <time>2018-05-27T06:39:26Z</time>
      </trkpt>
      <trkpt lat="46.811" lon="5.68737">
        <ele>544.8</ele>
        <time>2018-05-27T06:39:28Z</time>
      </trkpt>
      <trkpt lat="46.8111" lon="5.68747">
        <ele>544.7</ele>
        <time>2018-05-27T06:39:30Z</time>
      </trkpt>
      <trkpt lat="46.81118" lon="5.6876">
        <ele>544.6</ele>
        <time>2018-05-27T06:39:33Z</time>
      </trkpt>
      <trkpt lat="46.81124" lon="5.6877">
        <ele>544.5</ele>
        <time>2018-05-27T06:39:36Z</time>
      </trkpt>
      <trkpt lat="46.81134" lon="5.6878">
        <ele>544.4</ele>
        <time>2018-05-27T06:39:39Z</time>
      </trkpt>
      <trkpt lat="46.81144" lon="5.68787">
        <ele>544.3</ele>
        <time>2018-05-27T06:39:41Z</time>
      </trkpt>
      <trkpt lat="46.81154" lon="5.68794">
        <ele>544.2</ele>
        <time>2018-05-27T06:39:43Z</time>
      </trkpt>
      <trkpt lat="46.81164" lon="5.688">
        <ele>544.1</ele>
        <time>2018-05-27T06:39:45Z</time>
      </trkpt>
      <trkpt lat="46.81175" lon="5.68807">
        <ele>544</ele>
        <time>2018-05-27T06:39:47Z</time>
      </trkpt>
      <trkpt lat="46.81184" lon="5.68816">
        <ele>543.9</ele>
        <time>2018-05-27T06:39:49Z</time>
      </trkpt>
      <trkpt lat="46.81192" lon="5.68827">
        <ele>543.8</ele>
        <time>2018-05-27T06:39:51Z</time>
      </trkpt>
      <trkpt lat="46.81198" lon="5.68837">
        <ele>543.7</ele>
        <time>2018-05-27T06:39:53Z</time>
      </trkpt>
      <trkpt lat="46.81203" lon="5.6885">
        <ele>543.6</ele>
        <time>2018-05-27T06:39:55Z</time>
      </trkpt>
      <trkpt lat="46.81208" lon="5.68864">
        <ele>543.6</ele>
        <time>2018-05-27T06:39:57Z</time>
      </trkpt>
      <trkpt lat="46.81213" lon="5.68881">
        <ele>543.5</ele>
        <time>2018-05-27T06:39:59Z</time>
      </trkpt>
      <trkpt lat="46.81218" lon="5.68898">
        <ele>543.4</ele>
        <time>2018-05-27T06:40:01Z</time>
      </trkpt>
      <trkpt lat="46.81222" lon="5.68914">
        <ele>543.2</ele>
        <time>2018-05-27T06:40:03Z</time>
      </trkpt>
      <trkpt lat="46.81227" lon="5.68931">
        <ele>543.1</ele>
        <time>2018-05-27T06:40:05Z</time>
      </trkpt>
      <trkpt lat="46.81233" lon="5.68947">
        <ele>542.9</ele>
        <time>2018-05-27T06:40:07Z</time>
      </trkpt>
      <trkpt lat="46.81238" lon="5.68963">
        <ele>542.8</ele>
        <time>2018-05-27T06:40:09Z</time>
      </trkpt>
      <trkpt lat="46.81242" lon="5.6898">
        <ele>542.6</ele>
        <time>2018-05-27T06:40:11Z</time>
      </trkpt>
      <trkpt lat="46.81245" lon="5.68997">
        <ele>542.4</ele>
        <time>2018-05-27T06:40:13Z</time>
      </trkpt>
      <trkpt lat="46.81248" lon="5.69014">
        <ele>542.2</ele>
        <time>2018-05-27T06:40:15Z</time>
      </trkpt>
      <trkpt lat="46.81249" lon="5.69032">
        <ele>542</ele>
        <time>2018-05-27T06:40:17Z</time>
      </trkpt>
      <trkpt lat="46.81249" lon="5.69048">
        <ele>541.9</ele>
        <time>2018-05-27T06:40:19Z</time>
      </trkpt>
      <trkpt lat="46.81247" lon="5.69065">
        <ele>541.7</ele>
        <time>2018-05-27T06:40:21Z</time>
      </trkpt>
      <trkpt lat="46.81243" lon="5.69081">
        <ele>541.5</ele>
        <time>2018-05-27T06:40:23Z</time>
      </trkpt>
      <trkpt lat="46.81239" lon="5.69097">
        <ele>541.3</ele>
        <time>2018-05-27T06:40:25Z</time>
      </trkpt>
      <trkpt lat="46.81236" lon="5.69111">
        <ele>541.2</ele>
        <time>2018-05-27T06:40:27Z</time>
      </trkpt>
      <trkpt lat="46.81232" lon="5.69124">
        <ele>541</ele>
        <time>2018-05-27T06:40:29Z</time>
      </trkpt>
      <trkpt lat="46.81229" lon="5.69143">
        <ele>540.9</ele>
        <time>2018-05-27T06:40:32Z</time>
      </trkpt>
      <trkpt lat="46.81226" lon="5.69156">
        <ele>540.7</ele>
        <time>2018-05-27T06:40:35Z</time>
      </trkpt>
      <trkpt lat="46.81221" lon="5.69169">
        <ele>540.7</ele>
        <time>2018-05-27T06:40:40Z</time>
      </trkpt>
      <trkpt lat="46.81218" lon="5.69182">
        <ele>541.2</ele>
        <time>2018-05-27T06:40:46Z</time>
      </trkpt>
      <trkpt lat="46.81215" lon="5.69196">
        <ele>541.8</ele>
        <time>2018-05-27T06:40:52Z</time>
      </trkpt>
      <trkpt lat="46.81211" lon="5.69208">
        <ele>542.7</ele>
        <time>2018-05-27T06:40:58Z</time>
      </trkpt>
      <trkpt lat="46.81205" lon="5.69218">
        <ele>543.5</ele>
        <time>2018-05-27T06:41:03Z</time>
      </trkpt>
      <trkpt lat="46.81201" lon="5.69231">
        <ele>544.6</ele>
        <time>2018-05-27T06:41:09Z</time>
      </trkpt>
      <trkpt lat="46.81197" lon="5.69243">
        <ele>545.8</ele>
        <time>2018-05-27T06:41:15Z</time>
      </trkpt>
      <trkpt lat="46.81192" lon="5.69256">
        <ele>547</ele>
        <time>2018-05-27T06:41:21Z</time>
      </trkpt>
      <trkpt lat="46.81186" lon="5.69267">
        <ele>548</ele>
        <time>2018-05-27T06:41:26Z</time>
      </trkpt>
      <trkpt lat="46.81179" lon="5.69276">
        <ele>549</ele>
        <time>2018-05-27T06:41:31Z</time>
      </trkpt>
      <trkpt lat="46.8117" lon="5.69284">
        <ele>549.7</ele>
        <time>2018-05-27T06:41:35Z</time>
      </trkpt>
      <trkpt lat="46.81161" lon="5.69287">
        <ele>550.7</ele>
        <time>2018-05-27T06:41:40Z</time>
      </trkpt>
      <trkpt lat="46.81151" lon="5.69288">
        <ele>551.5</ele>
        <time>2018-05-27T06:41:45Z</time>
      </trkpt>
      <trkpt lat="46.81141" lon="5.69289">
        <ele>552.3</ele>
        <time>2018-05-27T06:41:50Z</time>
      </trkpt>
      <trkpt lat="46.81131" lon="5.69289">
        <ele>553.1</ele>
        <time>2018-05-27T06:41:55Z</time>
      </trkpt>
      <trkpt lat="46.81121" lon="5.69289">
        <ele>554.2</ele>
        <time>2018-05-27T06:42:01Z</time>
      </trkpt>
      <trkpt lat="46.81111" lon="5.6929">
        <ele>555</ele>
        <time>2018-05-27T06:42:06Z</time>
      </trkpt>
      <trkpt lat="46.81101" lon="5.6929">
        <ele>555.9</ele>
        <time>2018-05-27T06:42:12Z</time>
      </trkpt>
      <trkpt lat="46.81091" lon="5.69292">
        <ele>557</ele>
        <time>2018-05-27T06:42:18Z</time>
      </trkpt>
      <trkpt lat="46.81081" lon="5.69297">
        <ele>558.5</ele>
        <time>2018-05-27T06:42:26Z</time>
      </trkpt>
      <trkpt lat="46.81071" lon="5.693">
        <ele>560.5</ele>
        <time>2018-05-27T06:42:37Z</time>
      </trkpt>
      <trkpt lat="46.81062" lon="5.69301">
        <ele>562.4</ele>
        <time>2018-05-27T06:42:47Z</time>
      </trkpt>
      <trkpt lat="46.81053" lon="5.69304">
        <ele>564.1</ele>
        <time>2018-05-27T06:42:56Z</time>
      </trkpt>
      <trkpt lat="46.81043" lon="5.69306">
        <ele>565.5</ele>
        <time>2018-05-27T06:43:04Z</time>
      </trkpt>
      <trkpt lat="46.81033" lon="5.69311">
        <ele>566.4</ele>
        <time>2018-05-27T06:43:09Z</time>
      </trkpt>
      <trkpt lat="46.81024" lon="5.69311">
        <ele>567.5</ele>
        <time>2018-05-27T06:43:16Z</time>
      </trkpt>
      <trkpt lat="46.81015" lon="5.6931">
        <ele>568.4</ele>
        <time>2018-05-27T06:43:21Z</time>
      </trkpt>
      <trkpt lat="46.81005" lon="5.6931">
        <ele>569</ele>
        <time>2018-05-27T06:43:25Z</time>
      </trkpt>
      <trkpt lat="46.80996" lon="5.69311">
        <ele>569.9</ele>
        <time>2018-05-27T06:43:30Z</time>
      </trkpt>
      <trkpt lat="46.80985" lon="5.6931">
        <ele>570.8</ele>
        <time>2018-05-27T06:43:36Z</time>
      </trkpt>
      <trkpt lat="46.80975" lon="5.69308">
        <ele>571.5</ele>
        <time>2018-05-27T06:43:41Z</time>
      </trkpt>
      <trkpt lat="46.80966" lon="5.69312">
        <ele>572.6</ele>
        <time>2018-05-27T06:43:49Z</time>
      </trkpt>
      <trkpt lat="46.80957" lon="5.69321">
        <ele>573.7</ele>
        <time>2018-05-27T06:43:57Z</time>
      </trkpt>
      <trkpt lat="46.80953" lon="5.69335">
        <ele>574.3</ele>
        <time>2018-05-27T06:44:02Z</time>
      </trkpt>
      <trkpt lat="46.80945" lon="5.69347">
        <ele>574.8</ele>
        <time>2018-05-27T06:44:06Z</time>
      </trkpt>
      <trkpt lat="46.80938" lon="5.6936">
        <ele>575.2</ele>
        <time>2018-05-27T06:44:09Z</time>
      </trkpt>
      <trkpt lat="46.80932" lon="5.6937">
        <ele>575.5</ele>
        <time>2018-05-27T06:44:12Z</time>
      </trkpt>
      <trkpt lat="46.80923" lon="5.69381">
        <ele>575.7</ele>
        <time>2018-05-27T06:44:15Z</time>
      </trkpt>
      <trkpt lat="46.80913" lon="5.69393">
        <ele>575.9</ele>
        <time>2018-05-27T06:44:18Z</time>
      </trkpt>
      <trkpt lat="46.80906" lon="5.69403">
        <ele>576.1</ele>
        <time>2018-05-27T06:44:20Z</time>
      </trkpt>
      <trkpt lat="46.80898" lon="5.69413">
        <ele>576.2</ele>
        <time>2018-05-27T06:44:22Z</time>
      </trkpt>
      <trkpt lat="46.80889" lon="5.69425">
        <ele>576.2</ele>
        <time>2018-05-27T06:44:24Z</time>
      </trkpt>
      <trkpt lat="46.8088" lon="5.69436">
        <ele>576.2</ele>
        <time>2018-05-27T06:44:26Z</time>
      </trkpt>
      <trkpt lat="46.80872" lon="5.69447">
        <ele>576.1</ele>
        <time>2018-05-27T06:44:28Z</time>
      </trkpt>
      <trkpt lat="46.80863" lon="5.6946">
        <ele>575.8</ele>
        <time>2018-05-27T06:44:31Z</time>
      </trkpt>
      <trkpt lat="46.80867" lon="5.69475">
        <ele>575.3</ele>
        <time>2018-05-27T06:44:35Z</time>
      </trkpt>
      <trkpt lat="46.80875" lon="5.69481">
        <ele>575</ele>
        <time>2018-05-27T06:44:38Z</time>
      </trkpt>
      <trkpt lat="46.80883" lon="5.69489">
        <ele>574.7</ele>
        <time>2018-05-27T06:44:41Z</time>
      </trkpt>
      <trkpt lat="46.8089" lon="5.69496">
        <ele>574.5</ele>
        <time>2018-05-27T06:44:44Z</time>
      </trkpt>
      <trkpt lat="46.80899" lon="5.69505">
        <ele>574.3</ele>
        <time>2018-05-27T06:44:48Z</time>
      </trkpt>
      <trkpt lat="46.80907" lon="5.69516">
        <ele>574.2</ele>
        <time>2018-05-27T06:44:52Z</time>
      </trkpt>
      <trkpt lat="46.80916" lon="5.69524">
        <ele>574.2</ele>
        <time>2018-05-27T06:44:56Z</time>
      </trkpt>
      <trkpt lat="46.80925" lon="5.69533">
        <ele>574.2</ele>
        <time>2018-05-27T06:45:00Z</time>
      </trkpt>
      <trkpt lat="46.80932" lon="5.69542">
        <ele>574.4</ele>
        <time>2018-05-27T06:45:04Z</time>
      </trkpt>
      <trkpt lat="46.80939" lon="5.6955">
        <ele>574.5</ele>
        <time>2018-05-27T06:45:07Z</time>
      </trkpt>
      <trkpt lat="46.80944" lon="5.69562">
        <ele>574.7</ele>
        <time>2018-05-27T06:45:10Z</time>
      </trkpt>
      <trkpt lat="46.80942" lon="5.69576">
        <ele>574.8</ele>
        <time>2018-05-27T06:45:14Z</time>
      </trkpt>
      <trkpt lat="46.80939" lon="5.69589">
        <ele>574.9</ele>
        <time>2018-05-27T06:45:17Z</time>
      </trkpt>
      <trkpt lat="46.80934" lon="5.69604">
        <ele>574.8</ele>
        <time>2018-05-27T06:45:20Z</time>
      </trkpt>
      <trkpt lat="46.8093" lon="5.69616">
        <ele>574.6</ele>
        <time>2018-05-27T06:45:22Z</time>
      </trkpt>
      <trkpt lat="46.80927" lon="5.6963">
        <ele>574.3</ele>
        <time>2018-05-27T06:45:24Z</time>
      </trkpt>
      <trkpt lat="46.80924" lon="5.69644">
        <ele>574</ele>
        <time>2018-05-27T06:45:26Z</time>
      </trkpt>
      <trkpt lat="46.80922" lon="5.69659">
        <ele>573.5</ele>
        <time>2018-05-27T06:45:28Z</time>
      </trkpt>
      <trkpt lat="46.80921" lon="5.69674">
        <ele>573.1</ele>
        <time>2018-05-27T06:45:30Z</time>
      </trkpt>
      <trkpt lat="46.80923" lon="5.69688">
        <ele>572.7</ele>
        <time>2018-05-27T06:45:32Z</time>
      </trkpt>
      <trkpt lat="46.80928" lon="5.69702">
        <ele>572.2</ele>
        <time>2018-05-27T06:45:35Z</time>
      </trkpt>
      <trkpt lat="46.80936" lon="5.69712">
        <ele>571.4</ele>
        <time>2018-05-27T06:45:39Z</time>
      </trkpt>
      <trkpt lat="46.80943" lon="5.69719">
        <ele>571</ele>
        <time>2018-05-27T06:45:42Z</time>
      </trkpt>
      <trkpt lat="46.80952" lon="5.6973">
        <ele>570.5</ele>
        <time>2018-05-27T06:45:46Z</time>
      </trkpt>
      <trkpt lat="46.8096" lon="5.69741">
        <ele>570.2</ele>
        <time>2018-05-27T06:45:50Z</time>
      </trkpt>
      <trkpt lat="46.80968" lon="5.69753">
        <ele>570</ele>
        <time>2018-05-27T06:45:54Z</time>
      </trkpt>
      <trkpt lat="46.80976" lon="5.69765">
        <ele>569.9</ele>
        <time>2018-05-27T06:45:58Z</time>
      </trkpt>
      <trkpt lat="46.80983" lon="5.69776">
        <ele>569.9</ele>
        <time>2018-05-27T06:46:01Z</time>
      </trkpt>
      <trkpt lat="46.8099" lon="5.69786">
        <ele>569.8</ele>
        <time>2018-05-27T06:46:04Z</time>
      </trkpt>
      <trkpt lat="46.80999" lon="5.69797">
        <ele>569.8</ele>
        <time>2018-05-27T06:46:07Z</time>
      </trkpt>
      <trkpt lat="46.81006" lon="5.69807">
        <ele>569.7</ele>
        <time>2018-05-27T06:46:10Z</time>
      </trkpt>
      <trkpt lat="46.81014" lon="5.69819">
        <ele>569.5</ele>
        <time>2018-05-27T06:46:13Z</time>
      </trkpt>
      <trkpt lat="46.81023" lon="5.69832">
        <ele>569.3</ele>
        <time>2018-05-27T06:46:16Z</time>
      </trkpt>
      <trkpt lat="46.8103" lon="5.69841">
        <ele>569.2</ele>
        <time>2018-05-27T06:46:18Z</time>
      </trkpt>
      <trkpt lat="46.81037" lon="5.69852">
        <ele>569</ele>
        <time>2018-05-27T06:46:20Z</time>
      </trkpt>
      <trkpt lat="46.81044" lon="5.69863">
        <ele>568.8</ele>
        <time>2018-05-27T06:46:22Z</time>
      </trkpt>
      <trkpt lat="46.81051" lon="5.69874">
        <ele>568.6</ele>
        <time>2018-05-27T06:46:24Z</time>
      </trkpt>
      <trkpt lat="46.81058" lon="5.69885">
        <ele>568.3</ele>
        <time>2018-05-27T06:46:26Z</time>
      </trkpt>
      <trkpt lat="46.81065" lon="5.69896">
        <ele>568</ele>
        <time>2018-05-27T06:46:28Z</time>
      </trkpt>
      <trkpt lat="46.81071" lon="5.69906">
        <ele>567.8</ele>
        <time>2018-05-27T06:46:30Z</time>
      </trkpt>
      <trkpt lat="46.81081" lon="5.69919">
        <ele>567.5</ele>
        <time>2018-05-27T06:46:33Z</time>
      </trkpt>
      <trkpt lat="46.8109" lon="5.69928">
        <ele>567.3</ele>
        <time>2018-05-27T06:46:36Z</time>
      </trkpt>
      <trkpt lat="46.81099" lon="5.69936">
        <ele>567.2</ele>
        <time>2018-05-27T06:46:39Z</time>
      </trkpt>
      <trkpt lat="46.81109" lon="5.69944">
        <ele>567.3</ele>
        <time>2018-05-27T06:46:42Z</time>
      </trkpt>
      <trkpt lat="46.81118" lon="5.69952">
        <ele>567.4</ele>
        <time>2018-05-27T06:46:45Z</time>
      </trkpt>
      <trkpt lat="46.81128" lon="5.6996">
        <ele>567.5</ele>
        <time>2018-05-27T06:46:48Z</time>
      </trkpt>
      <trkpt lat="46.81138" lon="5.69969">
        <ele>567.6</ele>
        <time>2018-05-27T06:46:51Z</time>
      </trkpt>
      <trkpt lat="46.81148" lon="5.69978">
        <ele>567.6</ele>
        <time>2018-05-27T06:46:54Z</time>
      </trkpt>
      <trkpt lat="46.81159" lon="5.69988">
        <ele>567.7</ele>
        <time>2018-05-27T06:46:57Z</time>
      </trkpt>
      <trkpt lat="46.81167" lon="5.69996">
        <ele>567.7</ele>
        <time>2018-05-27T06:46:59Z</time>
      </trkpt>
      <trkpt lat="46.81174" lon="5.70004">
        <ele>567.8</ele>
        <time>2018-05-27T06:47:01Z</time>
      </trkpt>
      <trkpt lat="46.81184" lon="5.70011">
        <ele>567.8</ele>
        <time>2018-05-27T06:47:03Z</time>
      </trkpt>
      <trkpt lat="46.81193" lon="5.70018">
        <ele>567.8</ele>
        <time>2018-05-27T06:47:05Z</time>
      </trkpt>
      <trkpt lat="46.81203" lon="5.70026">
        <ele>567.8</ele>
        <time>2018-05-27T06:47:07Z</time>
      </trkpt>
      <trkpt lat="46.81212" lon="5.70034">
        <ele>567.9</ele>
        <time>2018-05-27T06:47:09Z</time>
      </trkpt>
      <trkpt lat="46.81222" lon="5.70043">
        <ele>567.8</ele>
        <time>2018-05-27T06:47:11Z</time>
      </trkpt>
      <trkpt lat="46.81233" lon="5.70053">
        <ele>567.7</ele>
        <time>2018-05-27T06:47:13Z</time>
      </trkpt>
      <trkpt lat="46.81245" lon="5.70063">
        <ele>567.5</ele>
        <time>2018-05-27T06:47:15Z</time>
      </trkpt>
      <trkpt lat="46.8126" lon="5.70075">
        <ele>567.2</ele>
        <time>2018-05-27T06:47:17Z</time>
      </trkpt>
      <trkpt lat="46.81273" lon="5.70087">
        <ele>566.9</ele>
        <time>2018-05-27T06:47:19Z</time>
      </trkpt>
      <trkpt lat="46.81284" lon="5.70096">
        <ele>566.6</ele>
        <time>2018-05-27T06:47:21Z</time>
      </trkpt>
      <trkpt lat="46.81296" lon="5.70107">
        <ele>566.3</ele>
        <time>2018-05-27T06:47:23Z</time>
      </trkpt>
      <trkpt lat="46.81308" lon="5.70117">
        <ele>566</ele>
        <time>2018-05-27T06:47:25Z</time>
      </trkpt>
      <trkpt lat="46.8132" lon="5.70127">
        <ele>565.7</ele>
        <time>2018-05-27T06:47:27Z</time>
      </trkpt>
      <trkpt lat="46.81331" lon="5.70137">
        <ele>565.5</ele>
        <time>2018-05-27T06:47:29Z</time>
      </trkpt>
      <trkpt lat="46.81341" lon="5.7015">
        <ele>565.2</ele>
        <time>2018-05-27T06:47:31Z</time>
      </trkpt>
      <trkpt lat="46.8135" lon="5.70166">
        <ele>565</ele>
        <time>2018-05-27T06:47:33Z</time>
      </trkpt>
      <trkpt lat="46.81361" lon="5.70182">
        <ele>564.7</ele>
        <time>2018-05-27T06:47:35Z</time>
      </trkpt>
      <trkpt lat="46.81374" lon="5.70197">
        <ele>564.2</ele>
        <time>2018-05-27T06:47:37Z</time>
      </trkpt>
      <trkpt lat="46.81389" lon="5.70211">
        <ele>563.8</ele>
        <time>2018-05-27T06:47:39Z</time>
      </trkpt>
      <trkpt lat="46.81396" lon="5.70219">
        <ele>563.4</ele>
        <time>2018-05-27T06:47:40Z</time>
      </trkpt>
      <trkpt lat="46.81404" lon="5.70227">
        <ele>563.1</ele>
        <time>2018-05-27T06:47:41Z</time>
      </trkpt>
      <trkpt lat="46.81412" lon="5.70235">
        <ele>562.8</ele>
        <time>2018-05-27T06:47:42Z</time>
      </trkpt>
      <trkpt lat="46.8142" lon="5.70243">
        <ele>562.4</ele>
        <time>2018-05-27T06:47:43Z</time>
      </trkpt>
      <trkpt lat="46.81429" lon="5.70252">
        <ele>562</ele>
        <time>2018-05-27T06:47:44Z</time>
      </trkpt>
      <trkpt lat="46.81437" lon="5.70263">
        <ele>561.6</ele>
        <time>2018-05-27T06:47:45Z</time>
      </trkpt>
      <trkpt lat="46.81443" lon="5.70275">
        <ele>561.2</ele>
        <time>2018-05-27T06:47:46Z</time>
      </trkpt>
      <trkpt lat="46.8145" lon="5.70287">
        <ele>560.8</ele>
        <time>2018-05-27T06:47:47Z</time>
      </trkpt>
      <trkpt lat="46.81456" lon="5.70296">
        <ele>560.4</ele>
        <time>2018-05-27T06:47:48Z</time>
      </trkpt>
      <trkpt lat="46.81464" lon="5.70304">
        <ele>560</ele>
        <time>2018-05-27T06:47:49Z</time>
      </trkpt>
      <trkpt lat="46.8148" lon="5.70312">
        <ele>559.3</ele>
        <time>2018-05-27T06:47:51Z</time>
      </trkpt>
      <trkpt lat="46.81497" lon="5.70313">
        <ele>558.6</ele>
        <time>2018-05-27T06:47:53Z</time>
      </trkpt>
      <trkpt lat="46.81513" lon="5.70316">
        <ele>558</ele>
        <time>2018-05-27T06:47:55Z</time>
      </trkpt>
      <trkpt lat="46.81529" lon="5.70321">
        <ele>557.5</ele>
        <time>2018-05-27T06:47:57Z</time>
      </trkpt>
      <trkpt lat="46.81543" lon="5.70327">
        <ele>557</ele>
        <time>2018-05-27T06:47:59Z</time>
      </trkpt>
      <trkpt lat="46.81555" lon="5.70336">
        <ele>556.6</ele>
        <time>2018-05-27T06:48:01Z</time>
      </trkpt>
      <trkpt lat="46.81566" lon="5.70343">
        <ele>556.2</ele>
        <time>2018-05-27T06:48:03Z</time>
      </trkpt>
      <trkpt lat="46.81577" lon="5.7035">
        <ele>555.9</ele>
        <time>2018-05-27T06:48:05Z</time>
      </trkpt>
      <trkpt lat="46.81587" lon="5.70357">
        <ele>555.6</ele>
        <time>2018-05-27T06:48:07Z</time>
      </trkpt>
      <trkpt lat="46.81597" lon="5.70366">
        <ele>555.4</ele>
        <time>2018-05-27T06:48:09Z</time>
      </trkpt>
      <trkpt lat="46.81607" lon="5.70377">
        <ele>555.2</ele>
        <time>2018-05-27T06:48:11Z</time>
      </trkpt>
      <trkpt lat="46.81618" lon="5.70389">
        <ele>555</ele>
        <time>2018-05-27T06:48:13Z</time>
      </trkpt>
      <trkpt lat="46.8163" lon="5.70401">
        <ele>554.7</ele>
        <time>2018-05-27T06:48:15Z</time>
      </trkpt>
      <trkpt lat="46.81643" lon="5.70414">
        <ele>554.4</ele>
        <time>2018-05-27T06:48:17Z</time>
      </trkpt>
      <trkpt lat="46.81657" lon="5.70422">
        <ele>554</ele>
        <time>2018-05-27T06:48:19Z</time>
      </trkpt>
      <trkpt lat="46.81674" lon="5.70423">
        <ele>553.5</ele>
        <time>2018-05-27T06:48:21Z</time>
      </trkpt>
      <trkpt lat="46.81691" lon="5.7042">
        <ele>553</ele>
        <time>2018-05-27T06:48:23Z</time>
      </trkpt>
      <trkpt lat="46.817" lon="5.70419">
        <ele>552.7</ele>
        <time>2018-05-27T06:48:24Z</time>
      </trkpt>
      <trkpt lat="46.81717" lon="5.70418">
        <ele>552.1</ele>
        <time>2018-05-27T06:48:26Z</time>
      </trkpt>
      <trkpt lat="46.81733" lon="5.70421">
        <ele>551.6</ele>
        <time>2018-05-27T06:48:28Z</time>
      </trkpt>
      <trkpt lat="46.81747" lon="5.70429">
        <ele>551.1</ele>
        <time>2018-05-27T06:48:30Z</time>
      </trkpt>
      <trkpt lat="46.8176" lon="5.70443">
        <ele>550.6</ele>
        <time>2018-05-27T06:48:32Z</time>
      </trkpt>
      <trkpt lat="46.81772" lon="5.70458">
        <ele>550.2</ele>
        <time>2018-05-27T06:48:34Z</time>
      </trkpt>
      <trkpt lat="46.81784" lon="5.70474">
        <ele>549.8</ele>
        <time>2018-05-27T06:48:36Z</time>
      </trkpt>
      <trkpt lat="46.81794" lon="5.70489">
        <ele>549.4</ele>
        <time>2018-05-27T06:48:38Z</time>
      </trkpt>
      <trkpt lat="46.81805" lon="5.70504">
        <ele>549.1</ele>
        <time>2018-05-27T06:48:40Z</time>
      </trkpt>
      <trkpt lat="46.81814" lon="5.70517">
        <ele>548.8</ele>
        <time>2018-05-27T06:48:42Z</time>
      </trkpt>
      <trkpt lat="46.81821" lon="5.70531">
        <ele>548.6</ele>
        <time>2018-05-27T06:48:44Z</time>
      </trkpt>
      <trkpt lat="46.81828" lon="5.70545">
        <ele>548.4</ele>
        <time>2018-05-27T06:48:46Z</time>
      </trkpt>
      <trkpt lat="46.81835" lon="5.70557">
        <ele>548.2</ele>
        <time>2018-05-27T06:48:48Z</time>
      </trkpt>
      <trkpt lat="46.81842" lon="5.7057">
        <ele>548</ele>
        <time>2018-05-27T06:48:50Z</time>
      </trkpt>
      <trkpt lat="46.81848" lon="5.70583">
        <ele>547.9</ele>
        <time>2018-05-27T06:48:52Z</time>
      </trkpt>
      <trkpt lat="46.81855" lon="5.70595">
        <ele>547.8</ele>
        <time>2018-05-27T06:48:54Z</time>
      </trkpt>
      <trkpt lat="46.81861" lon="5.70608">
        <ele>547.7</ele>
        <time>2018-05-27T06:48:56Z</time>
      </trkpt>
      <trkpt lat="46.81866" lon="5.70621">
        <ele>547.7</ele>
        <time>2018-05-27T06:48:58Z</time>
      </trkpt>
      <trkpt lat="46.8187" lon="5.70635">
        <ele>547.7</ele>
        <time>2018-05-27T06:49:00Z</time>
      </trkpt>
      <trkpt lat="46.81873" lon="5.70649">
        <ele>547.8</ele>
        <time>2018-05-27T06:49:02Z</time>
      </trkpt>
      <trkpt lat="46.81875" lon="5.70664">
        <ele>547.8</ele>
        <time>2018-05-27T06:49:04Z</time>
      </trkpt>
      <trkpt lat="46.81876" lon="5.70679">
        <ele>547.9</ele>
        <time>2018-05-27T06:49:06Z</time>
      </trkpt>
      <trkpt lat="46.81876" lon="5.70695">
        <ele>547.9</ele>
        <time>2018-05-27T06:49:08Z</time>
      </trkpt>
      <trkpt lat="46.81877" lon="5.7071">
        <ele>548</ele>
        <time>2018-05-27T06:49:10Z</time>
      </trkpt>
      <trkpt lat="46.81878" lon="5.70725">
        <ele>548.1</ele>
        <time>2018-05-27T06:49:12Z</time>
      </trkpt>
      <trkpt lat="46.81879" lon="5.7074">
        <ele>548.1</ele>
        <time>2018-05-27T06:49:14Z</time>
      </trkpt>
      <trkpt lat="46.81881" lon="5.70755">
        <ele>548.2</ele>
        <time>2018-05-27T06:49:16Z</time>
      </trkpt>
      <trkpt lat="46.81883" lon="5.7077">
        <ele>548.3</ele>
        <time>2018-05-27T06:49:18Z</time>
      </trkpt>
      <trkpt lat="46.81884" lon="5.70785">
        <ele>548.3</ele>
        <time>2018-05-27T06:49:20Z</time>
      </trkpt>
      <trkpt lat="46.81886" lon="5.708">
        <ele>548.4</ele>
        <time>2018-05-27T06:49:22Z</time>
      </trkpt>
      <trkpt lat="46.81888" lon="5.70814">
        <ele>548.5</ele>
        <time>2018-05-27T06:49:24Z</time>
      </trkpt>
      <trkpt lat="46.8189" lon="5.70829">
        <ele>548.5</ele>
        <time>2018-05-27T06:49:26Z</time>
      </trkpt>
      <trkpt lat="46.81891" lon="5.70842">
        <ele>548.6</ele>
        <time>2018-05-27T06:49:28Z</time>
      </trkpt>
      <trkpt lat="46.81894" lon="5.70855">
        <ele>548.7</ele>
        <time>2018-05-27T06:49:30Z</time>
      </trkpt>
      <trkpt lat="46.81896" lon="5.70869">
        <ele>548.8</ele>
        <time>2018-05-27T06:49:32Z</time>
      </trkpt>
      <trkpt lat="46.81898" lon="5.70888">
        <ele>548.9</ele>
        <time>2018-05-27T06:49:35Z</time>
      </trkpt>
      <trkpt lat="46.81901" lon="5.70902">
        <ele>549</ele>
        <time>2018-05-27T06:49:37Z</time>
      </trkpt>
      <trkpt lat="46.81907" lon="5.70917">
        <ele>549</ele>
        <time>2018-05-27T06:49:39Z</time>
      </trkpt>
      <trkpt lat="46.81913" lon="5.70931">
        <ele>549.1</ele>
        <time>2018-05-27T06:49:41Z</time>
      </trkpt>
      <trkpt lat="46.81919" lon="5.70943">
        <ele>549.1</ele>
        <time>2018-05-27T06:49:43Z</time>
      </trkpt>
      <trkpt lat="46.81927" lon="5.70952">
        <ele>549.1</ele>
        <time>2018-05-27T06:49:45Z</time>
      </trkpt>
      <trkpt lat="46.81938" lon="5.70962">
        <ele>548.9</ele>
        <time>2018-05-27T06:49:47Z</time>
      </trkpt>
      <trkpt lat="46.81949" lon="5.70971">
        <ele>548.8</ele>
        <time>2018-05-27T06:49:49Z</time>
      </trkpt>
      <trkpt lat="46.81959" lon="5.70977">
        <ele>548.7</ele>
        <time>2018-05-27T06:49:51Z</time>
      </trkpt>
      <trkpt lat="46.8197" lon="5.7098">
        <ele>548.6</ele>
        <time>2018-05-27T06:49:53Z</time>
      </trkpt>
      <trkpt lat="46.8198" lon="5.7098">
        <ele>548.5</ele>
        <time>2018-05-27T06:49:55Z</time>
      </trkpt>
      <trkpt lat="46.81993" lon="5.70982">
        <ele>548.4</ele>
        <time>2018-05-27T06:49:58Z</time>
      </trkpt>
      <trkpt lat="46.82006" lon="5.70988">
        <ele>548.3</ele>
        <time>2018-05-27T06:50:01Z</time>
      </trkpt>
      <trkpt lat="46.82015" lon="5.70996">
        <ele>548.1</ele>
        <time>2018-05-27T06:50:04Z</time>
      </trkpt>
      <trkpt lat="46.82023" lon="5.71003">
        <ele>548</ele>
        <time>2018-05-27T06:50:07Z</time>
      </trkpt>
      <trkpt lat="46.82035" lon="5.71011">
        <ele>547.9</ele>
        <time>2018-05-27T06:50:10Z</time>
      </trkpt>
      <trkpt lat="46.82045" lon="5.71017">
        <ele>547.8</ele>
        <time>2018-05-27T06:50:13Z</time>
      </trkpt>
      <trkpt lat="46.82053" lon="5.71025">
        <ele>547.7</ele>
        <time>2018-05-27T06:50:15Z</time>
      </trkpt>
      <trkpt lat="46.82061" lon="5.7104">
        <ele>547.6</ele>
        <time>2018-05-27T06:50:18Z</time>
      </trkpt>
      <trkpt lat="46.8207" lon="5.71051">
        <ele>547.5</ele>
        <time>2018-05-27T06:50:20Z</time>
      </trkpt>
      <trkpt lat="46.82077" lon="5.71062">
        <ele>547.4</ele>
        <time>2018-05-27T06:50:22Z</time>
      </trkpt>
      <trkpt lat="46.82083" lon="5.71078">
        <ele>547.3</ele>
        <time>2018-05-27T06:50:25Z</time>
      </trkpt>
      <trkpt lat="46.82095" lon="5.71091">
        <ele>547.1</ele>
        <time>2018-05-27T06:50:27Z</time>
      </trkpt>
      <trkpt lat="46.82103" lon="5.71105">
        <ele>546.8</ele>
        <time>2018-05-27T06:50:29Z</time>
      </trkpt>
      <trkpt lat="46.82111" lon="5.71118">
        <ele>546.5</ele>
        <time>2018-05-27T06:50:31Z</time>
      </trkpt>
      <trkpt lat="46.8212" lon="5.71131">
        <ele>546.1</ele>
        <time>2018-05-27T06:50:33Z</time>
      </trkpt>
      <trkpt lat="46.82132" lon="5.71144">
        <ele>545.9</ele>
        <time>2018-05-27T06:50:35Z</time>
      </trkpt>
      <trkpt lat="46.82147" lon="5.71154">
        <ele>545.6</ele>
        <time>2018-05-27T06:50:37Z</time>
      </trkpt>
      <trkpt lat="46.82155" lon="5.7116">
        <ele>545.3</ele>
        <time>2018-05-27T06:50:39Z</time>
      </trkpt>
      <trkpt lat="46.82168" lon="5.71165">
        <ele>545.1</ele>
        <time>2018-05-27T06:50:41Z</time>
      </trkpt>
      <trkpt lat="46.82182" lon="5.7117">
        <ele>544.8</ele>
        <time>2018-05-27T06:50:43Z</time>
      </trkpt>
      <trkpt lat="46.82193" lon="5.71173">
        <ele>544.6</ele>
        <time>2018-05-27T06:50:45Z</time>
      </trkpt>
      <trkpt lat="46.82204" lon="5.71176">
        <ele>544.4</ele>
        <time>2018-05-27T06:50:47Z</time>
      </trkpt>
      <trkpt lat="46.82216" lon="5.71178">
        <ele>544.3</ele>
        <time>2018-05-27T06:50:49Z</time>
      </trkpt>
      <trkpt lat="46.82227" lon="5.71181">
        <ele>544.1</ele>
        <time>2018-05-27T06:50:51Z</time>
      </trkpt>
      <trkpt lat="46.82239" lon="5.71186">
        <ele>543.9</ele>
        <time>2018-05-27T06:50:53Z</time>
      </trkpt>
      <trkpt lat="46.82255" lon="5.71192">
        <ele>543.7</ele>
        <time>2018-05-27T06:50:55Z</time>
      </trkpt>
      <trkpt lat="46.82265" lon="5.71196">
        <ele>543.4</ele>
        <time>2018-05-27T06:50:57Z</time>
      </trkpt>
      <trkpt lat="46.82281" lon="5.71197">
        <ele>543</ele>
        <time>2018-05-27T06:50:59Z</time>
      </trkpt>
      <trkpt lat="46.82299" lon="5.71198">
        <ele>542.5</ele>
        <time>2018-05-27T06:51:01Z</time>
      </trkpt>
      <trkpt lat="46.82315" lon="5.71203">
        <ele>541.9</ele>
        <time>2018-05-27T06:51:03Z</time>
      </trkpt>
      <trkpt lat="46.82327" lon="5.71217">
        <ele>541.4</ele>
        <time>2018-05-27T06:51:05Z</time>
      </trkpt>
      <trkpt lat="46.82335" lon="5.71232">
        <ele>540.9</ele>
        <time>2018-05-27T06:51:07Z</time>
      </trkpt>
      <trkpt lat="46.8234" lon="5.71245">
        <ele>540.5</ele>
        <time>2018-05-27T06:51:09Z</time>
      </trkpt>
      <trkpt lat="46.82345" lon="5.71257">
        <ele>539.9</ele>
        <time>2018-05-27T06:51:12Z</time>
      </trkpt>
      <trkpt lat="46.82351" lon="5.71271">
        <ele>539.6</ele>
        <time>2018-05-27T06:51:16Z</time>
      </trkpt>
      <trkpt lat="46.82357" lon="5.71284">
        <ele>539.7</ele>
        <time>2018-05-27T06:51:20Z</time>
      </trkpt>
      <trkpt lat="46.82362" lon="5.71297">
        <ele>540</ele>
        <time>2018-05-27T06:51:24Z</time>
      </trkpt>
      <trkpt lat="46.82369" lon="5.71308">
        <ele>540.2</ele>
        <time>2018-05-27T06:51:28Z</time>
      </trkpt>
      <trkpt lat="46.82376" lon="5.71319">
        <ele>540.6</ele>
        <time>2018-05-27T06:51:32Z</time>
      </trkpt>
      <trkpt lat="46.82383" lon="5.7133">
        <ele>541</ele>
        <time>2018-05-27T06:51:36Z</time>
      </trkpt>
      <trkpt lat="46.82388" lon="5.71342">
        <ele>541.7</ele>
        <time>2018-05-27T06:51:41Z</time>
      </trkpt>
      <trkpt lat="46.82394" lon="5.71353">
        <ele>542.3</ele>
        <time>2018-05-27T06:51:46Z</time>
      </trkpt>
      <trkpt lat="46.824" lon="5.71366">
        <ele>543.1</ele>
        <time>2018-05-27T06:51:51Z</time>
      </trkpt>
      <trkpt lat="46.82405" lon="5.7138">
        <ele>543.8</ele>
        <time>2018-05-27T06:51:56Z</time>
      </trkpt>
      <trkpt lat="46.82411" lon="5.71394">
        <ele>544.4</ele>
        <time>2018-05-27T06:52:00Z</time>
      </trkpt>
      <trkpt lat="46.82418" lon="5.71408">
        <ele>544.8</ele>
        <time>2018-05-27T06:52:04Z</time>
      </trkpt>
      <trkpt lat="46.82424" lon="5.71419">
        <ele>545.2</ele>
        <time>2018-05-27T06:52:07Z</time>
      </trkpt>
      <trkpt lat="46.82429" lon="5.71433">
        <ele>545.7</ele>
        <time>2018-05-27T06:52:11Z</time>
      </trkpt>
      <trkpt lat="46.82434" lon="5.71446">
        <ele>546.1</ele>
        <time>2018-05-27T06:52:15Z</time>
      </trkpt>
      <trkpt lat="46.82439" lon="5.7146">
        <ele>546.5</ele>
        <time>2018-05-27T06:52:19Z</time>
      </trkpt>
      <trkpt lat="46.82443" lon="5.71477">
        <ele>547</ele>
        <time>2018-05-27T06:52:23Z</time>
      </trkpt>
      <trkpt lat="46.82446" lon="5.71494">
        <ele>547.2</ele>
        <time>2018-05-27T06:52:26Z</time>
      </trkpt>
      <trkpt lat="46.82449" lon="5.71512">
        <ele>547.4</ele>
        <time>2018-05-27T06:52:29Z</time>
      </trkpt>
      <trkpt lat="46.82456" lon="5.71526">
        <ele>547.6</ele>
        <time>2018-05-27T06:52:32Z</time>
      </trkpt>
      <trkpt lat="46.82463" lon="5.71537">
        <ele>547.7</ele>
        <time>2018-05-27T06:52:34Z</time>
      </trkpt>
      <trkpt lat="46.82474" lon="5.71549">
        <ele>547.7</ele>
        <time>2018-05-27T06:52:36Z</time>
      </trkpt>
      <trkpt lat="46.82489" lon="5.71564">
        <ele>547.5</ele>
        <time>2018-05-27T06:52:38Z</time>
      </trkpt>
      <trkpt lat="46.82503" lon="5.71574">
        <ele>547.2</ele>
        <time>2018-05-27T06:52:40Z</time>
      </trkpt>
      <trkpt lat="46.82518" lon="5.71578">
        <ele>546.7</ele>
        <time>2018-05-27T06:52:42Z</time>
      </trkpt>
      <trkpt lat="46.82534" lon="5.71578">
        <ele>546.2</ele>
        <time>2018-05-27T06:52:44Z</time>
      </trkpt>
      <trkpt lat="46.82549" lon="5.71577">
        <ele>545.6</ele>
        <time>2018-05-27T06:52:46Z</time>
      </trkpt>
      <trkpt lat="46.82565" lon="5.71571">
        <ele>544.9</ele>
        <time>2018-05-27T06:52:48Z</time>
      </trkpt>
      <trkpt lat="46.8258" lon="5.71562">
        <ele>544.2</ele>
        <time>2018-05-27T06:52:50Z</time>
      </trkpt>
      <trkpt lat="46.8259" lon="5.7155">
        <ele>543.5</ele>
        <time>2018-05-27T06:52:52Z</time>
      </trkpt>
      <trkpt lat="46.82598" lon="5.71535">
        <ele>542.7</ele>
        <time>2018-05-27T06:52:54Z</time>
      </trkpt>
      <trkpt lat="46.82607" lon="5.7152">
        <ele>541.9</ele>
        <time>2018-05-27T06:52:56Z</time>
      </trkpt>
      <trkpt lat="46.82614" lon="5.71506">
        <ele>541.2</ele>
        <time>2018-05-27T06:52:58Z</time>
      </trkpt>
      <trkpt lat="46.82623" lon="5.71495">
        <ele>540.4</ele>
        <time>2018-05-27T06:53:00Z</time>
      </trkpt>
      <trkpt lat="46.82629" lon="5.71485">
        <ele>539.8</ele>
        <time>2018-05-27T06:53:02Z</time>
      </trkpt>
      <trkpt lat="46.82638" lon="5.71472">
        <ele>538.8</ele>
        <time>2018-05-27T06:53:05Z</time>
      </trkpt>
      <trkpt lat="46.82643" lon="5.7146">
        <ele>538</ele>
        <time>2018-05-27T06:53:08Z</time>
      </trkpt>
      <trkpt lat="46.82648" lon="5.71449">
        <ele>537.3</ele>
        <time>2018-05-27T06:53:11Z</time>
      </trkpt>
      <trkpt lat="46.82653" lon="5.71435">
        <ele>536.5</ele>
        <time>2018-05-27T06:53:15Z</time>
      </trkpt>
      <trkpt lat="46.82654" lon="5.71421">
        <ele>535.8</ele>
        <time>2018-05-27T06:53:22Z</time>
      </trkpt>
      <trkpt lat="46.82661" lon="5.71409">
        <ele>542.2</ele>
        <time>2018-05-27T06:54:08Z</time>
      </trkpt>
      <trkpt lat="46.82742" lon="5.71318">
        <ele>542</ele>
        <time>2018-05-27T06:54:14Z</time>
      </trkpt>
      <trkpt lat="46.82759" lon="5.71287">
        <ele>542.5</ele>
        <time>2018-05-27T06:54:19Z</time>
      </trkpt>
      <trkpt lat="46.82762" lon="5.71273">
        <ele>542.5</ele>
        <time>2018-05-27T06:54:21Z</time>
      </trkpt>
      <trkpt lat="46.82764" lon="5.71259">
        <ele>542.3</ele>
        <time>2018-05-27T06:54:24Z</time>
      </trkpt>
      <trkpt lat="46.82762" lon="5.71242">
        <ele>542.1</ele>
        <time>2018-05-27T06:54:27Z</time>
      </trkpt>
      <trkpt lat="46.82766" lon="5.71226">
        <ele>542</ele>
        <time>2018-05-27T06:54:31Z</time>
      </trkpt>
      <trkpt lat="46.82765" lon="5.7121">
        <ele>541.9</ele>
        <time>2018-05-27T06:54:34Z</time>
      </trkpt>
      <trkpt lat="46.82764" lon="5.71196">
        <ele>541.7</ele>
        <time>2018-05-27T06:54:36Z</time>
      </trkpt>
      <trkpt lat="46.82765" lon="5.71182">
        <ele>541.6</ele>
        <time>2018-05-27T06:54:38Z</time>
      </trkpt>
      <trkpt lat="46.82773" lon="5.71166">
        <ele>541.2</ele>
        <time>2018-05-27T06:54:41Z</time>
      </trkpt>
      <trkpt lat="46.82781" lon="5.71157">
        <ele>540.9</ele>
        <time>2018-05-27T06:54:43Z</time>
      </trkpt>
      <trkpt lat="46.82789" lon="5.7115">
        <ele>540.5</ele>
        <time>2018-05-27T06:54:45Z</time>
      </trkpt>
      <trkpt lat="46.82797" lon="5.71141">
        <ele>539.8</ele>
        <time>2018-05-27T06:54:48Z</time>
      </trkpt>
      <trkpt lat="46.82806" lon="5.71135">
        <ele>539</ele>
        <time>2018-05-27T06:54:51Z</time>
      </trkpt>
      <trkpt lat="46.82815" lon="5.71129">
        <ele>538</ele>
        <time>2018-05-27T06:54:54Z</time>
      </trkpt>
      <trkpt lat="46.82825" lon="5.71123">
        <ele>535.9</ele>
        <time>2018-05-27T06:54:59Z</time>
      </trkpt>
      <trkpt lat="46.82836" lon="5.71117">
        <ele>534.3</ele>
        <time>2018-05-27T06:55:02Z</time>
      </trkpt>
      <trkpt lat="46.82845" lon="5.71112">
        <ele>533.1</ele>
        <time>2018-05-27T06:55:04Z</time>
      </trkpt>
      <trkpt lat="46.82854" lon="5.71105">
        <ele>531.7</ele>
        <time>2018-05-27T06:55:06Z</time>
      </trkpt>
      <trkpt lat="46.82864" lon="5.71099">
        <ele>530.4</ele>
        <time>2018-05-27T06:55:08Z</time>
      </trkpt>
      <trkpt lat="46.82873" lon="5.71093">
        <ele>529.3</ele>
        <time>2018-05-27T06:55:10Z</time>
      </trkpt>
      <trkpt lat="46.82882" lon="5.71084">
        <ele>527.7</ele>
        <time>2018-05-27T06:55:13Z</time>
      </trkpt>
      <trkpt lat="46.82886" lon="5.71068">
        <ele>526.2</ele>
        <time>2018-05-27T06:55:16Z</time>
      </trkpt>
      <trkpt lat="46.82889" lon="5.71055">
        <ele>524.7</ele>
        <time>2018-05-27T06:55:19Z</time>
      </trkpt>
      <trkpt lat="46.82892" lon="5.7104">
        <ele>522.8</ele>
        <time>2018-05-27T06:55:23Z</time>
      </trkpt>
      <trkpt lat="46.82888" lon="5.71025">
        <ele>521.3</ele>
        <time>2018-05-27T06:55:27Z</time>
      </trkpt>
      <trkpt lat="46.82881" lon="5.71013">
        <ele>520.1</ele>
        <time>2018-05-27T06:55:31Z</time>
      </trkpt>
      <trkpt lat="46.82872" lon="5.71003">
        <ele>519</ele>
        <time>2018-05-27T06:55:35Z</time>
      </trkpt>
      <trkpt lat="46.82863" lon="5.70995">
        <ele>518.1</ele>
        <time>2018-05-27T06:55:39Z</time>
      </trkpt>
      <trkpt lat="46.82855" lon="5.70988">
        <ele>517.5</ele>
        <time>2018-05-27T06:55:42Z</time>
      </trkpt>
      <trkpt lat="46.82848" lon="5.7098">
        <ele>516.8</ele>
        <time>2018-05-27T06:55:45Z</time>
      </trkpt>
      <trkpt lat="46.82839" lon="5.70973">
        <ele>515.8</ele>
        <time>2018-05-27T06:55:50Z</time>
      </trkpt>
      <trkpt lat="46.82828" lon="5.70963">
        <ele>515.2</ele>
        <time>2018-05-27T06:55:54Z</time>
      </trkpt>
      <trkpt lat="46.82819" lon="5.70953">
        <ele>514.7</ele>
        <time>2018-05-27T06:55:57Z</time>
      </trkpt>
      <trkpt lat="46.82812" lon="5.70943">
        <ele>513.8</ele>
        <time>2018-05-27T06:56:01Z</time>
      </trkpt>
      <trkpt lat="46.8281" lon="5.7093">
        <ele>512.2</ele>
        <time>2018-05-27T06:56:06Z</time>
      </trkpt>
      <trkpt lat="46.82811" lon="5.70915">
        <ele>509.4</ele>
        <time>2018-05-27T06:56:13Z</time>
      </trkpt>
      <trkpt lat="46.82821" lon="5.70912">
        <ele>507.7</ele>
        <time>2018-05-27T06:56:17Z</time>
      </trkpt>
      <trkpt lat="46.82831" lon="5.70914">
        <ele>505.4</ele>
        <time>2018-05-27T06:56:24Z</time>
      </trkpt>
      <trkpt lat="46.82841" lon="5.70908">
        <ele>504.6</ele>
        <time>2018-05-27T06:56:28Z</time>
      </trkpt>
      <trkpt lat="46.82852" lon="5.70911">
        <ele>503.5</ele>
        <time>2018-05-27T06:56:34Z</time>
      </trkpt>
      <trkpt lat="46.8286" lon="5.70918">
        <ele>503.1</ele>
        <time>2018-05-27T06:56:37Z</time>
      </trkpt>
      <trkpt lat="46.82871" lon="5.70925">
        <ele>502.6</ele>
        <time>2018-05-27T06:56:41Z</time>
      </trkpt>
      <trkpt lat="46.82881" lon="5.70932">
        <ele>502.3</ele>
        <time>2018-05-27T06:56:45Z</time>
      </trkpt>
      <trkpt lat="46.8289" lon="5.70937">
        <ele>501.9</ele>
        <time>2018-05-27T06:56:50Z</time>
      </trkpt>
      <trkpt lat="46.829" lon="5.70939">
        <ele>501.3</ele>
        <time>2018-05-27T06:56:56Z</time>
      </trkpt>
      <trkpt lat="46.82908" lon="5.70935">
        <ele>500.4</ele>
        <time>2018-05-27T06:57:02Z</time>
      </trkpt>
      <trkpt lat="46.82911" lon="5.70921">
        <ele>499.6</ele>
        <time>2018-05-27T06:57:09Z</time>
      </trkpt>
      <trkpt lat="46.82906" lon="5.70909">
        <ele>499.1</ele>
        <time>2018-05-27T06:57:17Z</time>
      </trkpt>
      <trkpt lat="46.82898" lon="5.70902">
        <ele>499.2</ele>
        <time>2018-05-27T06:57:22Z</time>
      </trkpt>
      <trkpt lat="46.82895" lon="5.70889">
        <ele>499.2</ele>
        <time>2018-05-27T06:57:29Z</time>
      </trkpt>
      <trkpt lat="46.82888" lon="5.70877">
        <ele>499.2</ele>
        <time>2018-05-27T06:57:34Z</time>
      </trkpt>
      <trkpt lat="46.82889" lon="5.70863">
        <ele>499.5</ele>
        <time>2018-05-27T06:57:40Z</time>
      </trkpt>
      <trkpt lat="46.82897" lon="5.70855">
        <ele>501.5</ele>
        <time>2018-05-27T06:57:54Z</time>
      </trkpt>
      <trkpt lat="46.82902" lon="5.70843">
        <ele>507.8</ele>
        <time>2018-05-27T06:58:42Z</time>
      </trkpt>
      <trkpt lat="46.82907" lon="5.70818">
        <ele>509</ele>
        <time>2018-05-27T07:00:40Z</time>
      </trkpt>
      <trkpt lat="46.829" lon="5.70805">
        <ele>509.3</ele>
        <time>2018-05-27T07:00:45Z</time>
      </trkpt>
      <trkpt lat="46.82892" lon="5.70794">
        <ele>509.5</ele>
        <time>2018-05-27T07:00:49Z</time>
      </trkpt>
      <trkpt lat="46.82885" lon="5.70783">
        <ele>509.6</ele>
        <time>2018-05-27T07:00:53Z</time>
      </trkpt>
      <trkpt lat="46.82877" lon="5.7077">
        <ele>509.8</ele>
        <time>2018-05-27T07:00:57Z</time>
      </trkpt>
      <trkpt lat="46.8287" lon="5.7076">
        <ele>509.9</ele>
        <time>2018-05-27T07:01:00Z</time>
      </trkpt>
      <trkpt lat="46.82862" lon="5.70751">
        <ele>510</ele>
        <time>2018-05-27T07:01:03Z</time>
      </trkpt>
      <trkpt lat="46.82854" lon="5.70743">
        <ele>510.1</ele>
        <time>2018-05-27T07:01:06Z</time>
      </trkpt>
      <trkpt lat="46.82847" lon="5.70734">
        <ele>510.3</ele>
        <time>2018-05-27T07:01:09Z</time>
      </trkpt>
      <trkpt lat="46.82842" lon="5.70723">
        <ele>510.5</ele>
        <time>2018-05-27T07:01:12Z</time>
      </trkpt>
      <trkpt lat="46.82835" lon="5.70714">
        <ele>510.6</ele>
        <time>2018-05-27T07:01:15Z</time>
      </trkpt>
      <trkpt lat="46.82826" lon="5.70702">
        <ele>510.7</ele>
        <time>2018-05-27T07:01:18Z</time>
      </trkpt>
      <trkpt lat="46.82817" lon="5.7069">
        <ele>510.8</ele>
        <time>2018-05-27T07:01:21Z</time>
      </trkpt>
      <trkpt lat="46.82809" lon="5.70682">
        <ele>510.9</ele>
        <time>2018-05-27T07:01:24Z</time>
      </trkpt>
      <trkpt lat="46.82802" lon="5.7067">
        <ele>511.1</ele>
        <time>2018-05-27T07:01:27Z</time>
      </trkpt>
      <trkpt lat="46.82795" lon="5.70654">
        <ele>511.3</ele>
        <time>2018-05-27T07:01:30Z</time>
      </trkpt>
      <trkpt lat="46.82789" lon="5.70642">
        <ele>511.4</ele>
        <time>2018-05-27T07:01:32Z</time>
      </trkpt>
      <trkpt lat="46.82783" lon="5.70632">
        <ele>511.6</ele>
        <time>2018-05-27T07:01:34Z</time>
      </trkpt>
      <trkpt lat="46.82775" lon="5.70624">
        <ele>511.7</ele>
        <time>2018-05-27T07:01:36Z</time>
      </trkpt>
      <trkpt lat="46.82767" lon="5.70617">
        <ele>511.8</ele>
        <time>2018-05-27T07:01:38Z</time>
      </trkpt>
      <trkpt lat="46.8276" lon="5.70606">
        <ele>511.8</ele>
        <time>2018-05-27T07:01:40Z</time>
      </trkpt>
      <trkpt lat="46.82752" lon="5.70597">
        <ele>511.9</ele>
        <time>2018-05-27T07:01:42Z</time>
      </trkpt>
      <trkpt lat="46.82744" lon="5.70588">
        <ele>511.8</ele>
        <time>2018-05-27T07:01:44Z</time>
      </trkpt>
      <trkpt lat="46.82736" lon="5.70578">
        <ele>511.8</ele>
        <time>2018-05-27T07:01:46Z</time>
      </trkpt>
      <trkpt lat="46.82727" lon="5.70566">
        <ele>511.6</ele>
        <time>2018-05-27T07:01:48Z</time>
      </trkpt>
      <trkpt lat="46.82719" lon="5.70553">
        <ele>511.3</ele>
        <time>2018-05-27T07:01:50Z</time>
      </trkpt>
      <trkpt lat="46.82709" lon="5.7054">
        <ele>511.1</ele>
        <time>2018-05-27T07:01:52Z</time>
      </trkpt>
      <trkpt lat="46.827" lon="5.70527">
        <ele>510.7</ele>
        <time>2018-05-27T07:01:54Z</time>
      </trkpt>
      <trkpt lat="46.82691" lon="5.70518">
        <ele>510.2</ele>
        <time>2018-05-27T07:01:57Z</time>
      </trkpt>
      <trkpt lat="46.82681" lon="5.70507">
        <ele>509.1</ele>
        <time>2018-05-27T07:02:03Z</time>
      </trkpt>
      <trkpt lat="46.82673" lon="5.70497">
        <ele>508.6</ele>
        <time>2018-05-27T07:02:06Z</time>
      </trkpt>
      <trkpt lat="46.82665" lon="5.70485">
        <ele>508.3</ele>
        <time>2018-05-27T07:02:09Z</time>
      </trkpt>
      <trkpt lat="46.82654" lon="5.70473">
        <ele>507.9</ele>
        <time>2018-05-27T07:02:12Z</time>
      </trkpt>
      <trkpt lat="46.82647" lon="5.70462">
        <ele>507.7</ele>
        <time>2018-05-27T07:02:14Z</time>
      </trkpt>
      <trkpt lat="46.82638" lon="5.70452">
        <ele>507.4</ele>
        <time>2018-05-27T07:02:16Z</time>
      </trkpt>
      <trkpt lat="46.82631" lon="5.70439">
        <ele>507.2</ele>
        <time>2018-05-27T07:02:18Z</time>
      </trkpt>
      <trkpt lat="46.82625" lon="5.70426">
        <ele>506.8</ele>
        <time>2018-05-27T07:02:20Z</time>
      </trkpt>
      <trkpt lat="46.82617" lon="5.70412">
        <ele>506.2</ele>
        <time>2018-05-27T07:02:22Z</time>
      </trkpt>
      <trkpt lat="46.82609" lon="5.704">
        <ele>505.7</ele>
        <time>2018-05-27T07:02:24Z</time>
      </trkpt>
      <trkpt lat="46.82598" lon="5.7039">
        <ele>505.1</ele>
        <time>2018-05-27T07:02:26Z</time>
      </trkpt>
      <trkpt lat="46.82585" lon="5.7038">
        <ele>504.5</ele>
        <time>2018-05-27T07:02:28Z</time>
      </trkpt>
      <trkpt lat="46.82574" lon="5.70371">
        <ele>503.9</ele>
        <time>2018-05-27T07:02:30Z</time>
      </trkpt>
      <trkpt lat="46.82564" lon="5.70361">
        <ele>503.2</ele>
        <time>2018-05-27T07:02:32Z</time>
      </trkpt>
      <trkpt lat="46.82556" lon="5.70354">
        <ele>502.6</ele>
        <time>2018-05-27T07:02:34Z</time>
      </trkpt>
      <trkpt lat="46.82548" lon="5.70346">
        <ele>502</ele>
        <time>2018-05-27T07:02:36Z</time>
      </trkpt>
      <trkpt lat="46.82541" lon="5.70337">
        <ele>501.4</ele>
        <time>2018-05-27T07:02:38Z</time>
      </trkpt>
      <trkpt lat="46.82535" lon="5.70322">
        <ele>500.7</ele>
        <time>2018-05-27T07:02:41Z</time>
      </trkpt>
      <trkpt lat="46.82527" lon="5.70315">
        <ele>499.7</ele>
        <time>2018-05-27T07:02:45Z</time>
      </trkpt>
      <trkpt lat="46.82525" lon="5.70333">
        <ele>498.6</ele>
        <time>2018-05-27T07:02:50Z</time>
      </trkpt>
      <trkpt lat="46.82522" lon="5.70348">
        <ele>498</ele>
        <time>2018-05-27T07:02:53Z</time>
      </trkpt>
      <trkpt lat="46.8252" lon="5.70362">
        <ele>497</ele>
        <time>2018-05-27T07:02:57Z</time>
      </trkpt>
      <trkpt lat="46.82508" lon="5.70361">
        <ele>495.2</ele>
        <time>2018-05-27T07:03:04Z</time>
      </trkpt>
      <trkpt lat="46.825" lon="5.7035">
        <ele>494.4</ele>
        <time>2018-05-27T07:03:07Z</time>
      </trkpt>
      <trkpt lat="46.82492" lon="5.7034">
        <ele>493.4</ele>
        <time>2018-05-27T07:03:10Z</time>
      </trkpt>
      <trkpt lat="46.82483" lon="5.70327">
        <ele>492.2</ele>
        <time>2018-05-27T07:03:13Z</time>
      </trkpt>
      <trkpt lat="46.82478" lon="5.70316">
        <ele>491.3</ele>
        <time>2018-05-27T07:03:15Z</time>
      </trkpt>
      <trkpt lat="46.82475" lon="5.70299">
        <ele>490</ele>
        <time>2018-05-27T07:03:18Z</time>
      </trkpt>
      <trkpt lat="46.82476" lon="5.70282">
        <ele>488.7</ele>
        <time>2018-05-27T07:03:21Z</time>
      </trkpt>
      <trkpt lat="46.82475" lon="5.70264">
        <ele>487.5</ele>
        <time>2018-05-27T07:03:24Z</time>
      </trkpt>
      <trkpt lat="46.8248" lon="5.7025">
        <ele>486.3</ele>
        <time>2018-05-27T07:03:27Z</time>
      </trkpt>
      <trkpt lat="46.82489" lon="5.70239">
        <ele>485.1</ele>
        <time>2018-05-27T07:03:30Z</time>
      </trkpt>
      <trkpt lat="46.82501" lon="5.70238">
        <ele>484.2</ele>
        <time>2018-05-27T07:03:33Z</time>
      </trkpt>
      <trkpt lat="46.8251" lon="5.70243">
        <ele>483.3</ele>
        <time>2018-05-27T07:03:35Z</time>
      </trkpt>
      <trkpt lat="46.82521" lon="5.70245">
        <ele>482.2</ele>
        <time>2018-05-27T07:03:38Z</time>
      </trkpt>
      <trkpt lat="46.8253" lon="5.70248">
        <ele>480.8</ele>
        <time>2018-05-27T07:03:41Z</time>
      </trkpt>
      <trkpt lat="46.8254" lon="5.70249">
        <ele>479.3</ele>
        <time>2018-05-27T07:03:44Z</time>
      </trkpt>
      <trkpt lat="46.82551" lon="5.70253">
        <ele>477.2</ele>
        <time>2018-05-27T07:03:48Z</time>
      </trkpt>
      <trkpt lat="46.82559" lon="5.70258">
        <ele>474.4</ele>
        <time>2018-05-27T07:03:54Z</time>
      </trkpt>
      <trkpt lat="46.82568" lon="5.70265">
        <ele>464.3</ele>
        <time>2018-05-27T07:04:26Z</time>
      </trkpt>
      <trkpt lat="46.82578" lon="5.70267">
        <ele>462.7</ele>
        <time>2018-05-27T07:04:33Z</time>
      </trkpt>
      <trkpt lat="46.82589" lon="5.70269">
        <ele>461.6</ele>
        <time>2018-05-27T07:04:36Z</time>
      </trkpt>
      <trkpt lat="46.826" lon="5.70271">
        <ele>460.5</ele>
        <time>2018-05-27T07:04:39Z</time>
      </trkpt>
      <trkpt lat="46.82611" lon="5.70274">
        <ele>458.9</ele>
        <time>2018-05-27T07:04:43Z</time>
      </trkpt>
      <trkpt lat="46.8262" lon="5.70274">
        <ele>455.9</ele>
        <time>2018-05-27T07:04:49Z</time>
      </trkpt>
      <trkpt lat="46.8263" lon="5.7027">
        <ele>453</ele>
        <time>2018-05-27T07:04:54Z</time>
      </trkpt>
      <trkpt lat="46.82641" lon="5.70273">
        <ele>451.2</ele>
        <time>2018-05-27T07:04:57Z</time>
      </trkpt>
      <trkpt lat="46.8265" lon="5.70278">
        <ele>449.3</ele>
        <time>2018-05-27T07:05:00Z</time>
      </trkpt>
      <trkpt lat="46.82661" lon="5.70282">
        <ele>447.4</ele>
        <time>2018-05-27T07:05:03Z</time>
      </trkpt>
      <trkpt lat="46.82671" lon="5.70285">
        <ele>446.1</ele>
        <time>2018-05-27T07:05:05Z</time>
      </trkpt>
      <trkpt lat="46.82683" lon="5.7029">
        <ele>443.9</ele>
        <time>2018-05-27T07:05:08Z</time>
      </trkpt>
      <trkpt lat="46.82694" lon="5.70295">
        <ele>442</ele>
        <time>2018-05-27T07:05:11Z</time>
      </trkpt>
      <trkpt lat="46.82703" lon="5.70297">
        <ele>439.6</ele>
        <time>2018-05-27T07:05:15Z</time>
      </trkpt>
      <trkpt lat="46.82714" lon="5.70299">
        <ele>435.8</ele>
        <time>2018-05-27T07:05:21Z</time>
      </trkpt>
      <trkpt lat="46.82725" lon="5.70304">
        <ele>433.8</ele>
        <time>2018-05-27T07:05:24Z</time>
      </trkpt>
      <trkpt lat="46.82736" lon="5.70313">
        <ele>431.7</ele>
        <time>2018-05-27T07:05:27Z</time>
      </trkpt>
      <trkpt lat="46.82747" lon="5.70321">
        <ele>429.7</ele>
        <time>2018-05-27T07:05:30Z</time>
      </trkpt>
      <trkpt lat="46.82755" lon="5.70329">
        <ele>428.4</ele>
        <time>2018-05-27T07:05:32Z</time>
      </trkpt>
      <trkpt lat="46.82764" lon="5.70343">
        <ele>426.4</ele>
        <time>2018-05-27T07:05:35Z</time>
      </trkpt>
      <trkpt lat="46.82772" lon="5.70352">
        <ele>425</ele>
        <time>2018-05-27T07:05:37Z</time>
      </trkpt>
      <trkpt lat="46.82782" lon="5.70359">
        <ele>423.5</ele>
        <time>2018-05-27T07:05:39Z</time>
      </trkpt>
      <trkpt lat="46.82791" lon="5.70367">
        <ele>422</ele>
        <time>2018-05-27T07:05:41Z</time>
      </trkpt>
      <trkpt lat="46.82801" lon="5.70373">
        <ele>420.6</ele>
        <time>2018-05-27T07:05:43Z</time>
      </trkpt>
      <trkpt lat="46.82811" lon="5.7038">
        <ele>419.1</ele>
        <time>2018-05-27T07:05:45Z</time>
      </trkpt>
      <trkpt lat="46.82823" lon="5.70389">
        <ele>417.6</ele>
        <time>2018-05-27T07:05:47Z</time>
      </trkpt>
      <trkpt lat="46.82836" lon="5.70401">
        <ele>416.1</ele>
        <time>2018-05-27T07:05:49Z</time>
      </trkpt>
      <trkpt lat="46.82846" lon="5.70413">
        <ele>414.7</ele>
        <time>2018-05-27T07:05:51Z</time>
      </trkpt>
      <trkpt lat="46.82854" lon="5.70428">
        <ele>412.7</ele>
        <time>2018-05-27T07:05:54Z</time>
      </trkpt>
      <trkpt lat="46.82864" lon="5.7044">
        <ele>410.9</ele>
        <time>2018-05-27T07:05:57Z</time>
      </trkpt>
      <trkpt lat="46.82877" lon="5.70449">
        <ele>409.6</ele>
        <time>2018-05-27T07:05:59Z</time>
      </trkpt>
      <trkpt lat="46.8289" lon="5.70461">
        <ele>408.3</ele>
        <time>2018-05-27T07:06:01Z</time>
      </trkpt>
      <trkpt lat="46.82899" lon="5.70475">
        <ele>407</ele>
        <time>2018-05-27T07:06:03Z</time>
      </trkpt>
      <trkpt lat="46.82904" lon="5.70492">
        <ele>405.3</ele>
        <time>2018-05-27T07:06:06Z</time>
      </trkpt>
      <trkpt lat="46.82913" lon="5.70505">
        <ele>404.1</ele>
        <time>2018-05-27T07:06:08Z</time>
      </trkpt>
      <trkpt lat="46.82922" lon="5.70516">
        <ele>403.1</ele>
        <time>2018-05-27T07:06:10Z</time>
      </trkpt>
      <trkpt lat="46.82932" lon="5.70533">
        <ele>401.8</ele>
        <time>2018-05-27T07:06:12Z</time>
      </trkpt>
      <trkpt lat="46.82939" lon="5.70545">
        <ele>400.5</ele>
        <time>2018-05-27T07:06:14Z</time>
      </trkpt>
      <trkpt lat="46.82948" lon="5.70558">
        <ele>399.3</ele>
        <time>2018-05-27T07:06:16Z</time>
      </trkpt>
      <trkpt lat="46.82956" lon="5.70569">
        <ele>397.9</ele>
        <time>2018-05-27T07:06:18Z</time>
      </trkpt>
      <trkpt lat="46.82965" lon="5.70577">
        <ele>395.8</ele>
        <time>2018-05-27T07:06:21Z</time>
      </trkpt>
      <trkpt lat="46.82973" lon="5.70583">
        <ele>392.9</ele>
        <time>2018-05-27T07:06:25Z</time>
      </trkpt>
      <trkpt lat="46.82984" lon="5.7059">
        <ele>389.8</ele>
        <time>2018-05-27T07:06:29Z</time>
      </trkpt>
      <trkpt lat="46.82995" lon="5.70597">
        <ele>386.5</ele>
        <time>2018-05-27T07:06:33Z</time>
      </trkpt>
      <trkpt lat="46.83001" lon="5.70608">
        <ele>383.9</ele>
        <time>2018-05-27T07:06:36Z</time>
      </trkpt>
      <trkpt lat="46.8301" lon="5.70616">
        <ele>382.2</ele>
        <time>2018-05-27T07:06:38Z</time>
      </trkpt>
      <trkpt lat="46.83017" lon="5.70625">
        <ele>380.4</ele>
        <time>2018-05-27T07:06:40Z</time>
      </trkpt>
      <trkpt lat="46.83027" lon="5.70633">
        <ele>378.8</ele>
        <time>2018-05-27T07:06:42Z</time>
      </trkpt>
      <trkpt lat="46.83036" lon="5.70641">
        <ele>377.2</ele>
        <time>2018-05-27T07:06:44Z</time>
      </trkpt>
      <trkpt lat="46.83044" lon="5.70651">
        <ele>374.8</ele>
        <time>2018-05-27T07:06:47Z</time>
      </trkpt>
      <trkpt lat="46.83053" lon="5.70658">
        <ele>373</ele>
        <time>2018-05-27T07:06:49Z</time>
      </trkpt>
      <trkpt lat="46.83061" lon="5.70666">
        <ele>371.2</ele>
        <time>2018-05-27T07:06:51Z</time>
      </trkpt>
      <trkpt lat="46.83071" lon="5.70677">
        <ele>368.7</ele>
        <time>2018-05-27T07:06:54Z</time>
      </trkpt>
      <trkpt lat="46.83077" lon="5.7069">
        <ele>366.4</ele>
        <time>2018-05-27T07:06:57Z</time>
      </trkpt>
      <trkpt lat="46.83079" lon="5.70704">
        <ele>364</ele>
        <time>2018-05-27T07:07:00Z</time>
      </trkpt>
      <trkpt lat="46.8308" lon="5.70721">
        <ele>360.9</ele>
        <time>2018-05-27T07:07:04Z</time>
      </trkpt>
      <trkpt lat="46.83088" lon="5.70735">
        <ele>358.7</ele>
        <time>2018-05-27T07:07:07Z</time>
      </trkpt>
      <trkpt lat="46.831" lon="5.7075">
        <ele>357.1</ele>
        <time>2018-05-27T07:07:09Z</time>
      </trkpt>
      <trkpt lat="46.83108" lon="5.7076">
        <ele>355.6</ele>
        <time>2018-05-27T07:07:11Z</time>
      </trkpt>
      <trkpt lat="46.83115" lon="5.70769">
        <ele>352.8</ele>
        <time>2018-05-27T07:07:15Z</time>
      </trkpt>
      <trkpt lat="46.83111" lon="5.70755">
        <ele>347.5</ele>
        <time>2018-05-27T07:07:26Z</time>
      </trkpt>
      <trkpt lat="46.83107" lon="5.70741">
        <ele>346.4</ele>
        <time>2018-05-27T07:07:30Z</time>
      </trkpt>
      <trkpt lat="46.83111" lon="5.70727">
        <ele>345.9</ele>
        <time>2018-05-27T07:07:33Z</time>
      </trkpt>
      <trkpt lat="46.83114" lon="5.70711">
        <ele>345.4</ele>
        <time>2018-05-27T07:07:36Z</time>
      </trkpt>
      <trkpt lat="46.83115" lon="5.70698">
        <ele>345.1</ele>
        <time>2018-05-27T07:07:38Z</time>
      </trkpt>
      <trkpt lat="46.83116" lon="5.70683">
        <ele>344.9</ele>
        <time>2018-05-27T07:07:40Z</time>
      </trkpt>
      <trkpt lat="46.83119" lon="5.70667">
        <ele>344.6</ele>
        <time>2018-05-27T07:07:43Z</time>
      </trkpt>
      <trkpt lat="46.83119" lon="5.70651">
        <ele>344.2</ele>
        <time>2018-05-27T07:07:47Z</time>
      </trkpt>
      <trkpt lat="46.83117" lon="5.70635">
        <ele>344</ele>
        <time>2018-05-27T07:07:50Z</time>
      </trkpt>
      <trkpt lat="46.83116" lon="5.70622">
        <ele>343.9</ele>
        <time>2018-05-27T07:07:52Z</time>
      </trkpt>
      <trkpt lat="46.83115" lon="5.70602">
        <ele>343.8</ele>
        <time>2018-05-27T07:07:55Z</time>
      </trkpt>
      <trkpt lat="46.83114" lon="5.70589">
        <ele>343.9</ele>
        <time>2018-05-27T07:07:57Z</time>
      </trkpt>
      <trkpt lat="46.83113" lon="5.70576">
        <ele>343.9</ele>
        <time>2018-05-27T07:07:59Z</time>
      </trkpt>
      <trkpt lat="46.83112" lon="5.70562">
        <ele>343.8</ele>
        <time>2018-05-27T07:08:01Z</time>
      </trkpt>
      <trkpt lat="46.83111" lon="5.70548">
        <ele>343.8</ele>
        <time>2018-05-27T07:08:03Z</time>
      </trkpt>
      <trkpt lat="46.83109" lon="5.70532">
        <ele>343.7</ele>
        <time>2018-05-27T07:08:05Z</time>
      </trkpt>
      <trkpt lat="46.83108" lon="5.70516">
        <ele>343.6</ele>
        <time>2018-05-27T07:08:07Z</time>
      </trkpt>
      <trkpt lat="46.83105" lon="5.705">
        <ele>343.5</ele>
        <time>2018-05-27T07:08:09Z</time>
      </trkpt>
      <trkpt lat="46.83102" lon="5.70481">
        <ele>343.3</ele>
        <time>2018-05-27T07:08:11Z</time>
      </trkpt>
      <trkpt lat="46.83098" lon="5.70464">
        <ele>343</ele>
        <time>2018-05-27T07:08:13Z</time>
      </trkpt>
      <trkpt lat="46.83097" lon="5.70447">
        <ele>342.5</ele>
        <time>2018-05-27T07:08:15Z</time>
      </trkpt>
      <trkpt lat="46.83099" lon="5.70433">
        <ele>342.1</ele>
        <time>2018-05-27T07:08:17Z</time>
      </trkpt>
      <trkpt lat="46.83095" lon="5.70419">
        <ele>341.4</ele>
        <time>2018-05-27T07:08:21Z</time>
      </trkpt>
      <trkpt lat="46.83098" lon="5.70404">
        <ele>340.2</ele>
        <time>2018-05-27T07:08:27Z</time>
      </trkpt>
      <trkpt lat="46.83102" lon="5.70391">
        <ele>339.4</ele>
        <time>2018-05-27T07:08:31Z</time>
      </trkpt>
      <trkpt lat="46.83114" lon="5.70396">
        <ele>338.9</ele>
        <time>2018-05-27T07:08:34Z</time>
      </trkpt>
      <trkpt lat="46.83121" lon="5.70387">
        <ele>338.3</ele>
        <time>2018-05-27T07:08:36Z</time>
      </trkpt>
      <trkpt lat="46.83128" lon="5.70373">
        <ele>337.8</ele>
        <time>2018-05-27T07:08:38Z</time>
      </trkpt>
      <trkpt lat="46.83133" lon="5.70354">
        <ele>337.2</ele>
        <time>2018-05-27T07:08:40Z</time>
      </trkpt>
      <trkpt lat="46.83133" lon="5.70331">
        <ele>336.6</ele>
        <time>2018-05-27T07:08:42Z</time>
      </trkpt>
      <trkpt lat="46.8313" lon="5.70306">
        <ele>335.9</ele>
        <time>2018-05-27T07:08:44Z</time>
      </trkpt>
      <trkpt lat="46.83128" lon="5.7028">
        <ele>335.1</ele>
        <time>2018-05-27T07:08:46Z</time>
      </trkpt>
      <trkpt lat="46.83127" lon="5.70267">
        <ele>334.6</ele>
        <time>2018-05-27T07:08:47Z</time>
      </trkpt>
      <trkpt lat="46.83125" lon="5.70242">
        <ele>333.8</ele>
        <time>2018-05-27T07:08:49Z</time>
      </trkpt>
      <trkpt lat="46.83123" lon="5.70229">
        <ele>333.3</ele>
        <time>2018-05-27T07:08:50Z</time>
      </trkpt>
      <trkpt lat="46.8312" lon="5.70216">
        <ele>332.9</ele>
        <time>2018-05-27T07:08:51Z</time>
      </trkpt>
      <trkpt lat="46.83113" lon="5.70196">
        <ele>331.9</ele>
        <time>2018-05-27T07:08:53Z</time>
      </trkpt>
      <trkpt lat="46.83107" lon="5.70182">
        <ele>331</ele>
        <time>2018-05-27T07:08:55Z</time>
      </trkpt>
      <trkpt lat="46.83102" lon="5.70168">
        <ele>329.7</ele>
        <time>2018-05-27T07:08:58Z</time>
      </trkpt>
      <trkpt lat="46.83098" lon="5.70148">
        <ele>328.4</ele>
        <time>2018-05-27T07:09:01Z</time>
      </trkpt>
      <trkpt lat="46.83094" lon="5.70132">
        <ele>327.6</ele>
        <time>2018-05-27T07:09:03Z</time>
      </trkpt>
      <trkpt lat="46.83091" lon="5.70114">
        <ele>326.9</ele>
        <time>2018-05-27T07:09:05Z</time>
      </trkpt>
      <trkpt lat="46.83091" lon="5.70095">
        <ele>326.2</ele>
        <time>2018-05-27T07:09:07Z</time>
      </trkpt>
      <trkpt lat="46.83092" lon="5.70077">
        <ele>325.5</ele>
        <time>2018-05-27T07:09:09Z</time>
      </trkpt>
      <trkpt lat="46.83092" lon="5.70057">
        <ele>324.9</ele>
        <time>2018-05-27T07:09:11Z</time>
      </trkpt>
      <trkpt lat="46.8309" lon="5.70037">
        <ele>324.4</ele>
        <time>2018-05-27T07:09:13Z</time>
      </trkpt>
      <trkpt lat="46.83089" lon="5.70017">
        <ele>323.9</ele>
        <time>2018-05-27T07:09:15Z</time>
      </trkpt>
      <trkpt lat="46.83091" lon="5.69999">
        <ele>323.4</ele>
        <time>2018-05-27T07:09:17Z</time>
      </trkpt>
      <trkpt lat="46.83093" lon="5.6998">
        <ele>322.9</ele>
        <time>2018-05-27T07:09:19Z</time>
      </trkpt>
      <trkpt lat="46.83094" lon="5.69963">
        <ele>322.4</ele>
        <time>2018-05-27T07:09:21Z</time>
      </trkpt>
      <trkpt lat="46.83094" lon="5.69944">
        <ele>322</ele>
        <time>2018-05-27T07:09:23Z</time>
      </trkpt>
      <trkpt lat="46.83093" lon="5.69926">
        <ele>321.5</ele>
        <time>2018-05-27T07:09:25Z</time>
      </trkpt>
      <trkpt lat="46.83093" lon="5.69906">
        <ele>321</ele>
        <time>2018-05-27T07:09:27Z</time>
      </trkpt>
      <trkpt lat="46.83093" lon="5.69888">
        <ele>320.5</ele>
        <time>2018-05-27T07:09:29Z</time>
      </trkpt>
      <trkpt lat="46.83093" lon="5.69868">
        <ele>320</ele>
        <time>2018-05-27T07:09:31Z</time>
      </trkpt>
      <trkpt lat="46.83091" lon="5.69847">
        <ele>319.5</ele>
        <time>2018-05-27T07:09:33Z</time>
      </trkpt>
      <trkpt lat="46.8309" lon="5.69828">
        <ele>319</ele>
        <time>2018-05-27T07:09:35Z</time>
      </trkpt>
      <trkpt lat="46.83088" lon="5.6981">
        <ele>318.5</ele>
        <time>2018-05-27T07:09:37Z</time>
      </trkpt>
      <trkpt lat="46.83088" lon="5.69797">
        <ele>318.1</ele>
        <time>2018-05-27T07:09:39Z</time>
      </trkpt>
      <trkpt lat="46.83098" lon="5.69789">
        <ele>317.5</ele>
        <time>2018-05-27T07:09:42Z</time>
      </trkpt>
      <trkpt lat="46.83108" lon="5.69789">
        <ele>317.1</ele>
        <time>2018-05-27T07:09:44Z</time>
      </trkpt>
      <trkpt lat="46.83117" lon="5.69788">
        <ele>316.8</ele>
        <time>2018-05-27T07:09:46Z</time>
      </trkpt>
      <trkpt lat="46.83126" lon="5.69776">
        <ele>316.2</ele>
        <time>2018-05-27T07:09:49Z</time>
      </trkpt>
      <trkpt lat="46.83127" lon="5.69762">
        <ele>315.9</ele>
        <time>2018-05-27T07:09:51Z</time>
      </trkpt>
      <trkpt lat="46.83125" lon="5.69747">
        <ele>315.6</ele>
        <time>2018-05-27T07:09:53Z</time>
      </trkpt>
      <trkpt lat="46.83121" lon="5.69732">
        <ele>315.4</ele>
        <time>2018-05-27T07:09:55Z</time>
      </trkpt>
      <trkpt lat="46.83117" lon="5.69719">
        <ele>315.1</ele>
        <time>2018-05-27T07:09:57Z</time>
      </trkpt>
      <trkpt lat="46.83111" lon="5.69708">
        <ele>314.9</ele>
        <time>2018-05-27T07:09:59Z</time>
      </trkpt>
      <trkpt lat="46.83104" lon="5.69697">
        <ele>314.7</ele>
        <time>2018-05-27T07:10:01Z</time>
      </trkpt>
      <trkpt lat="46.83098" lon="5.69684">
        <ele>314.5</ele>
        <time>2018-05-27T07:10:03Z</time>
      </trkpt>
      <trkpt lat="46.83094" lon="5.6967">
        <ele>314.4</ele>
        <time>2018-05-27T07:10:05Z</time>
      </trkpt>
      <trkpt lat="46.83093" lon="5.69655">
        <ele>314.2</ele>
        <time>2018-05-27T07:10:07Z</time>
      </trkpt>
      <trkpt lat="46.83095" lon="5.6964">
        <ele>314.1</ele>
        <time>2018-05-27T07:10:09Z</time>
      </trkpt>
      <trkpt lat="46.83098" lon="5.69625">
        <ele>314</ele>
        <time>2018-05-27T07:10:11Z</time>
      </trkpt>
      <trkpt lat="46.83101" lon="5.69609">
        <ele>313.9</ele>
        <time>2018-05-27T07:10:13Z</time>
      </trkpt>
      <trkpt lat="46.83103" lon="5.69592">
        <ele>313.8</ele>
        <time>2018-05-27T07:10:15Z</time>
      </trkpt>
      <trkpt lat="46.83106" lon="5.69575">
        <ele>313.7</ele>
        <time>2018-05-27T07:10:17Z</time>
      </trkpt>
      <trkpt lat="46.83108" lon="5.69562">
        <ele>313.6</ele>
        <time>2018-05-27T07:10:19Z</time>
      </trkpt>
      <trkpt lat="46.83114" lon="5.6955">
        <ele>313.4</ele>
        <time>2018-05-27T07:10:21Z</time>
      </trkpt>
      <trkpt lat="46.83125" lon="5.69544">
        <ele>313.2</ele>
        <time>2018-05-27T07:10:23Z</time>
      </trkpt>
      <trkpt lat="46.83138" lon="5.69545">
        <ele>312.9</ele>
        <time>2018-05-27T07:10:25Z</time>
      </trkpt>
      <trkpt lat="46.83151" lon="5.69544">
        <ele>312.7</ele>
        <time>2018-05-27T07:10:27Z</time>
      </trkpt>
      <trkpt lat="46.83164" lon="5.69541">
        <ele>312.6</ele>
        <time>2018-05-27T07:10:29Z</time>
      </trkpt>
      <trkpt lat="46.83177" lon="5.69536">
        <ele>312.4</ele>
        <time>2018-05-27T07:10:31Z</time>
      </trkpt>
      <trkpt lat="46.83191" lon="5.69531">
        <ele>312.3</ele>
        <time>2018-05-27T07:10:33Z</time>
      </trkpt>
      <trkpt lat="46.83204" lon="5.6953">
        <ele>312.1</ele>
        <time>2018-05-27T07:10:35Z</time>
      </trkpt>
      <trkpt lat="46.83215" lon="5.69531">
        <ele>312</ele>
        <time>2018-05-27T07:10:37Z</time>
      </trkpt>
      <trkpt lat="46.83225" lon="5.69533">
        <ele>311.9</ele>
        <time>2018-05-27T07:10:39Z</time>
      </trkpt>
      <trkpt lat="46.83237" lon="5.69538">
        <ele>311.8</ele>
        <time>2018-05-27T07:10:42Z</time>
      </trkpt>
      <trkpt lat="46.83248" lon="5.69545">
        <ele>311.8</ele>
        <time>2018-05-27T07:10:45Z</time>
      </trkpt>
      <trkpt lat="46.83259" lon="5.69552">
        <ele>312</ele>
        <time>2018-05-27T07:10:48Z</time>
      </trkpt>
      <trkpt lat="46.83268" lon="5.69557">
        <ele>312.1</ele>
        <time>2018-05-27T07:10:50Z</time>
      </trkpt>
      <trkpt lat="46.83276" lon="5.69563">
        <ele>312.2</ele>
        <time>2018-05-27T07:10:52Z</time>
      </trkpt>
      <trkpt lat="46.83285" lon="5.69569">
        <ele>312.3</ele>
        <time>2018-05-27T07:10:54Z</time>
      </trkpt>
      <trkpt lat="46.83293" lon="5.69575">
        <ele>312.4</ele>
        <time>2018-05-27T07:10:56Z</time>
      </trkpt>
      <trkpt lat="46.83302" lon="5.69581">
        <ele>312.5</ele>
        <time>2018-05-27T07:10:58Z</time>
      </trkpt>
      <trkpt lat="46.83311" lon="5.69587">
        <ele>312.6</ele>
        <time>2018-05-27T07:11:00Z</time>
      </trkpt>
      <trkpt lat="46.8332" lon="5.69592">
        <ele>312.7</ele>
        <time>2018-05-27T07:11:02Z</time>
      </trkpt>
      <trkpt lat="46.83328" lon="5.69597">
        <ele>312.8</ele>
        <time>2018-05-27T07:11:04Z</time>
      </trkpt>
      <trkpt lat="46.83337" lon="5.69602">
        <ele>312.9</ele>
        <time>2018-05-27T07:11:06Z</time>
      </trkpt>
      <trkpt lat="46.83346" lon="5.69607">
        <ele>313</ele>
        <time>2018-05-27T07:11:08Z</time>
      </trkpt>
      <trkpt lat="46.83356" lon="5.69612">
        <ele>313.1</ele>
        <time>2018-05-27T07:11:10Z</time>
      </trkpt>
      <trkpt lat="46.83367" lon="5.69617">
        <ele>313.2</ele>
        <time>2018-05-27T07:11:12Z</time>
      </trkpt>
      <trkpt lat="46.83376" lon="5.69621">
        <ele>313.3</ele>
        <time>2018-05-27T07:11:14Z</time>
      </trkpt>
      <trkpt lat="46.83389" lon="5.69628">
        <ele>313.4</ele>
        <time>2018-05-27T07:11:17Z</time>
      </trkpt>
      <trkpt lat="46.83399" lon="5.69634">
        <ele>313.5</ele>
        <time>2018-05-27T07:11:19Z</time>
      </trkpt>
      <trkpt lat="46.83409" lon="5.69639">
        <ele>313.6</ele>
        <time>2018-05-27T07:11:21Z</time>
      </trkpt>
      <trkpt lat="46.83418" lon="5.69643">
        <ele>313.6</ele>
        <time>2018-05-27T07:11:23Z</time>
      </trkpt>
      <trkpt lat="46.83428" lon="5.69646">
        <ele>313.7</ele>
        <time>2018-05-27T07:11:25Z</time>
      </trkpt>
      <trkpt lat="46.83438" lon="5.69651">
        <ele>313.7</ele>
        <time>2018-05-27T07:11:27Z</time>
      </trkpt>
      <trkpt lat="46.83447" lon="5.69654">
        <ele>313.7</ele>
        <time>2018-05-27T07:11:29Z</time>
      </trkpt>
      <trkpt lat="46.8346" lon="5.69659">
        <ele>313.8</ele>
        <time>2018-05-27T07:11:32Z</time>
      </trkpt>
      <trkpt lat="46.8347" lon="5.69663">
        <ele>313.8</ele>
        <time>2018-05-27T07:11:34Z</time>
      </trkpt>
      <trkpt lat="46.83479" lon="5.69667">
        <ele>313.8</ele>
        <time>2018-05-27T07:11:36Z</time>
      </trkpt>
      <trkpt lat="46.83489" lon="5.69659">
        <ele>313.7</ele>
        <time>2018-05-27T07:11:39Z</time>
      </trkpt>
      <trkpt lat="46.83492" lon="5.69645">
        <ele>313.6</ele>
        <time>2018-05-27T07:11:41Z</time>
      </trkpt>
      <trkpt lat="46.83495" lon="5.6963">
        <ele>313.6</ele>
        <time>2018-05-27T07:11:43Z</time>
      </trkpt>
      <trkpt lat="46.83499" lon="5.69613">
        <ele>313.4</ele>
        <time>2018-05-27T07:11:45Z</time>
      </trkpt>
      <trkpt lat="46.83503" lon="5.69594">
        <ele>313.2</ele>
        <time>2018-05-27T07:11:47Z</time>
      </trkpt>
      <trkpt lat="46.83507" lon="5.69576">
        <ele>313</ele>
        <time>2018-05-27T07:11:49Z</time>
      </trkpt>
      <trkpt lat="46.83511" lon="5.69558">
        <ele>312.8</ele>
        <time>2018-05-27T07:11:51Z</time>
      </trkpt>
      <trkpt lat="46.83516" lon="5.6954">
        <ele>312.3</ele>
        <time>2018-05-27T07:11:53Z</time>
      </trkpt>
      <trkpt lat="46.83522" lon="5.69522">
        <ele>311.9</ele>
        <time>2018-05-27T07:11:55Z</time>
      </trkpt>
      <trkpt lat="46.83528" lon="5.69502">
        <ele>311.5</ele>
        <time>2018-05-27T07:11:57Z</time>
      </trkpt>
      <trkpt lat="46.83535" lon="5.6948">
        <ele>310.9</ele>
        <time>2018-05-27T07:11:59Z</time>
      </trkpt>
      <trkpt lat="46.83541" lon="5.69456">
        <ele>310.3</ele>
        <time>2018-05-27T07:12:01Z</time>
      </trkpt>
      <trkpt lat="46.83545" lon="5.69443">
        <ele>310</ele>
        <time>2018-05-27T07:12:02Z</time>
      </trkpt>
      <trkpt lat="46.83549" lon="5.6943">
        <ele>309.7</ele>
        <time>2018-05-27T07:12:03Z</time>
      </trkpt>
      <trkpt lat="46.83553" lon="5.69417">
        <ele>309.4</ele>
        <time>2018-05-27T07:12:04Z</time>
      </trkpt>
      <trkpt lat="46.83557" lon="5.69404">
        <ele>309</ele>
        <time>2018-05-27T07:12:05Z</time>
      </trkpt>
      <trkpt lat="46.83561" lon="5.69391">
        <ele>308.7</ele>
        <time>2018-05-27T07:12:06Z</time>
      </trkpt>
      <trkpt lat="46.83565" lon="5.69378">
        <ele>308.4</ele>
        <time>2018-05-27T07:12:07Z</time>
      </trkpt>
      <trkpt lat="46.83569" lon="5.69365">
        <ele>308</ele>
        <time>2018-05-27T07:12:08Z</time>
      </trkpt>
      <trkpt lat="46.83573" lon="5.69352">
        <ele>307.7</ele>
        <time>2018-05-27T07:12:09Z</time>
      </trkpt>
      <trkpt lat="46.83578" lon="5.6934">
        <ele>307.3</ele>
        <time>2018-05-27T07:12:10Z</time>
      </trkpt>
      <trkpt lat="46.83582" lon="5.69328">
        <ele>307</ele>
        <time>2018-05-27T07:12:11Z</time>
      </trkpt>
      <trkpt lat="46.83586" lon="5.69315">
        <ele>306.6</ele>
        <time>2018-05-27T07:12:12Z</time>
      </trkpt>
      <trkpt lat="46.83589" lon="5.69303">
        <ele>306.3</ele>
        <time>2018-05-27T07:12:13Z</time>
      </trkpt>
      <trkpt lat="46.83593" lon="5.69291">
        <ele>305.9</ele>
        <time>2018-05-27T07:12:14Z</time>
      </trkpt>
      <trkpt lat="46.83598" lon="5.69278">
        <ele>305.6</ele>
        <time>2018-05-27T07:12:15Z</time>
      </trkpt>
      <trkpt lat="46.83606" lon="5.69256">
        <ele>304.8</ele>
        <time>2018-05-27T07:12:17Z</time>
      </trkpt>
      <trkpt lat="46.83613" lon="5.69235">
        <ele>304.1</ele>
        <time>2018-05-27T07:12:19Z</time>
      </trkpt>
      <trkpt lat="46.83613" lon="5.6922">
        <ele>303.4</ele>
        <time>2018-05-27T07:12:21Z</time>
      </trkpt>
      <trkpt lat="46.83607" lon="5.6921">
        <ele>302.7</ele>
        <time>2018-05-27T07:12:23Z</time>
      </trkpt>
      <trkpt lat="46.83596" lon="5.69204">
        <ele>302.1</ele>
        <time>2018-05-27T07:12:25Z</time>
      </trkpt>
      <trkpt lat="46.83585" lon="5.692">
        <ele>301.6</ele>
        <time>2018-05-27T07:12:27Z</time>
      </trkpt>
      <trkpt lat="46.83574" lon="5.69194">
        <ele>301.1</ele>
        <time>2018-05-27T07:12:29Z</time>
      </trkpt>
      <trkpt lat="46.83563" lon="5.69188">
        <ele>300.7</ele>
        <time>2018-05-27T07:12:31Z</time>
      </trkpt>
      <trkpt lat="46.83552" lon="5.69183">
        <ele>300.4</ele>
        <time>2018-05-27T07:12:33Z</time>
      </trkpt>
      <trkpt lat="46.83542" lon="5.69178">
        <ele>300.1</ele>
        <time>2018-05-27T07:12:35Z</time>
      </trkpt>
      <trkpt lat="46.83531" lon="5.69172">
        <ele>299.8</ele>
        <time>2018-05-27T07:12:37Z</time>
      </trkpt>
      <trkpt lat="46.8352" lon="5.69167">
        <ele>299.5</ele>
        <time>2018-05-27T07:12:39Z</time>
      </trkpt>
      <trkpt lat="46.8351" lon="5.69162">
        <ele>299.3</ele>
        <time>2018-05-27T07:12:41Z</time>
      </trkpt>
      <trkpt lat="46.83499" lon="5.69157">
        <ele>299.2</ele>
        <time>2018-05-27T07:12:43Z</time>
      </trkpt>
      <trkpt lat="46.83488" lon="5.69151">
        <ele>299</ele>
        <time>2018-05-27T07:12:45Z</time>
      </trkpt>
      <trkpt lat="46.83478" lon="5.69146">
        <ele>298.9</ele>
        <time>2018-05-27T07:12:47Z</time>
      </trkpt>
      <trkpt lat="46.83468" lon="5.69141">
        <ele>298.7</ele>
        <time>2018-05-27T07:12:49Z</time>
      </trkpt>
      <trkpt lat="46.83458" lon="5.69137">
        <ele>298.6</ele>
        <time>2018-05-27T07:12:51Z</time>
      </trkpt>
      <trkpt lat="46.83448" lon="5.69132">
        <ele>298.6</ele>
        <time>2018-05-27T07:12:53Z</time>
      </trkpt>
      <trkpt lat="46.83439" lon="5.69127">
        <ele>298.5</ele>
        <time>2018-05-27T07:12:55Z</time>
      </trkpt>
      <trkpt lat="46.83431" lon="5.69123">
        <ele>298.5</ele>
        <time>2018-05-27T07:12:57Z</time>
      </trkpt>
      <trkpt lat="46.83422" lon="5.69118">
        <ele>298.5</ele>
        <time>2018-05-27T07:12:59Z</time>
      </trkpt>
      <trkpt lat="46.83413" lon="5.69114">
        <ele>298.5</ele>
        <time>2018-05-27T07:13:01Z</time>
      </trkpt>
      <trkpt lat="46.83402" lon="5.69106">
        <ele>298.6</ele>
        <time>2018-05-27T07:13:04Z</time>
      </trkpt>
      <trkpt lat="46.83397" lon="5.6909">
        <ele>298.7</ele>
        <time>2018-05-27T07:13:07Z</time>
      </trkpt>
      <trkpt lat="46.83398" lon="5.69071">
        <ele>298.8</ele>
        <time>2018-05-27T07:13:10Z</time>
      </trkpt>
      <trkpt lat="46.83398" lon="5.69057">
        <ele>298.9</ele>
        <time>2018-05-27T07:13:12Z</time>
      </trkpt>
      <trkpt lat="46.83402" lon="5.69045">
        <ele>298.9</ele>
        <time>2018-05-27T07:13:14Z</time>
      </trkpt>
      <trkpt lat="46.83408" lon="5.69035">
        <ele>299</ele>
        <time>2018-05-27T07:13:16Z</time>
      </trkpt>
      <trkpt lat="46.83408" lon="5.69019">
        <ele>299</ele>
        <time>2018-05-27T07:13:19Z</time>
      </trkpt>
      <trkpt lat="46.83405" lon="5.69007">
        <ele>299.1</ele>
        <time>2018-05-27T07:13:21Z</time>
      </trkpt>
      <trkpt lat="46.83403" lon="5.68992">
        <ele>299.1</ele>
        <time>2018-05-27T07:13:23Z</time>
      </trkpt>
      <trkpt lat="46.83404" lon="5.68975">
        <ele>299.1</ele>
        <time>2018-05-27T07:13:25Z</time>
      </trkpt>
      <trkpt lat="46.83407" lon="5.68961">
        <ele>299.1</ele>
        <time>2018-05-27T07:13:27Z</time>
      </trkpt>
      <trkpt lat="46.83412" lon="5.68948">
        <ele>299</ele>
        <time>2018-05-27T07:13:29Z</time>
      </trkpt>
      <trkpt lat="46.83417" lon="5.68936">
        <ele>298.9</ele>
        <time>2018-05-27T07:13:31Z</time>
      </trkpt>
      <trkpt lat="46.83422" lon="5.68923">
        <ele>298.9</ele>
        <time>2018-05-27T07:13:33Z</time>
      </trkpt>
      <trkpt lat="46.83428" lon="5.6891">
        <ele>298.8</ele>
        <time>2018-05-27T07:13:35Z</time>
      </trkpt>
      <trkpt lat="46.83433" lon="5.68899">
        <ele>298.8</ele>
        <time>2018-05-27T07:13:37Z</time>
      </trkpt>
      <trkpt lat="46.83437" lon="5.68886">
        <ele>298.8</ele>
        <time>2018-05-27T07:13:39Z</time>
      </trkpt>
      <trkpt lat="46.83441" lon="5.68874">
        <ele>298.8</ele>
        <time>2018-05-27T07:13:42Z</time>
      </trkpt>
      <trkpt lat="46.83446" lon="5.68862">
        <ele>299.1</ele>
        <time>2018-05-27T07:13:47Z</time>
      </trkpt>
      <trkpt lat="46.8345" lon="5.68847">
        <ele>299.5</ele>
        <time>2018-05-27T07:13:51Z</time>
      </trkpt>
      <trkpt lat="46.83453" lon="5.68832">
        <ele>300</ele>
        <time>2018-05-27T07:13:54Z</time>
      </trkpt>
      <trkpt lat="46.83455" lon="5.68815">
        <ele>300.3</ele>
        <time>2018-05-27T07:13:57Z</time>
      </trkpt>
      <trkpt lat="46.83455" lon="5.68798">
        <ele>300.7</ele>
        <time>2018-05-27T07:14:00Z</time>
      </trkpt>
      <trkpt lat="46.83454" lon="5.68779">
        <ele>300.9</ele>
        <time>2018-05-27T07:14:03Z</time>
      </trkpt>
      <trkpt lat="46.83454" lon="5.68765">
        <ele>301.1</ele>
        <time>2018-05-27T07:14:05Z</time>
      </trkpt>
      <trkpt lat="46.83453" lon="5.68749">
        <ele>301.2</ele>
        <time>2018-05-27T07:14:07Z</time>
      </trkpt>
      <trkpt lat="46.83453" lon="5.68731">
        <ele>301.2</ele>
        <time>2018-05-27T07:14:09Z</time>
      </trkpt>
      <trkpt lat="46.83452" lon="5.68712">
        <ele>301.1</ele>
        <time>2018-05-27T07:14:11Z</time>
      </trkpt>
      <trkpt lat="46.83452" lon="5.68693">
        <ele>301</ele>
        <time>2018-05-27T07:14:13Z</time>
      </trkpt>
      <trkpt lat="46.83452" lon="5.68674">
        <ele>300.5</ele>
        <time>2018-05-27T07:14:16Z</time>
      </trkpt>
      <trkpt lat="46.83447" lon="5.68656">
        <ele>300.2</ele>
        <time>2018-05-27T07:14:19Z</time>
      </trkpt>
      <trkpt lat="46.83439" lon="5.68647">
        <ele>300</ele>
        <time>2018-05-27T07:14:21Z</time>
      </trkpt>
      <trkpt lat="46.8343" lon="5.68635">
        <ele>299.8</ele>
        <time>2018-05-27T07:14:24Z</time>
      </trkpt>
      <trkpt lat="46.83419" lon="5.68626">
        <ele>299.6</ele>
        <time>2018-05-27T07:14:27Z</time>
      </trkpt>
      <trkpt lat="46.83409" lon="5.68615">
        <ele>299.4</ele>
        <time>2018-05-27T07:14:30Z</time>
      </trkpt>
      <trkpt lat="46.834" lon="5.68603">
        <ele>299.4</ele>
        <time>2018-05-27T07:14:33Z</time>
      </trkpt>
      <trkpt lat="46.83392" lon="5.68589">
        <ele>299.3</ele>
        <time>2018-05-27T07:14:36Z</time>
      </trkpt>
      <trkpt lat="46.83384" lon="5.68574">
        <ele>299.3</ele>
        <time>2018-05-27T07:14:39Z</time>
      </trkpt>
      <trkpt lat="46.83376" lon="5.68558">
        <ele>299.2</ele>
        <time>2018-05-27T07:14:42Z</time>
      </trkpt>
      <trkpt lat="46.8337" lon="5.6854">
        <ele>299.2</ele>
        <time>2018-05-27T07:14:45Z</time>
      </trkpt>
      <trkpt lat="46.83366" lon="5.68528">
        <ele>299.2</ele>
        <time>2018-05-27T07:14:47Z</time>
      </trkpt>
      <trkpt lat="46.83362" lon="5.68516">
        <ele>299.2</ele>
        <time>2018-05-27T07:14:49Z</time>
      </trkpt>
      <trkpt lat="46.83357" lon="5.68504">
        <ele>299.2</ele>
        <time>2018-05-27T07:14:51Z</time>
      </trkpt>
      <trkpt lat="46.83349" lon="5.68489">
        <ele>299.1</ele>
        <time>2018-05-27T07:14:54Z</time>
      </trkpt>
      <trkpt lat="46.83341" lon="5.68474">
        <ele>299.1</ele>
        <time>2018-05-27T07:14:57Z</time>
      </trkpt>
      <trkpt lat="46.83334" lon="5.68459">
        <ele>299.1</ele>
        <time>2018-05-27T07:15:00Z</time>
      </trkpt>
      <trkpt lat="46.83328" lon="5.68444">
        <ele>299.1</ele>
        <time>2018-05-27T07:15:03Z</time>
      </trkpt>
      <trkpt lat="46.83322" lon="5.68428">
        <ele>299.1</ele>
        <time>2018-05-27T07:15:06Z</time>
      </trkpt>
      <trkpt lat="46.83317" lon="5.68413">
        <ele>299.1</ele>
        <time>2018-05-27T07:15:09Z</time>
      </trkpt>
      <trkpt lat="46.83312" lon="5.68398">
        <ele>299.1</ele>
        <time>2018-05-27T07:15:12Z</time>
      </trkpt>
      <trkpt lat="46.8331" lon="5.68383">
        <ele>299.1</ele>
        <time>2018-05-27T07:15:15Z</time>
      </trkpt>
      <trkpt lat="46.83314" lon="5.68368">
        <ele>299.3</ele>
        <time>2018-05-27T07:15:19Z</time>
      </trkpt>
      <trkpt lat="46.83318" lon="5.68352">
        <ele>299.5</ele>
        <time>2018-05-27T07:15:23Z</time>
      </trkpt>
      <trkpt lat="46.83325" lon="5.68341">
        <ele>299.7</ele>
        <time>2018-05-27T07:15:26Z</time>
      </trkpt>
      <trkpt lat="46.83333" lon="5.68331">
        <ele>299.9</ele>
        <time>2018-05-27T07:15:29Z</time>
      </trkpt>
      <trkpt lat="46.83339" lon="5.68319">
        <ele>300.1</ele>
        <time>2018-05-27T07:15:32Z</time>
      </trkpt>
      <trkpt lat="46.83346" lon="5.68308">
        <ele>300.2</ele>
        <time>2018-05-27T07:15:35Z</time>
      </trkpt>
      <trkpt lat="46.83351" lon="5.68297">
        <ele>300.3</ele>
        <time>2018-05-27T07:15:38Z</time>
      </trkpt>
      <trkpt lat="46.83355" lon="5.68283">
        <ele>300.4</ele>
        <time>2018-05-27T07:15:42Z</time>
      </trkpt>
      <trkpt lat="46.83357" lon="5.6827">
        <ele>300.5</ele>
        <time>2018-05-27T07:15:46Z</time>
      </trkpt>
      <trkpt lat="46.83356" lon="5.68255">
        <ele>300.6</ele>
        <time>2018-05-27T07:15:50Z</time>
      </trkpt>
      <trkpt lat="46.83355" lon="5.68238">
        <ele>300.7</ele>
        <time>2018-05-27T07:15:54Z</time>
      </trkpt>
      <trkpt lat="46.83359" lon="5.68223">
        <ele>300.8</ele>
        <time>2018-05-27T07:15:57Z</time>
      </trkpt>
      <trkpt lat="46.8336" lon="5.68209">
        <ele>300.8</ele>
        <time>2018-05-27T07:16:01Z</time>
      </trkpt>
      <trkpt lat="46.83357" lon="5.68194">
        <ele>300.9</ele>
        <time>2018-05-27T07:16:05Z</time>
      </trkpt>
      <trkpt lat="46.83353" lon="5.68179">
        <ele>301</ele>
        <time>2018-05-27T07:16:09Z</time>
      </trkpt>
      <trkpt lat="46.83348" lon="5.68164">
        <ele>301.1</ele>
        <time>2018-05-27T07:16:12Z</time>
      </trkpt>
      <trkpt lat="46.83345" lon="5.68148">
        <ele>301.2</ele>
        <time>2018-05-27T07:16:16Z</time>
      </trkpt>
      <trkpt lat="46.83342" lon="5.68133">
        <ele>301.5</ele>
        <time>2018-05-27T07:16:22Z</time>
      </trkpt>
      <trkpt lat="46.83339" lon="5.68121">
        <ele>301.6</ele>
        <time>2018-05-27T07:16:26Z</time>
      </trkpt>
      <trkpt lat="46.83337" lon="5.68108">
        <ele>301.7</ele>
        <time>2018-05-27T07:16:29Z</time>
      </trkpt>
      <trkpt lat="46.83332" lon="5.68097">
        <ele>301.9</ele>
        <time>2018-05-27T07:16:35Z</time>
      </trkpt>
      <trkpt lat="46.8333" lon="5.68083">
        <ele>302.2</ele>
        <time>2018-05-27T07:16:47Z</time>
      </trkpt>
      <trkpt lat="46.83328" lon="5.6807">
        <ele>302.5</ele>
        <time>2018-05-27T07:16:55Z</time>
      </trkpt>
      <trkpt lat="46.83325" lon="5.68055">
        <ele>303.5</ele>
        <time>2018-05-27T07:17:04Z</time>
      </trkpt>
      <trkpt lat="46.83325" lon="5.68042">
        <ele>304.3</ele>
        <time>2018-05-27T07:17:11Z</time>
      </trkpt>
      <trkpt lat="46.83325" lon="5.68027">
        <ele>306.8</ele>
        <time>2018-05-27T07:17:32Z</time>
      </trkpt>
      <trkpt lat="46.8333" lon="5.68016">
        <ele>308.1</ele>
        <time>2018-05-27T07:17:43Z</time>
      </trkpt>
      <trkpt lat="46.83341" lon="5.68006">
        <ele>309.8</ele>
        <time>2018-05-27T07:17:59Z</time>
      </trkpt>
      <trkpt lat="46.83347" lon="5.67996">
        <ele>310.2</ele>
        <time>2018-05-27T07:18:04Z</time>
      </trkpt>
      <trkpt lat="46.83354" lon="5.67987">
        <ele>310.8</ele>
        <time>2018-05-27T07:18:10Z</time>
      </trkpt>
      <trkpt lat="46.83361" lon="5.67979">
        <ele>311.7</ele>
        <time>2018-05-27T07:18:17Z</time>
      </trkpt>
      <trkpt lat="46.83368" lon="5.67968">
        <ele>312.7</ele>
        <time>2018-05-27T07:18:24Z</time>
      </trkpt>
      <trkpt lat="46.83374" lon="5.67953">
        <ele>313.5</ele>
        <time>2018-05-27T07:18:30Z</time>
      </trkpt>
      <trkpt lat="46.8338" lon="5.67942">
        <ele>314.3</ele>
        <time>2018-05-27T07:18:36Z</time>
      </trkpt>
      <trkpt lat="46.83386" lon="5.67933">
        <ele>315</ele>
        <time>2018-05-27T07:18:41Z</time>
      </trkpt>
      <trkpt lat="46.83393" lon="5.67923">
        <ele>315.9</ele>
        <time>2018-05-27T07:18:47Z</time>
      </trkpt>
      <trkpt lat="46.83402" lon="5.67916">
        <ele>317</ele>
        <time>2018-05-27T07:18:55Z</time>
      </trkpt>
      <trkpt lat="46.83411" lon="5.67907">
        <ele>318.2</ele>
        <time>2018-05-27T07:19:06Z</time>
      </trkpt>
      <trkpt lat="46.83418" lon="5.67898">
        <ele>319.5</ele>
        <time>2018-05-27T07:19:20Z</time>
      </trkpt>
      <trkpt lat="46.83415" lon="5.67885">
        <ele>320.1</ele>
        <time>2018-05-27T07:19:30Z</time>
      </trkpt>
      <trkpt lat="46.83408" lon="5.67874">
        <ele>320.5</ele>
        <time>2018-05-27T07:19:37Z</time>
      </trkpt>
      <trkpt lat="46.83402" lon="5.67863">
        <ele>320.8</ele>
        <time>2018-05-27T07:19:42Z</time>
      </trkpt>
      <trkpt lat="46.83396" lon="5.67853">
        <ele>321.3</ele>
        <time>2018-05-27T07:19:49Z</time>
      </trkpt>
      <trkpt lat="46.83389" lon="5.67842">
        <ele>322</ele>
        <time>2018-05-27T07:19:57Z</time>
      </trkpt>
      <trkpt lat="46.83383" lon="5.6783">
        <ele>322.8</ele>
        <time>2018-05-27T07:20:04Z</time>
      </trkpt>
      <trkpt lat="46.83376" lon="5.67819">
        <ele>323.8</ele>
        <time>2018-05-27T07:20:09Z</time>
      </trkpt>
      <trkpt lat="46.8337" lon="5.67808">
        <ele>325.1</ele>
        <time>2018-05-27T07:20:16Z</time>
      </trkpt>
      <trkpt lat="46.83363" lon="5.678">
        <ele>326</ele>
        <time>2018-05-27T07:20:22Z</time>
      </trkpt>
      <trkpt lat="46.83355" lon="5.67791">
        <ele>326.8</ele>
        <time>2018-05-27T07:20:29Z</time>
      </trkpt>
      <trkpt lat="46.83347" lon="5.67784">
        <ele>327.4</ele>
        <time>2018-05-27T07:20:35Z</time>
      </trkpt>
      <trkpt lat="46.83338" lon="5.67774">
        <ele>327.8</ele>
        <time>2018-05-27T07:20:39Z</time>
      </trkpt>
      <trkpt lat="46.8333" lon="5.67764">
        <ele>328.2</ele>
        <time>2018-05-27T07:20:44Z</time>
      </trkpt>
      <trkpt lat="46.83323" lon="5.67753">
        <ele>328.7</ele>
        <time>2018-05-27T07:20:50Z</time>
      </trkpt>
      <trkpt lat="46.83317" lon="5.6774">
        <ele>329.5</ele>
        <time>2018-05-27T07:20:57Z</time>
      </trkpt>
      <trkpt lat="46.8331" lon="5.67729">
        <ele>330.1</ele>
        <time>2018-05-27T07:21:04Z</time>
      </trkpt>
      <trkpt lat="46.83306" lon="5.67718">
        <ele>330.4</ele>
        <time>2018-05-27T07:21:08Z</time>
      </trkpt>
      <trkpt lat="46.83303" lon="5.67705">
        <ele>330.7</ele>
        <time>2018-05-27T07:21:13Z</time>
      </trkpt>
      <trkpt lat="46.833" lon="5.6769">
        <ele>331.6</ele>
        <time>2018-05-27T07:21:20Z</time>
      </trkpt>
      <trkpt lat="46.83294" lon="5.67677">
        <ele>332.1</ele>
        <time>2018-05-27T07:21:25Z</time>
      </trkpt>
      <trkpt lat="46.8329" lon="5.67665">
        <ele>332.8</ele>
        <time>2018-05-27T07:21:32Z</time>
      </trkpt>
      <trkpt lat="46.83284" lon="5.67652">
        <ele>333.6</ele>
        <time>2018-05-27T07:21:39Z</time>
      </trkpt>
      <trkpt lat="46.83277" lon="5.67644">
        <ele>334.1</ele>
        <time>2018-05-27T07:21:44Z</time>
      </trkpt>
      <trkpt lat="46.8327" lon="5.67633">
        <ele>334.7</ele>
        <time>2018-05-27T07:21:49Z</time>
      </trkpt>
      <trkpt lat="46.83265" lon="5.67622">
        <ele>335.5</ele>
        <time>2018-05-27T07:21:54Z</time>
      </trkpt>
      <trkpt lat="46.8326" lon="5.67609">
        <ele>336.5</ele>
        <time>2018-05-27T07:22:00Z</time>
      </trkpt>
      <trkpt lat="46.83257" lon="5.67596">
        <ele>337.4</ele>
        <time>2018-05-27T07:22:06Z</time>
      </trkpt>
      <trkpt lat="46.83256" lon="5.67579">
        <ele>338.4</ele>
        <time>2018-05-27T07:22:13Z</time>
      </trkpt>
      <trkpt lat="46.83253" lon="5.67566">
        <ele>338.9</ele>
        <time>2018-05-27T07:22:17Z</time>
      </trkpt>
      <trkpt lat="46.83248" lon="5.67553">
        <ele>339.4</ele>
        <time>2018-05-27T07:22:22Z</time>
      </trkpt>
      <trkpt lat="46.83243" lon="5.67543">
        <ele>340</ele>
        <time>2018-05-27T07:22:27Z</time>
      </trkpt>
      <trkpt lat="46.83242" lon="5.67528">
        <ele>340.5</ele>
        <time>2018-05-27T07:22:33Z</time>
      </trkpt>
      <trkpt lat="46.83239" lon="5.67513">
        <ele>341.1</ele>
        <time>2018-05-27T07:22:39Z</time>
      </trkpt>
      <trkpt lat="46.83236" lon="5.67499">
        <ele>341.5</ele>
        <time>2018-05-27T07:22:44Z</time>
      </trkpt>
      <trkpt lat="46.83234" lon="5.67484">
        <ele>341.9</ele>
        <time>2018-05-27T07:22:48Z</time>
      </trkpt>
      <trkpt lat="46.8323" lon="5.67471">
        <ele>342.5</ele>
        <time>2018-05-27T07:22:54Z</time>
      </trkpt>
      <trkpt lat="46.83226" lon="5.67459">
        <ele>343.4</ele>
        <time>2018-05-27T07:23:02Z</time>
      </trkpt>
      <trkpt lat="46.83222" lon="5.67446">
        <ele>344.2</ele>
        <time>2018-05-27T07:23:08Z</time>
      </trkpt>
      <trkpt lat="46.83219" lon="5.67432">
        <ele>344.9</ele>
        <time>2018-05-27T07:23:14Z</time>
      </trkpt>
      <trkpt lat="46.83216" lon="5.67416">
        <ele>345.5</ele>
        <time>2018-05-27T07:23:18Z</time>
      </trkpt>
      <trkpt lat="46.83214" lon="5.674">
        <ele>346.4</ele>
        <time>2018-05-27T07:23:24Z</time>
      </trkpt>
      <trkpt lat="46.83211" lon="5.67388">
        <ele>347.2</ele>
        <time>2018-05-27T07:23:30Z</time>
      </trkpt>
      <trkpt lat="46.83209" lon="5.67373">
        <ele>348.2</ele>
        <time>2018-05-27T07:23:37Z</time>
      </trkpt>
      <trkpt lat="46.83206" lon="5.67359">
        <ele>349</ele>
        <time>2018-05-27T07:23:43Z</time>
      </trkpt>
      <trkpt lat="46.83204" lon="5.67344">
        <ele>349.7</ele>
        <time>2018-05-27T07:23:48Z</time>
      </trkpt>
      <trkpt lat="46.83202" lon="5.67331">
        <ele>350.1</ele>
        <time>2018-05-27T07:23:52Z</time>
      </trkpt>
      <trkpt lat="46.83202" lon="5.67317">
        <ele>350.7</ele>
        <time>2018-05-27T07:23:59Z</time>
      </trkpt>
      <trkpt lat="46.83205" lon="5.67302">
        <ele>351.7</ele>
        <time>2018-05-27T07:24:08Z</time>
      </trkpt>
      <trkpt lat="46.83212" lon="5.67291">
        <ele>352.5</ele>
        <time>2018-05-27T07:24:14Z</time>
      </trkpt>
      <trkpt lat="46.83216" lon="5.67279">
        <ele>353.1</ele>
        <time>2018-05-27T07:24:19Z</time>
      </trkpt>
      <trkpt lat="46.83223" lon="5.67269">
        <ele>354.3</ele>
        <time>2018-05-27T07:24:26Z</time>
      </trkpt>
      <trkpt lat="46.83231" lon="5.67262">
        <ele>355.3</ele>
        <time>2018-05-27T07:24:34Z</time>
      </trkpt>
      <trkpt lat="46.8324" lon="5.67257">
        <ele>356</ele>
        <time>2018-05-27T07:24:40Z</time>
      </trkpt>
      <trkpt lat="46.83249" lon="5.67254">
        <ele>356.7</ele>
        <time>2018-05-27T07:24:47Z</time>
      </trkpt>
      <trkpt lat="46.83262" lon="5.67252">
        <ele>357.1</ele>
        <time>2018-05-27T07:24:52Z</time>
      </trkpt>
      <trkpt lat="46.83273" lon="5.67248">
        <ele>357.3</ele>
        <time>2018-05-27T07:24:55Z</time>
      </trkpt>
      <trkpt lat="46.83283" lon="5.67239">
        <ele>357.6</ele>
        <time>2018-05-27T07:25:00Z</time>
      </trkpt>
      <trkpt lat="46.83292" lon="5.67228">
        <ele>357.5</ele>
        <time>2018-05-27T07:25:05Z</time>
      </trkpt>
      <trkpt lat="46.833" lon="5.67218">
        <ele>357.2</ele>
        <time>2018-05-27T07:25:10Z</time>
      </trkpt>
      <trkpt lat="46.83309" lon="5.67214">
        <ele>357</ele>
        <time>2018-05-27T07:25:14Z</time>
      </trkpt>
      <trkpt lat="46.83323" lon="5.67215">
        <ele>356.6</ele>
        <time>2018-05-27T07:25:17Z</time>
      </trkpt>
      <trkpt lat="46.83334" lon="5.67214">
        <ele>356.3</ele>
        <time>2018-05-27T07:25:19Z</time>
      </trkpt>
      <trkpt lat="46.83343" lon="5.67206">
        <ele>356</ele>
        <time>2018-05-27T07:25:21Z</time>
      </trkpt>
      <trkpt lat="46.83348" lon="5.67193">
        <ele>355.8</ele>
        <time>2018-05-27T07:25:23Z</time>
      </trkpt>
      <trkpt lat="46.8335" lon="5.67178">
        <ele>355.5</ele>
        <time>2018-05-27T07:25:25Z</time>
      </trkpt>
      <trkpt lat="46.83353" lon="5.67162">
        <ele>355.3</ele>
        <time>2018-05-27T07:25:27Z</time>
      </trkpt>
      <trkpt lat="46.8335" lon="5.67145">
        <ele>354.9</ele>
        <time>2018-05-27T07:25:29Z</time>
      </trkpt>
      <trkpt lat="46.83344" lon="5.67131">
        <ele>354.4</ele>
        <time>2018-05-27T07:25:31Z</time>
      </trkpt>
      <trkpt lat="46.83333" lon="5.67124">
        <ele>353.6</ele>
        <time>2018-05-27T07:25:33Z</time>
      </trkpt>
      <trkpt lat="46.83317" lon="5.67114">
        <ele>352.9</ele>
        <time>2018-05-27T07:25:35Z</time>
      </trkpt>
      <trkpt lat="46.83308" lon="5.67107">
        <ele>352.5</ele>
        <time>2018-05-27T07:25:36Z</time>
      </trkpt>
      <trkpt lat="46.83299" lon="5.67099">
        <ele>352.1</ele>
        <time>2018-05-27T07:25:37Z</time>
      </trkpt>
      <trkpt lat="46.83291" lon="5.6709">
        <ele>351.7</ele>
        <time>2018-05-27T07:25:38Z</time>
      </trkpt>
      <trkpt lat="46.83283" lon="5.6708">
        <ele>351.3</ele>
        <time>2018-05-27T07:25:39Z</time>
      </trkpt>
      <trkpt lat="46.83272" lon="5.6706">
        <ele>350.6</ele>
        <time>2018-05-27T07:25:41Z</time>
      </trkpt>
      <trkpt lat="46.83268" lon="5.67038">
        <ele>350</ele>
        <time>2018-05-27T07:25:43Z</time>
      </trkpt>
      <trkpt lat="46.83264" lon="5.67017">
        <ele>349.4</ele>
        <time>2018-05-27T07:25:45Z</time>
      </trkpt>
      <trkpt lat="46.83259" lon="5.66998">
        <ele>348.7</ele>
        <time>2018-05-27T07:25:47Z</time>
      </trkpt>
      <trkpt lat="46.83253" lon="5.66978">
        <ele>348.2</ele>
        <time>2018-05-27T07:25:49Z</time>
      </trkpt>
      <trkpt lat="46.83247" lon="5.66959">
        <ele>347.5</ele>
        <time>2018-05-27T07:25:51Z</time>
      </trkpt>
      <trkpt lat="46.83241" lon="5.66937">
        <ele>346.9</ele>
        <time>2018-05-27T07:25:53Z</time>
      </trkpt>
      <trkpt lat="46.83238" lon="5.66924">
        <ele>346.6</ele>
        <time>2018-05-27T07:25:54Z</time>
      </trkpt>
      <trkpt lat="46.83233" lon="5.66912">
        <ele>346.2</ele>
        <time>2018-05-27T07:25:55Z</time>
      </trkpt>
      <trkpt lat="46.83231" lon="5.669">
        <ele>345.8</ele>
        <time>2018-05-27T07:25:56Z</time>
      </trkpt>
      <trkpt lat="46.83229" lon="5.66886">
        <ele>345.4</ele>
        <time>2018-05-27T07:25:57Z</time>
      </trkpt>
      <trkpt lat="46.83229" lon="5.66873">
        <ele>345</ele>
        <time>2018-05-27T07:25:58Z</time>
      </trkpt>
      <trkpt lat="46.8323" lon="5.66859">
        <ele>344.5</ele>
        <time>2018-05-27T07:25:59Z</time>
      </trkpt>
      <trkpt lat="46.83234" lon="5.66845">
        <ele>344.1</ele>
        <time>2018-05-27T07:26:00Z</time>
      </trkpt>
      <trkpt lat="46.83238" lon="5.66831">
        <ele>343.5</ele>
        <time>2018-05-27T07:26:01Z</time>
      </trkpt>
      <trkpt lat="46.83243" lon="5.66817">
        <ele>343.1</ele>
        <time>2018-05-27T07:26:02Z</time>
      </trkpt>
      <trkpt lat="46.83248" lon="5.66804">
        <ele>342.6</ele>
        <time>2018-05-27T07:26:03Z</time>
      </trkpt>
      <trkpt lat="46.83255" lon="5.66793">
        <ele>342.1</ele>
        <time>2018-05-27T07:26:04Z</time>
      </trkpt>
      <trkpt lat="46.83263" lon="5.66783">
        <ele>341.7</ele>
        <time>2018-05-27T07:26:05Z</time>
      </trkpt>
      <trkpt lat="46.8327" lon="5.66772">
        <ele>341.2</ele>
        <time>2018-05-27T07:26:06Z</time>
      </trkpt>
      <trkpt lat="46.83278" lon="5.66761">
        <ele>340.7</ele>
        <time>2018-05-27T07:26:07Z</time>
      </trkpt>
      <trkpt lat="46.83285" lon="5.6675">
        <ele>340.2</ele>
        <time>2018-05-27T07:26:08Z</time>
      </trkpt>
      <trkpt lat="46.83291" lon="5.66739">
        <ele>339.7</ele>
        <time>2018-05-27T07:26:09Z</time>
      </trkpt>
      <trkpt lat="46.83297" lon="5.66729">
        <ele>339.2</ele>
        <time>2018-05-27T07:26:10Z</time>
      </trkpt>
      <trkpt lat="46.83307" lon="5.66708">
        <ele>338.1</ele>
        <time>2018-05-27T07:26:12Z</time>
      </trkpt>
      <trkpt lat="46.83318" lon="5.6669">
        <ele>336.9</ele>
        <time>2018-05-27T07:26:14Z</time>
      </trkpt>
      <trkpt lat="46.8333" lon="5.66671">
        <ele>335.8</ele>
        <time>2018-05-27T07:26:16Z</time>
      </trkpt>
      <trkpt lat="46.83344" lon="5.66654">
        <ele>334.5</ele>
        <time>2018-05-27T07:26:18Z</time>
      </trkpt>
      <trkpt lat="46.83351" lon="5.66646">
        <ele>333.9</ele>
        <time>2018-05-27T07:26:19Z</time>
      </trkpt>
      <trkpt lat="46.83357" lon="5.66636">
        <ele>333.3</ele>
        <time>2018-05-27T07:26:20Z</time>
      </trkpt>
      <trkpt lat="46.83365" lon="5.66627">
        <ele>332.7</ele>
        <time>2018-05-27T07:26:21Z</time>
      </trkpt>
      <trkpt lat="46.83373" lon="5.66618">
        <ele>332.1</ele>
        <time>2018-05-27T07:26:22Z</time>
      </trkpt>
      <trkpt lat="46.83379" lon="5.66609">
        <ele>331.5</ele>
        <time>2018-05-27T07:26:23Z</time>
      </trkpt>
      <trkpt lat="46.83386" lon="5.66599">
        <ele>331</ele>
        <time>2018-05-27T07:26:24Z</time>
      </trkpt>
      <trkpt lat="46.834" lon="5.66582">
        <ele>329.8</ele>
        <time>2018-05-27T07:26:26Z</time>
      </trkpt>
      <trkpt lat="46.83407" lon="5.66575">
        <ele>329.3</ele>
        <time>2018-05-27T07:26:27Z</time>
      </trkpt>
      <trkpt lat="46.83419" lon="5.66558">
        <ele>328.2</ele>
        <time>2018-05-27T07:26:29Z</time>
      </trkpt>
      <trkpt lat="46.8343" lon="5.66539">
        <ele>327.3</ele>
        <time>2018-05-27T07:26:31Z</time>
      </trkpt>
      <trkpt lat="46.83437" lon="5.6652">
        <ele>326.4</ele>
        <time>2018-05-27T07:26:33Z</time>
      </trkpt>
      <trkpt lat="46.83444" lon="5.66499">
        <ele>325.6</ele>
        <time>2018-05-27T07:26:35Z</time>
      </trkpt>
      <trkpt lat="46.83451" lon="5.66479">
        <ele>324.7</ele>
        <time>2018-05-27T07:26:37Z</time>
      </trkpt>
      <trkpt lat="46.8346" lon="5.6646">
        <ele>323.8</ele>
        <time>2018-05-27T07:26:39Z</time>
      </trkpt>
      <trkpt lat="46.83471" lon="5.66442">
        <ele>322.9</ele>
        <time>2018-05-27T07:26:41Z</time>
      </trkpt>
      <trkpt lat="46.83483" lon="5.66425">
        <ele>321.9</ele>
        <time>2018-05-27T07:26:43Z</time>
      </trkpt>
      <trkpt lat="46.83495" lon="5.66408">
        <ele>321.1</ele>
        <time>2018-05-27T07:26:45Z</time>
      </trkpt>
      <trkpt lat="46.83504" lon="5.6639">
        <ele>320.3</ele>
        <time>2018-05-27T07:26:47Z</time>
      </trkpt>
      <trkpt lat="46.83511" lon="5.66375">
        <ele>319.5</ele>
        <time>2018-05-27T07:26:49Z</time>
      </trkpt>
      <trkpt lat="46.83514" lon="5.66362">
        <ele>317.4</ele>
        <time>2018-05-27T07:26:55Z</time>
      </trkpt>
      <trkpt lat="46.83503" lon="5.66357">
        <ele>315</ele>
        <time>2018-05-27T07:27:05Z</time>
      </trkpt>
      <trkpt lat="46.83497" lon="5.66347">
        <ele>314.4</ele>
        <time>2018-05-27T07:27:08Z</time>
      </trkpt>
      <trkpt lat="46.83487" lon="5.66338">
        <ele>313.9</ele>
        <time>2018-05-27T07:27:11Z</time>
      </trkpt>
      <trkpt lat="46.8348" lon="5.66331">
        <ele>313.5</ele>
        <time>2018-05-27T07:27:13Z</time>
      </trkpt>
      <trkpt lat="46.83472" lon="5.66324">
        <ele>312.8</ele>
        <time>2018-05-27T07:27:16Z</time>
      </trkpt>
      <trkpt lat="46.83463" lon="5.6632">
        <ele>311.3</ele>
        <time>2018-05-27T07:27:22Z</time>
      </trkpt>
      <trkpt lat="46.83452" lon="5.66317">
        <ele>309.8</ele>
        <time>2018-05-27T07:27:29Z</time>
      </trkpt>
      <trkpt lat="46.83439" lon="5.66313">
        <ele>309</ele>
        <time>2018-05-27T07:27:37Z</time>
      </trkpt>
      <trkpt lat="46.83427" lon="5.66311">
        <ele>308.9</ele>
        <time>2018-05-27T07:27:42Z</time>
      </trkpt>
      <trkpt lat="46.83418" lon="5.66305">
        <ele>309</ele>
        <time>2018-05-27T07:27:47Z</time>
      </trkpt>
      <trkpt lat="46.8341" lon="5.66297">
        <ele>309.4</ele>
        <time>2018-05-27T07:27:55Z</time>
      </trkpt>
      <trkpt lat="46.83403" lon="5.66287">
        <ele>310.4</ele>
        <time>2018-05-27T07:28:06Z</time>
      </trkpt>
      <trkpt lat="46.83397" lon="5.66277">
        <ele>311.1</ele>
        <time>2018-05-27T07:28:13Z</time>
      </trkpt>
      <trkpt lat="46.83393" lon="5.66265">
        <ele>311.5</ele>
        <time>2018-05-27T07:28:20Z</time>
      </trkpt>
      <trkpt lat="46.83388" lon="5.66252">
        <ele>311.7</ele>
        <time>2018-05-27T07:28:26Z</time>
      </trkpt>
      <trkpt lat="46.83381" lon="5.6624">
        <ele>311.7</ele>
        <time>2018-05-27T07:28:32Z</time>
      </trkpt>
      <trkpt lat="46.83373" lon="5.66229">
        <ele>311.4</ele>
        <time>2018-05-27T07:28:36Z</time>
      </trkpt>
      <trkpt lat="46.83363" lon="5.66216">
        <ele>311</ele>
        <time>2018-05-27T07:28:40Z</time>
      </trkpt>
      <trkpt lat="46.83355" lon="5.66208">
        <ele>310.7</ele>
        <time>2018-05-27T07:28:42Z</time>
      </trkpt>
      <trkpt lat="46.83344" lon="5.66197">
        <ele>310.2</ele>
        <time>2018-05-27T07:28:45Z</time>
      </trkpt>
      <trkpt lat="46.83336" lon="5.6619">
        <ele>309.8</ele>
        <time>2018-05-27T07:28:47Z</time>
      </trkpt>
      <trkpt lat="46.83325" lon="5.6618">
        <ele>309.2</ele>
        <time>2018-05-27T07:28:50Z</time>
      </trkpt>
      <trkpt lat="46.83316" lon="5.66174">
        <ele>308.5</ele>
        <time>2018-05-27T07:28:53Z</time>
      </trkpt>
      <trkpt lat="46.83307" lon="5.66166">
        <ele>307.5</ele>
        <time>2018-05-27T07:28:57Z</time>
      </trkpt>
      <trkpt lat="46.83298" lon="5.66158">
        <ele>305.7</ele>
        <time>2018-05-27T07:29:05Z</time>
      </trkpt>
      <trkpt lat="46.83291" lon="5.6615">
        <ele>304.5</ele>
        <time>2018-05-27T07:29:11Z</time>
      </trkpt>
      <trkpt lat="46.83283" lon="5.66142">
        <ele>303.4</ele>
        <time>2018-05-27T07:29:18Z</time>
      </trkpt>
      <trkpt lat="46.83276" lon="5.6613">
        <ele>302.6</ele>
        <time>2018-05-27T07:29:23Z</time>
      </trkpt>
      <trkpt lat="46.83276" lon="5.66114">
        <ele>301.5</ele>
        <time>2018-05-27T07:29:29Z</time>
      </trkpt>
      <trkpt lat="46.83278" lon="5.661">
        <ele>300.8</ele>
        <time>2018-05-27T07:29:33Z</time>
      </trkpt>
      <trkpt lat="46.83282" lon="5.66085">
        <ele>300</ele>
        <time>2018-05-27T07:29:37Z</time>
      </trkpt>
      <trkpt lat="46.83289" lon="5.66074">
        <ele>299.3</ele>
        <time>2018-05-27T07:29:40Z</time>
      </trkpt>
      <trkpt lat="46.83291" lon="5.6606">
        <ele>298.5</ele>
        <time>2018-05-27T07:29:43Z</time>
      </trkpt>
      <trkpt lat="46.83297" lon="5.66044">
        <ele>297.3</ele>
        <time>2018-05-27T07:29:47Z</time>
      </trkpt>
      <trkpt lat="46.83301" lon="5.66032">
        <ele>295.7</ele>
        <time>2018-05-27T07:29:51Z</time>
      </trkpt>
      <trkpt lat="46.833" lon="5.66017">
        <ele>293.8</ele>
        <time>2018-05-27T07:29:56Z</time>
      </trkpt>
      <trkpt lat="46.83298" lon="5.66002">
        <ele>292.3</ele>
        <time>2018-05-27T07:30:00Z</time>
      </trkpt>
      <trkpt lat="46.83292" lon="5.65987">
        <ele>290.9</ele>
        <time>2018-05-27T07:30:04Z</time>
      </trkpt>
      <trkpt lat="46.83285" lon="5.65976">
        <ele>288.4</ele>
        <time>2018-05-27T07:30:11Z</time>
      </trkpt>
      <trkpt lat="46.83279" lon="5.65964">
        <ele>286.8</ele>
        <time>2018-05-27T07:30:16Z</time>
      </trkpt>
      <trkpt lat="46.8327" lon="5.65958">
        <ele>285.3</ele>
        <time>2018-05-27T07:30:22Z</time>
      </trkpt>
      <trkpt lat="46.83261" lon="5.65948">
        <ele>282.7</ele>
        <time>2018-05-27T07:30:49Z</time>
      </trkpt>
      <trkpt lat="46.83252" lon="5.65943">
        <ele>282.9</ele>
        <time>2018-05-27T07:31:01Z</time>
      </trkpt>
      <trkpt lat="46.83256" lon="5.6593">
        <ele>282.9</ele>
        <time>2018-05-27T07:33:03Z</time>
      </trkpt>
      <trkpt lat="46.83261" lon="5.65918">
        <ele>282.8</ele>
        <time>2018-05-27T07:33:10Z</time>
      </trkpt>
      <trkpt lat="46.83269" lon="5.65911">
        <ele>282.3</ele>
        <time>2018-05-27T07:33:16Z</time>
      </trkpt>
      <trkpt lat="46.83278" lon="5.65906">
        <ele>280.3</ele>
        <time>2018-05-27T07:33:28Z</time>
      </trkpt>
      <trkpt lat="46.83285" lon="5.65894">
        <ele>278.8</ele>
        <time>2018-05-27T07:33:46Z</time>
      </trkpt>
      <trkpt lat="46.83295" lon="5.65892">
        <ele>278.6</ele>
        <time>2018-05-27T07:33:55Z</time>
      </trkpt>
      <trkpt lat="46.83304" lon="5.6589">
        <ele>278.4</ele>
        <time>2018-05-27T07:34:05Z</time>
      </trkpt>
      <trkpt lat="46.83313" lon="5.65887">
        <ele>278.3</ele>
        <time>2018-05-27T07:34:09Z</time>
      </trkpt>
      <trkpt lat="46.83323" lon="5.65884">
        <ele>278.1</ele>
        <time>2018-05-27T07:34:13Z</time>
      </trkpt>
      <trkpt lat="46.83332" lon="5.65883">
        <ele>278.1</ele>
        <time>2018-05-27T07:34:18Z</time>
      </trkpt>
      <trkpt lat="46.83343" lon="5.65881">
        <ele>278.1</ele>
        <time>2018-05-27T07:34:22Z</time>
      </trkpt>
      <trkpt lat="46.83352" lon="5.65877">
        <ele>277.4</ele>
        <time>2018-05-27T07:34:30Z</time>
      </trkpt>
      <trkpt lat="46.83363" lon="5.65875">
        <ele>277</ele>
        <time>2018-05-27T07:34:34Z</time>
      </trkpt>
      <trkpt lat="46.83374" lon="5.65872">
        <ele>276.8</ele>
        <time>2018-05-27T07:34:39Z</time>
      </trkpt>
      <trkpt lat="46.83385" lon="5.65868">
        <ele>276.6</ele>
        <time>2018-05-27T07:34:42Z</time>
      </trkpt>
      <trkpt lat="46.83394" lon="5.65867">
        <ele>276.5</ele>
        <time>2018-05-27T07:34:45Z</time>
      </trkpt>
      <trkpt lat="46.83405" lon="5.65864">
        <ele>276.4</ele>
        <time>2018-05-27T07:34:49Z</time>
      </trkpt>
      <trkpt lat="46.83413" lon="5.65857">
        <ele>276.1</ele>
        <time>2018-05-27T07:34:53Z</time>
      </trkpt>
      <trkpt lat="46.83421" lon="5.65849">
        <ele>275.8</ele>
        <time>2018-05-27T07:34:57Z</time>
      </trkpt>
      <trkpt lat="46.83429" lon="5.65842">
        <ele>275.5</ele>
        <time>2018-05-27T07:35:01Z</time>
      </trkpt>
      <trkpt lat="46.83438" lon="5.65836">
        <ele>275.3</ele>
        <time>2018-05-27T07:35:04Z</time>
      </trkpt>
      <trkpt lat="46.83448" lon="5.6583">
        <ele>274.8</ele>
        <time>2018-05-27T07:35:08Z</time>
      </trkpt>
      <trkpt lat="46.83456" lon="5.6582">
        <ele>274.5</ele>
        <time>2018-05-27T07:35:11Z</time>
      </trkpt>
      <trkpt lat="46.83466" lon="5.65812">
        <ele>274.4</ele>
        <time>2018-05-27T07:35:13Z</time>
      </trkpt>
      <trkpt lat="46.83475" lon="5.65807">
        <ele>274.2</ele>
        <time>2018-05-27T07:35:15Z</time>
      </trkpt>
      <trkpt lat="46.83483" lon="5.65795">
        <ele>273.8</ele>
        <time>2018-05-27T07:35:19Z</time>
      </trkpt>
      <trkpt lat="46.83491" lon="5.65784">
        <ele>273.6</ele>
        <time>2018-05-27T07:35:22Z</time>
      </trkpt>
      <trkpt lat="46.835" lon="5.65775">
        <ele>273.2</ele>
        <time>2018-05-27T07:35:25Z</time>
      </trkpt>
      <trkpt lat="46.83509" lon="5.65766">
        <ele>272.9</ele>
        <time>2018-05-27T07:35:28Z</time>
      </trkpt>
      <trkpt lat="46.83518" lon="5.65757">
        <ele>272.6</ele>
        <time>2018-05-27T07:35:31Z</time>
      </trkpt>
      <trkpt lat="46.83524" lon="5.65745">
        <ele>272.4</ele>
        <time>2018-05-27T07:35:35Z</time>
      </trkpt>
      <trkpt lat="46.83525" lon="5.65731">
        <ele>272.6</ele>
        <time>2018-05-27T07:35:40Z</time>
      </trkpt>
      <trkpt lat="46.83526" lon="5.65717">
        <ele>272.7</ele>
        <time>2018-05-27T07:35:43Z</time>
      </trkpt>
      <trkpt lat="46.83528" lon="5.65702">
        <ele>273</ele>
        <time>2018-05-27T07:35:49Z</time>
      </trkpt>
      <trkpt lat="46.83524" lon="5.65687">
        <ele>273.4</ele>
        <time>2018-05-27T07:35:55Z</time>
      </trkpt>
      <trkpt lat="46.83518" lon="5.65675">
        <ele>273.8</ele>
        <time>2018-05-27T07:36:00Z</time>
      </trkpt>
      <trkpt lat="46.83513" lon="5.65663">
        <ele>274.3</ele>
        <time>2018-05-27T07:36:07Z</time>
      </trkpt>
      <trkpt lat="46.83509" lon="5.65651">
        <ele>274.9</ele>
        <time>2018-05-27T07:36:14Z</time>
      </trkpt>
      <trkpt lat="46.8351" lon="5.65636">
        <ele>275.4</ele>
        <time>2018-05-27T07:36:20Z</time>
      </trkpt>
      <trkpt lat="46.83512" lon="5.65621">
        <ele>275.6</ele>
        <time>2018-05-27T07:36:24Z</time>
      </trkpt>
      <trkpt lat="46.83518" lon="5.6561">
        <ele>275.5</ele>
        <time>2018-05-27T07:36:31Z</time>
      </trkpt>
      <trkpt lat="46.83526" lon="5.656">
        <ele>275.5</ele>
        <time>2018-05-27T07:36:37Z</time>
      </trkpt>
      <trkpt lat="46.83533" lon="5.6559">
        <ele>275.4</ele>
        <time>2018-05-27T07:36:41Z</time>
      </trkpt>
      <trkpt lat="46.83543" lon="5.65587">
        <ele>275.1</ele>
        <time>2018-05-27T07:36:50Z</time>
      </trkpt>
      <trkpt lat="46.83552" lon="5.65583">
        <ele>275</ele>
        <time>2018-05-27T07:36:53Z</time>
      </trkpt>
      <trkpt lat="46.83561" lon="5.65582">
        <ele>274.7</ele>
        <time>2018-05-27T07:36:57Z</time>
      </trkpt>
      <trkpt lat="46.8357" lon="5.65578">
        <ele>274.4</ele>
        <time>2018-05-27T07:37:01Z</time>
      </trkpt>
      <trkpt lat="46.83581" lon="5.6557">
        <ele>274</ele>
        <time>2018-05-27T07:37:05Z</time>
      </trkpt>
      <trkpt lat="46.83592" lon="5.65565">
        <ele>273.8</ele>
        <time>2018-05-27T07:37:07Z</time>
      </trkpt>
      <trkpt lat="46.83601" lon="5.65558">
        <ele>273.5</ele>
        <time>2018-05-27T07:37:10Z</time>
      </trkpt>
      <trkpt lat="46.83611" lon="5.65545">
        <ele>273.1</ele>
        <time>2018-05-27T07:37:14Z</time>
      </trkpt>
      <trkpt lat="46.83619" lon="5.6554">
        <ele>272.8</ele>
        <time>2018-05-27T07:37:16Z</time>
      </trkpt>
      <trkpt lat="46.8362" lon="5.65523">
        <ele>272.3</ele>
        <time>2018-05-27T07:37:22Z</time>
      </trkpt>
      <trkpt lat="46.83619" lon="5.65509">
        <ele>272</ele>
        <time>2018-05-27T07:37:26Z</time>
      </trkpt>
      <trkpt lat="46.83615" lon="5.65494">
        <ele>271.8</ele>
        <time>2018-05-27T07:37:32Z</time>
      </trkpt>
      <trkpt lat="46.83613" lon="5.6548">
        <ele>271.9</ele>
        <time>2018-05-27T07:37:38Z</time>
      </trkpt>
      <trkpt lat="46.83608" lon="5.65466">
        <ele>272.2</ele>
        <time>2018-05-27T07:37:44Z</time>
      </trkpt>
      <trkpt lat="46.83612" lon="5.65453">
        <ele>272.5</ele>
        <time>2018-05-27T07:37:49Z</time>
      </trkpt>
      <trkpt lat="46.83615" lon="5.6544">
        <ele>272.7</ele>
        <time>2018-05-27T07:37:53Z</time>
      </trkpt>
      <trkpt lat="46.83614" lon="5.65425">
        <ele>272.8</ele>
        <time>2018-05-27T07:37:56Z</time>
      </trkpt>
      <trkpt lat="46.83616" lon="5.6541">
        <ele>273.1</ele>
        <time>2018-05-27T07:38:01Z</time>
      </trkpt>
      <trkpt lat="46.83617" lon="5.65396">
        <ele>273.4</ele>
        <time>2018-05-27T07:38:07Z</time>
      </trkpt>
      <trkpt lat="46.83621" lon="5.65384">
        <ele>273.7</ele>
        <time>2018-05-27T07:38:12Z</time>
      </trkpt>
      <trkpt lat="46.83627" lon="5.65371">
        <ele>274</ele>
        <time>2018-05-27T07:38:17Z</time>
      </trkpt>
      <trkpt lat="46.83631" lon="5.65358">
        <ele>274.1</ele>
        <time>2018-05-27T07:38:21Z</time>
      </trkpt>
      <trkpt lat="46.83637" lon="5.65341">
        <ele>274.1</ele>
        <time>2018-05-27T07:38:25Z</time>
      </trkpt>
      <trkpt lat="46.83644" lon="5.65327">
        <ele>274.1</ele>
        <time>2018-05-27T07:38:28Z</time>
      </trkpt>
      <trkpt lat="46.83651" lon="5.65313">
        <ele>273.8</ele>
        <time>2018-05-27T07:38:31Z</time>
      </trkpt>
      <trkpt lat="46.83657" lon="5.65299">
        <ele>273.5</ele>
        <time>2018-05-27T07:38:35Z</time>
      </trkpt>
      <trkpt lat="46.83662" lon="5.65289">
        <ele>273.2</ele>
        <time>2018-05-27T07:38:41Z</time>
      </trkpt>
      <trkpt lat="46.83665" lon="5.65276">
        <ele>273.1</ele>
        <time>2018-05-27T07:38:47Z</time>
      </trkpt>
      <trkpt lat="46.83667" lon="5.65263">
        <ele>273.2</ele>
        <time>2018-05-27T07:38:51Z</time>
      </trkpt>
      <trkpt lat="46.83673" lon="5.6525">
        <ele>273.2</ele>
        <time>2018-05-27T07:38:55Z</time>
      </trkpt>
      <trkpt lat="46.83678" lon="5.65236">
        <ele>273.2</ele>
        <time>2018-05-27T07:38:57Z</time>
      </trkpt>
      <trkpt lat="46.83683" lon="5.6522">
        <ele>273.1</ele>
        <time>2018-05-27T07:39:00Z</time>
      </trkpt>
      <trkpt lat="46.83685" lon="5.65204">
        <ele>272.7</ele>
        <time>2018-05-27T07:39:04Z</time>
      </trkpt>
      <trkpt lat="46.83685" lon="5.65188">
        <ele>271.9</ele>
        <time>2018-05-27T07:39:10Z</time>
      </trkpt>
      <trkpt lat="46.83686" lon="5.65173">
        <ele>271.7</ele>
        <time>2018-05-27T07:39:16Z</time>
      </trkpt>
      <trkpt lat="46.83684" lon="5.65159">
        <ele>271.1</ele>
        <time>2018-05-27T07:39:24Z</time>
      </trkpt>
      <trkpt lat="46.83687" lon="5.65146">
        <ele>270.9</ele>
        <time>2018-05-27T07:39:31Z</time>
      </trkpt>
      <trkpt lat="46.83694" lon="5.65135">
        <ele>270.9</ele>
        <time>2018-05-27T07:39:33Z</time>
      </trkpt>
      <trkpt lat="46.83702" lon="5.65123">
        <ele>270.9</ele>
        <time>2018-05-27T07:39:36Z</time>
      </trkpt>
      <trkpt lat="46.83712" lon="5.65111">
        <ele>271</ele>
        <time>2018-05-27T07:39:39Z</time>
      </trkpt>
      <trkpt lat="46.83723" lon="5.65102">
        <ele>271.1</ele>
        <time>2018-05-27T07:39:42Z</time>
      </trkpt>
      <trkpt lat="46.83734" lon="5.65092">
        <ele>271.3</ele>
        <time>2018-05-27T07:39:45Z</time>
      </trkpt>
      <trkpt lat="46.83742" lon="5.6508">
        <ele>271.5</ele>
        <time>2018-05-27T07:39:48Z</time>
      </trkpt>
      <trkpt lat="46.83747" lon="5.65066">
        <ele>271.6</ele>
        <time>2018-05-27T07:39:51Z</time>
      </trkpt>
      <trkpt lat="46.83751" lon="5.65051">
        <ele>271.8</ele>
        <time>2018-05-27T07:39:54Z</time>
      </trkpt>
      <trkpt lat="46.83755" lon="5.65034">
        <ele>272</ele>
        <time>2018-05-27T07:39:57Z</time>
      </trkpt>
      <trkpt lat="46.83759" lon="5.65018">
        <ele>272.2</ele>
        <time>2018-05-27T07:40:00Z</time>
      </trkpt>
      <trkpt lat="46.83762" lon="5.65003">
        <ele>272.3</ele>
        <time>2018-05-27T07:40:03Z</time>
      </trkpt>
      <trkpt lat="46.83765" lon="5.64985">
        <ele>272.5</ele>
        <time>2018-05-27T07:40:06Z</time>
      </trkpt>
      <trkpt lat="46.83766" lon="5.64971">
        <ele>272.6</ele>
        <time>2018-05-27T07:40:08Z</time>
      </trkpt>
      <trkpt lat="46.83769" lon="5.64956">
        <ele>272.7</ele>
        <time>2018-05-27T07:40:10Z</time>
      </trkpt>
      <trkpt lat="46.83771" lon="5.64939">
        <ele>272.7</ele>
        <time>2018-05-27T07:40:12Z</time>
      </trkpt>
      <trkpt lat="46.83773" lon="5.64921">
        <ele>272.5</ele>
        <time>2018-05-27T07:40:14Z</time>
      </trkpt>
      <trkpt lat="46.83776" lon="5.64905">
        <ele>272.1</ele>
        <time>2018-05-27T07:40:16Z</time>
      </trkpt>
      <trkpt lat="46.83778" lon="5.6489">
        <ele>271.7</ele>
        <time>2018-05-27T07:40:18Z</time>
      </trkpt>
      <trkpt lat="46.83778" lon="5.64876">
        <ele>271</ele>
        <time>2018-05-27T07:40:21Z</time>
      </trkpt>
      <trkpt lat="46.83771" lon="5.64861">
        <ele>270.3</ele>
        <time>2018-05-27T07:40:25Z</time>
      </trkpt>
      <trkpt lat="46.8376" lon="5.64854">
        <ele>269.8</ele>
        <time>2018-05-27T07:40:28Z</time>
      </trkpt>
      <trkpt lat="46.83748" lon="5.64846">
        <ele>269.3</ele>
        <time>2018-05-27T07:40:31Z</time>
      </trkpt>
      <trkpt lat="46.83739" lon="5.64841">
        <ele>269.1</ele>
        <time>2018-05-27T07:40:33Z</time>
      </trkpt>
      <trkpt lat="46.83729" lon="5.64836">
        <ele>268.8</ele>
        <time>2018-05-27T07:40:35Z</time>
      </trkpt>
      <trkpt lat="46.8372" lon="5.6483">
        <ele>268.6</ele>
        <time>2018-05-27T07:40:37Z</time>
      </trkpt>
      <trkpt lat="46.83711" lon="5.64825">
        <ele>268.4</ele>
        <time>2018-05-27T07:40:39Z</time>
      </trkpt>
      <trkpt lat="46.83703" lon="5.6482">
        <ele>268.2</ele>
        <time>2018-05-27T07:40:41Z</time>
      </trkpt>
      <trkpt lat="46.83694" lon="5.64814">
        <ele>268</ele>
        <time>2018-05-27T07:40:43Z</time>
      </trkpt>
      <trkpt lat="46.83686" lon="5.64809">
        <ele>267.8</ele>
        <time>2018-05-27T07:40:45Z</time>
      </trkpt>
      <trkpt lat="46.83677" lon="5.64804">
        <ele>267.7</ele>
        <time>2018-05-27T07:40:47Z</time>
      </trkpt>
      <trkpt lat="46.83669" lon="5.64798">
        <ele>267.5</ele>
        <time>2018-05-27T07:40:49Z</time>
      </trkpt>
      <trkpt lat="46.83661" lon="5.64793">
        <ele>267.4</ele>
        <time>2018-05-27T07:40:51Z</time>
      </trkpt>
      <trkpt lat="46.83649" lon="5.64784">
        <ele>267.3</ele>
        <time>2018-05-27T07:40:54Z</time>
      </trkpt>
      <trkpt lat="46.83637" lon="5.64777">
        <ele>267.2</ele>
        <time>2018-05-27T07:40:57Z</time>
      </trkpt>
      <trkpt lat="46.83625" lon="5.64769">
        <ele>267.2</ele>
        <time>2018-05-27T07:41:00Z</time>
      </trkpt>
      <trkpt lat="46.83613" lon="5.64762">
        <ele>267.1</ele>
        <time>2018-05-27T07:41:03Z</time>
      </trkpt>
      <trkpt lat="46.83601" lon="5.64754">
        <ele>267.2</ele>
        <time>2018-05-27T07:41:06Z</time>
      </trkpt>
      <trkpt lat="46.8359" lon="5.64747">
        <ele>267.4</ele>
        <time>2018-05-27T07:41:09Z</time>
      </trkpt>
      <trkpt lat="46.8358" lon="5.6474">
        <ele>267.5</ele>
        <time>2018-05-27T07:41:12Z</time>
      </trkpt>
      <trkpt lat="46.83571" lon="5.64734">
        <ele>267.7</ele>
        <time>2018-05-27T07:41:15Z</time>
      </trkpt>
      <trkpt lat="46.83562" lon="5.64729">
        <ele>267.9</ele>
        <time>2018-05-27T07:41:18Z</time>
      </trkpt>
      <trkpt lat="46.83553" lon="5.64724">
        <ele>268.2</ele>
        <time>2018-05-27T07:41:21Z</time>
      </trkpt>
      <trkpt lat="46.83544" lon="5.64718">
        <ele>268.4</ele>
        <time>2018-05-27T07:41:24Z</time>
      </trkpt>
      <trkpt lat="46.83535" lon="5.64712">
        <ele>268.8</ele>
        <time>2018-05-27T07:41:27Z</time>
      </trkpt>
      <trkpt lat="46.83526" lon="5.64706">
        <ele>269.2</ele>
        <time>2018-05-27T07:41:30Z</time>
      </trkpt>
      <trkpt lat="46.83517" lon="5.647">
        <ele>269.7</ele>
        <time>2018-05-27T07:41:33Z</time>
      </trkpt>
      <trkpt lat="46.83508" lon="5.64694">
        <ele>270.2</ele>
        <time>2018-05-27T07:41:36Z</time>
      </trkpt>
      <trkpt lat="46.83499" lon="5.64688">
        <ele>270.7</ele>
        <time>2018-05-27T07:41:39Z</time>
      </trkpt>
      <trkpt lat="46.83489" lon="5.64681">
        <ele>271.2</ele>
        <time>2018-05-27T07:41:42Z</time>
      </trkpt>
      <trkpt lat="46.8348" lon="5.64676">
        <ele>271.6</ele>
        <time>2018-05-27T07:41:45Z</time>
      </trkpt>
      <trkpt lat="46.83472" lon="5.64671">
        <ele>272</ele>
        <time>2018-05-27T07:41:48Z</time>
      </trkpt>
      <trkpt lat="46.83464" lon="5.64666">
        <ele>272.6</ele>
        <time>2018-05-27T07:41:51Z</time>
      </trkpt>
      <trkpt lat="46.83455" lon="5.6466">
        <ele>273.1</ele>
        <time>2018-05-27T07:41:54Z</time>
      </trkpt>
      <trkpt lat="46.83447" lon="5.64654">
        <ele>273.7</ele>
        <time>2018-05-27T07:41:57Z</time>
      </trkpt>
      <trkpt lat="46.83438" lon="5.64649">
        <ele>274.1</ele>
        <time>2018-05-27T07:42:00Z</time>
      </trkpt>
      <trkpt lat="46.8343" lon="5.64644">
        <ele>274.6</ele>
        <time>2018-05-27T07:42:03Z</time>
      </trkpt>
      <trkpt lat="46.83422" lon="5.64639">
        <ele>275.1</ele>
        <time>2018-05-27T07:42:06Z</time>
      </trkpt>
      <trkpt lat="46.83413" lon="5.64634">
        <ele>275.6</ele>
        <time>2018-05-27T07:42:09Z</time>
      </trkpt>
      <trkpt lat="46.83402" lon="5.64629">
        <ele>276.3</ele>
        <time>2018-05-27T07:42:13Z</time>
      </trkpt>
      <trkpt lat="46.83392" lon="5.64623">
        <ele>276.9</ele>
        <time>2018-05-27T07:42:17Z</time>
      </trkpt>
      <trkpt lat="46.83381" lon="5.64619">
        <ele>277.4</ele>
        <time>2018-05-27T07:42:21Z</time>
      </trkpt>
      <trkpt lat="46.8337" lon="5.64615">
        <ele>278</ele>
        <time>2018-05-27T07:42:25Z</time>
      </trkpt>
      <trkpt lat="46.83358" lon="5.6461">
        <ele>278.6</ele>
        <time>2018-05-27T07:42:29Z</time>
      </trkpt>
      <trkpt lat="46.83347" lon="5.64607">
        <ele>279.1</ele>
        <time>2018-05-27T07:42:33Z</time>
      </trkpt>
      <trkpt lat="46.83336" lon="5.64604">
        <ele>279.7</ele>
        <time>2018-05-27T07:42:37Z</time>
      </trkpt>
      <trkpt lat="46.83326" lon="5.64601">
        <ele>280.3</ele>
        <time>2018-05-27T07:42:41Z</time>
      </trkpt>
      <trkpt lat="46.83315" lon="5.64598">
        <ele>281</ele>
        <time>2018-05-27T07:42:45Z</time>
      </trkpt>
      <trkpt lat="46.83305" lon="5.64593">
        <ele>281.6</ele>
        <time>2018-05-27T07:42:49Z</time>
      </trkpt>
      <trkpt lat="46.83294" lon="5.6459">
        <ele>282.2</ele>
        <time>2018-05-27T07:42:53Z</time>
      </trkpt>
      <trkpt lat="46.83282" lon="5.64589">
        <ele>282.7</ele>
        <time>2018-05-27T07:42:57Z</time>
      </trkpt>
      <trkpt lat="46.83272" lon="5.64587">
        <ele>283</ele>
        <time>2018-05-27T07:43:00Z</time>
      </trkpt>
      <trkpt lat="46.83262" lon="5.64586">
        <ele>283.3</ele>
        <time>2018-05-27T07:43:03Z</time>
      </trkpt>
      <trkpt lat="46.83251" lon="5.64584">
        <ele>283.6</ele>
        <time>2018-05-27T07:43:06Z</time>
      </trkpt>
      <trkpt lat="46.8324" lon="5.64582">
        <ele>283.8</ele>
        <time>2018-05-27T07:43:09Z</time>
      </trkpt>
      <trkpt lat="46.83229" lon="5.64581">
        <ele>284</ele>
        <time>2018-05-27T07:43:12Z</time>
      </trkpt>
      <trkpt lat="46.83218" lon="5.64578">
        <ele>284.2</ele>
        <time>2018-05-27T07:43:15Z</time>
      </trkpt>
      <trkpt lat="46.83207" lon="5.64573">
        <ele>284.3</ele>
        <time>2018-05-27T07:43:18Z</time>
      </trkpt>
      <trkpt lat="46.83198" lon="5.64568">
        <ele>284.5</ele>
        <time>2018-05-27T07:43:21Z</time>
      </trkpt>
      <trkpt lat="46.83188" lon="5.64562">
        <ele>284.8</ele>
        <time>2018-05-27T07:43:24Z</time>
      </trkpt>
      <trkpt lat="46.8318" lon="5.64555">
        <ele>285.1</ele>
        <time>2018-05-27T07:43:27Z</time>
      </trkpt>
      <trkpt lat="46.83171" lon="5.64546">
        <ele>285.5</ele>
        <time>2018-05-27T07:43:31Z</time>
      </trkpt>
      <trkpt lat="46.83162" lon="5.64537">
        <ele>286</ele>
        <time>2018-05-27T07:43:35Z</time>
      </trkpt>
      <trkpt lat="46.83152" lon="5.64531">
        <ele>286.6</ele>
        <time>2018-05-27T07:43:39Z</time>
      </trkpt>
      <trkpt lat="46.83142" lon="5.64529">
        <ele>286.9</ele>
        <time>2018-05-27T07:43:42Z</time>
      </trkpt>
      <trkpt lat="46.8313" lon="5.64525">
        <ele>287.3</ele>
        <time>2018-05-27T07:43:46Z</time>
      </trkpt>
      <trkpt lat="46.83122" lon="5.64522">
        <ele>287.8</ele>
        <time>2018-05-27T07:43:49Z</time>
      </trkpt>
      <trkpt lat="46.8311" lon="5.64518">
        <ele>288.2</ele>
        <time>2018-05-27T07:43:53Z</time>
      </trkpt>
      <trkpt lat="46.83098" lon="5.64515">
        <ele>288.8</ele>
        <time>2018-05-27T07:43:57Z</time>
      </trkpt>
      <trkpt lat="46.83086" lon="5.64513">
        <ele>289.3</ele>
        <time>2018-05-27T07:44:01Z</time>
      </trkpt>
      <trkpt lat="46.83075" lon="5.6451">
        <ele>289.9</ele>
        <time>2018-05-27T07:44:05Z</time>
      </trkpt>
      <trkpt lat="46.83063" lon="5.64509">
        <ele>290.5</ele>
        <time>2018-05-27T07:44:09Z</time>
      </trkpt>
      <trkpt lat="46.83054" lon="5.64509">
        <ele>291</ele>
        <time>2018-05-27T07:44:12Z</time>
      </trkpt>
      <trkpt lat="46.83044" lon="5.64509">
        <ele>291.6</ele>
        <time>2018-05-27T07:44:15Z</time>
      </trkpt>
      <trkpt lat="46.83033" lon="5.64509">
        <ele>292.3</ele>
        <time>2018-05-27T07:44:19Z</time>
      </trkpt>
      <trkpt lat="46.83022" lon="5.64511">
        <ele>292.9</ele>
        <time>2018-05-27T07:44:23Z</time>
      </trkpt>
      <trkpt lat="46.83011" lon="5.64515">
        <ele>293.4</ele>
        <time>2018-05-27T07:44:27Z</time>
      </trkpt>
      <trkpt lat="46.83002" lon="5.64517">
        <ele>294</ele>
        <time>2018-05-27T07:44:30Z</time>
      </trkpt>
      <trkpt lat="46.8299" lon="5.64521">
        <ele>294.7</ele>
        <time>2018-05-27T07:44:34Z</time>
      </trkpt>
      <trkpt lat="46.82979" lon="5.64523">
        <ele>295.4</ele>
        <time>2018-05-27T07:44:38Z</time>
      </trkpt>
      <trkpt lat="46.82969" lon="5.64522">
        <ele>296.1</ele>
        <time>2018-05-27T07:44:42Z</time>
      </trkpt>
      <trkpt lat="46.82959" lon="5.64518">
        <ele>296.8</ele>
        <time>2018-05-27T07:44:47Z</time>
      </trkpt>
      <trkpt lat="46.8295" lon="5.64517">
        <ele>297.6</ele>
        <time>2018-05-27T07:44:52Z</time>
      </trkpt>
      <trkpt lat="46.8294" lon="5.64516">
        <ele>298.1</ele>
        <time>2018-05-27T07:44:57Z</time>
      </trkpt>
      <trkpt lat="46.8293" lon="5.64513">
        <ele>298.4</ele>
        <time>2018-05-27T07:45:01Z</time>
      </trkpt>
      <trkpt lat="46.82919" lon="5.64511">
        <ele>298.7</ele>
        <time>2018-05-27T07:45:04Z</time>
      </trkpt>
      <trkpt lat="46.82909" lon="5.64508">
        <ele>299.3</ele>
        <time>2018-05-27T07:45:08Z</time>
      </trkpt>
      <trkpt lat="46.82898" lon="5.64506">
        <ele>299.8</ele>
        <time>2018-05-27T07:45:12Z</time>
      </trkpt>
      <trkpt lat="46.82886" lon="5.64502">
        <ele>300.3</ele>
        <time>2018-05-27T07:45:16Z</time>
      </trkpt>
      <trkpt lat="46.82876" lon="5.64498">
        <ele>300.8</ele>
        <time>2018-05-27T07:45:20Z</time>
      </trkpt>
      <trkpt lat="46.82866" lon="5.64492">
        <ele>301.3</ele>
        <time>2018-05-27T07:45:24Z</time>
      </trkpt>
      <trkpt lat="46.82857" lon="5.64487">
        <ele>301.8</ele>
        <time>2018-05-27T07:45:28Z</time>
      </trkpt>
      <trkpt lat="46.82848" lon="5.64481">
        <ele>302.2</ele>
        <time>2018-05-27T07:45:32Z</time>
      </trkpt>
      <trkpt lat="46.82839" lon="5.64476">
        <ele>302.8</ele>
        <time>2018-05-27T07:45:36Z</time>
      </trkpt>
      <trkpt lat="46.82829" lon="5.64473">
        <ele>303.3</ele>
        <time>2018-05-27T07:45:40Z</time>
      </trkpt>
      <trkpt lat="46.82819" lon="5.64468">
        <ele>303.8</ele>
        <time>2018-05-27T07:45:44Z</time>
      </trkpt>
      <trkpt lat="46.82808" lon="5.64462">
        <ele>304.3</ele>
        <time>2018-05-27T07:45:48Z</time>
      </trkpt>
      <trkpt lat="46.82797" lon="5.64456">
        <ele>304.7</ele>
        <time>2018-05-27T07:45:52Z</time>
      </trkpt>
      <trkpt lat="46.82785" lon="5.64452">
        <ele>305.2</ele>
        <time>2018-05-27T07:45:56Z</time>
      </trkpt>
      <trkpt lat="46.82774" lon="5.64449">
        <ele>305.9</ele>
        <time>2018-05-27T07:46:00Z</time>
      </trkpt>
      <trkpt lat="46.82763" lon="5.64446">
        <ele>306.6</ele>
        <time>2018-05-27T07:46:04Z</time>
      </trkpt>
      <trkpt lat="46.82752" lon="5.64443">
        <ele>307.1</ele>
        <time>2018-05-27T07:46:08Z</time>
      </trkpt>
      <trkpt lat="46.8274" lon="5.64441">
        <ele>307.6</ele>
        <time>2018-05-27T07:46:12Z</time>
      </trkpt>
      <trkpt lat="46.82738" lon="5.64427">
        <ele>308.2</ele>
        <time>2018-05-27T07:46:17Z</time>
      </trkpt>
      <trkpt lat="46.82742" lon="5.64413">
        <ele>309</ele>
        <time>2018-05-27T07:46:22Z</time>
      </trkpt>
      <trkpt lat="46.82744" lon="5.644">
        <ele>309.8</ele>
        <time>2018-05-27T07:46:27Z</time>
      </trkpt>
      <trkpt lat="46.82749" lon="5.64387">
        <ele>310.7</ele>
        <time>2018-05-27T07:46:33Z</time>
      </trkpt>
      <trkpt lat="46.82758" lon="5.64378">
        <ele>311.9</ele>
        <time>2018-05-27T07:46:39Z</time>
      </trkpt>
      <trkpt lat="46.82765" lon="5.64367">
        <ele>313.1</ele>
        <time>2018-05-27T07:46:45Z</time>
      </trkpt>
      <trkpt lat="46.82772" lon="5.64357">
        <ele>314</ele>
        <time>2018-05-27T07:46:51Z</time>
      </trkpt>
      <trkpt lat="46.82779" lon="5.64348">
        <ele>315.2</ele>
        <time>2018-05-27T07:46:57Z</time>
      </trkpt>
      <trkpt lat="46.82787" lon="5.6434">
        <ele>316.1</ele>
        <time>2018-05-27T07:47:02Z</time>
      </trkpt>
      <trkpt lat="46.82796" lon="5.64337">
        <ele>317.7</ele>
        <time>2018-05-27T07:47:10Z</time>
      </trkpt>
      <trkpt lat="46.82806" lon="5.64334">
        <ele>318.8</ele>
        <time>2018-05-27T07:47:17Z</time>
      </trkpt>
      <trkpt lat="46.82814" lon="5.64328">
        <ele>319.8</ele>
        <time>2018-05-27T07:47:23Z</time>
      </trkpt>
      <trkpt lat="46.82824" lon="5.64323">
        <ele>320.5</ele>
        <time>2018-05-27T07:47:27Z</time>
      </trkpt>
      <trkpt lat="46.82833" lon="5.64319">
        <ele>321.3</ele>
        <time>2018-05-27T07:47:33Z</time>
      </trkpt>
      <trkpt lat="46.82841" lon="5.64312">
        <ele>322.1</ele>
        <time>2018-05-27T07:47:39Z</time>
      </trkpt>
      <trkpt lat="46.8285" lon="5.64307">
        <ele>322.8</ele>
        <time>2018-05-27T07:47:44Z</time>
      </trkpt>
      <trkpt lat="46.8286" lon="5.64299">
        <ele>323.3</ele>
        <time>2018-05-27T07:47:48Z</time>
      </trkpt>
      <trkpt lat="46.82871" lon="5.64297">
        <ele>323.7</ele>
        <time>2018-05-27T07:47:52Z</time>
      </trkpt>
      <trkpt lat="46.8288" lon="5.64292">
        <ele>324.2</ele>
        <time>2018-05-27T07:47:57Z</time>
      </trkpt>
      <trkpt lat="46.82889" lon="5.64286">
        <ele>324.5</ele>
        <time>2018-05-27T07:48:00Z</time>
      </trkpt>
      <trkpt lat="46.829" lon="5.64282">
        <ele>325</ele>
        <time>2018-05-27T07:48:05Z</time>
      </trkpt>
      <trkpt lat="46.82909" lon="5.64277">
        <ele>325.8</ele>
        <time>2018-05-27T07:48:10Z</time>
      </trkpt>
      <trkpt lat="46.82918" lon="5.64272">
        <ele>326.9</ele>
        <time>2018-05-27T07:48:18Z</time>
      </trkpt>
      <trkpt lat="46.82929" lon="5.64275">
        <ele>327.5</ele>
        <time>2018-05-27T07:48:22Z</time>
      </trkpt>
      <trkpt lat="46.82939" lon="5.64269">
        <ele>328.5</ele>
        <time>2018-05-27T07:48:27Z</time>
      </trkpt>
      <trkpt lat="46.82948" lon="5.64263">
        <ele>329.6</ele>
        <time>2018-05-27T07:48:34Z</time>
      </trkpt>
      <trkpt lat="46.82956" lon="5.64256">
        <ele>330.3</ele>
        <time>2018-05-27T07:48:40Z</time>
      </trkpt>
      <trkpt lat="46.82966" lon="5.64248">
        <ele>330.8</ele>
        <time>2018-05-27T07:48:46Z</time>
      </trkpt>
      <trkpt lat="46.82978" lon="5.64243">
        <ele>331.1</ele>
        <time>2018-05-27T07:48:50Z</time>
      </trkpt>
      <trkpt lat="46.8299" lon="5.64239">
        <ele>331.2</ele>
        <time>2018-05-27T07:48:52Z</time>
      </trkpt>
      <trkpt lat="46.83002" lon="5.64239">
        <ele>331.3</ele>
        <time>2018-05-27T07:48:55Z</time>
      </trkpt>
      <trkpt lat="46.83013" lon="5.64236">
        <ele>331.6</ele>
        <time>2018-05-27T07:48:58Z</time>
      </trkpt>
      <trkpt lat="46.83022" lon="5.64236">
        <ele>331.8</ele>
        <time>2018-05-27T07:49:01Z</time>
      </trkpt>
      <trkpt lat="46.83032" lon="5.64234">
        <ele>331.9</ele>
        <time>2018-05-27T07:49:05Z</time>
      </trkpt>
      <trkpt lat="46.83043" lon="5.64231">
        <ele>331.9</ele>
        <time>2018-05-27T07:49:09Z</time>
      </trkpt>
      <trkpt lat="46.83053" lon="5.64229">
        <ele>332</ele>
        <time>2018-05-27T07:49:13Z</time>
      </trkpt>
      <trkpt lat="46.83064" lon="5.64225">
        <ele>332</ele>
        <time>2018-05-27T07:49:16Z</time>
      </trkpt>
      <trkpt lat="46.83076" lon="5.64224">
        <ele>332.1</ele>
        <time>2018-05-27T07:49:19Z</time>
      </trkpt>
      <trkpt lat="46.83089" lon="5.64227">
        <ele>332.1</ele>
        <time>2018-05-27T07:49:22Z</time>
      </trkpt>
      <trkpt lat="46.83099" lon="5.64229">
        <ele>332.2</ele>
        <time>2018-05-27T07:49:24Z</time>
      </trkpt>
      <trkpt lat="46.83108" lon="5.6423">
        <ele>332.4</ele>
        <time>2018-05-27T07:49:27Z</time>
      </trkpt>
      <trkpt lat="46.83119" lon="5.64232">
        <ele>332.8</ele>
        <time>2018-05-27T07:49:31Z</time>
      </trkpt>
      <trkpt lat="46.83129" lon="5.64232">
        <ele>333.3</ele>
        <time>2018-05-27T07:49:35Z</time>
      </trkpt>
      <trkpt lat="46.83138" lon="5.64231">
        <ele>334</ele>
        <time>2018-05-27T07:49:39Z</time>
      </trkpt>
      <trkpt lat="46.83149" lon="5.64229">
        <ele>334.8</ele>
        <time>2018-05-27T07:49:44Z</time>
      </trkpt>
      <trkpt lat="46.83159" lon="5.64225">
        <ele>335.9</ele>
        <time>2018-05-27T07:49:50Z</time>
      </trkpt>
      <trkpt lat="46.83171" lon="5.64221">
        <ele>336.6</ele>
        <time>2018-05-27T07:49:54Z</time>
      </trkpt>
      <trkpt lat="46.83179" lon="5.64216">
        <ele>337.4</ele>
        <time>2018-05-27T07:49:58Z</time>
      </trkpt>
      <trkpt lat="46.83186" lon="5.64204">
        <ele>338.6</ele>
        <time>2018-05-27T07:50:04Z</time>
      </trkpt>
      <trkpt lat="46.83192" lon="5.64193">
        <ele>339.8</ele>
        <time>2018-05-27T07:50:10Z</time>
      </trkpt>
      <trkpt lat="46.83184" lon="5.64185">
        <ele>343.2</ele>
        <time>2018-05-27T07:50:28Z</time>
      </trkpt>
      <trkpt lat="46.83175" lon="5.64182">
        <ele>344.6</ele>
        <time>2018-05-27T07:50:36Z</time>
      </trkpt>
      <trkpt lat="46.83167" lon="5.64177">
        <ele>346.1</ele>
        <time>2018-05-27T07:50:45Z</time>
      </trkpt>
      <trkpt lat="46.83158" lon="5.64174">
        <ele>347.9</ele>
        <time>2018-05-27T07:50:55Z</time>
      </trkpt>
      <trkpt lat="46.83148" lon="5.64169">
        <ele>349.8</ele>
        <time>2018-05-27T07:51:04Z</time>
      </trkpt>
      <trkpt lat="46.83137" lon="5.64168">
        <ele>350.8</ele>
        <time>2018-05-27T07:51:09Z</time>
      </trkpt>
      <trkpt lat="46.83128" lon="5.64165">
        <ele>352.1</ele>
        <time>2018-05-27T07:51:16Z</time>
      </trkpt>
      <trkpt lat="46.8312" lon="5.64159">
        <ele>353.5</ele>
        <time>2018-05-27T07:51:24Z</time>
      </trkpt>
      <trkpt lat="46.83112" lon="5.64151">
        <ele>355.3</ele>
        <time>2018-05-27T07:51:33Z</time>
      </trkpt>
      <trkpt lat="46.83104" lon="5.64142">
        <ele>356.6</ele>
        <time>2018-05-27T07:51:41Z</time>
      </trkpt>
      <trkpt lat="46.83097" lon="5.64132">
        <ele>358</ele>
        <time>2018-05-27T07:51:50Z</time>
      </trkpt>
      <trkpt lat="46.83089" lon="5.64119">
        <ele>359.1</ele>
        <time>2018-05-27T07:51:56Z</time>
      </trkpt>
      <trkpt lat="46.83082" lon="5.64109">
        <ele>359.9</ele>
        <time>2018-05-27T07:52:01Z</time>
      </trkpt>
      <trkpt lat="46.83073" lon="5.64103">
        <ele>361.4</ele>
        <time>2018-05-27T07:52:10Z</time>
      </trkpt>
      <trkpt lat="46.83064" lon="5.64096">
        <ele>362.7</ele>
        <time>2018-05-27T07:52:18Z</time>
      </trkpt>
      <trkpt lat="46.83055" lon="5.64092">
        <ele>364.3</ele>
        <time>2018-05-27T07:52:28Z</time>
      </trkpt>
      <trkpt lat="46.83046" lon="5.64088">
        <ele>365.7</ele>
        <time>2018-05-27T07:52:37Z</time>
      </trkpt>
      <trkpt lat="46.83036" lon="5.64086">
        <ele>367.4</ele>
        <time>2018-05-27T07:52:47Z</time>
      </trkpt>
      <trkpt lat="46.83027" lon="5.64085">
        <ele>368.6</ele>
        <time>2018-05-27T07:52:55Z</time>
      </trkpt>
      <trkpt lat="46.83017" lon="5.64083">
        <ele>370.2</ele>
        <time>2018-05-27T07:53:05Z</time>
      </trkpt>
      <trkpt lat="46.83004" lon="5.6408">
        <ele>371.2</ele>
        <time>2018-05-27T07:53:10Z</time>
      </trkpt>
      <trkpt lat="46.82994" lon="5.64078">
        <ele>372.3</ele>
        <time>2018-05-27T07:53:15Z</time>
      </trkpt>
      <trkpt lat="46.82984" lon="5.64078">
        <ele>373.9</ele>
        <time>2018-05-27T07:53:23Z</time>
      </trkpt>
      <trkpt lat="46.82975" lon="5.64078">
        <ele>376.3</ele>
        <time>2018-05-27T07:53:38Z</time>
      </trkpt>
      <trkpt lat="46.82966" lon="5.64074">
        <ele>377.9</ele>
        <time>2018-05-27T07:53:50Z</time>
      </trkpt>
      <trkpt lat="46.82957" lon="5.64067">
        <ele>380</ele>
        <time>2018-05-27T07:54:04Z</time>
      </trkpt>
      <trkpt lat="46.8295" lon="5.64059">
        <ele>382.3</ele>
        <time>2018-05-27T07:54:18Z</time>
      </trkpt>
      <trkpt lat="46.82941" lon="5.64054">
        <ele>384.1</ele>
        <time>2018-05-27T07:54:28Z</time>
      </trkpt>
      <trkpt lat="46.82933" lon="5.64048">
        <ele>385.5</ele>
        <time>2018-05-27T07:54:38Z</time>
      </trkpt>
      <trkpt lat="46.82925" lon="5.6404">
        <ele>387.5</ele>
        <time>2018-05-27T07:54:52Z</time>
      </trkpt>
      <trkpt lat="46.82917" lon="5.64031">
        <ele>389</ele>
        <time>2018-05-27T07:55:03Z</time>
      </trkpt>
      <trkpt lat="46.82905" lon="5.64018">
        <ele>390.8</ele>
        <time>2018-05-27T07:58:08Z</time>
      </trkpt>
      <trkpt lat="46.82896" lon="5.64013">
        <ele>390.9</ele>
        <time>2018-05-27T07:58:16Z</time>
      </trkpt>
      <trkpt lat="46.82884" lon="5.64008">
        <ele>391</ele>
        <time>2018-05-27T07:58:21Z</time>
      </trkpt>
      <trkpt lat="46.82875" lon="5.64007">
        <ele>391</ele>
        <time>2018-05-27T07:58:24Z</time>
      </trkpt>
      <trkpt lat="46.82866" lon="5.64004">
        <ele>390.9</ele>
        <time>2018-05-27T07:58:27Z</time>
      </trkpt>
      <trkpt lat="46.82855" lon="5.63999">
        <ele>390.9</ele>
        <time>2018-05-27T07:58:30Z</time>
      </trkpt>
      <trkpt lat="46.82844" lon="5.63996">
        <ele>390.8</ele>
        <time>2018-05-27T07:58:33Z</time>
      </trkpt>
      <trkpt lat="46.82832" lon="5.63995">
        <ele>390.6</ele>
        <time>2018-05-27T07:58:36Z</time>
      </trkpt>
      <trkpt lat="46.82822" lon="5.63993">
        <ele>390.3</ele>
        <time>2018-05-27T07:58:39Z</time>
      </trkpt>
      <trkpt lat="46.82804" lon="5.6399">
        <ele>390</ele>
        <time>2018-05-27T07:58:42Z</time>
      </trkpt>
      <trkpt lat="46.82792" lon="5.63984">
        <ele>389.8</ele>
        <time>2018-05-27T07:58:44Z</time>
      </trkpt>
      <trkpt lat="46.82782" lon="5.63981">
        <ele>389.4</ele>
        <time>2018-05-27T07:58:46Z</time>
      </trkpt>
      <trkpt lat="46.82771" lon="5.63978">
        <ele>389.1</ele>
        <time>2018-05-27T07:58:48Z</time>
      </trkpt>
      <trkpt lat="46.8276" lon="5.63975">
        <ele>388.7</ele>
        <time>2018-05-27T07:58:50Z</time>
      </trkpt>
      <trkpt lat="46.82751" lon="5.63971">
        <ele>388.4</ele>
        <time>2018-05-27T07:58:52Z</time>
      </trkpt>
      <trkpt lat="46.82741" lon="5.63967">
        <ele>388.1</ele>
        <time>2018-05-27T07:58:54Z</time>
      </trkpt>
      <trkpt lat="46.82732" lon="5.63964">
        <ele>387.8</ele>
        <time>2018-05-27T07:58:56Z</time>
      </trkpt>
      <trkpt lat="46.82722" lon="5.6396">
        <ele>387.4</ele>
        <time>2018-05-27T07:58:58Z</time>
      </trkpt>
      <trkpt lat="46.82713" lon="5.63957">
        <ele>387</ele>
        <time>2018-05-27T07:59:00Z</time>
      </trkpt>
      <trkpt lat="46.82702" lon="5.63953">
        <ele>386.6</ele>
        <time>2018-05-27T07:59:02Z</time>
      </trkpt>
      <trkpt lat="46.82693" lon="5.63949">
        <ele>386.2</ele>
        <time>2018-05-27T07:59:04Z</time>
      </trkpt>
      <trkpt lat="46.82683" lon="5.63947">
        <ele>385.8</ele>
        <time>2018-05-27T07:59:06Z</time>
      </trkpt>
      <trkpt lat="46.82671" lon="5.63944">
        <ele>385.4</ele>
        <time>2018-05-27T07:59:08Z</time>
      </trkpt>
      <trkpt lat="46.82657" lon="5.63939">
        <ele>384.8</ele>
        <time>2018-05-27T07:59:10Z</time>
      </trkpt>
      <trkpt lat="46.82645" lon="5.63938">
        <ele>384.3</ele>
        <time>2018-05-27T07:59:12Z</time>
      </trkpt>
      <trkpt lat="46.82628" lon="5.63939">
        <ele>383.9</ele>
        <time>2018-05-27T07:59:14Z</time>
      </trkpt>
      <trkpt lat="46.82618" lon="5.63944">
        <ele>383.5</ele>
        <time>2018-05-27T07:59:16Z</time>
      </trkpt>
      <trkpt lat="46.82608" lon="5.63947">
        <ele>383</ele>
        <time>2018-05-27T07:59:18Z</time>
      </trkpt>
      <trkpt lat="46.82595" lon="5.63942">
        <ele>382.4</ele>
        <time>2018-05-27T07:59:20Z</time>
      </trkpt>
      <trkpt lat="46.82582" lon="5.63941">
        <ele>381.6</ele>
        <time>2018-05-27T07:59:22Z</time>
      </trkpt>
      <trkpt lat="46.82569" lon="5.63941">
        <ele>380.7</ele>
        <time>2018-05-27T07:59:24Z</time>
      </trkpt>
      <trkpt lat="46.82555" lon="5.63943">
        <ele>379.4</ele>
        <time>2018-05-27T07:59:26Z</time>
      </trkpt>
      <trkpt lat="46.82541" lon="5.63946">
        <ele>378.1</ele>
        <time>2018-05-27T07:59:28Z</time>
      </trkpt>
      <trkpt lat="46.82528" lon="5.63948">
        <ele>376.6</ele>
        <time>2018-05-27T07:59:30Z</time>
      </trkpt>
      <trkpt lat="46.82517" lon="5.63949">
        <ele>375</ele>
        <time>2018-05-27T07:59:32Z</time>
      </trkpt>
      <trkpt lat="46.82506" lon="5.63951">
        <ele>373.3</ele>
        <time>2018-05-27T07:59:34Z</time>
      </trkpt>
      <trkpt lat="46.82495" lon="5.63953">
        <ele>370.8</ele>
        <time>2018-05-27T07:59:37Z</time>
      </trkpt>
      <trkpt lat="46.82484" lon="5.6395">
        <ele>367.2</ele>
        <time>2018-05-27T07:59:41Z</time>
      </trkpt>
      <trkpt lat="46.82474" lon="5.6395">
        <ele>363.7</ele>
        <time>2018-05-27T07:59:45Z</time>
      </trkpt>
      <trkpt lat="46.82463" lon="5.63949">
        <ele>359.4</ele>
        <time>2018-05-27T07:59:50Z</time>
      </trkpt>
      <trkpt lat="46.82452" lon="5.63943">
        <ele>354.4</ele>
        <time>2018-05-27T07:59:56Z</time>
      </trkpt>
      <trkpt lat="46.82442" lon="5.6394">
        <ele>351.2</ele>
        <time>2018-05-27T08:00:00Z</time>
      </trkpt>
      <trkpt lat="46.82432" lon="5.63937">
        <ele>348.9</ele>
        <time>2018-05-27T08:00:03Z</time>
      </trkpt>
      <trkpt lat="46.8242" lon="5.63941">
        <ele>346.5</ele>
        <time>2018-05-27T08:00:06Z</time>
      </trkpt>
      <trkpt lat="46.82414" lon="5.63952">
        <ele>344.4</ele>
        <time>2018-05-27T08:00:09Z</time>
      </trkpt>
      <trkpt lat="46.82405" lon="5.63961">
        <ele>341.5</ele>
        <time>2018-05-27T08:00:14Z</time>
      </trkpt>
      <trkpt lat="46.82403" lon="5.63978">
        <ele>339.4</ele>
        <time>2018-05-27T08:00:19Z</time>
      </trkpt>
      <trkpt lat="46.82407" lon="5.63992">
        <ele>338.2</ele>
        <time>2018-05-27T08:00:23Z</time>
      </trkpt>
      <trkpt lat="46.82413" lon="5.64002">
        <ele>337.6</ele>
        <time>2018-05-27T08:00:26Z</time>
      </trkpt>
      <trkpt lat="46.82419" lon="5.64011">
        <ele>337.1</ele>
        <time>2018-05-27T08:00:29Z</time>
      </trkpt>
      <trkpt lat="46.82427" lon="5.64022">
        <ele>336.9</ele>
        <time>2018-05-27T08:00:33Z</time>
      </trkpt>
      <trkpt lat="46.82436" lon="5.64033">
        <ele>336.9</ele>
        <time>2018-05-27T08:00:38Z</time>
      </trkpt>
      <trkpt lat="46.82445" lon="5.64042">
        <ele>337.1</ele>
        <time>2018-05-27T08:00:43Z</time>
      </trkpt>
      <trkpt lat="46.82453" lon="5.64051">
        <ele>337.3</ele>
        <time>2018-05-27T08:00:47Z</time>
      </trkpt>
      <trkpt lat="46.82462" lon="5.64053">
        <ele>338.8</ele>
        <time>2018-05-27T08:07:06Z</time>
      </trkpt>
      <trkpt lat="46.82453" lon="5.64048">
        <ele>339</ele>
        <time>2018-05-27T08:08:00Z</time>
      </trkpt>
      <trkpt lat="46.82444" lon="5.64037">
        <ele>339</ele>
        <time>2018-05-27T08:08:05Z</time>
      </trkpt>
      <trkpt lat="46.82434" lon="5.64027">
        <ele>339</ele>
        <time>2018-05-27T08:08:08Z</time>
      </trkpt>
      <trkpt lat="46.82426" lon="5.64018">
        <ele>338.9</ele>
        <time>2018-05-27T08:08:10Z</time>
      </trkpt>
      <trkpt lat="46.82418" lon="5.64009">
        <ele>338.9</ele>
        <time>2018-05-27T08:08:12Z</time>
      </trkpt>
      <trkpt lat="46.8241" lon="5.63996">
        <ele>338.6</ele>
        <time>2018-05-27T08:08:15Z</time>
      </trkpt>
      <trkpt lat="46.82406" lon="5.63983">
        <ele>338.4</ele>
        <time>2018-05-27T08:08:17Z</time>
      </trkpt>
      <trkpt lat="46.82405" lon="5.63969">
        <ele>338.1</ele>
        <time>2018-05-27T08:08:19Z</time>
      </trkpt>
      <trkpt lat="46.82408" lon="5.6395">
        <ele>337.6</ele>
        <time>2018-05-27T08:08:22Z</time>
      </trkpt>
      <trkpt lat="46.82411" lon="5.63937">
        <ele>337.2</ele>
        <time>2018-05-27T08:08:24Z</time>
      </trkpt>
      <trkpt lat="46.82417" lon="5.63922">
        <ele>336.8</ele>
        <time>2018-05-27T08:08:26Z</time>
      </trkpt>
      <trkpt lat="46.82425" lon="5.63907">
        <ele>336.3</ele>
        <time>2018-05-27T08:08:28Z</time>
      </trkpt>
      <trkpt lat="46.82433" lon="5.63892">
        <ele>335.7</ele>
        <time>2018-05-27T08:08:30Z</time>
      </trkpt>
      <trkpt lat="46.82439" lon="5.63877">
        <ele>335</ele>
        <time>2018-05-27T08:08:32Z</time>
      </trkpt>
      <trkpt lat="46.82445" lon="5.63864">
        <ele>334.3</ele>
        <time>2018-05-27T08:08:34Z</time>
      </trkpt>
      <trkpt lat="46.82452" lon="5.63847">
        <ele>333.4</ele>
        <time>2018-05-27T08:08:36Z</time>
      </trkpt>
      <trkpt lat="46.82456" lon="5.63822">
        <ele>332.3</ele>
        <time>2018-05-27T08:08:38Z</time>
      </trkpt>
      <trkpt lat="46.82459" lon="5.63808">
        <ele>331.6</ele>
        <time>2018-05-27T08:08:39Z</time>
      </trkpt>
      <trkpt lat="46.82461" lon="5.63794">
        <ele>331</ele>
        <time>2018-05-27T08:08:40Z</time>
      </trkpt>
      <trkpt lat="46.82465" lon="5.63778">
        <ele>330.4</ele>
        <time>2018-05-27T08:08:41Z</time>
      </trkpt>
      <trkpt lat="46.82469" lon="5.63763">
        <ele>329.7</ele>
        <time>2018-05-27T08:08:42Z</time>
      </trkpt>
      <trkpt lat="46.82473" lon="5.63748">
        <ele>329.1</ele>
        <time>2018-05-27T08:08:43Z</time>
      </trkpt>
      <trkpt lat="46.82477" lon="5.63734">
        <ele>328.4</ele>
        <time>2018-05-27T08:08:44Z</time>
      </trkpt>
      <trkpt lat="46.82481" lon="5.63719">
        <ele>327.7</ele>
        <time>2018-05-27T08:08:45Z</time>
      </trkpt>
      <trkpt lat="46.82485" lon="5.63705">
        <ele>327.1</ele>
        <time>2018-05-27T08:08:46Z</time>
      </trkpt>
      <trkpt lat="46.82488" lon="5.63691">
        <ele>326.4</ele>
        <time>2018-05-27T08:08:47Z</time>
      </trkpt>
      <trkpt lat="46.82491" lon="5.63677">
        <ele>325.8</ele>
        <time>2018-05-27T08:08:48Z</time>
      </trkpt>
      <trkpt lat="46.82494" lon="5.63664">
        <ele>325.3</ele>
        <time>2018-05-27T08:08:49Z</time>
      </trkpt>
      <trkpt lat="46.82499" lon="5.6364">
        <ele>324.1</ele>
        <time>2018-05-27T08:08:51Z</time>
      </trkpt>
      <trkpt lat="46.82503" lon="5.63618">
        <ele>322.9</ele>
        <time>2018-05-27T08:08:53Z</time>
      </trkpt>
      <trkpt lat="46.82506" lon="5.63595">
        <ele>321.8</ele>
        <time>2018-05-27T08:08:55Z</time>
      </trkpt>
      <trkpt lat="46.8251" lon="5.63572">
        <ele>320.7</ele>
        <time>2018-05-27T08:08:57Z</time>
      </trkpt>
      <trkpt lat="46.82517" lon="5.63551">
        <ele>319.6</ele>
        <time>2018-05-27T08:08:59Z</time>
      </trkpt>
      <trkpt lat="46.8252" lon="5.6353">
        <ele>318.5</ele>
        <time>2018-05-27T08:09:01Z</time>
      </trkpt>
      <trkpt lat="46.8252" lon="5.63508">
        <ele>317.3</ele>
        <time>2018-05-27T08:09:03Z</time>
      </trkpt>
      <trkpt lat="46.8252" lon="5.63488">
        <ele>316</ele>
        <time>2018-05-27T08:09:05Z</time>
      </trkpt>
      <trkpt lat="46.82521" lon="5.63468">
        <ele>314.6</ele>
        <time>2018-05-27T08:09:07Z</time>
      </trkpt>
      <trkpt lat="46.82518" lon="5.63453">
        <ele>313.3</ele>
        <time>2018-05-27T08:09:09Z</time>
      </trkpt>
      <trkpt lat="46.82509" lon="5.63442">
        <ele>311.1</ele>
        <time>2018-05-27T08:09:12Z</time>
      </trkpt>
      <trkpt lat="46.82511" lon="5.63426">
        <ele>308.1</ele>
        <time>2018-05-27T08:09:17Z</time>
      </trkpt>
      <trkpt lat="46.82512" lon="5.63406">
        <ele>306.6</ele>
        <time>2018-05-27T08:09:20Z</time>
      </trkpt>
      <trkpt lat="46.82511" lon="5.63391">
        <ele>305.7</ele>
        <time>2018-05-27T08:09:22Z</time>
      </trkpt>
      <trkpt lat="46.82509" lon="5.63375">
        <ele>304.9</ele>
        <time>2018-05-27T08:09:24Z</time>
      </trkpt>
      <trkpt lat="46.82507" lon="5.63359">
        <ele>304.2</ele>
        <time>2018-05-27T08:09:26Z</time>
      </trkpt>
      <trkpt lat="46.82507" lon="5.63343">
        <ele>303.5</ele>
        <time>2018-05-27T08:09:28Z</time>
      </trkpt>
      <trkpt lat="46.82506" lon="5.63327">
        <ele>302.8</ele>
        <time>2018-05-27T08:09:30Z</time>
      </trkpt>
      <trkpt lat="46.82505" lon="5.63314">
        <ele>302.2</ele>
        <time>2018-05-27T08:09:32Z</time>
      </trkpt>
      <trkpt lat="46.82505" lon="5.633">
        <ele>301.6</ele>
        <time>2018-05-27T08:09:34Z</time>
      </trkpt>
      <trkpt lat="46.82502" lon="5.63283">
        <ele>300.8</ele>
        <time>2018-05-27T08:09:37Z</time>
      </trkpt>
      <trkpt lat="46.82496" lon="5.63267">
        <ele>300.2</ele>
        <time>2018-05-27T08:09:40Z</time>
      </trkpt>
      <trkpt lat="46.82487" lon="5.63252">
        <ele>299.7</ele>
        <time>2018-05-27T08:09:43Z</time>
      </trkpt>
      <trkpt lat="46.82482" lon="5.6324">
        <ele>299.4</ele>
        <time>2018-05-27T08:09:45Z</time>
      </trkpt>
      <trkpt lat="46.82477" lon="5.63227">
        <ele>299.1</ele>
        <time>2018-05-27T08:09:47Z</time>
      </trkpt>
      <trkpt lat="46.82472" lon="5.63213">
        <ele>298.9</ele>
        <time>2018-05-27T08:09:49Z</time>
      </trkpt>
      <trkpt lat="46.82467" lon="5.63198">
        <ele>298.6</ele>
        <time>2018-05-27T08:09:51Z</time>
      </trkpt>
      <trkpt lat="46.82461" lon="5.63187">
        <ele>298.3</ele>
        <time>2018-05-27T08:09:53Z</time>
      </trkpt>
      <trkpt lat="46.82452" lon="5.63182">
        <ele>297.9</ele>
        <time>2018-05-27T08:09:56Z</time>
      </trkpt>
      <trkpt lat="46.82441" lon="5.63183">
        <ele>297.3</ele>
        <time>2018-05-27T08:09:59Z</time>
      </trkpt>
      <trkpt lat="46.82429" lon="5.63184">
        <ele>296.9</ele>
        <time>2018-05-27T08:10:01Z</time>
      </trkpt>
      <trkpt lat="46.82415" lon="5.63186">
        <ele>296.5</ele>
        <time>2018-05-27T08:10:03Z</time>
      </trkpt>
      <trkpt lat="46.824" lon="5.63187">
        <ele>296.1</ele>
        <time>2018-05-27T08:10:05Z</time>
      </trkpt>
      <trkpt lat="46.82383" lon="5.63188">
        <ele>295.6</ele>
        <time>2018-05-27T08:10:07Z</time>
      </trkpt>
      <trkpt lat="46.82367" lon="5.63189">
        <ele>295</ele>
        <time>2018-05-27T08:10:09Z</time>
      </trkpt>
      <trkpt lat="46.82358" lon="5.6319">
        <ele>294.8</ele>
        <time>2018-05-27T08:10:10Z</time>
      </trkpt>
      <trkpt lat="46.8234" lon="5.63194">
        <ele>294.2</ele>
        <time>2018-05-27T08:10:12Z</time>
      </trkpt>
      <trkpt lat="46.82322" lon="5.63201">
        <ele>293.6</ele>
        <time>2018-05-27T08:10:14Z</time>
      </trkpt>
      <trkpt lat="46.82314" lon="5.63205">
        <ele>293.2</ele>
        <time>2018-05-27T08:10:15Z</time>
      </trkpt>
      <trkpt lat="46.82305" lon="5.6321">
        <ele>292.9</ele>
        <time>2018-05-27T08:10:16Z</time>
      </trkpt>
      <trkpt lat="46.8229" lon="5.6322">
        <ele>292.2</ele>
        <time>2018-05-27T08:10:18Z</time>
      </trkpt>
      <trkpt lat="46.82273" lon="5.63227">
        <ele>291.4</ele>
        <time>2018-05-27T08:10:20Z</time>
      </trkpt>
      <trkpt lat="46.82263" lon="5.63231">
        <ele>291</ele>
        <time>2018-05-27T08:10:21Z</time>
      </trkpt>
      <trkpt lat="46.82254" lon="5.63234">
        <ele>290.5</ele>
        <time>2018-05-27T08:10:22Z</time>
      </trkpt>
      <trkpt lat="46.82245" lon="5.63237">
        <ele>290.1</ele>
        <time>2018-05-27T08:10:23Z</time>
      </trkpt>
      <trkpt lat="46.82235" lon="5.6324">
        <ele>289.7</ele>
        <time>2018-05-27T08:10:24Z</time>
      </trkpt>
      <trkpt lat="46.82225" lon="5.63241">
        <ele>289.3</ele>
        <time>2018-05-27T08:10:25Z</time>
      </trkpt>
      <trkpt lat="46.82215" lon="5.6324">
        <ele>288.8</ele>
        <time>2018-05-27T08:10:26Z</time>
      </trkpt>
      <trkpt lat="46.82205" lon="5.6324">
        <ele>288.4</ele>
        <time>2018-05-27T08:10:27Z</time>
      </trkpt>
      <trkpt lat="46.82196" lon="5.63241">
        <ele>288</ele>
        <time>2018-05-27T08:10:28Z</time>
      </trkpt>
      <trkpt lat="46.82186" lon="5.63243">
        <ele>287.5</ele>
        <time>2018-05-27T08:10:29Z</time>
      </trkpt>
      <trkpt lat="46.82177" lon="5.63245">
        <ele>287.1</ele>
        <time>2018-05-27T08:10:30Z</time>
      </trkpt>
      <trkpt lat="46.82168" lon="5.63249">
        <ele>286.7</ele>
        <time>2018-05-27T08:10:31Z</time>
      </trkpt>
      <trkpt lat="46.82152" lon="5.63255">
        <ele>285.8</ele>
        <time>2018-05-27T08:10:33Z</time>
      </trkpt>
      <trkpt lat="46.82141" lon="5.63259">
        <ele>285</ele>
        <time>2018-05-27T08:10:35Z</time>
      </trkpt>
      <trkpt lat="46.82131" lon="5.6326">
        <ele>284.1</ele>
        <time>2018-05-27T08:10:37Z</time>
      </trkpt>
      <trkpt lat="46.82122" lon="5.63263">
        <ele>283.3</ele>
        <time>2018-05-27T08:10:39Z</time>
      </trkpt>
      <trkpt lat="46.82113" lon="5.63265">
        <ele>282.6</ele>
        <time>2018-05-27T08:10:41Z</time>
      </trkpt>
      <trkpt lat="46.82102" lon="5.63266">
        <ele>281.8</ele>
        <time>2018-05-27T08:10:44Z</time>
      </trkpt>
      <trkpt lat="46.82093" lon="5.63262">
        <ele>279.5</ele>
        <time>2018-05-27T08:10:54Z</time>
      </trkpt>
      <trkpt lat="46.82086" lon="5.63253">
        <ele>278.5</ele>
        <time>2018-05-27T08:11:01Z</time>
      </trkpt>
      <trkpt lat="46.82076" lon="5.63256">
        <ele>277.8</ele>
        <time>2018-05-27T08:11:14Z</time>
      </trkpt>
      <trkpt lat="46.8207" lon="5.63267">
        <ele>277.6</ele>
        <time>2018-05-27T08:11:24Z</time>
      </trkpt>
      <trkpt lat="46.82062" lon="5.63273">
        <ele>277.2</ele>
        <time>2018-05-27T08:11:36Z</time>
      </trkpt>
      <trkpt lat="46.82052" lon="5.6328">
        <ele>277.2</ele>
        <time>2018-05-27T08:11:40Z</time>
      </trkpt>
      <trkpt lat="46.82042" lon="5.63285">
        <ele>277.3</ele>
        <time>2018-05-27T08:11:44Z</time>
      </trkpt>
      <trkpt lat="46.82032" lon="5.63291">
        <ele>277.5</ele>
        <time>2018-05-27T08:11:48Z</time>
      </trkpt>
      <trkpt lat="46.82023" lon="5.63298">
        <ele>277.7</ele>
        <time>2018-05-27T08:11:52Z</time>
      </trkpt>
      <trkpt lat="46.82014" lon="5.63304">
        <ele>278</ele>
        <time>2018-05-27T08:11:56Z</time>
      </trkpt>
      <trkpt lat="46.82005" lon="5.63312">
        <ele>278.4</ele>
        <time>2018-05-27T08:12:00Z</time>
      </trkpt>
      <trkpt lat="46.81997" lon="5.6332">
        <ele>278.7</ele>
        <time>2018-05-27T08:12:04Z</time>
      </trkpt>
      <trkpt lat="46.81989" lon="5.63327">
        <ele>279</ele>
        <time>2018-05-27T08:12:08Z</time>
      </trkpt>
      <trkpt lat="46.81981" lon="5.63338">
        <ele>279.4</ele>
        <time>2018-05-27T08:12:13Z</time>
      </trkpt>
      <trkpt lat="46.81972" lon="5.63343">
        <ele>279.8</ele>
        <time>2018-05-27T08:12:17Z</time>
      </trkpt>
      <trkpt lat="46.81963" lon="5.63347">
        <ele>280.4</ele>
        <time>2018-05-27T08:12:21Z</time>
      </trkpt>
      <trkpt lat="46.81952" lon="5.63351">
        <ele>281.1</ele>
        <time>2018-05-27T08:12:26Z</time>
      </trkpt>
      <trkpt lat="46.81942" lon="5.63353">
        <ele>282.1</ele>
        <time>2018-05-27T08:12:32Z</time>
      </trkpt>
      <trkpt lat="46.81932" lon="5.63351">
        <ele>283.1</ele>
        <time>2018-05-27T08:12:38Z</time>
      </trkpt>
      <trkpt lat="46.81926" lon="5.63341">
        <ele>284.2</ele>
        <time>2018-05-27T08:12:45Z</time>
      </trkpt>
      <trkpt lat="46.8192" lon="5.63331">
        <ele>284.9</ele>
        <time>2018-05-27T08:12:50Z</time>
      </trkpt>
      <trkpt lat="46.81913" lon="5.63322">
        <ele>285.6</ele>
        <time>2018-05-27T08:12:55Z</time>
      </trkpt>
      <trkpt lat="46.81906" lon="5.63313">
        <ele>286.2</ele>
        <time>2018-05-27T08:13:00Z</time>
      </trkpt>
      <trkpt lat="46.81899" lon="5.63304">
        <ele>286.8</ele>
        <time>2018-05-27T08:13:04Z</time>
      </trkpt>
      <trkpt lat="46.81892" lon="5.63293">
        <ele>287.6</ele>
        <time>2018-05-27T08:13:09Z</time>
      </trkpt>
      <trkpt lat="46.81884" lon="5.63282">
        <ele>288.4</ele>
        <time>2018-05-27T08:13:14Z</time>
      </trkpt>
      <trkpt lat="46.81879" lon="5.63269">
        <ele>289</ele>
        <time>2018-05-27T08:13:19Z</time>
      </trkpt>
      <trkpt lat="46.81875" lon="5.63257">
        <ele>289.7</ele>
        <time>2018-05-27T08:13:24Z</time>
      </trkpt>
      <trkpt lat="46.8187" lon="5.63245">
        <ele>290.4</ele>
        <time>2018-05-27T08:13:29Z</time>
      </trkpt>
      <trkpt lat="46.81864" lon="5.63233">
        <ele>291.2</ele>
        <time>2018-05-27T08:13:35Z</time>
      </trkpt>
      <trkpt lat="46.81857" lon="5.63221">
        <ele>292</ele>
        <time>2018-05-27T08:13:41Z</time>
      </trkpt>
      <trkpt lat="46.8185" lon="5.63211">
        <ele>293.1</ele>
        <time>2018-05-27T08:13:47Z</time>
      </trkpt>
      <trkpt lat="46.81843" lon="5.63202">
        <ele>294.2</ele>
        <time>2018-05-27T08:13:53Z</time>
      </trkpt>
      <trkpt lat="46.81835" lon="5.63194">
        <ele>295.3</ele>
        <time>2018-05-27T08:13:59Z</time>
      </trkpt>
      <trkpt lat="46.81828" lon="5.63186">
        <ele>296.4</ele>
        <time>2018-05-27T08:14:05Z</time>
      </trkpt>
      <trkpt lat="46.81818" lon="5.6318">
        <ele>297.8</ele>
        <time>2018-05-27T08:14:12Z</time>
      </trkpt>
      <trkpt lat="46.8181" lon="5.63172">
        <ele>298.7</ele>
        <time>2018-05-27T08:14:17Z</time>
      </trkpt>
      <trkpt lat="46.81801" lon="5.63163">
        <ele>299.5</ele>
        <time>2018-05-27T08:14:22Z</time>
      </trkpt>
      <trkpt lat="46.81793" lon="5.63155">
        <ele>300.1</ele>
        <time>2018-05-27T08:14:26Z</time>
      </trkpt>
      <trkpt lat="46.81784" lon="5.63147">
        <ele>300.7</ele>
        <time>2018-05-27T08:14:30Z</time>
      </trkpt>
      <trkpt lat="46.81774" lon="5.63139">
        <ele>301.3</ele>
        <time>2018-05-27T08:14:34Z</time>
      </trkpt>
      <trkpt lat="46.81765" lon="5.6313">
        <ele>301.8</ele>
        <time>2018-05-27T08:14:38Z</time>
      </trkpt>
      <trkpt lat="46.81756" lon="5.63121">
        <ele>302.3</ele>
        <time>2018-05-27T08:14:42Z</time>
      </trkpt>
      <trkpt lat="46.81748" lon="5.63114">
        <ele>302.6</ele>
        <time>2018-05-27T08:14:45Z</time>
      </trkpt>
      <trkpt lat="46.8174" lon="5.63106">
        <ele>302.8</ele>
        <time>2018-05-27T08:14:48Z</time>
      </trkpt>
      <trkpt lat="46.81731" lon="5.63096">
        <ele>303.1</ele>
        <time>2018-05-27T08:14:52Z</time>
      </trkpt>
      <trkpt lat="46.81723" lon="5.63087">
        <ele>303.4</ele>
        <time>2018-05-27T08:14:56Z</time>
      </trkpt>
      <trkpt lat="46.81714" lon="5.63078">
        <ele>303.8</ele>
        <time>2018-05-27T08:15:00Z</time>
      </trkpt>
      <trkpt lat="46.81704" lon="5.63079">
        <ele>304.2</ele>
        <time>2018-05-27T08:15:04Z</time>
      </trkpt>
      <trkpt lat="46.81696" lon="5.63087">
        <ele>304.6</ele>
        <time>2018-05-27T08:15:09Z</time>
      </trkpt>
      <trkpt lat="46.8169" lon="5.63099">
        <ele>305.2</ele>
        <time>2018-05-27T08:15:16Z</time>
      </trkpt>
      <trkpt lat="46.81686" lon="5.63111">
        <ele>305.7</ele>
        <time>2018-05-27T08:15:23Z</time>
      </trkpt>
      <trkpt lat="46.81682" lon="5.63124">
        <ele>306.5</ele>
        <time>2018-05-27T08:15:31Z</time>
      </trkpt>
      <trkpt lat="46.81679" lon="5.63137">
        <ele>307.2</ele>
        <time>2018-05-27T08:15:38Z</time>
      </trkpt>
      <trkpt lat="46.81676" lon="5.6315">
        <ele>308</ele>
        <time>2018-05-27T08:15:45Z</time>
      </trkpt>
      <trkpt lat="46.81673" lon="5.63163">
        <ele>309</ele>
        <time>2018-05-27T08:15:52Z</time>
      </trkpt>
      <trkpt lat="46.81671" lon="5.63177">
        <ele>310.7</ele>
        <time>2018-05-27T08:16:14Z</time>
      </trkpt>
      <trkpt lat="46.81668" lon="5.63192">
        <ele>311.4</ele>
        <time>2018-05-27T08:16:22Z</time>
      </trkpt>
      <trkpt lat="46.81664" lon="5.63203">
        <ele>312.2</ele>
        <time>2018-05-27T08:16:29Z</time>
      </trkpt>
      <trkpt lat="46.81654" lon="5.63202">
        <ele>313.4</ele>
        <time>2018-05-27T08:16:38Z</time>
      </trkpt>
      <trkpt lat="46.81645" lon="5.632">
        <ele>314.1</ele>
        <time>2018-05-27T08:16:44Z</time>
      </trkpt>
      <trkpt lat="46.81637" lon="5.63205">
        <ele>314.7</ele>
        <time>2018-05-27T08:16:50Z</time>
      </trkpt>
      <trkpt lat="46.81629" lon="5.63214">
        <ele>316</ele>
        <time>2018-05-27T08:17:00Z</time>
      </trkpt>
      <trkpt lat="46.81624" lon="5.63225">
        <ele>317.4</ele>
        <time>2018-05-27T08:17:10Z</time>
      </trkpt>
      <trkpt lat="46.81622" lon="5.63239">
        <ele>318.9</ele>
        <time>2018-05-27T08:17:19Z</time>
      </trkpt>
      <trkpt lat="46.81619" lon="5.63253">
        <ele>320.6</ele>
        <time>2018-05-27T08:17:31Z</time>
      </trkpt>
      <trkpt lat="46.81616" lon="5.63265">
        <ele>322</ele>
        <time>2018-05-27T08:17:41Z</time>
      </trkpt>
      <trkpt lat="46.81612" lon="5.63278">
        <ele>323.4</ele>
        <time>2018-05-27T08:17:51Z</time>
      </trkpt>
      <trkpt lat="46.81608" lon="5.6329">
        <ele>325.1</ele>
        <time>2018-05-27T08:18:03Z</time>
      </trkpt>
      <trkpt lat="46.81605" lon="5.63302">
        <ele>326.9</ele>
        <time>2018-05-27T08:18:17Z</time>
      </trkpt>
      <trkpt lat="46.81607" lon="5.63316">
        <ele>329</ele>
        <time>2018-05-27T08:18:32Z</time>
      </trkpt>
      <trkpt lat="46.81611" lon="5.63328">
        <ele>330.2</ele>
        <time>2018-05-27T08:18:41Z</time>
      </trkpt>
      <trkpt lat="46.81614" lon="5.63342">
        <ele>331.6</ele>
        <time>2018-05-27T08:18:52Z</time>
      </trkpt>
      <trkpt lat="46.81619" lon="5.63355">
        <ele>333.4</ele>
        <time>2018-05-27T08:19:04Z</time>
      </trkpt>
      <trkpt lat="46.81625" lon="5.63366">
        <ele>335.3</ele>
        <time>2018-05-27T08:19:19Z</time>
      </trkpt>
      <trkpt lat="46.8163" lon="5.63378">
        <ele>335.9</ele>
        <time>2018-05-27T08:19:25Z</time>
      </trkpt>
      <trkpt lat="46.81637" lon="5.63387">
        <ele>337.1</ele>
        <time>2018-05-27T08:19:34Z</time>
      </trkpt>
      <trkpt lat="46.81643" lon="5.63397">
        <ele>338.1</ele>
        <time>2018-05-27T08:19:43Z</time>
      </trkpt>
      <trkpt lat="46.81648" lon="5.63408">
        <ele>339.1</ele>
        <time>2018-05-27T08:19:50Z</time>
      </trkpt>
      <trkpt lat="46.81652" lon="5.63422">
        <ele>339.7</ele>
        <time>2018-05-27T08:19:55Z</time>
      </trkpt>
      <trkpt lat="46.81658" lon="5.63433">
        <ele>340.4</ele>
        <time>2018-05-27T08:20:00Z</time>
      </trkpt>
      <trkpt lat="46.81662" lon="5.63445">
        <ele>341.5</ele>
        <time>2018-05-27T08:20:08Z</time>
      </trkpt>
      <trkpt lat="46.81667" lon="5.63457">
        <ele>343.3</ele>
        <time>2018-05-27T08:20:19Z</time>
      </trkpt>
      <trkpt lat="46.81674" lon="5.63467">
        <ele>344.8</ele>
        <time>2018-05-27T08:20:30Z</time>
      </trkpt>
      <trkpt lat="46.81676" lon="5.6348">
        <ele>346.3</ele>
        <time>2018-05-27T08:20:40Z</time>
      </trkpt>
      <trkpt lat="46.81677" lon="5.63495">
        <ele>348.2</ele>
        <time>2018-05-27T08:20:53Z</time>
      </trkpt>
      <trkpt lat="46.81675" lon="5.63508">
        <ele>349.9</ele>
        <time>2018-05-27T08:21:04Z</time>
      </trkpt>
      <trkpt lat="46.8167" lon="5.63519">
        <ele>351.8</ele>
        <time>2018-05-27T08:21:18Z</time>
      </trkpt>
      <trkpt lat="46.81661" lon="5.63527">
        <ele>352.8</ele>
        <time>2018-05-27T08:21:31Z</time>
      </trkpt>
      <trkpt lat="46.81651" lon="5.63526">
        <ele>353.3</ele>
        <time>2018-05-27T08:21:38Z</time>
      </trkpt>
      <trkpt lat="46.81642" lon="5.63523">
        <ele>354</ele>
        <time>2018-05-27T08:21:45Z</time>
      </trkpt>
      <trkpt lat="46.81633" lon="5.6352">
        <ele>354.7</ele>
        <time>2018-05-27T08:21:52Z</time>
      </trkpt>
      <trkpt lat="46.81625" lon="5.63513">
        <ele>355.6</ele>
        <time>2018-05-27T08:21:59Z</time>
      </trkpt>
      <trkpt lat="46.81616" lon="5.63508">
        <ele>356.6</ele>
        <time>2018-05-27T08:22:07Z</time>
      </trkpt>
      <trkpt lat="46.81607" lon="5.63503">
        <ele>357.5</ele>
        <time>2018-05-27T08:22:14Z</time>
      </trkpt>
      <trkpt lat="46.81598" lon="5.63497">
        <ele>358.4</ele>
        <time>2018-05-27T08:22:21Z</time>
      </trkpt>
      <trkpt lat="46.81589" lon="5.63494">
        <ele>359.5</ele>
        <time>2018-05-27T08:22:29Z</time>
      </trkpt>
      <trkpt lat="46.81581" lon="5.63487">
        <ele>360.1</ele>
        <time>2018-05-27T08:22:34Z</time>
      </trkpt>
      <trkpt lat="46.81573" lon="5.63479">
        <ele>360.8</ele>
        <time>2018-05-27T08:22:40Z</time>
      </trkpt>
      <trkpt lat="46.81564" lon="5.63473">
        <ele>362.4</ele>
        <time>2018-05-27T08:22:53Z</time>
      </trkpt>
      <trkpt lat="46.81555" lon="5.63468">
        <ele>363.3</ele>
        <time>2018-05-27T08:23:00Z</time>
      </trkpt>
      <trkpt lat="46.81545" lon="5.63461">
        <ele>363.8</ele>
        <time>2018-05-27T08:23:05Z</time>
      </trkpt>
      <trkpt lat="46.81536" lon="5.63457">
        <ele>364.3</ele>
        <time>2018-05-27T08:23:11Z</time>
      </trkpt>
      <trkpt lat="46.81527" lon="5.63451">
        <ele>364.6</ele>
        <time>2018-05-27T08:23:18Z</time>
      </trkpt>
      <trkpt lat="46.81518" lon="5.63445">
        <ele>365.2</ele>
        <time>2018-05-27T08:23:28Z</time>
      </trkpt>
      <trkpt lat="46.8151" lon="5.63436">
        <ele>366.9</ele>
        <time>2018-05-27T08:23:44Z</time>
      </trkpt>
      <trkpt lat="46.81502" lon="5.63427">
        <ele>367.6</ele>
        <time>2018-05-27T08:23:51Z</time>
      </trkpt>
      <trkpt lat="46.81494" lon="5.63419">
        <ele>368.8</ele>
        <time>2018-05-27T08:24:00Z</time>
      </trkpt>
      <trkpt lat="46.81487" lon="5.63412">
        <ele>369.5</ele>
        <time>2018-05-27T08:24:06Z</time>
      </trkpt>
      <trkpt lat="46.81478" lon="5.63406">
        <ele>370.1</ele>
        <time>2018-05-27T08:24:12Z</time>
      </trkpt>
      <trkpt lat="46.81471" lon="5.63398">
        <ele>370.8</ele>
        <time>2018-05-27T08:24:19Z</time>
      </trkpt>
      <trkpt lat="46.81462" lon="5.6339">
        <ele>371.4</ele>
        <time>2018-05-27T08:24:24Z</time>
      </trkpt>
      <trkpt lat="46.81454" lon="5.63382">
        <ele>371.8</ele>
        <time>2018-05-27T08:24:29Z</time>
      </trkpt>
      <trkpt lat="46.81445" lon="5.63374">
        <ele>372</ele>
        <time>2018-05-27T08:24:33Z</time>
      </trkpt>
      <trkpt lat="46.81438" lon="5.63364">
        <ele>372.3</ele>
        <time>2018-05-27T08:24:38Z</time>
      </trkpt>
      <trkpt lat="46.8143" lon="5.63356">
        <ele>372.4</ele>
        <time>2018-05-27T08:24:43Z</time>
      </trkpt>
      <trkpt lat="46.81421" lon="5.63348">
        <ele>372.6</ele>
        <time>2018-05-27T08:24:48Z</time>
      </trkpt>
      <trkpt lat="46.81414" lon="5.63338">
        <ele>372.9</ele>
        <time>2018-05-27T08:24:55Z</time>
      </trkpt>
      <trkpt lat="46.81406" lon="5.63329">
        <ele>373.4</ele>
        <time>2018-05-27T08:25:02Z</time>
      </trkpt>
      <trkpt lat="46.81398" lon="5.63322">
        <ele>373.8</ele>
        <time>2018-05-27T08:25:08Z</time>
      </trkpt>
      <trkpt lat="46.8139" lon="5.63311">
        <ele>374.1</ele>
        <time>2018-05-27T08:25:12Z</time>
      </trkpt>
      <trkpt lat="46.81381" lon="5.63304">
        <ele>374.3</ele>
        <time>2018-05-27T08:25:16Z</time>
      </trkpt>
      <trkpt lat="46.81372" lon="5.63299">
        <ele>374.6</ele>
        <time>2018-05-27T08:25:21Z</time>
      </trkpt>
      <trkpt lat="46.81364" lon="5.63292">
        <ele>374.8</ele>
        <time>2018-05-27T08:25:28Z</time>
      </trkpt>
      <trkpt lat="46.81355" lon="5.63285">
        <ele>375</ele>
        <time>2018-05-27T08:25:37Z</time>
      </trkpt>
      <trkpt lat="46.81347" lon="5.6328">
        <ele>375.4</ele>
        <time>2018-05-27T08:25:45Z</time>
      </trkpt>
      <trkpt lat="46.81338" lon="5.63273">
        <ele>375.8</ele>
        <time>2018-05-27T08:25:51Z</time>
      </trkpt>
      <trkpt lat="46.81329" lon="5.63269">
        <ele>376.1</ele>
        <time>2018-05-27T08:25:55Z</time>
      </trkpt>
      <trkpt lat="46.8132" lon="5.63266">
        <ele>376.7</ele>
        <time>2018-05-27T08:26:02Z</time>
      </trkpt>
      <trkpt lat="46.81311" lon="5.63262">
        <ele>377.5</ele>
        <time>2018-05-27T08:26:11Z</time>
      </trkpt>
      <trkpt lat="46.81301" lon="5.63258">
        <ele>378.2</ele>
        <time>2018-05-27T08:26:18Z</time>
      </trkpt>
      <trkpt lat="46.81291" lon="5.63251">
        <ele>378.7</ele>
        <time>2018-05-27T08:26:23Z</time>
      </trkpt>
      <trkpt lat="46.81281" lon="5.63246">
        <ele>379.2</ele>
        <time>2018-05-27T08:26:28Z</time>
      </trkpt>
      <trkpt lat="46.81273" lon="5.63242">
        <ele>379.6</ele>
        <time>2018-05-27T08:26:34Z</time>
      </trkpt>
      <trkpt lat="46.81266" lon="5.63233">
        <ele>380</ele>
        <time>2018-05-27T08:26:40Z</time>
      </trkpt>
      <trkpt lat="46.81257" lon="5.63225">
        <ele>380.3</ele>
        <time>2018-05-27T08:26:46Z</time>
      </trkpt>
      <trkpt lat="46.81251" lon="5.63214">
        <ele>380.6</ele>
        <time>2018-05-27T08:26:54Z</time>
      </trkpt>
      <trkpt lat="46.81245" lon="5.63205">
        <ele>380.7</ele>
        <time>2018-05-27T08:26:57Z</time>
      </trkpt>
      <trkpt lat="46.81234" lon="5.63198">
        <ele>380.9</ele>
        <time>2018-05-27T08:27:01Z</time>
      </trkpt>
      <trkpt lat="46.81223" lon="5.63194">
        <ele>381</ele>
        <time>2018-05-27T08:27:05Z</time>
      </trkpt>
      <trkpt lat="46.81215" lon="5.63182">
        <ele>381</ele>
        <time>2018-05-27T08:27:10Z</time>
      </trkpt>
      <trkpt lat="46.81206" lon="5.63173">
        <ele>380.9</ele>
        <time>2018-05-27T08:27:13Z</time>
      </trkpt>
      <trkpt lat="46.81197" lon="5.6317">
        <ele>380.8</ele>
        <time>2018-05-27T08:27:17Z</time>
      </trkpt>
      <trkpt lat="46.81188" lon="5.63163">
        <ele>380.7</ele>
        <time>2018-05-27T08:27:23Z</time>
      </trkpt>
      <trkpt lat="46.81179" lon="5.63161">
        <ele>380.5</ele>
        <time>2018-05-27T08:27:30Z</time>
      </trkpt>
      <trkpt lat="46.81168" lon="5.63151">
        <ele>380.5</ele>
        <time>2018-05-27T08:27:35Z</time>
      </trkpt>
      <trkpt lat="46.8116" lon="5.63143">
        <ele>380.4</ele>
        <time>2018-05-27T08:27:38Z</time>
      </trkpt>
      <trkpt lat="46.81154" lon="5.63131">
        <ele>380.4</ele>
        <time>2018-05-27T08:27:43Z</time>
      </trkpt>
      <trkpt lat="46.81154" lon="5.63117">
        <ele>380.3</ele>
        <time>2018-05-27T08:27:48Z</time>
      </trkpt>
      <trkpt lat="46.81153" lon="5.63103">
        <ele>380.2</ele>
        <time>2018-05-27T08:27:56Z</time>
      </trkpt>
      <trkpt lat="46.8116" lon="5.63092">
        <ele>380.3</ele>
        <time>2018-05-27T08:28:02Z</time>
      </trkpt>
      <trkpt lat="46.81165" lon="5.63079">
        <ele>380.7</ele>
        <time>2018-05-27T08:28:07Z</time>
      </trkpt>
      <trkpt lat="46.81171" lon="5.63066">
        <ele>380.9</ele>
        <time>2018-05-27T08:28:11Z</time>
      </trkpt>
      <trkpt lat="46.81173" lon="5.63054">
        <ele>381.3</ele>
        <time>2018-05-27T08:28:14Z</time>
      </trkpt>
      <trkpt lat="46.81173" lon="5.63039">
        <ele>382.3</ele>
        <time>2018-05-27T08:28:22Z</time>
      </trkpt>
      <trkpt lat="46.81168" lon="5.63028">
        <ele>383.5</ele>
        <time>2018-05-27T08:28:31Z</time>
      </trkpt>
      <trkpt lat="46.8116" lon="5.6302">
        <ele>384.5</ele>
        <time>2018-05-27T08:28:37Z</time>
      </trkpt>
      <trkpt lat="46.81151" lon="5.63013">
        <ele>385</ele>
        <time>2018-05-27T08:28:41Z</time>
      </trkpt>
      <trkpt lat="46.81142" lon="5.63005">
        <ele>385.9</ele>
        <time>2018-05-27T08:28:47Z</time>
      </trkpt>
      <trkpt lat="46.81136" lon="5.62994">
        <ele>386.8</ele>
        <time>2018-05-27T08:28:54Z</time>
      </trkpt>
      <trkpt lat="46.81128" lon="5.62987">
        <ele>387.7</ele>
        <time>2018-05-27T08:29:01Z</time>
      </trkpt>
      <trkpt lat="46.8112" lon="5.62979">
        <ele>388.8</ele>
        <time>2018-05-27T08:29:09Z</time>
      </trkpt>
      <trkpt lat="46.8111" lon="5.62975">
        <ele>390</ele>
        <time>2018-05-27T08:29:17Z</time>
      </trkpt>
      <trkpt lat="46.81101" lon="5.6297">
        <ele>390.7</ele>
        <time>2018-05-27T08:29:22Z</time>
      </trkpt>
      <trkpt lat="46.81092" lon="5.62963">
        <ele>391.5</ele>
        <time>2018-05-27T08:29:28Z</time>
      </trkpt>
      <trkpt lat="46.81084" lon="5.62955">
        <ele>392.3</ele>
        <time>2018-05-27T08:29:35Z</time>
      </trkpt>
      <trkpt lat="46.81077" lon="5.62946">
        <ele>393.5</ele>
        <time>2018-05-27T08:29:43Z</time>
      </trkpt>
      <trkpt lat="46.81066" lon="5.62939">
        <ele>394.3</ele>
        <time>2018-05-27T08:29:49Z</time>
      </trkpt>
      <trkpt lat="46.81058" lon="5.62934">
        <ele>394.8</ele>
        <time>2018-05-27T08:29:54Z</time>
      </trkpt>
      <trkpt lat="46.81048" lon="5.62928">
        <ele>395.3</ele>
        <time>2018-05-27T08:29:59Z</time>
      </trkpt>
      <trkpt lat="46.81038" lon="5.62925">
        <ele>395.6</ele>
        <time>2018-05-27T08:30:03Z</time>
      </trkpt>
      <trkpt lat="46.81028" lon="5.62921">
        <ele>396.2</ele>
        <time>2018-05-27T08:30:08Z</time>
      </trkpt>
      <trkpt lat="46.81018" lon="5.62916">
        <ele>396.8</ele>
        <time>2018-05-27T08:30:13Z</time>
      </trkpt>
      <trkpt lat="46.8101" lon="5.62911">
        <ele>397.5</ele>
        <time>2018-05-27T08:30:18Z</time>
      </trkpt>
      <trkpt lat="46.81" lon="5.62907">
        <ele>398.1</ele>
        <time>2018-05-27T08:30:23Z</time>
      </trkpt>
      <trkpt lat="46.80992" lon="5.629">
        <ele>398.6</ele>
        <time>2018-05-27T08:30:28Z</time>
      </trkpt>
      <trkpt lat="46.80983" lon="5.62893">
        <ele>399.1</ele>
        <time>2018-05-27T08:30:33Z</time>
      </trkpt>
      <trkpt lat="46.80974" lon="5.62884">
        <ele>399.7</ele>
        <time>2018-05-27T08:30:38Z</time>
      </trkpt>
      <trkpt lat="46.80967" lon="5.62877">
        <ele>400.2</ele>
        <time>2018-05-27T08:30:43Z</time>
      </trkpt>
      <trkpt lat="46.80957" lon="5.62869">
        <ele>400.9</ele>
        <time>2018-05-27T08:30:49Z</time>
      </trkpt>
      <trkpt lat="46.80949" lon="5.62862">
        <ele>401.9</ele>
        <time>2018-05-27T08:30:56Z</time>
      </trkpt>
      <trkpt lat="46.80941" lon="5.62855">
        <ele>404</ele>
        <time>2018-05-27T08:32:26Z</time>
      </trkpt>
      <trkpt lat="46.80931" lon="5.62852">
        <ele>404.3</ele>
        <time>2018-05-27T08:32:33Z</time>
      </trkpt>
      <trkpt lat="46.80923" lon="5.62845">
        <ele>404.6</ele>
        <time>2018-05-27T08:32:38Z</time>
      </trkpt>
      <trkpt lat="46.80915" lon="5.62839">
        <ele>404.9</ele>
        <time>2018-05-27T08:32:42Z</time>
      </trkpt>
      <trkpt lat="46.80905" lon="5.62832">
        <ele>405.4</ele>
        <time>2018-05-27T08:32:47Z</time>
      </trkpt>
      <trkpt lat="46.80895" lon="5.62825">
        <ele>405.9</ele>
        <time>2018-05-27T08:32:52Z</time>
      </trkpt>
      <trkpt lat="46.80886" lon="5.62818">
        <ele>406.3</ele>
        <time>2018-05-27T08:32:57Z</time>
      </trkpt>
      <trkpt lat="46.80877" lon="5.62812">
        <ele>406.7</ele>
        <time>2018-05-27T08:33:02Z</time>
      </trkpt>
      <trkpt lat="46.80868" lon="5.62804">
        <ele>407.1</ele>
        <time>2018-05-27T08:35:13Z</time>
      </trkpt>
      <trkpt lat="46.80858" lon="5.62799">
        <ele>407.1</ele>
        <time>2018-05-27T08:35:18Z</time>
      </trkpt>
      <trkpt lat="46.80848" lon="5.62796">
        <ele>407.1</ele>
        <time>2018-05-27T08:35:22Z</time>
      </trkpt>
      <trkpt lat="46.80837" lon="5.62791">
        <ele>407.1</ele>
        <time>2018-05-27T08:35:26Z</time>
      </trkpt>
      <trkpt lat="46.80828" lon="5.62785">
        <ele>407</ele>
        <time>2018-05-27T08:35:29Z</time>
      </trkpt>
      <trkpt lat="46.80817" lon="5.62779">
        <ele>407</ele>
        <time>2018-05-27T08:35:32Z</time>
      </trkpt>
      <trkpt lat="46.80805" lon="5.62774">
        <ele>407</ele>
        <time>2018-05-27T08:35:35Z</time>
      </trkpt>
      <trkpt lat="46.80797" lon="5.62769">
        <ele>407</ele>
        <time>2018-05-27T08:35:37Z</time>
      </trkpt>
      <trkpt lat="46.80787" lon="5.62762">
        <ele>407</ele>
        <time>2018-05-27T08:35:39Z</time>
      </trkpt>
      <trkpt lat="46.80777" lon="5.62753">
        <ele>406.9</ele>
        <time>2018-05-27T08:35:41Z</time>
      </trkpt>
      <trkpt lat="46.80766" lon="5.62743">
        <ele>406.7</ele>
        <time>2018-05-27T08:35:43Z</time>
      </trkpt>
      <trkpt lat="46.80755" lon="5.62733">
        <ele>406.4</ele>
        <time>2018-05-27T08:35:45Z</time>
      </trkpt>
      <trkpt lat="46.80744" lon="5.62724">
        <ele>406.2</ele>
        <time>2018-05-27T08:35:47Z</time>
      </trkpt>
      <trkpt lat="46.80733" lon="5.62715">
        <ele>405.9</ele>
        <time>2018-05-27T08:35:49Z</time>
      </trkpt>
      <trkpt lat="46.80723" lon="5.62706">
        <ele>405.5</ele>
        <time>2018-05-27T08:35:51Z</time>
      </trkpt>
      <trkpt lat="46.80713" lon="5.62698">
        <ele>405.2</ele>
        <time>2018-05-27T08:35:53Z</time>
      </trkpt>
      <trkpt lat="46.80704" lon="5.62691">
        <ele>404.8</ele>
        <time>2018-05-27T08:35:55Z</time>
      </trkpt>
      <trkpt lat="46.80695" lon="5.6269">
        <ele>404.5</ele>
        <time>2018-05-27T08:35:57Z</time>
      </trkpt>
      <trkpt lat="46.80686" lon="5.62695">
        <ele>404.2</ele>
        <time>2018-05-27T08:35:59Z</time>
      </trkpt>
      <trkpt lat="46.80678" lon="5.62702">
        <ele>403.9</ele>
        <time>2018-05-27T08:36:01Z</time>
      </trkpt>
      <trkpt lat="46.80667" lon="5.62712">
        <ele>403.6</ele>
        <time>2018-05-27T08:36:04Z</time>
      </trkpt>
      <trkpt lat="46.80655" lon="5.62719">
        <ele>403.3</ele>
        <time>2018-05-27T08:36:07Z</time>
      </trkpt>
      <trkpt lat="46.80643" lon="5.62723">
        <ele>403.1</ele>
        <time>2018-05-27T08:36:10Z</time>
      </trkpt>
      <trkpt lat="46.80632" lon="5.62723">
        <ele>403</ele>
        <time>2018-05-27T08:36:13Z</time>
      </trkpt>
      <trkpt lat="46.80622" lon="5.62721">
        <ele>403</ele>
        <time>2018-05-27T08:36:16Z</time>
      </trkpt>
      <trkpt lat="46.80611" lon="5.62717">
        <ele>403.2</ele>
        <time>2018-05-27T08:36:20Z</time>
      </trkpt>
      <trkpt lat="46.806" lon="5.6271">
        <ele>403.5</ele>
        <time>2018-05-27T08:36:24Z</time>
      </trkpt>
      <trkpt lat="46.80589" lon="5.62703">
        <ele>403.9</ele>
        <time>2018-05-27T08:36:28Z</time>
      </trkpt>
      <trkpt lat="46.80581" lon="5.62698">
        <ele>404.2</ele>
        <time>2018-05-27T08:36:31Z</time>
      </trkpt>
      <trkpt lat="46.80572" lon="5.62694">
        <ele>404.5</ele>
        <time>2018-05-27T08:36:34Z</time>
      </trkpt>
      <trkpt lat="46.80563" lon="5.6269">
        <ele>404.7</ele>
        <time>2018-05-27T08:36:37Z</time>
      </trkpt>
      <trkpt lat="46.80554" lon="5.62688">
        <ele>405.1</ele>
        <time>2018-05-27T08:36:40Z</time>
      </trkpt>
      <trkpt lat="46.80545" lon="5.62687">
        <ele>405.5</ele>
        <time>2018-05-27T08:36:43Z</time>
      </trkpt>
      <trkpt lat="46.80536" lon="5.62686">
        <ele>406</ele>
        <time>2018-05-27T08:36:46Z</time>
      </trkpt>
      <trkpt lat="46.80527" lon="5.62687">
        <ele>406.4</ele>
        <time>2018-05-27T08:36:49Z</time>
      </trkpt>
      <trkpt lat="46.80517" lon="5.62688">
        <ele>407</ele>
        <time>2018-05-27T08:36:53Z</time>
      </trkpt>
      <trkpt lat="46.80505" lon="5.62689">
        <ele>407.5</ele>
        <time>2018-05-27T08:36:57Z</time>
      </trkpt>
      <trkpt lat="46.80493" lon="5.62691">
        <ele>408.1</ele>
        <time>2018-05-27T08:37:01Z</time>
      </trkpt>
      <trkpt lat="46.80484" lon="5.62691">
        <ele>408.5</ele>
        <time>2018-05-27T08:37:04Z</time>
      </trkpt>
      <trkpt lat="46.80475" lon="5.62692">
        <ele>409</ele>
        <time>2018-05-27T08:37:07Z</time>
      </trkpt>
      <trkpt lat="46.80466" lon="5.62693">
        <ele>409.4</ele>
        <time>2018-05-27T08:37:10Z</time>
      </trkpt>
      <trkpt lat="46.80454" lon="5.62694">
        <ele>409.9</ele>
        <time>2018-05-27T08:37:14Z</time>
      </trkpt>
      <trkpt lat="46.80442" lon="5.62693">
        <ele>410.5</ele>
        <time>2018-05-27T08:37:18Z</time>
      </trkpt>
      <trkpt lat="46.80431" lon="5.62692">
        <ele>411</ele>
        <time>2018-05-27T08:37:22Z</time>
      </trkpt>
      <trkpt lat="46.8042" lon="5.62692">
        <ele>411.5</ele>
        <time>2018-05-27T08:37:26Z</time>
      </trkpt>
      <trkpt lat="46.80409" lon="5.62692">
        <ele>412.1</ele>
        <time>2018-05-27T08:37:30Z</time>
      </trkpt>
      <trkpt lat="46.80398" lon="5.62694">
        <ele>412.7</ele>
        <time>2018-05-27T08:37:34Z</time>
      </trkpt>
      <trkpt lat="46.80386" lon="5.62696">
        <ele>413.4</ele>
        <time>2018-05-27T08:37:38Z</time>
      </trkpt>
      <trkpt lat="46.80374" lon="5.62698">
        <ele>414</ele>
        <time>2018-05-27T08:37:42Z</time>
      </trkpt>
      <trkpt lat="46.80363" lon="5.627">
        <ele>414.7</ele>
        <time>2018-05-27T08:37:46Z</time>
      </trkpt>
      <trkpt lat="46.80352" lon="5.62702">
        <ele>415.3</ele>
        <time>2018-05-27T08:37:50Z</time>
      </trkpt>
      <trkpt lat="46.80341" lon="5.62703">
        <ele>415.8</ele>
        <time>2018-05-27T08:37:54Z</time>
      </trkpt>
      <trkpt lat="46.80331" lon="5.627">
        <ele>416.3</ele>
        <time>2018-05-27T08:37:58Z</time>
      </trkpt>
      <trkpt lat="46.80322" lon="5.62696">
        <ele>416.9</ele>
        <time>2018-05-27T08:38:02Z</time>
      </trkpt>
      <trkpt lat="46.80317" lon="5.62685">
        <ele>417.4</ele>
        <time>2018-05-27T08:38:06Z</time>
      </trkpt>
      <trkpt lat="46.80314" lon="5.6267">
        <ele>417.8</ele>
        <time>2018-05-27T08:38:11Z</time>
      </trkpt>
      <trkpt lat="46.80309" lon="5.62654">
        <ele>418</ele>
        <time>2018-05-27T08:38:14Z</time>
      </trkpt>
      <trkpt lat="46.80305" lon="5.6264">
        <ele>417.9</ele>
        <time>2018-05-27T08:38:16Z</time>
      </trkpt>
      <trkpt lat="46.803" lon="5.62622">
        <ele>417.7</ele>
        <time>2018-05-27T08:38:18Z</time>
      </trkpt>
      <trkpt lat="46.80292" lon="5.62601">
        <ele>417.4</ele>
        <time>2018-05-27T08:38:20Z</time>
      </trkpt>
      <trkpt lat="46.80283" lon="5.6258">
        <ele>417</ele>
        <time>2018-05-27T08:38:22Z</time>
      </trkpt>
      <trkpt lat="46.80271" lon="5.62563">
        <ele>416.6</ele>
        <time>2018-05-27T08:38:24Z</time>
      </trkpt>
      <trkpt lat="46.80259" lon="5.62545">
        <ele>416</ele>
        <time>2018-05-27T08:38:26Z</time>
      </trkpt>
      <trkpt lat="46.80248" lon="5.62524">
        <ele>415.2</ele>
        <time>2018-05-27T08:38:28Z</time>
      </trkpt>
      <trkpt lat="46.80242" lon="5.62513">
        <ele>414.7</ele>
        <time>2018-05-27T08:38:29Z</time>
      </trkpt>
      <trkpt lat="46.80236" lon="5.62502">
        <ele>414.2</ele>
        <time>2018-05-27T08:38:30Z</time>
      </trkpt>
      <trkpt lat="46.80226" lon="5.62482">
        <ele>413.2</ele>
        <time>2018-05-27T08:38:32Z</time>
      </trkpt>
      <trkpt lat="46.8022" lon="5.62464">
        <ele>412.1</ele>
        <time>2018-05-27T08:38:34Z</time>
      </trkpt>
      <trkpt lat="46.80217" lon="5.62446">
        <ele>411</ele>
        <time>2018-05-27T08:38:36Z</time>
      </trkpt>
      <trkpt lat="46.80217" lon="5.6243">
        <ele>410</ele>
        <time>2018-05-27T08:38:38Z</time>
      </trkpt>
      <trkpt lat="46.80221" lon="5.62413">
        <ele>408.4</ele>
        <time>2018-05-27T08:38:41Z</time>
      </trkpt>
      <trkpt lat="46.80223" lon="5.624">
        <ele>406.9</ele>
        <time>2018-05-27T08:38:44Z</time>
      </trkpt>
      <trkpt lat="46.80218" lon="5.62388">
        <ele>405</ele>
        <time>2018-05-27T08:38:48Z</time>
      </trkpt>
      <trkpt lat="46.80208" lon="5.62388">
        <ele>403.4</ele>
        <time>2018-05-27T08:38:52Z</time>
      </trkpt>
      <trkpt lat="46.80197" lon="5.62387">
        <ele>401.9</ele>
        <time>2018-05-27T08:38:57Z</time>
      </trkpt>
      <trkpt lat="46.80187" lon="5.62381">
        <ele>400.9</ele>
        <time>2018-05-27T08:39:02Z</time>
      </trkpt>
      <trkpt lat="46.80178" lon="5.62372">
        <ele>400.4</ele>
        <time>2018-05-27T08:39:06Z</time>
      </trkpt>
      <trkpt lat="46.80169" lon="5.62363">
        <ele>400</ele>
        <time>2018-05-27T08:39:10Z</time>
      </trkpt>
      <trkpt lat="46.8016" lon="5.62355">
        <ele>399.7</ele>
        <time>2018-05-27T08:39:14Z</time>
      </trkpt>
      <trkpt lat="46.80151" lon="5.62347">
        <ele>399.5</ele>
        <time>2018-05-27T08:39:18Z</time>
      </trkpt>
      <trkpt lat="46.80143" lon="5.6234">
        <ele>399.5</ele>
        <time>2018-05-27T08:39:22Z</time>
      </trkpt>
      <trkpt lat="46.80132" lon="5.62331">
        <ele>399.5</ele>
        <time>2018-05-27T08:39:26Z</time>
      </trkpt>
      <trkpt lat="46.80123" lon="5.62325">
        <ele>399.5</ele>
        <time>2018-05-27T08:39:29Z</time>
      </trkpt>
      <trkpt lat="46.80115" lon="5.6232">
        <ele>399.6</ele>
        <time>2018-05-27T08:39:32Z</time>
      </trkpt>
      <trkpt lat="46.80106" lon="5.62313">
        <ele>399.6</ele>
        <time>2018-05-27T08:39:35Z</time>
      </trkpt>
      <trkpt lat="46.80098" lon="5.62308">
        <ele>399.7</ele>
        <time>2018-05-27T08:39:39Z</time>
      </trkpt>
      <trkpt lat="46.80088" lon="5.623">
        <ele>399.8</ele>
        <time>2018-05-27T08:39:44Z</time>
      </trkpt>
      <trkpt lat="46.80079" lon="5.62293">
        <ele>399.8</ele>
        <time>2018-05-27T08:39:47Z</time>
      </trkpt>
      <trkpt lat="46.8007" lon="5.62286">
        <ele>399.8</ele>
        <time>2018-05-27T08:39:50Z</time>
      </trkpt>
      <trkpt lat="46.80061" lon="5.62277">
        <ele>399.8</ele>
        <time>2018-05-27T08:39:53Z</time>
      </trkpt>
      <trkpt lat="46.80053" lon="5.62265">
        <ele>399.8</ele>
        <time>2018-05-27T08:39:57Z</time>
      </trkpt>
      <trkpt lat="46.80045" lon="5.62255">
        <ele>399.8</ele>
        <time>2018-05-27T08:40:00Z</time>
      </trkpt>
      <trkpt lat="46.80035" lon="5.62245">
        <ele>399.8</ele>
        <time>2018-05-27T08:40:03Z</time>
      </trkpt>
      <trkpt lat="46.80026" lon="5.62236">
        <ele>399.8</ele>
        <time>2018-05-27T08:40:06Z</time>
      </trkpt>
      <trkpt lat="46.80017" lon="5.62227">
        <ele>399.7</ele>
        <time>2018-05-27T08:40:09Z</time>
      </trkpt>
      <trkpt lat="46.8001" lon="5.6222">
        <ele>399.5</ele>
        <time>2018-05-27T08:40:12Z</time>
      </trkpt>
      <trkpt lat="46.79999" lon="5.62212">
        <ele>399.2</ele>
        <time>2018-05-27T08:40:16Z</time>
      </trkpt>
      <trkpt lat="46.79991" lon="5.62203">
        <ele>398.9</ele>
        <time>2018-05-27T08:40:18Z</time>
      </trkpt>
      <trkpt lat="46.79981" lon="5.62193">
        <ele>398.5</ele>
        <time>2018-05-27T08:40:20Z</time>
      </trkpt>
      <trkpt lat="46.79973" lon="5.62182">
        <ele>398</ele>
        <time>2018-05-27T08:40:22Z</time>
      </trkpt>
      <trkpt lat="46.79963" lon="5.62169">
        <ele>397.4</ele>
        <time>2018-05-27T08:40:24Z</time>
      </trkpt>
      <trkpt lat="46.79954" lon="5.62157">
        <ele>396.7</ele>
        <time>2018-05-27T08:40:26Z</time>
      </trkpt>
      <trkpt lat="46.79942" lon="5.62147">
        <ele>395.8</ele>
        <time>2018-05-27T08:40:28Z</time>
      </trkpt>
      <trkpt lat="46.7993" lon="5.62139">
        <ele>394.9</ele>
        <time>2018-05-27T08:40:30Z</time>
      </trkpt>
      <trkpt lat="46.79915" lon="5.62129">
        <ele>393.8</ele>
        <time>2018-05-27T08:40:32Z</time>
      </trkpt>
      <trkpt lat="46.799" lon="5.62122">
        <ele>392.6</ele>
        <time>2018-05-27T08:40:34Z</time>
      </trkpt>
      <trkpt lat="46.79887" lon="5.62115">
        <ele>391.3</ele>
        <time>2018-05-27T08:40:36Z</time>
      </trkpt>
      <trkpt lat="46.79875" lon="5.62107">
        <ele>389.8</ele>
        <time>2018-05-27T08:40:38Z</time>
      </trkpt>
      <trkpt lat="46.79863" lon="5.62099">
        <ele>388.2</ele>
        <time>2018-05-27T08:40:40Z</time>
      </trkpt>
      <trkpt lat="46.79852" lon="5.62094">
        <ele>386.6</ele>
        <time>2018-05-27T08:40:42Z</time>
      </trkpt>
      <trkpt lat="46.7984" lon="5.62087">
        <ele>385</ele>
        <time>2018-05-27T08:40:44Z</time>
      </trkpt>
      <trkpt lat="46.79827" lon="5.62077">
        <ele>383.3</ele>
        <time>2018-05-27T08:40:46Z</time>
      </trkpt>
      <trkpt lat="46.79814" lon="5.62066">
        <ele>381.5</ele>
        <time>2018-05-27T08:40:48Z</time>
      </trkpt>
      <trkpt lat="46.79804" lon="5.62056">
        <ele>379.8</ele>
        <time>2018-05-27T08:40:50Z</time>
      </trkpt>
      <trkpt lat="46.79797" lon="5.62047">
        <ele>378.2</ele>
        <time>2018-05-27T08:40:52Z</time>
      </trkpt>
      <trkpt lat="46.79788" lon="5.62039">
        <ele>376.4</ele>
        <time>2018-05-27T08:40:54Z</time>
      </trkpt>
      <trkpt lat="46.79779" lon="5.62031">
        <ele>374.8</ele>
        <time>2018-05-27T08:40:56Z</time>
      </trkpt>
      <trkpt lat="46.79768" lon="5.62024">
        <ele>373.1</ele>
        <time>2018-05-27T08:40:58Z</time>
      </trkpt>
      <trkpt lat="46.79757" lon="5.62017">
        <ele>371.5</ele>
        <time>2018-05-27T08:41:00Z</time>
      </trkpt>
      <trkpt lat="46.79746" lon="5.62014">
        <ele>369.8</ele>
        <time>2018-05-27T08:41:02Z</time>
      </trkpt>
      <trkpt lat="46.79732" lon="5.62016">
        <ele>369</ele>
        <time>2018-05-27T08:41:03Z</time>
      </trkpt>
      <trkpt lat="46.79719" lon="5.62019">
        <ele>367.4</ele>
        <time>2018-05-27T08:41:05Z</time>
      </trkpt>
      <trkpt lat="46.79707" lon="5.62016">
        <ele>366.6</ele>
        <time>2018-05-27T08:41:06Z</time>
      </trkpt>
      <trkpt lat="46.79698" lon="5.62023">
        <ele>364.3</ele>
        <time>2018-05-27T08:41:09Z</time>
      </trkpt>
      <trkpt lat="46.79691" lon="5.62033">
        <ele>362.1</ele>
        <time>2018-05-27T08:41:12Z</time>
      </trkpt>
      <trkpt lat="46.79685" lon="5.62045">
        <ele>359.4</ele>
        <time>2018-05-27T08:41:16Z</time>
      </trkpt>
      <trkpt lat="46.79683" lon="5.62058">
        <ele>357.5</ele>
        <time>2018-05-27T08:41:19Z</time>
      </trkpt>
      <trkpt lat="46.79684" lon="5.62074">
        <ele>355.8</ele>
        <time>2018-05-27T08:41:22Z</time>
      </trkpt>
      <trkpt lat="46.79689" lon="5.62087">
        <ele>354.1</ele>
        <time>2018-05-27T08:41:25Z</time>
      </trkpt>
      <trkpt lat="46.79687" lon="5.62099">
        <ele>352</ele>
        <time>2018-05-27T08:41:29Z</time>
      </trkpt>
      <trkpt lat="46.79679" lon="5.6211">
        <ele>350.9</ele>
        <time>2018-05-27T08:41:31Z</time>
      </trkpt>
      <trkpt lat="46.79672" lon="5.62118">
        <ele>349.9</ele>
        <time>2018-05-27T08:41:33Z</time>
      </trkpt>
      <trkpt lat="46.79663" lon="5.62115">
        <ele>348.3</ele>
        <time>2018-05-27T08:41:36Z</time>
      </trkpt>
      <trkpt lat="46.79649" lon="5.62123">
        <ele>346.7</ele>
        <time>2018-05-27T08:41:39Z</time>
      </trkpt>
      <trkpt lat="46.79637" lon="5.62125">
        <ele>345.7</ele>
        <time>2018-05-27T08:41:41Z</time>
      </trkpt>
      <trkpt lat="46.79625" lon="5.62122">
        <ele>344.8</ele>
        <time>2018-05-27T08:41:43Z</time>
      </trkpt>
      <trkpt lat="46.79617" lon="5.62112">
        <ele>344</ele>
        <time>2018-05-27T08:41:45Z</time>
      </trkpt>
      <trkpt lat="46.79609" lon="5.621">
        <ele>342.9</ele>
        <time>2018-05-27T08:41:48Z</time>
      </trkpt>
      <trkpt lat="46.79599" lon="5.62091">
        <ele>342.1</ele>
        <time>2018-05-27T08:41:51Z</time>
      </trkpt>
      <trkpt lat="46.7959" lon="5.62084">
        <ele>341.3</ele>
        <time>2018-05-27T08:41:54Z</time>
      </trkpt>
      <trkpt lat="46.79581" lon="5.62087">
        <ele>340.4</ele>
        <time>2018-05-27T08:42:00Z</time>
      </trkpt>
      <trkpt lat="46.79574" lon="5.62096">
        <ele>340.3</ele>
        <time>2018-05-27T08:42:07Z</time>
      </trkpt>
      <trkpt lat="46.79567" lon="5.62104">
        <ele>340.8</ele>
        <time>2018-05-27T08:42:14Z</time>
      </trkpt>
      <trkpt lat="46.79561" lon="5.62116">
        <ele>341.7</ele>
        <time>2018-05-27T08:42:21Z</time>
      </trkpt>
      <trkpt lat="46.79554" lon="5.62125">
        <ele>342.8</ele>
        <time>2018-05-27T08:42:28Z</time>
      </trkpt>
      <trkpt lat="46.79545" lon="5.62131">
        <ele>344.2</ele>
        <time>2018-05-27T08:42:35Z</time>
      </trkpt>
      <trkpt lat="46.79537" lon="5.62138">
        <ele>345.7</ele>
        <time>2018-05-27T08:42:42Z</time>
      </trkpt>
      <trkpt lat="46.79528" lon="5.62142">
        <ele>347.2</ele>
        <time>2018-05-27T08:42:49Z</time>
      </trkpt>
      <trkpt lat="46.79518" lon="5.62145">
        <ele>348.9</ele>
        <time>2018-05-27T08:42:57Z</time>
      </trkpt>
      <trkpt lat="46.79509" lon="5.62149">
        <ele>350.9</ele>
        <time>2018-05-27T08:43:06Z</time>
      </trkpt>
      <trkpt lat="46.79503" lon="5.62159">
        <ele>352.8</ele>
        <time>2018-05-27T08:43:14Z</time>
      </trkpt>
      <trkpt lat="46.79495" lon="5.62166">
        <ele>354.4</ele>
        <time>2018-05-27T08:43:22Z</time>
      </trkpt>
      <trkpt lat="46.79489" lon="5.62176">
        <ele>356.3</ele>
        <time>2018-05-27T08:43:31Z</time>
      </trkpt>
      <trkpt lat="46.79482" lon="5.62186">
        <ele>359.2</ele>
        <time>2018-05-27T08:43:47Z</time>
      </trkpt>
      <trkpt lat="46.79473" lon="5.62188">
        <ele>360.9</ele>
        <time>2018-05-27T08:44:00Z</time>
      </trkpt>
      <trkpt lat="46.79464" lon="5.62185">
        <ele>362</ele>
        <time>2018-05-27T08:44:11Z</time>
      </trkpt>
      <trkpt lat="46.79456" lon="5.62177">
        <ele>362.6</ele>
        <time>2018-05-27T08:44:22Z</time>
      </trkpt>
      <trkpt lat="46.79447" lon="5.62169">
        <ele>362.7</ele>
        <time>2018-05-27T08:44:28Z</time>
      </trkpt>
      <trkpt lat="46.79437" lon="5.62161">
        <ele>362.9</ele>
        <time>2018-05-27T08:44:34Z</time>
      </trkpt>
      <trkpt lat="46.79429" lon="5.62155">
        <ele>363.3</ele>
        <time>2018-05-27T08:44:39Z</time>
      </trkpt>
      <trkpt lat="46.7942" lon="5.62146">
        <ele>363.6</ele>
        <time>2018-05-27T08:44:44Z</time>
      </trkpt>
      <trkpt lat="46.7941" lon="5.62141">
        <ele>363.9</ele>
        <time>2018-05-27T08:44:49Z</time>
      </trkpt>
      <trkpt lat="46.794" lon="5.62135">
        <ele>364.1</ele>
        <time>2018-05-27T08:44:54Z</time>
      </trkpt>
      <trkpt lat="46.79391" lon="5.62129">
        <ele>364.4</ele>
        <time>2018-05-27T08:44:58Z</time>
      </trkpt>
      <trkpt lat="46.79382" lon="5.62123">
        <ele>364.5</ele>
        <time>2018-05-27T08:45:02Z</time>
      </trkpt>
      <trkpt lat="46.79373" lon="5.62117">
        <ele>364.8</ele>
        <time>2018-05-27T08:45:06Z</time>
      </trkpt>
      <trkpt lat="46.79365" lon="5.62111">
        <ele>365</ele>
        <time>2018-05-27T08:45:10Z</time>
      </trkpt>
      <trkpt lat="46.79356" lon="5.62104">
        <ele>365.4</ele>
        <time>2018-05-27T08:45:14Z</time>
      </trkpt>
      <trkpt lat="46.79347" lon="5.62098">
        <ele>365.8</ele>
        <time>2018-05-27T08:45:18Z</time>
      </trkpt>
      <trkpt lat="46.79337" lon="5.62091">
        <ele>366.1</ele>
        <time>2018-05-27T08:45:22Z</time>
      </trkpt>
      <trkpt lat="46.79326" lon="5.62083">
        <ele>366.3</ele>
        <time>2018-05-27T08:45:26Z</time>
      </trkpt>
      <trkpt lat="46.79317" lon="5.62076">
        <ele>366.7</ele>
        <time>2018-05-27T08:45:30Z</time>
      </trkpt>
      <trkpt lat="46.79308" lon="5.6207">
        <ele>367.1</ele>
        <time>2018-05-27T08:45:34Z</time>
      </trkpt>
      <trkpt lat="46.79298" lon="5.62065">
        <ele>367.3</ele>
        <time>2018-05-27T08:45:37Z</time>
      </trkpt>
      <trkpt lat="46.79286" lon="5.62057">
        <ele>367.5</ele>
        <time>2018-05-27T08:45:40Z</time>
      </trkpt>
      <trkpt lat="46.79276" lon="5.62045">
        <ele>367.4</ele>
        <time>2018-05-27T08:45:43Z</time>
      </trkpt>
      <trkpt lat="46.79267" lon="5.62035">
        <ele>367.4</ele>
        <time>2018-05-27T08:45:45Z</time>
      </trkpt>
      <trkpt lat="46.79255" lon="5.62028">
        <ele>367.3</ele>
        <time>2018-05-27T08:45:47Z</time>
      </trkpt>
      <trkpt lat="46.79242" lon="5.62025">
        <ele>367.2</ele>
        <time>2018-05-27T08:45:49Z</time>
      </trkpt>
      <trkpt lat="46.79232" lon="5.62022">
        <ele>367.1</ele>
        <time>2018-05-27T08:45:51Z</time>
      </trkpt>
      <trkpt lat="46.79222" lon="5.62018">
        <ele>367</ele>
        <time>2018-05-27T08:45:53Z</time>
      </trkpt>
      <trkpt lat="46.79212" lon="5.62015">
        <ele>366.9</ele>
        <time>2018-05-27T08:45:55Z</time>
      </trkpt>
      <trkpt lat="46.79203" lon="5.62012">
        <ele>366.9</ele>
        <time>2018-05-27T08:45:57Z</time>
      </trkpt>
      <trkpt lat="46.79193" lon="5.62009">
        <ele>366.8</ele>
        <time>2018-05-27T08:45:59Z</time>
      </trkpt>
      <trkpt lat="46.7918" lon="5.62004">
        <ele>366.6</ele>
        <time>2018-05-27T08:46:02Z</time>
      </trkpt>
      <trkpt lat="46.79168" lon="5.62001">
        <ele>366.5</ele>
        <time>2018-05-27T08:46:05Z</time>
      </trkpt>
      <trkpt lat="46.79157" lon="5.61998">
        <ele>366.4</ele>
        <time>2018-05-27T08:46:08Z</time>
      </trkpt>
      <trkpt lat="46.79148" lon="5.61986">
        <ele>366.3</ele>
        <time>2018-05-27T08:46:11Z</time>
      </trkpt>
      <trkpt lat="46.79147" lon="5.61971">
        <ele>366.2</ele>
        <time>2018-05-27T08:46:13Z</time>
      </trkpt>
      <trkpt lat="46.79148" lon="5.61957">
        <ele>365.9</ele>
        <time>2018-05-27T08:46:15Z</time>
      </trkpt>
      <trkpt lat="46.79148" lon="5.6194">
        <ele>365.3</ele>
        <time>2018-05-27T08:46:18Z</time>
      </trkpt>
      <trkpt lat="46.79141" lon="5.61932">
        <ele>364.4</ele>
        <time>2018-05-27T08:46:22Z</time>
      </trkpt>
      <trkpt lat="46.79131" lon="5.61936">
        <ele>363.7</ele>
        <time>2018-05-27T08:46:26Z</time>
      </trkpt>
      <trkpt lat="46.7912" lon="5.61937">
        <ele>363.2</ele>
        <time>2018-05-27T08:46:30Z</time>
      </trkpt>
      <trkpt lat="46.79111" lon="5.61938">
        <ele>362.9</ele>
        <time>2018-05-27T08:46:33Z</time>
      </trkpt>
      <trkpt lat="46.79099" lon="5.61938">
        <ele>362.5</ele>
        <time>2018-05-27T08:46:37Z</time>
      </trkpt>
      <trkpt lat="46.79088" lon="5.61939">
        <ele>362.3</ele>
        <time>2018-05-27T08:46:41Z</time>
      </trkpt>
      <trkpt lat="46.79079" lon="5.61939">
        <ele>361.9</ele>
        <time>2018-05-27T08:46:50Z</time>
      </trkpt>
      <trkpt lat="46.7907" lon="5.61945">
        <ele>361</ele>
        <time>2018-05-27T08:47:30Z</time>
      </trkpt>
      <trkpt lat="46.79061" lon="5.61948">
        <ele>361.3</ele>
        <time>2018-05-27T08:47:42Z</time>
      </trkpt>
      <trkpt lat="46.79051" lon="5.61952">
        <ele>361.4</ele>
        <time>2018-05-27T08:47:46Z</time>
      </trkpt>
      <trkpt lat="46.7904" lon="5.61957">
        <ele>361.7</ele>
        <time>2018-05-27T08:47:51Z</time>
      </trkpt>
      <trkpt lat="46.79031" lon="5.61963">
        <ele>362.2</ele>
        <time>2018-05-27T08:47:56Z</time>
      </trkpt>
      <trkpt lat="46.79021" lon="5.61968">
        <ele>362.8</ele>
        <time>2018-05-27T08:48:02Z</time>
      </trkpt>
      <trkpt lat="46.79012" lon="5.61971">
        <ele>363.4</ele>
        <time>2018-05-27T08:48:07Z</time>
      </trkpt>
      <trkpt lat="46.79002" lon="5.61977">
        <ele>364.1</ele>
        <time>2018-05-27T08:48:13Z</time>
      </trkpt>
      <trkpt lat="46.78993" lon="5.61979">
        <ele>364.7</ele>
        <time>2018-05-27T08:48:18Z</time>
      </trkpt>
      <trkpt lat="46.78983" lon="5.61982">
        <ele>365.5</ele>
        <time>2018-05-27T08:48:23Z</time>
      </trkpt>
      <trkpt lat="46.78974" lon="5.61986">
        <ele>366.2</ele>
        <time>2018-05-27T08:48:28Z</time>
      </trkpt>
      <trkpt lat="46.78964" lon="5.61989">
        <ele>366.8</ele>
        <time>2018-05-27T08:48:33Z</time>
      </trkpt>
      <trkpt lat="46.78955" lon="5.6199">
        <ele>367.5</ele>
        <time>2018-05-27T08:48:38Z</time>
      </trkpt>
      <trkpt lat="46.78945" lon="5.61991">
        <ele>368.1</ele>
        <time>2018-05-27T08:48:43Z</time>
      </trkpt>
      <trkpt lat="46.78935" lon="5.61991">
        <ele>368.6</ele>
        <time>2018-05-27T08:48:48Z</time>
      </trkpt>
      <trkpt lat="46.78925" lon="5.61992">
        <ele>369.2</ele>
        <time>2018-05-27T08:48:54Z</time>
      </trkpt>
      <trkpt lat="46.78915" lon="5.61993">
        <ele>369.9</ele>
        <time>2018-05-27T08:49:00Z</time>
      </trkpt>
      <trkpt lat="46.78905" lon="5.61992">
        <ele>370.7</ele>
        <time>2018-05-27T08:49:06Z</time>
      </trkpt>
      <trkpt lat="46.78895" lon="5.61989">
        <ele>371.4</ele>
        <time>2018-05-27T08:49:12Z</time>
      </trkpt>
      <trkpt lat="46.78884" lon="5.61985">
        <ele>372.1</ele>
        <time>2018-05-27T08:49:17Z</time>
      </trkpt>
      <trkpt lat="46.78874" lon="5.61983">
        <ele>372.6</ele>
        <time>2018-05-27T08:49:21Z</time>
      </trkpt>
      <trkpt lat="46.78864" lon="5.61982">
        <ele>373.1</ele>
        <time>2018-05-27T08:49:26Z</time>
      </trkpt>
      <trkpt lat="46.78855" lon="5.61982">
        <ele>373.7</ele>
        <time>2018-05-27T08:49:31Z</time>
      </trkpt>
      <trkpt lat="46.78844" lon="5.61979">
        <ele>374.5</ele>
        <time>2018-05-27T08:49:36Z</time>
      </trkpt>
      <trkpt lat="46.78834" lon="5.61976">
        <ele>375.1</ele>
        <time>2018-05-27T08:49:41Z</time>
      </trkpt>
      <trkpt lat="46.78824" lon="5.61972">
        <ele>375.6</ele>
        <time>2018-05-27T08:49:45Z</time>
      </trkpt>
      <trkpt lat="46.78815" lon="5.61969">
        <ele>375.9</ele>
        <time>2018-05-27T08:49:48Z</time>
      </trkpt>
      <trkpt lat="46.78805" lon="5.61963">
        <ele>376.2</ele>
        <time>2018-05-27T08:49:51Z</time>
      </trkpt>
      <trkpt lat="46.78795" lon="5.61957">
        <ele>376.5</ele>
        <time>2018-05-27T08:49:55Z</time>
      </trkpt>
      <trkpt lat="46.78786" lon="5.61951">
        <ele>376.7</ele>
        <time>2018-05-27T08:49:59Z</time>
      </trkpt>
      <trkpt lat="46.78777" lon="5.61944">
        <ele>376.8</ele>
        <time>2018-05-27T08:50:04Z</time>
      </trkpt>
      <trkpt lat="46.78767" lon="5.61936">
        <ele>376.8</ele>
        <time>2018-05-27T08:50:08Z</time>
      </trkpt>
      <trkpt lat="46.78757" lon="5.61932">
        <ele>376.6</ele>
        <time>2018-05-27T08:50:13Z</time>
      </trkpt>
      <trkpt lat="46.78748" lon="5.61932">
        <ele>376.8</ele>
        <time>2018-05-27T08:50:18Z</time>
      </trkpt>
      <trkpt lat="46.78738" lon="5.6193">
        <ele>376.9</ele>
        <time>2018-05-27T08:50:22Z</time>
      </trkpt>
      <trkpt lat="46.78729" lon="5.61932">
        <ele>377.3</ele>
        <time>2018-05-27T08:50:27Z</time>
      </trkpt>
      <trkpt lat="46.78719" lon="5.61933">
        <ele>378.3</ele>
        <time>2018-05-27T08:50:34Z</time>
      </trkpt>
      <trkpt lat="46.7871" lon="5.61929">
        <ele>380</ele>
        <time>2018-05-27T08:50:43Z</time>
      </trkpt>
      <trkpt lat="46.78701" lon="5.61923">
        <ele>381.5</ele>
        <time>2018-05-27T08:50:51Z</time>
      </trkpt>
      <trkpt lat="46.78693" lon="5.61916">
        <ele>382.6</ele>
        <time>2018-05-27T08:50:56Z</time>
      </trkpt>
      <trkpt lat="46.78684" lon="5.61911">
        <ele>384.7</ele>
        <time>2018-05-27T08:51:05Z</time>
      </trkpt>
      <trkpt lat="46.78675" lon="5.61906">
        <ele>386.4</ele>
        <time>2018-05-27T08:51:12Z</time>
      </trkpt>
      <trkpt lat="46.78668" lon="5.61896">
        <ele>388</ele>
        <time>2018-05-27T08:51:19Z</time>
      </trkpt>
      <trkpt lat="46.78665" lon="5.61909">
        <ele>392</ele>
        <time>2018-05-27T08:51:40Z</time>
      </trkpt>
      <trkpt lat="46.78666" lon="5.61924">
        <ele>392.9</ele>
        <time>2018-05-27T08:51:46Z</time>
      </trkpt>
      <trkpt lat="46.78668" lon="5.61938">
        <ele>393.4</ele>
        <time>2018-05-27T08:51:50Z</time>
      </trkpt>
      <trkpt lat="46.78673" lon="5.6195">
        <ele>393.8</ele>
        <time>2018-05-27T08:51:54Z</time>
      </trkpt>
      <trkpt lat="46.78676" lon="5.61965">
        <ele>394</ele>
        <time>2018-05-27T08:51:57Z</time>
      </trkpt>
      <trkpt lat="46.78678" lon="5.61978">
        <ele>394.1</ele>
        <time>2018-05-27T08:52:00Z</time>
      </trkpt>
      <trkpt lat="46.78682" lon="5.61992">
        <ele>394.2</ele>
        <time>2018-05-27T08:52:04Z</time>
      </trkpt>
      <trkpt lat="46.78686" lon="5.62006">
        <ele>394.2</ele>
        <time>2018-05-27T08:52:09Z</time>
      </trkpt>
      <trkpt lat="46.78689" lon="5.6202">
        <ele>394.4</ele>
        <time>2018-05-27T08:52:16Z</time>
      </trkpt>
      <trkpt lat="46.7869" lon="5.62034">
        <ele>395.3</ele>
        <time>2018-05-27T08:52:24Z</time>
      </trkpt>
      <trkpt lat="46.78688" lon="5.62048">
        <ele>396.4</ele>
        <time>2018-05-27T08:52:31Z</time>
      </trkpt>
      <trkpt lat="46.78687" lon="5.62061">
        <ele>397.9</ele>
        <time>2018-05-27T08:52:39Z</time>
      </trkpt>
      <trkpt lat="46.78679" lon="5.62055">
        <ele>402.3</ele>
        <time>2018-05-27T08:53:04Z</time>
      </trkpt>
      <trkpt lat="46.78669" lon="5.62057">
        <ele>402.7</ele>
        <time>2018-05-27T08:53:10Z</time>
      </trkpt>
      <trkpt lat="46.7866" lon="5.6205">
        <ele>403</ele>
        <time>2018-05-27T08:53:14Z</time>
      </trkpt>
      <trkpt lat="46.78656" lon="5.62037">
        <ele>403.2</ele>
        <time>2018-05-27T08:53:19Z</time>
      </trkpt>
      <trkpt lat="46.78655" lon="5.62023">
        <ele>403.4</ele>
        <time>2018-05-27T08:53:27Z</time>
      </trkpt>
      <trkpt lat="46.78654" lon="5.62008">
        <ele>403.5</ele>
        <time>2018-05-27T08:53:34Z</time>
      </trkpt>
      <trkpt lat="46.78651" lon="5.61993">
        <ele>403.6</ele>
        <time>2018-05-27T08:53:39Z</time>
      </trkpt>
      <trkpt lat="46.78649" lon="5.6198">
        <ele>403.6</ele>
        <time>2018-05-27T08:53:44Z</time>
      </trkpt>
      <trkpt lat="46.78644" lon="5.61969">
        <ele>403.7</ele>
        <time>2018-05-27T08:53:51Z</time>
      </trkpt>
      <trkpt lat="46.78645" lon="5.61955">
        <ele>403.9</ele>
        <time>2018-05-27T08:53:58Z</time>
      </trkpt>
      <trkpt lat="46.78637" lon="5.61949">
        <ele>404.1</ele>
        <time>2018-05-27T08:54:06Z</time>
      </trkpt>
      <trkpt lat="46.78643" lon="5.61961">
        <ele>404.5</ele>
        <time>2018-05-27T08:57:09Z</time>
      </trkpt>
      <trkpt lat="46.78647" lon="5.61974">
        <ele>404.5</ele>
        <time>2018-05-27T08:57:12Z</time>
      </trkpt>
      <trkpt lat="46.78651" lon="5.61987">
        <ele>404.5</ele>
        <time>2018-05-27T08:57:15Z</time>
      </trkpt>
      <trkpt lat="46.78655" lon="5.62001">
        <ele>404.5</ele>
        <time>2018-05-27T08:57:18Z</time>
      </trkpt>
      <trkpt lat="46.78661" lon="5.62015">
        <ele>404.5</ele>
        <time>2018-05-27T08:57:21Z</time>
      </trkpt>
      <trkpt lat="46.78666" lon="5.62027">
        <ele>404.5</ele>
        <time>2018-05-27T08:57:24Z</time>
      </trkpt>
      <trkpt lat="46.78671" lon="5.62042">
        <ele>404.5</ele>
        <time>2018-05-27T08:57:28Z</time>
      </trkpt>
      <trkpt lat="46.78676" lon="5.62054">
        <ele>404.5</ele>
        <time>2018-05-27T08:57:32Z</time>
      </trkpt>
      <trkpt lat="46.7868" lon="5.62067">
        <ele>404.5</ele>
        <time>2018-05-27T08:57:36Z</time>
      </trkpt>
      <trkpt lat="46.78686" lon="5.62078">
        <ele>404.5</ele>
        <time>2018-05-27T08:57:41Z</time>
      </trkpt>
      <trkpt lat="46.78695" lon="5.62083">
        <ele>404.6</ele>
        <time>2018-05-27T08:57:47Z</time>
      </trkpt>
      <trkpt lat="46.78701" lon="5.62096">
        <ele>405.1</ele>
        <time>2018-05-27T08:57:54Z</time>
      </trkpt>
      <trkpt lat="46.78707" lon="5.62106">
        <ele>405.7</ele>
        <time>2018-05-27T08:58:00Z</time>
      </trkpt>
      <trkpt lat="46.78714" lon="5.62115">
        <ele>406.3</ele>
        <time>2018-05-27T08:58:04Z</time>
      </trkpt>
      <trkpt lat="46.78721" lon="5.62127">
        <ele>407.4</ele>
        <time>2018-05-27T08:58:11Z</time>
      </trkpt>
      <trkpt lat="46.78725" lon="5.6214">
        <ele>408.7</ele>
        <time>2018-05-27T08:58:20Z</time>
      </trkpt>
      <trkpt lat="46.78731" lon="5.62151">
        <ele>411.1</ele>
        <time>2018-05-27T08:58:34Z</time>
      </trkpt>
      <trkpt lat="46.78739" lon="5.62159">
        <ele>412.3</ele>
        <time>2018-05-27T08:58:41Z</time>
      </trkpt>
      <trkpt lat="46.78744" lon="5.62171">
        <ele>414.3</ele>
        <time>2018-05-27T08:58:52Z</time>
      </trkpt>
      <trkpt lat="46.78749" lon="5.62183">
        <ele>416.2</ele>
        <time>2018-05-27T08:59:02Z</time>
      </trkpt>
      <trkpt lat="46.78758" lon="5.6219">
        <ele>417.5</ele>
        <time>2018-05-27T08:59:09Z</time>
      </trkpt>
      <trkpt lat="46.78766" lon="5.62197">
        <ele>418.3</ele>
        <time>2018-05-27T08:59:14Z</time>
      </trkpt>
      <trkpt lat="46.78774" lon="5.62206">
        <ele>420</ele>
        <time>2018-05-27T08:59:23Z</time>
      </trkpt>
      <trkpt lat="46.78782" lon="5.62215">
        <ele>421.4</ele>
        <time>2018-05-27T08:59:31Z</time>
      </trkpt>
      <trkpt lat="46.7879" lon="5.62223">
        <ele>422.7</ele>
        <time>2018-05-27T08:59:39Z</time>
      </trkpt>
      <trkpt lat="46.78799" lon="5.62229">
        <ele>423.7</ele>
        <time>2018-05-27T08:59:45Z</time>
      </trkpt>
      <trkpt lat="46.78807" lon="5.62238">
        <ele>425.3</ele>
        <time>2018-05-27T08:59:55Z</time>
      </trkpt>
      <trkpt lat="46.78816" lon="5.62242">
        <ele>426.8</ele>
        <time>2018-05-27T09:00:03Z</time>
      </trkpt>
      <trkpt lat="46.78824" lon="5.62248">
        <ele>428.1</ele>
        <time>2018-05-27T09:00:10Z</time>
      </trkpt>
      <trkpt lat="46.78832" lon="5.62255">
        <ele>428.9</ele>
        <time>2018-05-27T09:00:15Z</time>
      </trkpt>
      <trkpt lat="46.7884" lon="5.62263">
        <ele>430.3</ele>
        <time>2018-05-27T09:00:23Z</time>
      </trkpt>
      <trkpt lat="46.78848" lon="5.62272">
        <ele>431.8</ele>
        <time>2018-05-27T09:00:32Z</time>
      </trkpt>
      <trkpt lat="46.78858" lon="5.62279">
        <ele>433</ele>
        <time>2018-05-27T09:00:39Z</time>
      </trkpt>
      <trkpt lat="46.78867" lon="5.62284">
        <ele>434.3</ele>
        <time>2018-05-27T09:00:46Z</time>
      </trkpt>
      <trkpt lat="46.78876" lon="5.6229">
        <ele>435.2</ele>
        <time>2018-05-27T09:00:51Z</time>
      </trkpt>
      <trkpt lat="46.78883" lon="5.62299">
        <ele>436.5</ele>
        <time>2018-05-27T09:00:58Z</time>
      </trkpt>
      <trkpt lat="46.78892" lon="5.62308">
        <ele>437.8</ele>
        <time>2018-05-27T09:01:06Z</time>
      </trkpt>
      <trkpt lat="46.78898" lon="5.62319">
        <ele>439.1</ele>
        <time>2018-05-27T09:01:13Z</time>
      </trkpt>
      <trkpt lat="46.78906" lon="5.6233">
        <ele>440.3</ele>
        <time>2018-05-27T09:01:20Z</time>
      </trkpt>
      <trkpt lat="46.7891" lon="5.62343">
        <ele>441.7</ele>
        <time>2018-05-27T09:01:27Z</time>
      </trkpt>
      <trkpt lat="46.78909" lon="5.62357">
        <ele>443.6</ele>
        <time>2018-05-27T09:01:36Z</time>
      </trkpt>
      <trkpt lat="46.78904" lon="5.62369">
        <ele>445.3</ele>
        <time>2018-05-27T09:01:44Z</time>
      </trkpt>
      <trkpt lat="46.78901" lon="5.62382">
        <ele>446.4</ele>
        <time>2018-05-27T09:01:50Z</time>
      </trkpt>
      <trkpt lat="46.78896" lon="5.62394">
        <ele>447.3</ele>
        <time>2018-05-27T09:01:56Z</time>
      </trkpt>
      <trkpt lat="46.78891" lon="5.62406">
        <ele>448</ele>
        <time>2018-05-27T09:02:02Z</time>
      </trkpt>
      <trkpt lat="46.78885" lon="5.62418">
        <ele>448.7</ele>
        <time>2018-05-27T09:02:08Z</time>
      </trkpt>
      <trkpt lat="46.78877" lon="5.62426">
        <ele>449.4</ele>
        <time>2018-05-27T09:02:14Z</time>
      </trkpt>
      <trkpt lat="46.78869" lon="5.62435">
        <ele>450.4</ele>
        <time>2018-05-27T09:02:22Z</time>
      </trkpt>
      <trkpt lat="46.7886" lon="5.62442">
        <ele>450.9</ele>
        <time>2018-05-27T09:02:27Z</time>
      </trkpt>
      <trkpt lat="46.78853" lon="5.62452">
        <ele>452</ele>
        <time>2018-05-27T09:02:36Z</time>
      </trkpt>
      <trkpt lat="46.78846" lon="5.62459">
        <ele>453.3</ele>
        <time>2018-05-27T09:02:44Z</time>
      </trkpt>
      <trkpt lat="46.78837" lon="5.62467">
        <ele>454.6</ele>
        <time>2018-05-27T09:02:52Z</time>
      </trkpt>
      <trkpt lat="46.78828" lon="5.62476">
        <ele>455.2</ele>
        <time>2018-05-27T09:02:56Z</time>
      </trkpt>
      <trkpt lat="46.78818" lon="5.62481">
        <ele>455.7</ele>
        <time>2018-05-27T09:03:01Z</time>
      </trkpt>
      <trkpt lat="46.7881" lon="5.62485">
        <ele>456.3</ele>
        <time>2018-05-27T09:03:06Z</time>
      </trkpt>
      <trkpt lat="46.788" lon="5.62491">
        <ele>457</ele>
        <time>2018-05-27T09:03:12Z</time>
      </trkpt>
      <trkpt lat="46.78791" lon="5.62495">
        <ele>457.6</ele>
        <time>2018-05-27T09:03:20Z</time>
      </trkpt>
      <trkpt lat="46.78782" lon="5.62493">
        <ele>458</ele>
        <time>2018-05-27T09:03:27Z</time>
      </trkpt>
      <trkpt lat="46.78773" lon="5.62487">
        <ele>458.1</ele>
        <time>2018-05-27T09:03:30Z</time>
      </trkpt>
      <trkpt lat="46.78764" lon="5.62483">
        <ele>458.4</ele>
        <time>2018-05-27T09:03:35Z</time>
      </trkpt>
      <trkpt lat="46.78755" lon="5.62475">
        <ele>458.7</ele>
        <time>2018-05-27T09:03:39Z</time>
      </trkpt>
      <trkpt lat="46.78746" lon="5.62465">
        <ele>459</ele>
        <time>2018-05-27T09:03:43Z</time>
      </trkpt>
      <trkpt lat="46.78738" lon="5.62454">
        <ele>459.4</ele>
        <time>2018-05-27T09:03:48Z</time>
      </trkpt>
      <trkpt lat="46.78734" lon="5.62442">
        <ele>459.8</ele>
        <time>2018-05-27T09:03:52Z</time>
      </trkpt>
      <trkpt lat="46.78728" lon="5.6243">
        <ele>460.1</ele>
        <time>2018-05-27T09:03:57Z</time>
      </trkpt>
      <trkpt lat="46.78721" lon="5.6242">
        <ele>460.4</ele>
        <time>2018-05-27T09:04:00Z</time>
      </trkpt>
      <trkpt lat="46.78713" lon="5.62409">
        <ele>460.6</ele>
        <time>2018-05-27T09:04:04Z</time>
      </trkpt>
      <trkpt lat="46.78705" lon="5.62401">
        <ele>460.8</ele>
        <time>2018-05-27T09:04:07Z</time>
      </trkpt>
      <trkpt lat="46.78697" lon="5.62391">
        <ele>461</ele>
        <time>2018-05-27T09:04:11Z</time>
      </trkpt>
      <trkpt lat="46.78691" lon="5.62377">
        <ele>461.3</ele>
        <time>2018-05-27T09:04:16Z</time>
      </trkpt>
      <trkpt lat="46.78682" lon="5.62368">
        <ele>461.6</ele>
        <time>2018-05-27T09:04:20Z</time>
      </trkpt>
      <trkpt lat="46.78673" lon="5.62357">
        <ele>461.9</ele>
        <time>2018-05-27T09:04:25Z</time>
      </trkpt>
      <trkpt lat="46.78665" lon="5.62349">
        <ele>462.3</ele>
        <time>2018-05-27T09:04:30Z</time>
      </trkpt>
      <trkpt lat="46.78658" lon="5.62331">
        <ele>462.6</ele>
        <time>2018-05-27T09:04:35Z</time>
      </trkpt>
      <trkpt lat="46.78653" lon="5.62318">
        <ele>462.7</ele>
        <time>2018-05-27T09:04:39Z</time>
      </trkpt>
      <trkpt lat="46.78646" lon="5.62305">
        <ele>462.9</ele>
        <time>2018-05-27T09:04:44Z</time>
      </trkpt>
      <trkpt lat="46.78637" lon="5.62299">
        <ele>462.8</ele>
        <time>2018-05-27T09:04:52Z</time>
      </trkpt>
      <trkpt lat="46.78628" lon="5.62306">
        <ele>462.6</ele>
        <time>2018-05-27T09:05:01Z</time>
      </trkpt>
      <trkpt lat="46.78621" lon="5.62314">
        <ele>462.6</ele>
        <time>2018-05-27T09:05:06Z</time>
      </trkpt>
      <trkpt lat="46.78614" lon="5.62322">
        <ele>462.4</ele>
        <time>2018-05-27T09:05:10Z</time>
      </trkpt>
      <trkpt lat="46.78605" lon="5.62336">
        <ele>461.1</ele>
        <time>2018-05-27T09:05:36Z</time>
      </trkpt>
      <trkpt lat="46.78599" lon="5.62347">
        <ele>461</ele>
        <time>2018-05-27T09:05:43Z</time>
      </trkpt>
      <trkpt lat="46.7859" lon="5.62354">
        <ele>460.9</ele>
        <time>2018-05-27T09:05:46Z</time>
      </trkpt>
      <trkpt lat="46.7858" lon="5.62364">
        <ele>460.8</ele>
        <time>2018-05-27T09:05:50Z</time>
      </trkpt>
      <trkpt lat="46.78569" lon="5.62372">
        <ele>460.8</ele>
        <time>2018-05-27T09:05:53Z</time>
      </trkpt>
      <trkpt lat="46.78558" lon="5.62378">
        <ele>460.7</ele>
        <time>2018-05-27T09:05:57Z</time>
      </trkpt>
      <trkpt lat="46.78547" lon="5.6238">
        <ele>460.4</ele>
        <time>2018-05-27T09:06:02Z</time>
      </trkpt>
      <trkpt lat="46.78537" lon="5.62387">
        <ele>460</ele>
        <time>2018-05-27T09:06:06Z</time>
      </trkpt>
      <trkpt lat="46.78528" lon="5.62391">
        <ele>459.7</ele>
        <time>2018-05-27T09:06:09Z</time>
      </trkpt>
      <trkpt lat="46.78516" lon="5.62395">
        <ele>459.4</ele>
        <time>2018-05-27T09:06:13Z</time>
      </trkpt>
      <trkpt lat="46.78507" lon="5.62396">
        <ele>459.3</ele>
        <time>2018-05-27T09:06:16Z</time>
      </trkpt>
      <trkpt lat="46.78496" lon="5.62396">
        <ele>459.1</ele>
        <time>2018-05-27T09:06:18Z</time>
      </trkpt>
      <trkpt lat="46.78487" lon="5.62393">
        <ele>459</ele>
        <time>2018-05-27T09:06:20Z</time>
      </trkpt>
      <trkpt lat="46.78475" lon="5.62393">
        <ele>458.6</ele>
        <time>2018-05-27T09:06:22Z</time>
      </trkpt>
      <trkpt lat="46.78465" lon="5.62395">
        <ele>458.2</ele>
        <time>2018-05-27T09:06:24Z</time>
      </trkpt>
      <trkpt lat="46.78455" lon="5.62394">
        <ele>457.6</ele>
        <time>2018-05-27T09:06:26Z</time>
      </trkpt>
      <trkpt lat="46.78445" lon="5.62395">
        <ele>457</ele>
        <time>2018-05-27T09:06:28Z</time>
      </trkpt>
      <trkpt lat="46.78435" lon="5.62395">
        <ele>456.1</ele>
        <time>2018-05-27T09:06:31Z</time>
      </trkpt>
      <trkpt lat="46.78425" lon="5.62393">
        <ele>455.3</ele>
        <time>2018-05-27T09:06:34Z</time>
      </trkpt>
      <trkpt lat="46.78414" lon="5.62389">
        <ele>454.6</ele>
        <time>2018-05-27T09:06:37Z</time>
      </trkpt>
      <trkpt lat="46.78403" lon="5.62386">
        <ele>454.1</ele>
        <time>2018-05-27T09:06:40Z</time>
      </trkpt>
      <trkpt lat="46.78393" lon="5.62379">
        <ele>453.7</ele>
        <time>2018-05-27T09:06:44Z</time>
      </trkpt>
      <trkpt lat="46.78382" lon="5.62367">
        <ele>453.5</ele>
        <time>2018-05-27T09:06:48Z</time>
      </trkpt>
      <trkpt lat="46.78374" lon="5.62358">
        <ele>453.4</ele>
        <time>2018-05-27T09:06:50Z</time>
      </trkpt>
      <trkpt lat="46.78363" lon="5.62351">
        <ele>453.3</ele>
        <time>2018-05-27T09:06:53Z</time>
      </trkpt>
      <trkpt lat="46.78354" lon="5.62342">
        <ele>453.1</ele>
        <time>2018-05-27T09:06:56Z</time>
      </trkpt>
      <trkpt lat="46.78346" lon="5.62335">
        <ele>452.9</ele>
        <time>2018-05-27T09:06:58Z</time>
      </trkpt>
      <trkpt lat="46.78337" lon="5.6233">
        <ele>452.7</ele>
        <time>2018-05-27T09:07:00Z</time>
      </trkpt>
      <trkpt lat="46.78326" lon="5.62324">
        <ele>452.3</ele>
        <time>2018-05-27T09:07:03Z</time>
      </trkpt>
      <trkpt lat="46.78318" lon="5.62318">
        <ele>452</ele>
        <time>2018-05-27T09:07:06Z</time>
      </trkpt>
      <trkpt lat="46.78307" lon="5.62315">
        <ele>451.7</ele>
        <time>2018-05-27T09:07:10Z</time>
      </trkpt>
      <trkpt lat="46.78296" lon="5.6232">
        <ele>451.5</ele>
        <time>2018-05-27T09:07:13Z</time>
      </trkpt>
      <trkpt lat="46.78285" lon="5.62329">
        <ele>451.3</ele>
        <time>2018-05-27T09:07:16Z</time>
      </trkpt>
      <trkpt lat="46.7828" lon="5.62342">
        <ele>450.9</ele>
        <time>2018-05-27T09:07:20Z</time>
      </trkpt>
      <trkpt lat="46.7828" lon="5.62356">
        <ele>450.5</ele>
        <time>2018-05-27T09:07:26Z</time>
      </trkpt>
      <trkpt lat="46.78281" lon="5.62371">
        <ele>450.6</ele>
        <time>2018-05-27T09:07:33Z</time>
      </trkpt>
      <trkpt lat="46.78283" lon="5.62387">
        <ele>451</ele>
        <time>2018-05-27T09:07:39Z</time>
      </trkpt>
      <trkpt lat="46.78285" lon="5.624">
        <ele>451.3</ele>
        <time>2018-05-27T09:07:43Z</time>
      </trkpt>
      <trkpt lat="46.78286" lon="5.62414">
        <ele>451.6</ele>
        <time>2018-05-27T09:07:47Z</time>
      </trkpt>
      <trkpt lat="46.78285" lon="5.62432">
        <ele>451.7</ele>
        <time>2018-05-27T09:07:50Z</time>
      </trkpt>
      <trkpt lat="46.78282" lon="5.62447">
        <ele>451.9</ele>
        <time>2018-05-27T09:07:52Z</time>
      </trkpt>
      <trkpt lat="46.7828" lon="5.62462">
        <ele>452</ele>
        <time>2018-05-27T09:07:55Z</time>
      </trkpt>
      <trkpt lat="46.78278" lon="5.62478">
        <ele>452.2</ele>
        <time>2018-05-27T09:07:58Z</time>
      </trkpt>
      <trkpt lat="46.78271" lon="5.62487">
        <ele>452.3</ele>
        <time>2018-05-27T09:08:01Z</time>
      </trkpt>
      <trkpt lat="46.78261" lon="5.6249">
        <ele>452.3</ele>
        <time>2018-05-27T09:08:05Z</time>
      </trkpt>
      <trkpt lat="46.78252" lon="5.62487">
        <ele>452.2</ele>
        <time>2018-05-27T09:08:09Z</time>
      </trkpt>
      <trkpt lat="46.7824" lon="5.62481">
        <ele>452.2</ele>
        <time>2018-05-27T09:08:12Z</time>
      </trkpt>
      <trkpt lat="46.78231" lon="5.62479">
        <ele>452.2</ele>
        <time>2018-05-27T09:08:14Z</time>
      </trkpt>
      <trkpt lat="46.78219" lon="5.62478">
        <ele>452.1</ele>
        <time>2018-05-27T09:08:16Z</time>
      </trkpt>
      <trkpt lat="46.78205" lon="5.6248">
        <ele>452.1</ele>
        <time>2018-05-27T09:08:18Z</time>
      </trkpt>
      <trkpt lat="46.78192" lon="5.62483">
        <ele>452</ele>
        <time>2018-05-27T09:08:20Z</time>
      </trkpt>
      <trkpt lat="46.78177" lon="5.62487">
        <ele>451.9</ele>
        <time>2018-05-27T09:08:22Z</time>
      </trkpt>
      <trkpt lat="46.78165" lon="5.62496">
        <ele>451.7</ele>
        <time>2018-05-27T09:08:24Z</time>
      </trkpt>
      <trkpt lat="46.78156" lon="5.62506">
        <ele>451.6</ele>
        <time>2018-05-27T09:08:26Z</time>
      </trkpt>
      <trkpt lat="46.78148" lon="5.62516">
        <ele>451.5</ele>
        <time>2018-05-27T09:08:28Z</time>
      </trkpt>
      <trkpt lat="46.7814" lon="5.62527">
        <ele>451.3</ele>
        <time>2018-05-27T09:08:30Z</time>
      </trkpt>
      <trkpt lat="46.78132" lon="5.62536">
        <ele>451.2</ele>
        <time>2018-05-27T09:08:32Z</time>
      </trkpt>
      <trkpt lat="46.78121" lon="5.62542">
        <ele>451.1</ele>
        <time>2018-05-27T09:08:35Z</time>
      </trkpt>
      <trkpt lat="46.78112" lon="5.62547">
        <ele>451.2</ele>
        <time>2018-05-27T09:08:38Z</time>
      </trkpt>
      <trkpt lat="46.78102" lon="5.62551">
        <ele>451.5</ele>
        <time>2018-05-27T09:08:41Z</time>
      </trkpt>
      <trkpt lat="46.78093" lon="5.62554">
        <ele>451.8</ele>
        <time>2018-05-27T09:08:44Z</time>
      </trkpt>
      <trkpt lat="46.78083" lon="5.62556">
        <ele>452.1</ele>
        <time>2018-05-27T09:08:47Z</time>
      </trkpt>
      <trkpt lat="46.78073" lon="5.62557">
        <ele>452.4</ele>
        <time>2018-05-27T09:08:50Z</time>
      </trkpt>
      <trkpt lat="46.78062" lon="5.62559">
        <ele>452.7</ele>
        <time>2018-05-27T09:08:53Z</time>
      </trkpt>
      <trkpt lat="46.7805" lon="5.62558">
        <ele>453</ele>
        <time>2018-05-27T09:08:56Z</time>
      </trkpt>
      <trkpt lat="46.78038" lon="5.62559">
        <ele>453.3</ele>
        <time>2018-05-27T09:08:59Z</time>
      </trkpt>
      <trkpt lat="46.78025" lon="5.62559">
        <ele>453.5</ele>
        <time>2018-05-27T09:09:02Z</time>
      </trkpt>
      <trkpt lat="46.78015" lon="5.62558">
        <ele>453.7</ele>
        <time>2018-05-27T09:09:04Z</time>
      </trkpt>
      <trkpt lat="46.78005" lon="5.62558">
        <ele>453.8</ele>
        <time>2018-05-27T09:09:06Z</time>
      </trkpt>
      <trkpt lat="46.77995" lon="5.62557">
        <ele>453.9</ele>
        <time>2018-05-27T09:09:08Z</time>
      </trkpt>
      <trkpt lat="46.77986" lon="5.62556">
        <ele>454</ele>
        <time>2018-05-27T09:09:10Z</time>
      </trkpt>
      <trkpt lat="46.77976" lon="5.62556">
        <ele>454.1</ele>
        <time>2018-05-27T09:09:12Z</time>
      </trkpt>
      <trkpt lat="46.77964" lon="5.6256">
        <ele>454.3</ele>
        <time>2018-05-27T09:09:15Z</time>
      </trkpt>
      <trkpt lat="46.77954" lon="5.62566">
        <ele>454.5</ele>
        <time>2018-05-27T09:09:18Z</time>
      </trkpt>
      <trkpt lat="46.77946" lon="5.62574">
        <ele>454.7</ele>
        <time>2018-05-27T09:09:21Z</time>
      </trkpt>
      <trkpt lat="46.77937" lon="5.62584">
        <ele>455</ele>
        <time>2018-05-27T09:09:25Z</time>
      </trkpt>
      <trkpt lat="46.77927" lon="5.62593">
        <ele>455.4</ele>
        <time>2018-05-27T09:09:29Z</time>
      </trkpt>
      <trkpt lat="46.77917" lon="5.62599">
        <ele>455.9</ele>
        <time>2018-05-27T09:09:33Z</time>
      </trkpt>
      <trkpt lat="46.77906" lon="5.626">
        <ele>456.5</ele>
        <time>2018-05-27T09:09:37Z</time>
      </trkpt>
      <trkpt lat="46.77897" lon="5.62597">
        <ele>457</ele>
        <time>2018-05-27T09:09:40Z</time>
      </trkpt>
      <trkpt lat="46.77887" lon="5.62592">
        <ele>457.5</ele>
        <time>2018-05-27T09:09:43Z</time>
      </trkpt>
      <trkpt lat="46.77877" lon="5.62587">
        <ele>457.8</ele>
        <time>2018-05-27T09:09:46Z</time>
      </trkpt>
      <trkpt lat="46.77864" lon="5.62585">
        <ele>458.2</ele>
        <time>2018-05-27T09:09:49Z</time>
      </trkpt>
      <trkpt lat="46.77851" lon="5.62589">
        <ele>458.5</ele>
        <time>2018-05-27T09:09:52Z</time>
      </trkpt>
      <trkpt lat="46.77839" lon="5.62591">
        <ele>458.7</ele>
        <time>2018-05-27T09:09:55Z</time>
      </trkpt>
      <trkpt lat="46.77826" lon="5.62589">
        <ele>458.9</ele>
        <time>2018-05-27T09:09:58Z</time>
      </trkpt>
      <trkpt lat="46.77814" lon="5.62587">
        <ele>459.1</ele>
        <time>2018-05-27T09:10:01Z</time>
      </trkpt>
      <trkpt lat="46.77801" lon="5.62589">
        <ele>459.3</ele>
        <time>2018-05-27T09:10:04Z</time>
      </trkpt>
      <trkpt lat="46.77789" lon="5.62594">
        <ele>459.4</ele>
        <time>2018-05-27T09:10:07Z</time>
      </trkpt>
      <trkpt lat="46.77778" lon="5.62604">
        <ele>459.6</ele>
        <time>2018-05-27T09:10:10Z</time>
      </trkpt>
      <trkpt lat="46.77769" lon="5.62615">
        <ele>459.7</ele>
        <time>2018-05-27T09:10:13Z</time>
      </trkpt>
      <trkpt lat="46.77759" lon="5.62627">
        <ele>459.8</ele>
        <time>2018-05-27T09:10:16Z</time>
      </trkpt>
      <trkpt lat="46.77749" lon="5.62639">
        <ele>459.9</ele>
        <time>2018-05-27T09:10:19Z</time>
      </trkpt>
      <trkpt lat="46.7774" lon="5.62652">
        <ele>460</ele>
        <time>2018-05-27T09:10:22Z</time>
      </trkpt>
      <trkpt lat="46.77732" lon="5.62667">
        <ele>460.1</ele>
        <time>2018-05-27T09:10:25Z</time>
      </trkpt>
      <trkpt lat="46.77725" lon="5.62682">
        <ele>460.2</ele>
        <time>2018-05-27T09:10:28Z</time>
      </trkpt>
      <trkpt lat="46.77718" lon="5.62697">
        <ele>460.3</ele>
        <time>2018-05-27T09:10:31Z</time>
      </trkpt>
      <trkpt lat="46.77711" lon="5.62711">
        <ele>460.4</ele>
        <time>2018-05-27T09:10:34Z</time>
      </trkpt>
      <trkpt lat="46.77704" lon="5.62725">
        <ele>460.5</ele>
        <time>2018-05-27T09:10:37Z</time>
      </trkpt>
      <trkpt lat="46.77698" lon="5.62738">
        <ele>460.6</ele>
        <time>2018-05-27T09:10:40Z</time>
      </trkpt>
      <trkpt lat="46.77693" lon="5.6275">
        <ele>460.7</ele>
        <time>2018-05-27T09:10:43Z</time>
      </trkpt>
      <trkpt lat="46.77689" lon="5.62762">
        <ele>460.8</ele>
        <time>2018-05-27T09:10:46Z</time>
      </trkpt>
      <trkpt lat="46.77683" lon="5.62777">
        <ele>461.1</ele>
        <time>2018-05-27T09:10:50Z</time>
      </trkpt>
      <trkpt lat="46.77677" lon="5.62791">
        <ele>461.6</ele>
        <time>2018-05-27T09:10:54Z</time>
      </trkpt>
      <trkpt lat="46.77672" lon="5.62805">
        <ele>462.2</ele>
        <time>2018-05-27T09:10:58Z</time>
      </trkpt>
      <trkpt lat="46.77666" lon="5.62817">
        <ele>462.9</ele>
        <time>2018-05-27T09:11:02Z</time>
      </trkpt>
      <trkpt lat="46.77659" lon="5.62829">
        <ele>463.7</ele>
        <time>2018-05-27T09:11:06Z</time>
      </trkpt>
      <trkpt lat="46.77652" lon="5.62842">
        <ele>464.4</ele>
        <time>2018-05-27T09:11:10Z</time>
      </trkpt>
      <trkpt lat="46.77644" lon="5.62855">
        <ele>465.1</ele>
        <time>2018-05-27T09:11:14Z</time>
      </trkpt>
      <trkpt lat="46.77637" lon="5.62864">
        <ele>465.4</ele>
        <time>2018-05-27T09:11:17Z</time>
      </trkpt>
      <trkpt lat="46.7763" lon="5.62872">
        <ele>465.8</ele>
        <time>2018-05-27T09:11:20Z</time>
      </trkpt>
      <trkpt lat="46.77623" lon="5.62882">
        <ele>466.1</ele>
        <time>2018-05-27T09:11:23Z</time>
      </trkpt>
      <trkpt lat="46.77614" lon="5.62892">
        <ele>466.5</ele>
        <time>2018-05-27T09:11:27Z</time>
      </trkpt>
      <trkpt lat="46.77608" lon="5.62902">
        <ele>467</ele>
        <time>2018-05-27T09:11:31Z</time>
      </trkpt>
      <trkpt lat="46.776" lon="5.62912">
        <ele>467.6</ele>
        <time>2018-05-27T09:11:35Z</time>
      </trkpt>
      <trkpt lat="46.77592" lon="5.6292">
        <ele>468.2</ele>
        <time>2018-05-27T09:11:39Z</time>
      </trkpt>
      <trkpt lat="46.77583" lon="5.6293">
        <ele>468.8</ele>
        <time>2018-05-27T09:11:43Z</time>
      </trkpt>
      <trkpt lat="46.77578" lon="5.62943">
        <ele>469.4</ele>
        <time>2018-05-27T09:11:47Z</time>
      </trkpt>
      <trkpt lat="46.77576" lon="5.62961">
        <ele>470</ele>
        <time>2018-05-27T09:11:51Z</time>
      </trkpt>
      <trkpt lat="46.77566" lon="5.62971">
        <ele>470.3</ele>
        <time>2018-05-27T09:11:54Z</time>
      </trkpt>
      <trkpt lat="46.77553" lon="5.62966">
        <ele>470.6</ele>
        <time>2018-05-27T09:11:57Z</time>
      </trkpt>
      <trkpt lat="46.77542" lon="5.62964">
        <ele>470.7</ele>
        <time>2018-05-27T09:11:59Z</time>
      </trkpt>
      <trkpt lat="46.77532" lon="5.62963">
        <ele>470.8</ele>
        <time>2018-05-27T09:12:01Z</time>
      </trkpt>
      <trkpt lat="46.77521" lon="5.62956">
        <ele>471</ele>
        <time>2018-05-27T09:12:04Z</time>
      </trkpt>
      <trkpt lat="46.77512" lon="5.62945">
        <ele>471.2</ele>
        <time>2018-05-27T09:12:07Z</time>
      </trkpt>
      <trkpt lat="46.77504" lon="5.62933">
        <ele>471.3</ele>
        <time>2018-05-27T09:12:10Z</time>
      </trkpt>
      <trkpt lat="46.77497" lon="5.62923">
        <ele>471.4</ele>
        <time>2018-05-27T09:12:13Z</time>
      </trkpt>
      <trkpt lat="46.7749" lon="5.6291">
        <ele>471.7</ele>
        <time>2018-05-27T09:12:17Z</time>
      </trkpt>
      <trkpt lat="46.77484" lon="5.62898">
        <ele>472</ele>
        <time>2018-05-27T09:12:21Z</time>
      </trkpt>
      <trkpt lat="46.77477" lon="5.62886">
        <ele>472.3</ele>
        <time>2018-05-27T09:12:25Z</time>
      </trkpt>
      <trkpt lat="46.77468" lon="5.62879">
        <ele>472.7</ele>
        <time>2018-05-27T09:12:28Z</time>
      </trkpt>
      <trkpt lat="46.7746" lon="5.62871">
        <ele>473</ele>
        <time>2018-05-27T09:12:31Z</time>
      </trkpt>
      <trkpt lat="46.77451" lon="5.62866">
        <ele>473.4</ele>
        <time>2018-05-27T09:12:34Z</time>
      </trkpt>
      <trkpt lat="46.7744" lon="5.62862">
        <ele>474</ele>
        <time>2018-05-27T09:12:38Z</time>
      </trkpt>
      <trkpt lat="46.7743" lon="5.62857">
        <ele>474.6</ele>
        <time>2018-05-27T09:12:42Z</time>
      </trkpt>
      <trkpt lat="46.77419" lon="5.62853">
        <ele>475.3</ele>
        <time>2018-05-27T09:12:46Z</time>
      </trkpt>
      <trkpt lat="46.77408" lon="5.6285">
        <ele>476</ele>
        <time>2018-05-27T09:12:50Z</time>
      </trkpt>
      <trkpt lat="46.77397" lon="5.62849">
        <ele>476.7</ele>
        <time>2018-05-27T09:12:54Z</time>
      </trkpt>
      <trkpt lat="46.77386" lon="5.62846">
        <ele>477.4</ele>
        <time>2018-05-27T09:12:58Z</time>
      </trkpt>
      <trkpt lat="46.77375" lon="5.62843">
        <ele>478</ele>
        <time>2018-05-27T09:13:01Z</time>
      </trkpt>
      <trkpt lat="46.77363" lon="5.6284">
        <ele>478.6</ele>
        <time>2018-05-27T09:13:04Z</time>
      </trkpt>
      <trkpt lat="46.77354" lon="5.62836">
        <ele>479.1</ele>
        <time>2018-05-27T09:13:07Z</time>
      </trkpt>
      <trkpt lat="46.77343" lon="5.62833">
        <ele>479.8</ele>
        <time>2018-05-27T09:13:11Z</time>
      </trkpt>
      <trkpt lat="46.77331" lon="5.62831">
        <ele>480.5</ele>
        <time>2018-05-27T09:13:15Z</time>
      </trkpt>
      <trkpt lat="46.77321" lon="5.62828">
        <ele>481.2</ele>
        <time>2018-05-27T09:13:19Z</time>
      </trkpt>
      <trkpt lat="46.77311" lon="5.62825">
        <ele>481.9</ele>
        <time>2018-05-27T09:13:23Z</time>
      </trkpt>
      <trkpt lat="46.77301" lon="5.62822">
        <ele>482.6</ele>
        <time>2018-05-27T09:13:27Z</time>
      </trkpt>
      <trkpt lat="46.7729" lon="5.62819">
        <ele>483.2</ele>
        <time>2018-05-27T09:13:31Z</time>
      </trkpt>
      <trkpt lat="46.77281" lon="5.62819">
        <ele>483.7</ele>
        <time>2018-05-27T09:13:34Z</time>
      </trkpt>
      <trkpt lat="46.77272" lon="5.62816">
        <ele>484.3</ele>
        <time>2018-05-27T09:13:39Z</time>
      </trkpt>
      <trkpt lat="46.7726" lon="5.62819">
        <ele>485.2</ele>
        <time>2018-05-27T09:13:46Z</time>
      </trkpt>
      <trkpt lat="46.77251" lon="5.62821">
        <ele>486.3</ele>
        <time>2018-05-27T09:13:53Z</time>
      </trkpt>
      <trkpt lat="46.77242" lon="5.62821">
        <ele>487.6</ele>
        <time>2018-05-27T09:14:04Z</time>
      </trkpt>
      <trkpt lat="46.77232" lon="5.62815">
        <ele>488.3</ele>
        <time>2018-05-27T09:14:11Z</time>
      </trkpt>
      <trkpt lat="46.77223" lon="5.62809">
        <ele>488.6</ele>
        <time>2018-05-27T09:14:15Z</time>
      </trkpt>
      <trkpt lat="46.77213" lon="5.62802">
        <ele>489</ele>
        <time>2018-05-27T09:14:19Z</time>
      </trkpt>
      <trkpt lat="46.77202" lon="5.62795">
        <ele>489.3</ele>
        <time>2018-05-27T09:14:23Z</time>
      </trkpt>
      <trkpt lat="46.77192" lon="5.62789">
        <ele>489.5</ele>
        <time>2018-05-27T09:14:26Z</time>
      </trkpt>
      <trkpt lat="46.77179" lon="5.6278">
        <ele>489.5</ele>
        <time>2018-05-27T09:14:29Z</time>
      </trkpt>
      <trkpt lat="46.77169" lon="5.62775">
        <ele>489.5</ele>
        <time>2018-05-27T09:14:31Z</time>
      </trkpt>
      <trkpt lat="46.7716" lon="5.6277">
        <ele>489.6</ele>
        <time>2018-05-27T09:14:33Z</time>
      </trkpt>
      <trkpt lat="46.77149" lon="5.62764">
        <ele>489.5</ele>
        <time>2018-05-27T09:14:36Z</time>
      </trkpt>
      <trkpt lat="46.77138" lon="5.62757">
        <ele>489.4</ele>
        <time>2018-05-27T09:14:39Z</time>
      </trkpt>
      <trkpt lat="46.77127" lon="5.62752">
        <ele>489.4</ele>
        <time>2018-05-27T09:14:42Z</time>
      </trkpt>
      <trkpt lat="46.77118" lon="5.6275">
        <ele>489.4</ele>
        <time>2018-05-27T09:14:45Z</time>
      </trkpt>
      <trkpt lat="46.77106" lon="5.62746">
        <ele>489.6</ele>
        <time>2018-05-27T09:14:49Z</time>
      </trkpt>
      <trkpt lat="46.77096" lon="5.62741">
        <ele>489.7</ele>
        <time>2018-05-27T09:14:52Z</time>
      </trkpt>
      <trkpt lat="46.77084" lon="5.62736">
        <ele>489.9</ele>
        <time>2018-05-27T09:14:55Z</time>
      </trkpt>
      <trkpt lat="46.77072" lon="5.6273">
        <ele>490</ele>
        <time>2018-05-27T09:14:58Z</time>
      </trkpt>
      <trkpt lat="46.77063" lon="5.62727">
        <ele>490.1</ele>
        <time>2018-05-27T09:15:00Z</time>
      </trkpt>
      <trkpt lat="46.77054" lon="5.62722">
        <ele>490.2</ele>
        <time>2018-05-27T09:15:02Z</time>
      </trkpt>
      <trkpt lat="46.77045" lon="5.62716">
        <ele>490.2</ele>
        <time>2018-05-27T09:15:04Z</time>
      </trkpt>
      <trkpt lat="46.77035" lon="5.62712">
        <ele>490.1</ele>
        <time>2018-05-27T09:15:06Z</time>
      </trkpt>
      <trkpt lat="46.77023" lon="5.62711">
        <ele>490</ele>
        <time>2018-05-27T09:15:08Z</time>
      </trkpt>
      <trkpt lat="46.77012" lon="5.62709">
        <ele>489.8</ele>
        <time>2018-05-27T09:15:10Z</time>
      </trkpt>
      <trkpt lat="46.77001" lon="5.62707">
        <ele>489.5</ele>
        <time>2018-05-27T09:15:12Z</time>
      </trkpt>
      <trkpt lat="46.7699" lon="5.62704">
        <ele>489</ele>
        <time>2018-05-27T09:15:15Z</time>
      </trkpt>
      <trkpt lat="46.7698" lon="5.62695">
        <ele>488.4</ele>
        <time>2018-05-27T09:15:18Z</time>
      </trkpt>
      <trkpt lat="46.7697" lon="5.62685">
        <ele>487.8</ele>
        <time>2018-05-27T09:15:21Z</time>
      </trkpt>
      <trkpt lat="46.76962" lon="5.62675">
        <ele>487.4</ele>
        <time>2018-05-27T09:15:24Z</time>
      </trkpt>
      <trkpt lat="46.76954" lon="5.6267">
        <ele>487</ele>
        <time>2018-05-27T09:15:27Z</time>
      </trkpt>
      <trkpt lat="46.76945" lon="5.62667">
        <ele>486.7</ele>
        <time>2018-05-27T09:15:30Z</time>
      </trkpt>
      <trkpt lat="46.76934" lon="5.62664">
        <ele>486.5</ele>
        <time>2018-05-27T09:15:34Z</time>
      </trkpt>
      <trkpt lat="46.76925" lon="5.6266">
        <ele>486.4</ele>
        <time>2018-05-27T09:15:38Z</time>
      </trkpt>
      <trkpt lat="46.76916" lon="5.62656">
        <ele>486.5</ele>
        <time>2018-05-27T09:15:41Z</time>
      </trkpt>
      <trkpt lat="46.76906" lon="5.62651">
        <ele>486.7</ele>
        <time>2018-05-27T09:15:45Z</time>
      </trkpt>
      <trkpt lat="46.76895" lon="5.62646">
        <ele>487</ele>
        <time>2018-05-27T09:15:49Z</time>
      </trkpt>
      <trkpt lat="46.76884" lon="5.62643">
        <ele>487.3</ele>
        <time>2018-05-27T09:15:53Z</time>
      </trkpt>
      <trkpt lat="46.76873" lon="5.62642">
        <ele>487.6</ele>
        <time>2018-05-27T09:15:57Z</time>
      </trkpt>
      <trkpt lat="46.76863" lon="5.62638">
        <ele>487.9</ele>
        <time>2018-05-27T09:16:01Z</time>
      </trkpt>
      <trkpt lat="46.76852" lon="5.62635">
        <ele>488.3</ele>
        <time>2018-05-27T09:16:05Z</time>
      </trkpt>
      <trkpt lat="46.76842" lon="5.6263">
        <ele>488.7</ele>
        <time>2018-05-27T09:16:09Z</time>
      </trkpt>
      <trkpt lat="46.76833" lon="5.62625">
        <ele>489.1</ele>
        <time>2018-05-27T09:16:12Z</time>
      </trkpt>
      <trkpt lat="46.76825" lon="5.6262">
        <ele>489.6</ele>
        <time>2018-05-27T09:16:16Z</time>
      </trkpt>
      <trkpt lat="46.76816" lon="5.62613">
        <ele>490.4</ele>
        <time>2018-05-27T09:16:21Z</time>
      </trkpt>
      <trkpt lat="46.76808" lon="5.62604">
        <ele>491.4</ele>
        <time>2018-05-27T09:16:27Z</time>
      </trkpt>
      <trkpt lat="46.76799" lon="5.62602">
        <ele>499.4</ele>
        <time>2018-05-27T09:19:15Z</time>
      </trkpt>
      <trkpt lat="46.76788" lon="5.62601">
        <ele>499.5</ele>
        <time>2018-05-27T09:19:20Z</time>
      </trkpt>
      <trkpt lat="46.76781" lon="5.62613">
        <ele>499.4</ele>
        <time>2018-05-27T09:19:27Z</time>
      </trkpt>
      <trkpt lat="46.76777" lon="5.62629">
        <ele>499.4</ele>
        <time>2018-05-27T09:19:31Z</time>
      </trkpt>
      <trkpt lat="46.76775" lon="5.62644">
        <ele>499.4</ele>
        <time>2018-05-27T09:19:35Z</time>
      </trkpt>
      <trkpt lat="46.76773" lon="5.62658">
        <ele>499.4</ele>
        <time>2018-05-27T09:19:39Z</time>
      </trkpt>
      <trkpt lat="46.7677" lon="5.62673">
        <ele>499.4</ele>
        <time>2018-05-27T09:19:43Z</time>
      </trkpt>
      <trkpt lat="46.76764" lon="5.62684">
        <ele>499.4</ele>
        <time>2018-05-27T09:19:46Z</time>
      </trkpt>
      <trkpt lat="46.76757" lon="5.62698">
        <ele>499.4</ele>
        <time>2018-05-27T09:19:50Z</time>
      </trkpt>
      <trkpt lat="46.7675" lon="5.62711">
        <ele>499.3</ele>
        <time>2018-05-27T09:19:53Z</time>
      </trkpt>
      <trkpt lat="46.76743" lon="5.6272">
        <ele>498.8</ele>
        <time>2018-05-27T09:19:56Z</time>
      </trkpt>
      <trkpt lat="46.76735" lon="5.6273">
        <ele>498.3</ele>
        <time>2018-05-27T09:19:59Z</time>
      </trkpt>
      <trkpt lat="46.76729" lon="5.6274">
        <ele>497.9</ele>
        <time>2018-05-27T09:20:01Z</time>
      </trkpt>
      <trkpt lat="46.76722" lon="5.62751">
        <ele>497.5</ele>
        <time>2018-05-27T09:20:03Z</time>
      </trkpt>
      <trkpt lat="46.76716" lon="5.62763">
        <ele>497.1</ele>
        <time>2018-05-27T09:20:05Z</time>
      </trkpt>
      <trkpt lat="46.76712" lon="5.62779">
        <ele>496.5</ele>
        <time>2018-05-27T09:20:08Z</time>
      </trkpt>
      <trkpt lat="46.7671" lon="5.62793">
        <ele>495.6</ele>
        <time>2018-05-27T09:20:14Z</time>
      </trkpt>
      <trkpt lat="46.76706" lon="5.62805">
        <ele>495.2</ele>
        <time>2018-05-27T09:20:18Z</time>
      </trkpt>
      <trkpt lat="46.76705" lon="5.62819">
        <ele>494.9</ele>
        <time>2018-05-27T09:20:23Z</time>
      </trkpt>
      <trkpt lat="46.76708" lon="5.62836">
        <ele>495</ele>
        <time>2018-05-27T09:20:28Z</time>
      </trkpt>
      <trkpt lat="46.76709" lon="5.6285">
        <ele>495</ele>
        <time>2018-05-27T09:20:32Z</time>
      </trkpt>
      <trkpt lat="46.76717" lon="5.62861">
        <ele>495.1</ele>
        <time>2018-05-27T09:20:38Z</time>
      </trkpt>
      <trkpt lat="46.76722" lon="5.62874">
        <ele>495.3</ele>
        <time>2018-05-27T09:20:44Z</time>
      </trkpt>
      <trkpt lat="46.76722" lon="5.62888">
        <ele>495.1</ele>
        <time>2018-05-27T09:20:47Z</time>
      </trkpt>
      <trkpt lat="46.76724" lon="5.62902">
        <ele>495</ele>
        <time>2018-05-27T09:20:48Z</time>
      </trkpt>
      <trkpt lat="46.76723" lon="5.62919">
        <ele>494.6</ele>
        <time>2018-05-27T09:20:50Z</time>
      </trkpt>
      <trkpt lat="46.76719" lon="5.62934">
        <ele>494.1</ele>
        <time>2018-05-27T09:20:52Z</time>
      </trkpt>
      <trkpt lat="46.76715" lon="5.62948">
        <ele>493.2</ele>
        <time>2018-05-27T09:20:55Z</time>
      </trkpt>
      <trkpt lat="46.76713" lon="5.62964">
        <ele>492.4</ele>
        <time>2018-05-27T09:20:59Z</time>
      </trkpt>
      <trkpt lat="46.76711" lon="5.62978">
        <ele>491.5</ele>
        <time>2018-05-27T09:21:05Z</time>
      </trkpt>
      <trkpt lat="46.76712" lon="5.62993">
        <ele>490.7</ele>
        <time>2018-05-27T09:21:11Z</time>
      </trkpt>
      <trkpt lat="46.76712" lon="5.63006">
        <ele>489.9</ele>
        <time>2018-05-27T09:21:15Z</time>
      </trkpt>
      <trkpt lat="46.76713" lon="5.63023">
        <ele>489.2</ele>
        <time>2018-05-27T09:21:20Z</time>
      </trkpt>
      <trkpt lat="46.76716" lon="5.63036">
        <ele>488.6</ele>
        <time>2018-05-27T09:21:26Z</time>
      </trkpt>
      <trkpt lat="46.76724" lon="5.63045">
        <ele>488.7</ele>
        <time>2018-05-27T09:21:33Z</time>
      </trkpt>
      <trkpt lat="46.76731" lon="5.63054">
        <ele>489.1</ele>
        <time>2018-05-27T09:21:39Z</time>
      </trkpt>
      <trkpt lat="46.76738" lon="5.63063">
        <ele>489.8</ele>
        <time>2018-05-27T09:21:45Z</time>
      </trkpt>
      <trkpt lat="46.76746" lon="5.63075">
        <ele>490.6</ele>
        <time>2018-05-27T09:21:51Z</time>
      </trkpt>
      <trkpt lat="46.76753" lon="5.63084">
        <ele>491.6</ele>
        <time>2018-05-27T09:21:57Z</time>
      </trkpt>
      <trkpt lat="46.76763" lon="5.63088">
        <ele>492.5</ele>
        <time>2018-05-27T09:22:03Z</time>
      </trkpt>
      <trkpt lat="46.76772" lon="5.63093">
        <ele>493.4</ele>
        <time>2018-05-27T09:22:08Z</time>
      </trkpt>
      <trkpt lat="46.76779" lon="5.63104">
        <ele>494</ele>
        <time>2018-05-27T09:22:13Z</time>
      </trkpt>
      <trkpt lat="46.76786" lon="5.63112">
        <ele>494.5</ele>
        <time>2018-05-27T09:22:17Z</time>
      </trkpt>
      <trkpt lat="46.76793" lon="5.63125">
        <ele>494.9</ele>
        <time>2018-05-27T09:22:21Z</time>
      </trkpt>
      <trkpt lat="46.768" lon="5.63135">
        <ele>495.1</ele>
        <time>2018-05-27T09:22:24Z</time>
      </trkpt>
      <trkpt lat="46.76808" lon="5.63148">
        <ele>495.4</ele>
        <time>2018-05-27T09:22:28Z</time>
      </trkpt>
      <trkpt lat="46.76815" lon="5.6316">
        <ele>495.4</ele>
        <time>2018-05-27T09:22:31Z</time>
      </trkpt>
      <trkpt lat="46.76821" lon="5.6317">
        <ele>495.4</ele>
        <time>2018-05-27T09:22:33Z</time>
      </trkpt>
      <trkpt lat="46.76829" lon="5.63182">
        <ele>495.3</ele>
        <time>2018-05-27T09:22:36Z</time>
      </trkpt>
      <trkpt lat="46.76837" lon="5.63197">
        <ele>495</ele>
        <time>2018-05-27T09:22:39Z</time>
      </trkpt>
      <trkpt lat="46.76843" lon="5.63211">
        <ele>494.7</ele>
        <time>2018-05-27T09:22:41Z</time>
      </trkpt>
      <trkpt lat="46.76847" lon="5.63225">
        <ele>494.5</ele>
        <time>2018-05-27T09:22:43Z</time>
      </trkpt>
      <trkpt lat="46.76851" lon="5.63239">
        <ele>494.1</ele>
        <time>2018-05-27T09:22:45Z</time>
      </trkpt>
      <trkpt lat="46.76853" lon="5.63251">
        <ele>493.7</ele>
        <time>2018-05-27T09:22:47Z</time>
      </trkpt>
      <trkpt lat="46.76856" lon="5.63264">
        <ele>493.3</ele>
        <time>2018-05-27T09:22:49Z</time>
      </trkpt>
      <trkpt lat="46.76859" lon="5.63277">
        <ele>492.9</ele>
        <time>2018-05-27T09:22:51Z</time>
      </trkpt>
      <trkpt lat="46.76864" lon="5.63288">
        <ele>492.3</ele>
        <time>2018-05-27T09:22:55Z</time>
      </trkpt>
      <trkpt lat="46.7687" lon="5.63302">
        <ele>491.7</ele>
        <time>2018-05-27T09:23:00Z</time>
      </trkpt>
      <trkpt lat="46.7687" lon="5.63318">
        <ele>491.5</ele>
        <time>2018-05-27T09:23:03Z</time>
      </trkpt>
      <trkpt lat="46.76868" lon="5.63331">
        <ele>491.2</ele>
        <time>2018-05-27T09:23:06Z</time>
      </trkpt>
      <trkpt lat="46.76869" lon="5.63348">
        <ele>490.9</ele>
        <time>2018-05-27T09:23:09Z</time>
      </trkpt>
      <trkpt lat="46.76871" lon="5.63364">
        <ele>490.7</ele>
        <time>2018-05-27T09:23:13Z</time>
      </trkpt>
      <trkpt lat="46.76876" lon="5.63378">
        <ele>490.7</ele>
        <time>2018-05-27T09:23:17Z</time>
      </trkpt>
      <trkpt lat="46.76883" lon="5.63389">
        <ele>490.7</ele>
        <time>2018-05-27T09:23:20Z</time>
      </trkpt>
      <trkpt lat="46.76885" lon="5.63405">
        <ele>490.8</ele>
        <time>2018-05-27T09:23:25Z</time>
      </trkpt>
      <trkpt lat="46.76887" lon="5.63418">
        <ele>491</ele>
        <time>2018-05-27T09:23:31Z</time>
      </trkpt>
      <trkpt lat="46.76889" lon="5.63432">
        <ele>491.4</ele>
        <time>2018-05-27T09:23:37Z</time>
      </trkpt>
      <trkpt lat="46.76892" lon="5.63445">
        <ele>491.9</ele>
        <time>2018-05-27T09:23:44Z</time>
      </trkpt>
      <trkpt lat="46.76894" lon="5.63459">
        <ele>492.5</ele>
        <time>2018-05-27T09:23:51Z</time>
      </trkpt>
      <trkpt lat="46.76899" lon="5.63474">
        <ele>492.8</ele>
        <time>2018-05-27T09:23:55Z</time>
      </trkpt>
      <trkpt lat="46.76902" lon="5.63491">
        <ele>493.3</ele>
        <time>2018-05-27T09:24:00Z</time>
      </trkpt>
      <trkpt lat="46.76904" lon="5.63507">
        <ele>493.7</ele>
        <time>2018-05-27T09:24:04Z</time>
      </trkpt>
      <trkpt lat="46.76904" lon="5.63522">
        <ele>495.1</ele>
        <time>2018-05-27T09:24:18Z</time>
      </trkpt>
      <trkpt lat="46.76902" lon="5.63535">
        <ele>495.6</ele>
        <time>2018-05-27T09:24:24Z</time>
      </trkpt>
      <trkpt lat="46.76899" lon="5.63549">
        <ele>495.8</ele>
        <time>2018-05-27T09:24:29Z</time>
      </trkpt>
      <trkpt lat="46.76892" lon="5.63558">
        <ele>495.8</ele>
        <time>2018-05-27T09:24:32Z</time>
      </trkpt>
      <trkpt lat="46.76887" lon="5.63572">
        <ele>495.7</ele>
        <time>2018-05-27T09:24:35Z</time>
      </trkpt>
      <trkpt lat="46.76885" lon="5.63587">
        <ele>495.7</ele>
        <time>2018-05-27T09:24:40Z</time>
      </trkpt>
      <trkpt lat="46.76877" lon="5.63595">
        <ele>495.8</ele>
        <time>2018-05-27T09:24:46Z</time>
      </trkpt>
      <trkpt lat="46.7687" lon="5.63605">
        <ele>496.1</ele>
        <time>2018-05-27T09:24:55Z</time>
      </trkpt>
      <trkpt lat="46.76861" lon="5.63612">
        <ele>496.4</ele>
        <time>2018-05-27T09:25:04Z</time>
      </trkpt>
      <trkpt lat="46.76866" lon="5.63622">
        <ele>500.2</ele>
        <time>2018-05-27T09:26:51Z</time>
      </trkpt>
      <trkpt lat="46.76874" lon="5.63632">
        <ele>500.1</ele>
        <time>2018-05-27T09:26:57Z</time>
      </trkpt>
      <trkpt lat="46.76881" lon="5.63641">
        <ele>500.1</ele>
        <time>2018-05-27T09:27:02Z</time>
      </trkpt>
      <trkpt lat="46.76889" lon="5.63648">
        <ele>500.1</ele>
        <time>2018-05-27T09:27:06Z</time>
      </trkpt>
      <trkpt lat="46.76895" lon="5.63663">
        <ele>499.9</ele>
        <time>2018-05-27T09:27:10Z</time>
      </trkpt>
      <trkpt lat="46.76901" lon="5.63675">
        <ele>499.8</ele>
        <time>2018-05-27T09:27:13Z</time>
      </trkpt>
      <trkpt lat="46.7691" lon="5.63685">
        <ele>499.7</ele>
        <time>2018-05-27T09:27:17Z</time>
      </trkpt>
      <trkpt lat="46.76917" lon="5.63695">
        <ele>499.7</ele>
        <time>2018-05-27T09:27:20Z</time>
      </trkpt>
      <trkpt lat="46.76924" lon="5.63704">
        <ele>499.7</ele>
        <time>2018-05-27T09:27:28Z</time>
      </trkpt>
      <trkpt lat="46.76931" lon="5.63714">
        <ele>499.7</ele>
        <time>2018-05-27T09:27:34Z</time>
      </trkpt>
      <trkpt lat="46.76939" lon="5.63723">
        <ele>499.8</ele>
        <time>2018-05-27T09:27:40Z</time>
      </trkpt>
      <trkpt lat="46.76947" lon="5.63732">
        <ele>500.1</ele>
        <time>2018-05-27T09:27:45Z</time>
      </trkpt>
      <trkpt lat="46.76956" lon="5.63741">
        <ele>500.4</ele>
        <time>2018-05-27T09:27:50Z</time>
      </trkpt>
      <trkpt lat="46.76964" lon="5.6375">
        <ele>500.6</ele>
        <time>2018-05-27T09:27:54Z</time>
      </trkpt>
      <trkpt lat="46.76972" lon="5.63756">
        <ele>501</ele>
        <time>2018-05-27T09:27:58Z</time>
      </trkpt>
      <trkpt lat="46.76977" lon="5.63772">
        <ele>501.7</ele>
        <time>2018-05-27T09:28:04Z</time>
      </trkpt>
      <trkpt lat="46.76978" lon="5.63785">
        <ele>502.3</ele>
        <time>2018-05-27T09:28:08Z</time>
      </trkpt>
      <trkpt lat="46.76985" lon="5.63796">
        <ele>503</ele>
        <time>2018-05-27T09:28:14Z</time>
      </trkpt>
      <trkpt lat="46.76993" lon="5.63809">
        <ele>504.1</ele>
        <time>2018-05-27T09:28:21Z</time>
      </trkpt>
      <trkpt lat="46.76998" lon="5.63824">
        <ele>504.4</ele>
        <time>2018-05-27T09:28:24Z</time>
      </trkpt>
      <trkpt lat="46.76995" lon="5.63838">
        <ele>504.9</ele>
        <time>2018-05-27T09:28:28Z</time>
      </trkpt>
      <trkpt lat="46.76993" lon="5.63852">
        <ele>505.5</ele>
        <time>2018-05-27T09:28:33Z</time>
      </trkpt>
      <trkpt lat="46.7699" lon="5.63866">
        <ele>506</ele>
        <time>2018-05-27T09:28:38Z</time>
      </trkpt>
      <trkpt lat="46.76987" lon="5.63881">
        <ele>506.9</ele>
        <time>2018-05-27T09:28:44Z</time>
      </trkpt>
      <trkpt lat="46.76981" lon="5.63894">
        <ele>507.8</ele>
        <time>2018-05-27T09:28:49Z</time>
      </trkpt>
      <trkpt lat="46.76976" lon="5.63906">
        <ele>509.1</ele>
        <time>2018-05-27T09:28:55Z</time>
      </trkpt>
      <trkpt lat="46.76969" lon="5.63918">
        <ele>510.4</ele>
        <time>2018-05-27T09:29:01Z</time>
      </trkpt>
      <trkpt lat="46.76965" lon="5.63931">
        <ele>511.7</ele>
        <time>2018-05-27T09:29:07Z</time>
      </trkpt>
      <trkpt lat="46.76963" lon="5.63945">
        <ele>512.9</ele>
        <time>2018-05-27T09:29:13Z</time>
      </trkpt>
      <trkpt lat="46.76958" lon="5.63959">
        <ele>514</ele>
        <time>2018-05-27T09:29:19Z</time>
      </trkpt>
      <trkpt lat="46.76953" lon="5.63973">
        <ele>515.3</ele>
        <time>2018-05-27T09:29:25Z</time>
      </trkpt>
      <trkpt lat="46.76949" lon="5.63988">
        <ele>516.2</ele>
        <time>2018-05-27T09:29:30Z</time>
      </trkpt>
      <trkpt lat="46.76945" lon="5.64001">
        <ele>517</ele>
        <time>2018-05-27T09:29:35Z</time>
      </trkpt>
      <trkpt lat="46.76945" lon="5.64018">
        <ele>517.5</ele>
        <time>2018-05-27T09:29:39Z</time>
      </trkpt>
      <trkpt lat="46.76942" lon="5.64034">
        <ele>517.9</ele>
        <time>2018-05-27T09:29:42Z</time>
      </trkpt>
      <trkpt lat="46.76937" lon="5.64052">
        <ele>518.1</ele>
        <time>2018-05-27T09:29:45Z</time>
      </trkpt>
      <trkpt lat="46.76935" lon="5.64065">
        <ele>518.3</ele>
        <time>2018-05-27T09:29:47Z</time>
      </trkpt>
      <trkpt lat="46.76932" lon="5.64079">
        <ele>518.4</ele>
        <time>2018-05-27T09:29:49Z</time>
      </trkpt>
      <trkpt lat="46.7693" lon="5.64092">
        <ele>518.4</ele>
        <time>2018-05-27T09:29:51Z</time>
      </trkpt>
      <trkpt lat="46.76927" lon="5.64105">
        <ele>518.4</ele>
        <time>2018-05-27T09:29:53Z</time>
      </trkpt>
      <trkpt lat="46.76924" lon="5.64125">
        <ele>518.5</ele>
        <time>2018-05-27T09:29:56Z</time>
      </trkpt>
      <trkpt lat="46.7692" lon="5.6414">
        <ele>518.4</ele>
        <time>2018-05-27T09:29:59Z</time>
      </trkpt>
      <trkpt lat="46.76907" lon="5.64151">
        <ele>518.3</ele>
        <time>2018-05-27T09:30:02Z</time>
      </trkpt>
      <trkpt lat="46.76901" lon="5.64163">
        <ele>518.3</ele>
        <time>2018-05-27T09:30:06Z</time>
      </trkpt>
      <trkpt lat="46.76901" lon="5.64177">
        <ele>518.3</ele>
        <time>2018-05-27T09:30:10Z</time>
      </trkpt>
      <trkpt lat="46.76902" lon="5.64192">
        <ele>518.4</ele>
        <time>2018-05-27T09:30:15Z</time>
      </trkpt>
      <trkpt lat="46.76911" lon="5.64199">
        <ele>518.5</ele>
        <time>2018-05-27T09:30:22Z</time>
      </trkpt>
      <trkpt lat="46.7692" lon="5.64205">
        <ele>518.8</ele>
        <time>2018-05-27T09:30:28Z</time>
      </trkpt>
      <trkpt lat="46.76929" lon="5.6421">
        <ele>519.1</ele>
        <time>2018-05-27T09:30:33Z</time>
      </trkpt>
      <trkpt lat="46.76937" lon="5.64217">
        <ele>519.8</ele>
        <time>2018-05-27T09:30:40Z</time>
      </trkpt>
      <trkpt lat="46.76936" lon="5.64231">
        <ele>520.6</ele>
        <time>2018-05-27T09:30:47Z</time>
      </trkpt>
      <trkpt lat="46.76937" lon="5.64246">
        <ele>521.8</ele>
        <time>2018-05-27T09:30:56Z</time>
      </trkpt>
      <trkpt lat="46.76936" lon="5.64261">
        <ele>522.8</ele>
        <time>2018-05-27T09:31:03Z</time>
      </trkpt>
      <trkpt lat="46.76934" lon="5.64274">
        <ele>525.1</ele>
        <time>2018-05-27T09:31:19Z</time>
      </trkpt>
      <trkpt lat="46.76933" lon="5.64287">
        <ele>525.7</ele>
        <time>2018-05-27T09:31:24Z</time>
      </trkpt>
      <trkpt lat="46.76934" lon="5.64303">
        <ele>526.6</ele>
        <time>2018-05-27T09:31:30Z</time>
      </trkpt>
      <trkpt lat="46.76933" lon="5.64317">
        <ele>527</ele>
        <time>2018-05-27T09:31:33Z</time>
      </trkpt>
      <trkpt lat="46.76934" lon="5.64331">
        <ele>528.2</ele>
        <time>2018-05-27T09:31:42Z</time>
      </trkpt>
      <trkpt lat="46.76934" lon="5.64348">
        <ele>529.9</ele>
        <time>2018-05-27T09:31:59Z</time>
      </trkpt>
      <trkpt lat="46.76931" lon="5.64361">
        <ele>530.6</ele>
        <time>2018-05-27T09:32:05Z</time>
      </trkpt>
      <trkpt lat="46.76926" lon="5.64373">
        <ele>531.2</ele>
        <time>2018-05-27T09:32:11Z</time>
      </trkpt>
      <trkpt lat="46.76928" lon="5.64387">
        <ele>532.4</ele>
        <time>2018-05-27T09:32:21Z</time>
      </trkpt>
      <trkpt lat="46.76927" lon="5.64402">
        <ele>533.3</ele>
        <time>2018-05-27T09:32:28Z</time>
      </trkpt>
      <trkpt lat="46.76931" lon="5.64416">
        <ele>534.3</ele>
        <time>2018-05-27T09:32:36Z</time>
      </trkpt>
      <trkpt lat="46.7693" lon="5.6443">
        <ele>534.8</ele>
        <time>2018-05-27T09:32:41Z</time>
      </trkpt>
      <trkpt lat="46.76938" lon="5.64442">
        <ele>535.5</ele>
        <time>2018-05-27T09:32:47Z</time>
      </trkpt>
      <trkpt lat="46.76946" lon="5.64447">
        <ele>536</ele>
        <time>2018-05-27T09:32:52Z</time>
      </trkpt>
      <trkpt lat="46.76955" lon="5.64455">
        <ele>536.9</ele>
        <time>2018-05-27T09:32:58Z</time>
      </trkpt>
      <trkpt lat="46.76964" lon="5.64458">
        <ele>537.5</ele>
        <time>2018-05-27T09:33:03Z</time>
      </trkpt>
      <trkpt lat="46.76975" lon="5.64461">
        <ele>538.1</ele>
        <time>2018-05-27T09:33:07Z</time>
      </trkpt>
      <trkpt lat="46.76983" lon="5.64466">
        <ele>538.6</ele>
        <time>2018-05-27T09:33:12Z</time>
      </trkpt>
      <trkpt lat="46.76993" lon="5.6447">
        <ele>539.2</ele>
        <time>2018-05-27T09:33:17Z</time>
      </trkpt>
      <trkpt lat="46.77002" lon="5.64476">
        <ele>540.1</ele>
        <time>2018-05-27T09:33:23Z</time>
      </trkpt>
      <trkpt lat="46.7701" lon="5.64482">
        <ele>540.8</ele>
        <time>2018-05-27T09:33:29Z</time>
      </trkpt>
      <trkpt lat="46.77019" lon="5.64488">
        <ele>541.6</ele>
        <time>2018-05-27T09:33:35Z</time>
      </trkpt>
      <trkpt lat="46.77027" lon="5.64497">
        <ele>542.2</ele>
        <time>2018-05-27T09:33:39Z</time>
      </trkpt>
      <trkpt lat="46.77035" lon="5.64506">
        <ele>542.8</ele>
        <time>2018-05-27T09:33:43Z</time>
      </trkpt>
      <trkpt lat="46.77044" lon="5.64515">
        <ele>543.5</ele>
        <time>2018-05-27T09:33:47Z</time>
      </trkpt>
      <trkpt lat="46.77053" lon="5.64521">
        <ele>544.2</ele>
        <time>2018-05-27T09:33:52Z</time>
      </trkpt>
      <trkpt lat="46.77062" lon="5.64529">
        <ele>545</ele>
        <time>2018-05-27T09:33:58Z</time>
      </trkpt>
      <trkpt lat="46.77071" lon="5.64532">
        <ele>545.5</ele>
        <time>2018-05-27T09:34:02Z</time>
      </trkpt>
      <trkpt lat="46.77081" lon="5.64536">
        <ele>546</ele>
        <time>2018-05-27T09:34:06Z</time>
      </trkpt>
      <trkpt lat="46.77091" lon="5.64543">
        <ele>546.4</ele>
        <time>2018-05-27T09:34:09Z</time>
      </trkpt>
      <trkpt lat="46.771" lon="5.64545">
        <ele>546.7</ele>
        <time>2018-05-27T09:34:13Z</time>
      </trkpt>
      <trkpt lat="46.77109" lon="5.64551">
        <ele>547.1</ele>
        <time>2018-05-27T09:34:17Z</time>
      </trkpt>
      <trkpt lat="46.77118" lon="5.64554">
        <ele>547.7</ele>
        <time>2018-05-27T09:34:23Z</time>
      </trkpt>
      <trkpt lat="46.77127" lon="5.64555">
        <ele>548.2</ele>
        <time>2018-05-27T09:34:28Z</time>
      </trkpt>
      <trkpt lat="46.77138" lon="5.64556">
        <ele>548.7</ele>
        <time>2018-05-27T09:34:33Z</time>
      </trkpt>
      <trkpt lat="46.77146" lon="5.64561">
        <ele>549.2</ele>
        <time>2018-05-27T09:34:37Z</time>
      </trkpt>
      <trkpt lat="46.77155" lon="5.64569">
        <ele>549.5</ele>
        <time>2018-05-27T09:34:40Z</time>
      </trkpt>
      <trkpt lat="46.77165" lon="5.64573">
        <ele>549.8</ele>
        <time>2018-05-27T09:34:44Z</time>
      </trkpt>
      <trkpt lat="46.77178" lon="5.64574">
        <ele>550.2</ele>
        <time>2018-05-27T09:34:49Z</time>
      </trkpt>
      <trkpt lat="46.77187" lon="5.64571">
        <ele>550.5</ele>
        <time>2018-05-27T09:34:53Z</time>
      </trkpt>
      <trkpt lat="46.77196" lon="5.64562">
        <ele>550.8</ele>
        <time>2018-05-27T09:34:57Z</time>
      </trkpt>
      <trkpt lat="46.77204" lon="5.64554">
        <ele>550.9</ele>
        <time>2018-05-27T09:35:00Z</time>
      </trkpt>
      <trkpt lat="46.77215" lon="5.64548">
        <ele>550.9</ele>
        <time>2018-05-27T09:35:04Z</time>
      </trkpt>
      <trkpt lat="46.77228" lon="5.64546">
        <ele>550.7</ele>
        <time>2018-05-27T09:35:07Z</time>
      </trkpt>
      <trkpt lat="46.77237" lon="5.64553">
        <ele>550.6</ele>
        <time>2018-05-27T09:35:11Z</time>
      </trkpt>
      <trkpt lat="46.77248" lon="5.64563">
        <ele>550.5</ele>
        <time>2018-05-27T09:35:24Z</time>
      </trkpt>
      <trkpt lat="46.77257" lon="5.64571">
        <ele>550.5</ele>
        <time>2018-05-27T09:35:28Z</time>
      </trkpt>
      <trkpt lat="46.77266" lon="5.64581">
        <ele>550.6</ele>
        <time>2018-05-27T09:35:32Z</time>
      </trkpt>
      <trkpt lat="46.77268" lon="5.64595">
        <ele>551</ele>
        <time>2018-05-27T09:35:39Z</time>
      </trkpt>
      <trkpt lat="46.77267" lon="5.6461">
        <ele>551.9</ele>
        <time>2018-05-27T09:35:46Z</time>
      </trkpt>
      <trkpt lat="46.77265" lon="5.64624">
        <ele>553.2</ele>
        <time>2018-05-27T09:35:54Z</time>
      </trkpt>
      <trkpt lat="46.77262" lon="5.64639">
        <ele>554.4</ele>
        <time>2018-05-27T09:36:01Z</time>
      </trkpt>
      <trkpt lat="46.77263" lon="5.64652">
        <ele>555.3</ele>
        <time>2018-05-27T09:36:07Z</time>
      </trkpt>
      <trkpt lat="46.77264" lon="5.64666">
        <ele>556.1</ele>
        <time>2018-05-27T09:36:12Z</time>
      </trkpt>
      <trkpt lat="46.77263" lon="5.64679">
        <ele>557.1</ele>
        <time>2018-05-27T09:36:18Z</time>
      </trkpt>
      <trkpt lat="46.7726" lon="5.64693">
        <ele>558.1</ele>
        <time>2018-05-27T09:36:25Z</time>
      </trkpt>
      <trkpt lat="46.77258" lon="5.64709">
        <ele>558.7</ele>
        <time>2018-05-27T09:36:30Z</time>
      </trkpt>
      <trkpt lat="46.77256" lon="5.64724">
        <ele>559.1</ele>
        <time>2018-05-27T09:36:34Z</time>
      </trkpt>
      <trkpt lat="46.7725" lon="5.64735">
        <ele>559.6</ele>
        <time>2018-05-27T09:36:39Z</time>
      </trkpt>
      <trkpt lat="46.77245" lon="5.64748">
        <ele>560</ele>
        <time>2018-05-27T09:36:44Z</time>
      </trkpt>
      <trkpt lat="46.7724" lon="5.64761">
        <ele>560.4</ele>
        <time>2018-05-27T09:36:49Z</time>
      </trkpt>
      <trkpt lat="46.77241" lon="5.64775">
        <ele>560.6</ele>
        <time>2018-05-27T09:36:56Z</time>
      </trkpt>
      <trkpt lat="46.77243" lon="5.64791">
        <ele>560.9</ele>
        <time>2018-05-27T09:37:03Z</time>
      </trkpt>
      <trkpt lat="46.77248" lon="5.64804">
        <ele>561.2</ele>
        <time>2018-05-27T09:37:09Z</time>
      </trkpt>
      <trkpt lat="46.77254" lon="5.64816">
        <ele>561.4</ele>
        <time>2018-05-27T09:37:14Z</time>
      </trkpt>
      <trkpt lat="46.7726" lon="5.64827">
        <ele>561.6</ele>
        <time>2018-05-27T09:37:18Z</time>
      </trkpt>
      <trkpt lat="46.77265" lon="5.6484">
        <ele>561.7</ele>
        <time>2018-05-27T09:37:22Z</time>
      </trkpt>
      <trkpt lat="46.77271" lon="5.64851">
        <ele>561.8</ele>
        <time>2018-05-27T09:37:28Z</time>
      </trkpt>
      <trkpt lat="46.77279" lon="5.64868">
        <ele>561.9</ele>
        <time>2018-05-27T09:37:32Z</time>
      </trkpt>
      <trkpt lat="46.77287" lon="5.64876">
        <ele>561.9</ele>
        <time>2018-05-27T09:37:34Z</time>
      </trkpt>
      <trkpt lat="46.77296" lon="5.64883">
        <ele>561.9</ele>
        <time>2018-05-27T09:37:38Z</time>
      </trkpt>
      <trkpt lat="46.77305" lon="5.64887">
        <ele>561.9</ele>
        <time>2018-05-27T09:37:41Z</time>
      </trkpt>
      <trkpt lat="46.77316" lon="5.64888">
        <ele>561.8</ele>
        <time>2018-05-27T09:37:44Z</time>
      </trkpt>
      <trkpt lat="46.77327" lon="5.64894">
        <ele>561.7</ele>
        <time>2018-05-27T09:37:48Z</time>
      </trkpt>
      <trkpt lat="46.77336" lon="5.64902">
        <ele>561.6</ele>
        <time>2018-05-27T09:37:52Z</time>
      </trkpt>
      <trkpt lat="46.77346" lon="5.64904">
        <ele>561.2</ele>
        <time>2018-05-27T09:37:57Z</time>
      </trkpt>
      <trkpt lat="46.77356" lon="5.64906">
        <ele>561</ele>
        <time>2018-05-27T09:38:00Z</time>
      </trkpt>
      <trkpt lat="46.77374" lon="5.64914">
        <ele>560.6</ele>
        <time>2018-05-27T09:38:04Z</time>
      </trkpt>
      <trkpt lat="46.77385" lon="5.64914">
        <ele>560.3</ele>
        <time>2018-05-27T09:38:06Z</time>
      </trkpt>
      <trkpt lat="46.77397" lon="5.64918">
        <ele>559.8</ele>
        <time>2018-05-27T09:38:08Z</time>
      </trkpt>
      <trkpt lat="46.77409" lon="5.64923">
        <ele>559.2</ele>
        <time>2018-05-27T09:38:10Z</time>
      </trkpt>
      <trkpt lat="46.77419" lon="5.64924">
        <ele>558.5</ele>
        <time>2018-05-27T09:38:12Z</time>
      </trkpt>
      <trkpt lat="46.77433" lon="5.64927">
        <ele>557.1</ele>
        <time>2018-05-27T09:38:15Z</time>
      </trkpt>
      <trkpt lat="46.77444" lon="5.64927">
        <ele>556.2</ele>
        <time>2018-05-27T09:38:17Z</time>
      </trkpt>
      <trkpt lat="46.77456" lon="5.64924">
        <ele>554.5</ele>
        <time>2018-05-27T09:38:20Z</time>
      </trkpt>
      <trkpt lat="46.77467" lon="5.64926">
        <ele>552.6</ele>
        <time>2018-05-27T09:38:23Z</time>
      </trkpt>
      <trkpt lat="46.77476" lon="5.64929">
        <ele>549.9</ele>
        <time>2018-05-27T09:38:28Z</time>
      </trkpt>
      <trkpt lat="46.77484" lon="5.64941">
        <ele>548.6</ele>
        <time>2018-05-27T09:38:31Z</time>
      </trkpt>
      <trkpt lat="46.77488" lon="5.64955">
        <ele>547.5</ele>
        <time>2018-05-27T09:38:34Z</time>
      </trkpt>
      <trkpt lat="46.77496" lon="5.64961">
        <ele>547.1</ele>
        <time>2018-05-27T09:38:35Z</time>
      </trkpt>
      <trkpt lat="46.77499" lon="5.64977">
        <ele>546.2</ele>
        <time>2018-05-27T09:38:38Z</time>
      </trkpt>
      <trkpt lat="46.77495" lon="5.64994">
        <ele>545.2</ele>
        <time>2018-05-27T09:38:42Z</time>
      </trkpt>
      <trkpt lat="46.7749" lon="5.65004">
        <ele>540.4</ele>
        <time>2018-05-27T09:39:59Z</time>
      </trkpt>
      <trkpt lat="46.77488" lon="5.65021">
        <ele>540.4</ele>
        <time>2018-05-27T09:40:03Z</time>
      </trkpt>
      <trkpt lat="46.77485" lon="5.65035">
        <ele>540.5</ele>
        <time>2018-05-27T09:40:06Z</time>
      </trkpt>
      <trkpt lat="46.7748" lon="5.65048">
        <ele>540.5</ele>
        <time>2018-05-27T09:40:09Z</time>
      </trkpt>
      <trkpt lat="46.77476" lon="5.6506">
        <ele>540.5</ele>
        <time>2018-05-27T09:40:12Z</time>
      </trkpt>
      <trkpt lat="46.77472" lon="5.65072">
        <ele>540.6</ele>
        <time>2018-05-27T09:40:15Z</time>
      </trkpt>
      <trkpt lat="46.77466" lon="5.65084">
        <ele>540.6</ele>
        <time>2018-05-27T09:40:18Z</time>
      </trkpt>
      <trkpt lat="46.77461" lon="5.65096">
        <ele>540.7</ele>
        <time>2018-05-27T09:40:21Z</time>
      </trkpt>
      <trkpt lat="46.77455" lon="5.65107">
        <ele>540.9</ele>
        <time>2018-05-27T09:40:24Z</time>
      </trkpt>
      <trkpt lat="46.77449" lon="5.65118">
        <ele>541</ele>
        <time>2018-05-27T09:40:27Z</time>
      </trkpt>
      <trkpt lat="46.77443" lon="5.6513">
        <ele>541.1</ele>
        <time>2018-05-27T09:40:30Z</time>
      </trkpt>
      <trkpt lat="46.77437" lon="5.65146">
        <ele>541.3</ele>
        <time>2018-05-27T09:40:34Z</time>
      </trkpt>
      <trkpt lat="46.77429" lon="5.65158">
        <ele>541.4</ele>
        <time>2018-05-27T09:40:37Z</time>
      </trkpt>
      <trkpt lat="46.77421" lon="5.65171">
        <ele>541.7</ele>
        <time>2018-05-27T09:40:40Z</time>
      </trkpt>
      <trkpt lat="46.77415" lon="5.65185">
        <ele>541.9</ele>
        <time>2018-05-27T09:40:43Z</time>
      </trkpt>
      <trkpt lat="46.77409" lon="5.652">
        <ele>542.1</ele>
        <time>2018-05-27T09:40:46Z</time>
      </trkpt>
      <trkpt lat="46.77403" lon="5.65216">
        <ele>542.2</ele>
        <time>2018-05-27T09:40:49Z</time>
      </trkpt>
      <trkpt lat="46.77398" lon="5.65234">
        <ele>542.3</ele>
        <time>2018-05-27T09:40:52Z</time>
      </trkpt>
      <trkpt lat="46.77394" lon="5.65246">
        <ele>542.4</ele>
        <time>2018-05-27T09:40:54Z</time>
      </trkpt>
      <trkpt lat="46.77391" lon="5.65259">
        <ele>542.5</ele>
        <time>2018-05-27T09:40:56Z</time>
      </trkpt>
      <trkpt lat="46.77388" lon="5.65272">
        <ele>542.5</ele>
        <time>2018-05-27T09:40:58Z</time>
      </trkpt>
      <trkpt lat="46.77384" lon="5.65289">
        <ele>542.6</ele>
        <time>2018-05-27T09:41:01Z</time>
      </trkpt>
      <trkpt lat="46.7738" lon="5.65306">
        <ele>542.6</ele>
        <time>2018-05-27T09:41:04Z</time>
      </trkpt>
      <trkpt lat="46.77376" lon="5.65322">
        <ele>542.6</ele>
        <time>2018-05-27T09:41:07Z</time>
      </trkpt>
      <trkpt lat="46.77373" lon="5.65337">
        <ele>542.6</ele>
        <time>2018-05-27T09:41:10Z</time>
      </trkpt>
      <trkpt lat="46.7737" lon="5.65353">
        <ele>542.6</ele>
        <time>2018-05-27T09:41:13Z</time>
      </trkpt>
      <trkpt lat="46.77367" lon="5.65368">
        <ele>542.7</ele>
        <time>2018-05-27T09:41:16Z</time>
      </trkpt>
      <trkpt lat="46.77364" lon="5.65383">
        <ele>542.7</ele>
        <time>2018-05-27T09:41:19Z</time>
      </trkpt>
      <trkpt lat="46.77361" lon="5.65396">
        <ele>542.7</ele>
        <time>2018-05-27T09:41:22Z</time>
      </trkpt>
      <trkpt lat="46.77358" lon="5.6541">
        <ele>542.8</ele>
        <time>2018-05-27T09:41:25Z</time>
      </trkpt>
      <trkpt lat="46.77354" lon="5.65423">
        <ele>543</ele>
        <time>2018-05-27T09:41:28Z</time>
      </trkpt>
      <trkpt lat="46.77347" lon="5.65435">
        <ele>543.3</ele>
        <time>2018-05-27T09:41:32Z</time>
      </trkpt>
      <trkpt lat="46.77339" lon="5.65443">
        <ele>543.7</ele>
        <time>2018-05-27T09:41:36Z</time>
      </trkpt>
      <trkpt lat="46.77332" lon="5.65452">
        <ele>544.3</ele>
        <time>2018-05-27T09:41:41Z</time>
      </trkpt>
      <trkpt lat="46.77327" lon="5.65464">
        <ele>545.3</ele>
        <time>2018-05-27T09:41:47Z</time>
      </trkpt>
      <trkpt lat="46.77328" lon="5.65477">
        <ele>546.3</ele>
        <time>2018-05-27T09:41:54Z</time>
      </trkpt>
      <trkpt lat="46.77334" lon="5.65489">
        <ele>547.6</ele>
        <time>2018-05-27T09:42:02Z</time>
      </trkpt>
      <trkpt lat="46.7734" lon="5.65499">
        <ele>548.6</ele>
        <time>2018-05-27T09:42:09Z</time>
      </trkpt>
      <trkpt lat="46.77347" lon="5.65509">
        <ele>549.7</ele>
        <time>2018-05-27T09:42:16Z</time>
      </trkpt>
      <trkpt lat="46.77355" lon="5.65519">
        <ele>550.6</ele>
        <time>2018-05-27T09:42:23Z</time>
      </trkpt>
      <trkpt lat="46.77363" lon="5.65529">
        <ele>551.5</ele>
        <time>2018-05-27T09:42:29Z</time>
      </trkpt>
      <trkpt lat="46.77372" lon="5.65536">
        <ele>552.4</ele>
        <time>2018-05-27T09:42:35Z</time>
      </trkpt>
      <trkpt lat="46.7738" lon="5.65544">
        <ele>553.4</ele>
        <time>2018-05-27T09:42:41Z</time>
      </trkpt>
      <trkpt lat="46.77389" lon="5.65555">
        <ele>554</ele>
        <time>2018-05-27T09:42:46Z</time>
      </trkpt>
      <trkpt lat="46.77396" lon="5.65566">
        <ele>554.7</ele>
        <time>2018-05-27T09:42:51Z</time>
      </trkpt>
      <trkpt lat="46.77403" lon="5.65575">
        <ele>555.3</ele>
        <time>2018-05-27T09:42:56Z</time>
      </trkpt>
      <trkpt lat="46.77411" lon="5.65587">
        <ele>555.8</ele>
        <time>2018-05-27T09:43:01Z</time>
      </trkpt>
      <trkpt lat="46.77419" lon="5.65597">
        <ele>556.1</ele>
        <time>2018-05-27T09:43:05Z</time>
      </trkpt>
      <trkpt lat="46.77428" lon="5.65606">
        <ele>556.3</ele>
        <time>2018-05-27T09:43:09Z</time>
      </trkpt>
      <trkpt lat="46.77436" lon="5.65615">
        <ele>556.6</ele>
        <time>2018-05-27T09:43:14Z</time>
      </trkpt>
      <trkpt lat="46.77444" lon="5.65622">
        <ele>556.9</ele>
        <time>2018-05-27T09:43:19Z</time>
      </trkpt>
      <trkpt lat="46.77451" lon="5.65634">
        <ele>557.2</ele>
        <time>2018-05-27T09:43:24Z</time>
      </trkpt>
      <trkpt lat="46.77458" lon="5.65643">
        <ele>557.4</ele>
        <time>2018-05-27T09:43:28Z</time>
      </trkpt>
      <trkpt lat="46.77466" lon="5.6565">
        <ele>557.9</ele>
        <time>2018-05-27T09:43:33Z</time>
      </trkpt>
      <trkpt lat="46.77466" lon="5.65665">
        <ele>558.5</ele>
        <time>2018-05-27T09:43:38Z</time>
      </trkpt>
      <trkpt lat="46.7746" lon="5.65678">
        <ele>559</ele>
        <time>2018-05-27T09:43:42Z</time>
      </trkpt>
      <trkpt lat="46.77459" lon="5.65694">
        <ele>562.9</ele>
        <time>2018-05-27T09:44:18Z</time>
      </trkpt>
      <trkpt lat="46.77462" lon="5.65707">
        <ele>571</ele>
        <time>2018-05-27T09:45:47Z</time>
      </trkpt>
      <trkpt lat="46.77467" lon="5.65718">
        <ele>571.1</ele>
        <time>2018-05-27T09:45:49Z</time>
      </trkpt>
      <trkpt lat="46.77474" lon="5.65733">
        <ele>571.3</ele>
        <time>2018-05-27T09:45:53Z</time>
      </trkpt>
      <trkpt lat="46.77479" lon="5.65745">
        <ele>571.4</ele>
        <time>2018-05-27T09:45:57Z</time>
      </trkpt>
      <trkpt lat="46.77485" lon="5.65757">
        <ele>571.5</ele>
        <time>2018-05-27T09:45:59Z</time>
      </trkpt>
      <trkpt lat="46.77491" lon="5.65771">
        <ele>571.5</ele>
        <time>2018-05-27T09:46:03Z</time>
      </trkpt>
      <trkpt lat="46.77493" lon="5.65787">
        <ele>571.7</ele>
        <time>2018-05-27T09:46:07Z</time>
      </trkpt>
      <trkpt lat="46.77501" lon="5.6581">
        <ele>572.4</ele>
        <time>2018-05-27T09:46:16Z</time>
      </trkpt>
      <trkpt lat="46.77505" lon="5.65823">
        <ele>573.1</ele>
        <time>2018-05-27T09:46:22Z</time>
      </trkpt>
      <trkpt lat="46.77505" lon="5.65837">
        <ele>574</ele>
        <time>2018-05-27T09:46:30Z</time>
      </trkpt>
      <trkpt lat="46.77501" lon="5.6585">
        <ele>575.4</ele>
        <time>2018-05-27T09:46:44Z</time>
      </trkpt>
      <trkpt lat="46.77496" lon="5.65862">
        <ele>576.1</ele>
        <time>2018-05-27T09:46:50Z</time>
      </trkpt>
      <trkpt lat="46.77491" lon="5.65874">
        <ele>576.7</ele>
        <time>2018-05-27T09:46:58Z</time>
      </trkpt>
      <trkpt lat="46.77484" lon="5.65885">
        <ele>577</ele>
        <time>2018-05-27T09:47:03Z</time>
      </trkpt>
      <trkpt lat="46.77477" lon="5.65897">
        <ele>577</ele>
        <time>2018-05-27T09:47:09Z</time>
      </trkpt>
      <trkpt lat="46.77471" lon="5.65906">
        <ele>576.8</ele>
        <time>2018-05-27T09:47:13Z</time>
      </trkpt>
      <trkpt lat="46.77461" lon="5.6592">
        <ele>576.6</ele>
        <time>2018-05-27T09:47:16Z</time>
      </trkpt>
      <trkpt lat="46.77454" lon="5.65927">
        <ele>576.1</ele>
        <time>2018-05-27T09:47:19Z</time>
      </trkpt>
      <trkpt lat="46.77447" lon="5.65941">
        <ele>575.2</ele>
        <time>2018-05-27T09:47:23Z</time>
      </trkpt>
      <trkpt lat="46.7744" lon="5.65953">
        <ele>574.6</ele>
        <time>2018-05-27T09:47:26Z</time>
      </trkpt>
      <trkpt lat="46.77434" lon="5.65965">
        <ele>573.9</ele>
        <time>2018-05-27T09:47:29Z</time>
      </trkpt>
      <trkpt lat="46.77426" lon="5.65978">
        <ele>573.2</ele>
        <time>2018-05-27T09:47:32Z</time>
      </trkpt>
      <trkpt lat="46.77419" lon="5.65987">
        <ele>572.5</ele>
        <time>2018-05-27T09:47:35Z</time>
      </trkpt>
      <trkpt lat="46.77419" lon="5.66001">
        <ele>569.5</ele>
        <time>2018-05-27T09:48:02Z</time>
      </trkpt>
      <trkpt lat="46.77423" lon="5.66017">
        <ele>569.4</ele>
        <time>2018-05-27T09:48:06Z</time>
      </trkpt>
      <trkpt lat="46.77429" lon="5.66029">
        <ele>569.3</ele>
        <time>2018-05-27T09:48:10Z</time>
      </trkpt>
      <trkpt lat="46.77437" lon="5.66042">
        <ele>569.2</ele>
        <time>2018-05-27T09:48:13Z</time>
      </trkpt>
      <trkpt lat="46.77444" lon="5.66057">
        <ele>569.1</ele>
        <time>2018-05-27T09:48:16Z</time>
      </trkpt>
      <trkpt lat="46.7745" lon="5.6607">
        <ele>569</ele>
        <time>2018-05-27T09:48:19Z</time>
      </trkpt>
      <trkpt lat="46.77457" lon="5.6608">
        <ele>568.9</ele>
        <time>2018-05-27T09:48:22Z</time>
      </trkpt>
      <trkpt lat="46.77463" lon="5.66094">
        <ele>568.9</ele>
        <time>2018-05-27T09:48:25Z</time>
      </trkpt>
      <trkpt lat="46.77471" lon="5.66102">
        <ele>568.8</ele>
        <time>2018-05-27T09:48:28Z</time>
      </trkpt>
      <trkpt lat="46.77478" lon="5.66111">
        <ele>568.7</ele>
        <time>2018-05-27T09:48:31Z</time>
      </trkpt>
      <trkpt lat="46.77485" lon="5.66119">
        <ele>568.8</ele>
        <time>2018-05-27T09:48:35Z</time>
      </trkpt>
      <trkpt lat="46.77493" lon="5.66129">
        <ele>568.9</ele>
        <time>2018-05-27T09:48:39Z</time>
      </trkpt>
      <trkpt lat="46.77502" lon="5.6614">
        <ele>569.2</ele>
        <time>2018-05-27T09:48:44Z</time>
      </trkpt>
      <trkpt lat="46.77508" lon="5.66151">
        <ele>569.4</ele>
        <time>2018-05-27T09:48:48Z</time>
      </trkpt>
      <trkpt lat="46.77516" lon="5.66159">
        <ele>569.5</ele>
        <time>2018-05-27T09:48:50Z</time>
      </trkpt>
      <trkpt lat="46.77524" lon="5.66171">
        <ele>569.7</ele>
        <time>2018-05-27T09:48:54Z</time>
      </trkpt>
      <trkpt lat="46.77532" lon="5.66183">
        <ele>569.9</ele>
        <time>2018-05-27T09:48:57Z</time>
      </trkpt>
      <trkpt lat="46.77539" lon="5.66194">
        <ele>570</ele>
        <time>2018-05-27T09:48:59Z</time>
      </trkpt>
      <trkpt lat="46.77542" lon="5.6621">
        <ele>570.1</ele>
        <time>2018-05-27T09:49:02Z</time>
      </trkpt>
      <trkpt lat="46.7755" lon="5.66223">
        <ele>570.2</ele>
        <time>2018-05-27T09:49:05Z</time>
      </trkpt>
      <trkpt lat="46.77558" lon="5.66233">
        <ele>570.3</ele>
        <time>2018-05-27T09:49:09Z</time>
      </trkpt>
      <trkpt lat="46.77566" lon="5.66242">
        <ele>570.4</ele>
        <time>2018-05-27T09:49:13Z</time>
      </trkpt>
      <trkpt lat="46.77573" lon="5.66251">
        <ele>570.5</ele>
        <time>2018-05-27T09:49:16Z</time>
      </trkpt>
      <trkpt lat="46.77581" lon="5.66263">
        <ele>570.5</ele>
        <time>2018-05-27T09:49:20Z</time>
      </trkpt>
      <trkpt lat="46.77589" lon="5.66272">
        <ele>570.6</ele>
        <time>2018-05-27T09:49:25Z</time>
      </trkpt>
      <trkpt lat="46.77596" lon="5.66282">
        <ele>570.7</ele>
        <time>2018-05-27T09:49:29Z</time>
      </trkpt>
      <trkpt lat="46.77604" lon="5.66293">
        <ele>570.9</ele>
        <time>2018-05-27T09:49:33Z</time>
      </trkpt>
      <trkpt lat="46.77612" lon="5.663">
        <ele>571.1</ele>
        <time>2018-05-27T09:49:36Z</time>
      </trkpt>
      <trkpt lat="46.7762" lon="5.66312">
        <ele>571.4</ele>
        <time>2018-05-27T09:49:40Z</time>
      </trkpt>
      <trkpt lat="46.77628" lon="5.66322">
        <ele>571.7</ele>
        <time>2018-05-27T09:49:44Z</time>
      </trkpt>
      <trkpt lat="46.77637" lon="5.66328">
        <ele>572</ele>
        <time>2018-05-27T09:49:48Z</time>
      </trkpt>
      <trkpt lat="46.77645" lon="5.66338">
        <ele>572.4</ele>
        <time>2018-05-27T09:49:56Z</time>
      </trkpt>
      <trkpt lat="46.7765" lon="5.66352">
        <ele>572.5</ele>
        <time>2018-05-27T09:50:00Z</time>
      </trkpt>
      <trkpt lat="46.77657" lon="5.6636">
        <ele>572.5</ele>
        <time>2018-05-27T09:50:06Z</time>
      </trkpt>
      <trkpt lat="46.77664" lon="5.66371">
        <ele>572.3</ele>
        <time>2018-05-27T09:50:12Z</time>
      </trkpt>
      <trkpt lat="46.77671" lon="5.6638">
        <ele>572.1</ele>
        <time>2018-05-27T09:50:18Z</time>
      </trkpt>
      <trkpt lat="46.77679" lon="5.66389">
        <ele>572</ele>
        <time>2018-05-27T09:50:23Z</time>
      </trkpt>
      <trkpt lat="46.77685" lon="5.66399">
        <ele>571.9</ele>
        <time>2018-05-27T09:50:29Z</time>
      </trkpt>
      <trkpt lat="46.77697" lon="5.66404">
        <ele>571.8</ele>
        <time>2018-05-27T09:50:33Z</time>
      </trkpt>
      <trkpt lat="46.77703" lon="5.66415">
        <ele>571.8</ele>
        <time>2018-05-27T09:50:37Z</time>
      </trkpt>
      <trkpt lat="46.77709" lon="5.66426">
        <ele>571.7</ele>
        <time>2018-05-27T09:50:43Z</time>
      </trkpt>
      <trkpt lat="46.77716" lon="5.66437">
        <ele>571.6</ele>
        <time>2018-05-27T09:50:50Z</time>
      </trkpt>
      <trkpt lat="46.77725" lon="5.66446">
        <ele>571.5</ele>
        <time>2018-05-27T09:50:56Z</time>
      </trkpt>
      <trkpt lat="46.77732" lon="5.66458">
        <ele>571.6</ele>
        <time>2018-05-27T09:51:01Z</time>
      </trkpt>
      <trkpt lat="46.77738" lon="5.66468">
        <ele>571.7</ele>
        <time>2018-05-27T09:51:04Z</time>
      </trkpt>
      <trkpt lat="46.77747" lon="5.66477">
        <ele>571.8</ele>
        <time>2018-05-27T09:51:07Z</time>
      </trkpt>
      <trkpt lat="46.77753" lon="5.66487">
        <ele>571.9</ele>
        <time>2018-05-27T09:51:12Z</time>
      </trkpt>
      <trkpt lat="46.77758" lon="5.66498">
        <ele>572.1</ele>
        <time>2018-05-27T09:51:19Z</time>
      </trkpt>
      <trkpt lat="46.77765" lon="5.66506">
        <ele>572.3</ele>
        <time>2018-05-27T09:51:26Z</time>
      </trkpt>
      <trkpt lat="46.77773" lon="5.66514">
        <ele>572.5</ele>
        <time>2018-05-27T09:51:33Z</time>
      </trkpt>
      <trkpt lat="46.77782" lon="5.66519">
        <ele>572.6</ele>
        <time>2018-05-27T09:51:37Z</time>
      </trkpt>
      <trkpt lat="46.7779" lon="5.66528">
        <ele>572.8</ele>
        <time>2018-05-27T09:51:40Z</time>
      </trkpt>
      <trkpt lat="46.778" lon="5.66535">
        <ele>572.9</ele>
        <time>2018-05-27T09:51:43Z</time>
      </trkpt>
      <trkpt lat="46.77808" lon="5.66541">
        <ele>573.1</ele>
        <time>2018-05-27T09:51:46Z</time>
      </trkpt>
      <trkpt lat="46.77816" lon="5.66552">
        <ele>573.4</ele>
        <time>2018-05-27T09:51:51Z</time>
      </trkpt>
      <trkpt lat="46.77821" lon="5.66565">
        <ele>573.7</ele>
        <time>2018-05-27T09:51:56Z</time>
      </trkpt>
      <trkpt lat="46.77824" lon="5.66578">
        <ele>573.9</ele>
        <time>2018-05-27T09:52:01Z</time>
      </trkpt>
      <trkpt lat="46.77825" lon="5.66592">
        <ele>574.1</ele>
        <time>2018-05-27T09:52:06Z</time>
      </trkpt>
      <trkpt lat="46.77829" lon="5.66604">
        <ele>574.2</ele>
        <time>2018-05-27T09:52:10Z</time>
      </trkpt>
      <trkpt lat="46.77836" lon="5.66616">
        <ele>574.3</ele>
        <time>2018-05-27T09:52:14Z</time>
      </trkpt>
      <trkpt lat="46.77842" lon="5.66627">
        <ele>574.4</ele>
        <time>2018-05-27T09:52:18Z</time>
      </trkpt>
      <trkpt lat="46.77848" lon="5.66637">
        <ele>574.4</ele>
        <time>2018-05-27T09:52:22Z</time>
      </trkpt>
      <trkpt lat="46.77854" lon="5.66651">
        <ele>574.5</ele>
        <time>2018-05-27T09:52:28Z</time>
      </trkpt>
      <trkpt lat="46.77859" lon="5.66666">
        <ele>574.6</ele>
        <time>2018-05-27T09:52:32Z</time>
      </trkpt>
      <trkpt lat="46.77865" lon="5.66681">
        <ele>574.7</ele>
        <time>2018-05-27T09:52:35Z</time>
      </trkpt>
      <trkpt lat="46.77871" lon="5.66693">
        <ele>574.8</ele>
        <time>2018-05-27T09:52:39Z</time>
      </trkpt>
      <trkpt lat="46.77875" lon="5.66709">
        <ele>574.8</ele>
        <time>2018-05-27T09:52:43Z</time>
      </trkpt>
      <trkpt lat="46.77876" lon="5.66723">
        <ele>574.8</ele>
        <time>2018-05-27T09:52:46Z</time>
      </trkpt>
      <trkpt lat="46.77879" lon="5.66739">
        <ele>574.8</ele>
        <time>2018-05-27T09:52:50Z</time>
      </trkpt>
      <trkpt lat="46.77881" lon="5.66753">
        <ele>574.6</ele>
        <time>2018-05-27T09:52:53Z</time>
      </trkpt>
      <trkpt lat="46.77885" lon="5.6677">
        <ele>574.2</ele>
        <time>2018-05-27T09:52:56Z</time>
      </trkpt>
      <trkpt lat="46.77891" lon="5.66783">
        <ele>573.6</ele>
        <time>2018-05-27T09:52:59Z</time>
      </trkpt>
      <trkpt lat="46.77899" lon="5.6679">
        <ele>573.1</ele>
        <time>2018-05-27T09:53:02Z</time>
      </trkpt>
      <trkpt lat="46.77906" lon="5.66799">
        <ele>572.5</ele>
        <time>2018-05-27T09:53:05Z</time>
      </trkpt>
      <trkpt lat="46.77912" lon="5.66812">
        <ele>571.7</ele>
        <time>2018-05-27T09:53:08Z</time>
      </trkpt>
      <trkpt lat="46.77918" lon="5.66827">
        <ele>571</ele>
        <time>2018-05-27T09:53:11Z</time>
      </trkpt>
      <trkpt lat="46.77923" lon="5.66841">
        <ele>570.4</ele>
        <time>2018-05-27T09:53:13Z</time>
      </trkpt>
      <trkpt lat="46.77926" lon="5.66854">
        <ele>570</ele>
        <time>2018-05-27T09:53:15Z</time>
      </trkpt>
      <trkpt lat="46.77929" lon="5.66868">
        <ele>569.5</ele>
        <time>2018-05-27T09:53:17Z</time>
      </trkpt>
      <trkpt lat="46.77932" lon="5.66882">
        <ele>568.7</ele>
        <time>2018-05-27T09:53:20Z</time>
      </trkpt>
      <trkpt lat="46.77935" lon="5.66897">
        <ele>567.8</ele>
        <time>2018-05-27T09:53:24Z</time>
      </trkpt>
      <trkpt lat="46.77937" lon="5.66912">
        <ele>567.2</ele>
        <time>2018-05-27T09:53:28Z</time>
      </trkpt>
      <trkpt lat="46.77939" lon="5.66927">
        <ele>566.8</ele>
        <time>2018-05-27T09:53:31Z</time>
      </trkpt>
      <trkpt lat="46.77941" lon="5.66942">
        <ele>566.5</ele>
        <time>2018-05-27T09:53:34Z</time>
      </trkpt>
      <trkpt lat="46.77944" lon="5.6696">
        <ele>566.2</ele>
        <time>2018-05-27T09:53:37Z</time>
      </trkpt>
      <trkpt lat="46.77948" lon="5.66975">
        <ele>566.1</ele>
        <time>2018-05-27T09:53:39Z</time>
      </trkpt>
      <trkpt lat="46.77951" lon="5.66991">
        <ele>566</ele>
        <time>2018-05-27T09:53:41Z</time>
      </trkpt>
      <trkpt lat="46.77951" lon="5.67005">
        <ele>565.8</ele>
        <time>2018-05-27T09:53:43Z</time>
      </trkpt>
      <trkpt lat="46.77953" lon="5.6702">
        <ele>565.8</ele>
        <time>2018-05-27T09:53:46Z</time>
      </trkpt>
      <trkpt lat="46.77955" lon="5.67036">
        <ele>565.8</ele>
        <time>2018-05-27T09:53:50Z</time>
      </trkpt>
      <trkpt lat="46.77956" lon="5.67055">
        <ele>565.9</ele>
        <time>2018-05-27T09:53:54Z</time>
      </trkpt>
      <trkpt lat="46.77954" lon="5.6707">
        <ele>566.1</ele>
        <time>2018-05-27T09:53:58Z</time>
      </trkpt>
      <trkpt lat="46.77953" lon="5.67083">
        <ele>566.2</ele>
        <time>2018-05-27T09:54:02Z</time>
      </trkpt>
      <trkpt lat="46.77952" lon="5.67099">
        <ele>566.4</ele>
        <time>2018-05-27T09:54:06Z</time>
      </trkpt>
      <trkpt lat="46.77951" lon="5.67113">
        <ele>566.7</ele>
        <time>2018-05-27T09:54:10Z</time>
      </trkpt>
      <trkpt lat="46.77951" lon="5.67129">
        <ele>567</ele>
        <time>2018-05-27T09:54:13Z</time>
      </trkpt>
      <trkpt lat="46.7795" lon="5.67142">
        <ele>567.2</ele>
        <time>2018-05-27T09:54:17Z</time>
      </trkpt>
      <trkpt lat="46.7795" lon="5.67157">
        <ele>567.5</ele>
        <time>2018-05-27T09:54:21Z</time>
      </trkpt>
      <trkpt lat="46.7795" lon="5.67172">
        <ele>567.8</ele>
        <time>2018-05-27T09:54:26Z</time>
      </trkpt>
      <trkpt lat="46.7795" lon="5.67187">
        <ele>568.2</ele>
        <time>2018-05-27T09:54:31Z</time>
      </trkpt>
      <trkpt lat="46.77949" lon="5.67201">
        <ele>568.5</ele>
        <time>2018-05-27T09:54:35Z</time>
      </trkpt>
      <trkpt lat="46.77949" lon="5.67215">
        <ele>568.9</ele>
        <time>2018-05-27T09:54:40Z</time>
      </trkpt>
      <trkpt lat="46.7795" lon="5.67232">
        <ele>569.1</ele>
        <time>2018-05-27T09:54:43Z</time>
      </trkpt>
      <trkpt lat="46.77947" lon="5.67247">
        <ele>569.6</ele>
        <time>2018-05-27T09:54:48Z</time>
      </trkpt>
      <trkpt lat="46.77949" lon="5.6726">
        <ele>570.2</ele>
        <time>2018-05-27T09:54:54Z</time>
      </trkpt>
      <trkpt lat="46.77957" lon="5.67268">
        <ele>570.6</ele>
        <time>2018-05-27T09:54:58Z</time>
      </trkpt>
      <trkpt lat="46.77964" lon="5.67277">
        <ele>570.9</ele>
        <time>2018-05-27T09:55:02Z</time>
      </trkpt>
      <trkpt lat="46.77973" lon="5.67284">
        <ele>571</ele>
        <time>2018-05-27T09:55:05Z</time>
      </trkpt>
      <trkpt lat="46.77983" lon="5.67291">
        <ele>571.2</ele>
        <time>2018-05-27T09:55:08Z</time>
      </trkpt>
      <trkpt lat="46.77993" lon="5.67296">
        <ele>571.3</ele>
        <time>2018-05-27T09:55:12Z</time>
      </trkpt>
      <trkpt lat="46.78002" lon="5.67303">
        <ele>571.5</ele>
        <time>2018-05-27T09:55:15Z</time>
      </trkpt>
      <trkpt lat="46.78011" lon="5.67309">
        <ele>571.8</ele>
        <time>2018-05-27T09:55:19Z</time>
      </trkpt>
      <trkpt lat="46.78023" lon="5.67312">
        <ele>572.2</ele>
        <time>2018-05-27T09:55:24Z</time>
      </trkpt>
      <trkpt lat="46.78033" lon="5.67314">
        <ele>572.5</ele>
        <time>2018-05-27T09:55:28Z</time>
      </trkpt>
      <trkpt lat="46.78043" lon="5.6732">
        <ele>573</ele>
        <time>2018-05-27T09:55:33Z</time>
      </trkpt>
      <trkpt lat="46.78052" lon="5.67327">
        <ele>573.4</ele>
        <time>2018-05-27T09:55:38Z</time>
      </trkpt>
      <trkpt lat="46.78062" lon="5.67335">
        <ele>573.9</ele>
        <time>2018-05-27T09:55:44Z</time>
      </trkpt>
      <trkpt lat="46.78071" lon="5.6734">
        <ele>574.1</ele>
        <time>2018-05-27T09:55:47Z</time>
      </trkpt>
      <trkpt lat="46.7808" lon="5.67347">
        <ele>574.5</ele>
        <time>2018-05-27T09:55:51Z</time>
      </trkpt>
      <trkpt lat="46.78089" lon="5.67356">
        <ele>574.7</ele>
        <time>2018-05-27T09:55:55Z</time>
      </trkpt>
      <trkpt lat="46.781" lon="5.67362">
        <ele>574.9</ele>
        <time>2018-05-27T09:55:59Z</time>
      </trkpt>
      <trkpt lat="46.78109" lon="5.6737">
        <ele>575</ele>
        <time>2018-05-27T09:56:02Z</time>
      </trkpt>
      <trkpt lat="46.78122" lon="5.67377">
        <ele>575</ele>
        <time>2018-05-27T09:56:05Z</time>
      </trkpt>
      <trkpt lat="46.78132" lon="5.67383">
        <ele>574.9</ele>
        <time>2018-05-27T09:56:07Z</time>
      </trkpt>
      <trkpt lat="46.78139" lon="5.67392">
        <ele>574.8</ele>
        <time>2018-05-27T09:56:09Z</time>
      </trkpt>
      <trkpt lat="46.78145" lon="5.67404">
        <ele>574.6</ele>
        <time>2018-05-27T09:56:11Z</time>
      </trkpt>
      <trkpt lat="46.78151" lon="5.67414">
        <ele>574.4</ele>
        <time>2018-05-27T09:56:13Z</time>
      </trkpt>
      <trkpt lat="46.78157" lon="5.67424">
        <ele>574.2</ele>
        <time>2018-05-27T09:56:15Z</time>
      </trkpt>
      <trkpt lat="46.78163" lon="5.67437">
        <ele>574</ele>
        <time>2018-05-27T09:56:17Z</time>
      </trkpt>
      <trkpt lat="46.7817" lon="5.67445">
        <ele>573.9</ele>
        <time>2018-05-27T09:56:19Z</time>
      </trkpt>
      <trkpt lat="46.7818" lon="5.67459">
        <ele>573.7</ele>
        <time>2018-05-27T09:56:22Z</time>
      </trkpt>
      <trkpt lat="46.78187" lon="5.67469">
        <ele>573.6</ele>
        <time>2018-05-27T09:56:24Z</time>
      </trkpt>
      <trkpt lat="46.78196" lon="5.67481">
        <ele>573.4</ele>
        <time>2018-05-27T09:56:27Z</time>
      </trkpt>
      <trkpt lat="46.78206" lon="5.67491">
        <ele>573.3</ele>
        <time>2018-05-27T09:56:30Z</time>
      </trkpt>
      <trkpt lat="46.78213" lon="5.67499">
        <ele>573.2</ele>
        <time>2018-05-27T09:56:32Z</time>
      </trkpt>
      <trkpt lat="46.78224" lon="5.67512">
        <ele>573.1</ele>
        <time>2018-05-27T09:56:35Z</time>
      </trkpt>
      <trkpt lat="46.78233" lon="5.67524">
        <ele>573</ele>
        <time>2018-05-27T09:56:38Z</time>
      </trkpt>
      <trkpt lat="46.78242" lon="5.67538">
        <ele>572.8</ele>
        <time>2018-05-27T09:56:41Z</time>
      </trkpt>
      <trkpt lat="46.78251" lon="5.67551">
        <ele>572.6</ele>
        <time>2018-05-27T09:56:44Z</time>
      </trkpt>
      <trkpt lat="46.78257" lon="5.67562">
        <ele>572.4</ele>
        <time>2018-05-27T09:56:46Z</time>
      </trkpt>
      <trkpt lat="46.78265" lon="5.67574">
        <ele>572.1</ele>
        <time>2018-05-27T09:56:48Z</time>
      </trkpt>
      <trkpt lat="46.78273" lon="5.67585">
        <ele>571.8</ele>
        <time>2018-05-27T09:56:50Z</time>
      </trkpt>
      <trkpt lat="46.7828" lon="5.67597">
        <ele>571.4</ele>
        <time>2018-05-27T09:56:53Z</time>
      </trkpt>
      <trkpt lat="46.7829" lon="5.67608">
        <ele>571.1</ele>
        <time>2018-05-27T09:56:56Z</time>
      </trkpt>
      <trkpt lat="46.78299" lon="5.67618">
        <ele>570.8</ele>
        <time>2018-05-27T09:56:59Z</time>
      </trkpt>
      <trkpt lat="46.78308" lon="5.67625">
        <ele>570.5</ele>
        <time>2018-05-27T09:57:02Z</time>
      </trkpt>
      <trkpt lat="46.78317" lon="5.67631">
        <ele>570.3</ele>
        <time>2018-05-27T09:57:05Z</time>
      </trkpt>
      <trkpt lat="46.7832" lon="5.67643">
        <ele>570.1</ele>
        <time>2018-05-27T09:57:08Z</time>
      </trkpt>
      <trkpt lat="46.78319" lon="5.67659">
        <ele>570</ele>
        <time>2018-05-27T09:57:11Z</time>
      </trkpt>
      <trkpt lat="46.78319" lon="5.67673">
        <ele>569.8</ele>
        <time>2018-05-27T09:57:14Z</time>
      </trkpt>
      <trkpt lat="46.78319" lon="5.6769">
        <ele>569.7</ele>
        <time>2018-05-27T09:57:18Z</time>
      </trkpt>
      <trkpt lat="46.78316" lon="5.67708">
        <ele>569.6</ele>
        <time>2018-05-27T09:57:21Z</time>
      </trkpt>
      <trkpt lat="46.78311" lon="5.67719">
        <ele>569.6</ele>
        <time>2018-05-27T09:57:24Z</time>
      </trkpt>
      <trkpt lat="46.78306" lon="5.67731">
        <ele>569.7</ele>
        <time>2018-05-27T09:57:30Z</time>
      </trkpt>
      <trkpt lat="46.783" lon="5.67741">
        <ele>569.9</ele>
        <time>2018-05-27T09:57:35Z</time>
      </trkpt>
      <trkpt lat="46.78291" lon="5.67752">
        <ele>570.1</ele>
        <time>2018-05-27T09:57:39Z</time>
      </trkpt>
      <trkpt lat="46.78282" lon="5.67762">
        <ele>570.2</ele>
        <time>2018-05-27T09:57:43Z</time>
      </trkpt>
      <trkpt lat="46.78274" lon="5.67772">
        <ele>570.3</ele>
        <time>2018-05-27T09:57:46Z</time>
      </trkpt>
      <trkpt lat="46.78265" lon="5.67786">
        <ele>570.4</ele>
        <time>2018-05-27T09:57:49Z</time>
      </trkpt>
      <trkpt lat="46.78255" lon="5.67795">
        <ele>570.4</ele>
        <time>2018-05-27T09:57:51Z</time>
      </trkpt>
      <trkpt lat="46.78246" lon="5.67806">
        <ele>570.4</ele>
        <time>2018-05-27T09:57:53Z</time>
      </trkpt>
      <trkpt lat="46.78237" lon="5.6782">
        <ele>570.2</ele>
        <time>2018-05-27T09:57:55Z</time>
      </trkpt>
      <trkpt lat="46.78229" lon="5.67836">
        <ele>570</ele>
        <time>2018-05-27T09:57:57Z</time>
      </trkpt>
      <trkpt lat="46.78219" lon="5.6785">
        <ele>569.7</ele>
        <time>2018-05-27T09:57:59Z</time>
      </trkpt>
      <trkpt lat="46.78211" lon="5.67866">
        <ele>569.4</ele>
        <time>2018-05-27T09:58:01Z</time>
      </trkpt>
      <trkpt lat="46.782" lon="5.67882">
        <ele>569.1</ele>
        <time>2018-05-27T09:58:03Z</time>
      </trkpt>
      <trkpt lat="46.7819" lon="5.67896">
        <ele>568.7</ele>
        <time>2018-05-27T09:58:05Z</time>
      </trkpt>
      <trkpt lat="46.78179" lon="5.67909">
        <ele>568.3</ele>
        <time>2018-05-27T09:58:07Z</time>
      </trkpt>
      <trkpt lat="46.7817" lon="5.67921">
        <ele>567.8</ele>
        <time>2018-05-27T09:58:09Z</time>
      </trkpt>
      <trkpt lat="46.78162" lon="5.67933">
        <ele>567.4</ele>
        <time>2018-05-27T09:58:11Z</time>
      </trkpt>
      <trkpt lat="46.78154" lon="5.67943">
        <ele>567.1</ele>
        <time>2018-05-27T09:58:13Z</time>
      </trkpt>
      <trkpt lat="46.78147" lon="5.67953">
        <ele>566.8</ele>
        <time>2018-05-27T09:58:15Z</time>
      </trkpt>
      <trkpt lat="46.7814" lon="5.67963">
        <ele>566.5</ele>
        <time>2018-05-27T09:58:17Z</time>
      </trkpt>
      <trkpt lat="46.78134" lon="5.67974">
        <ele>566.2</ele>
        <time>2018-05-27T09:58:19Z</time>
      </trkpt>
      <trkpt lat="46.78126" lon="5.67985">
        <ele>566</ele>
        <time>2018-05-27T09:58:21Z</time>
      </trkpt>
      <trkpt lat="46.78118" lon="5.67996">
        <ele>565.7</ele>
        <time>2018-05-27T09:58:23Z</time>
      </trkpt>
      <trkpt lat="46.78112" lon="5.68007">
        <ele>565.5</ele>
        <time>2018-05-27T09:58:25Z</time>
      </trkpt>
      <trkpt lat="46.78106" lon="5.68018">
        <ele>565.2</ele>
        <time>2018-05-27T09:58:27Z</time>
      </trkpt>
      <trkpt lat="46.781" lon="5.68028">
        <ele>564.9</ele>
        <time>2018-05-27T09:58:29Z</time>
      </trkpt>
      <trkpt lat="46.78093" lon="5.68042">
        <ele>564.6</ele>
        <time>2018-05-27T09:58:32Z</time>
      </trkpt>
      <trkpt lat="46.78086" lon="5.68053">
        <ele>564.2</ele>
        <time>2018-05-27T09:58:36Z</time>
      </trkpt>
      <trkpt lat="46.78094" lon="5.68061">
        <ele>560.6</ele>
        <time>2018-05-27T10:00:19Z</time>
      </trkpt>
      <trkpt lat="46.78104" lon="5.68067">
        <ele>560.7</ele>
        <time>2018-05-27T10:00:25Z</time>
      </trkpt>
      <trkpt lat="46.78112" lon="5.68072">
        <ele>560.8</ele>
        <time>2018-05-27T10:00:29Z</time>
      </trkpt>
      <trkpt lat="46.78123" lon="5.68078">
        <ele>560.8</ele>
        <time>2018-05-27T10:00:33Z</time>
      </trkpt>
      <trkpt lat="46.78134" lon="5.68087">
        <ele>560.9</ele>
        <time>2018-05-27T10:00:37Z</time>
      </trkpt>
      <trkpt lat="46.78144" lon="5.68092">
        <ele>561</ele>
        <time>2018-05-27T10:00:41Z</time>
      </trkpt>
      <trkpt lat="46.78155" lon="5.68097">
        <ele>561.1</ele>
        <time>2018-05-27T10:00:45Z</time>
      </trkpt>
      <trkpt lat="46.78166" lon="5.68101">
        <ele>561.2</ele>
        <time>2018-05-27T10:00:49Z</time>
      </trkpt>
      <trkpt lat="46.78176" lon="5.68106">
        <ele>561.3</ele>
        <time>2018-05-27T10:00:53Z</time>
      </trkpt>
      <trkpt lat="46.78187" lon="5.68108">
        <ele>561.4</ele>
        <time>2018-05-27T10:00:57Z</time>
      </trkpt>
      <trkpt lat="46.78197" lon="5.68111">
        <ele>561.5</ele>
        <time>2018-05-27T10:01:02Z</time>
      </trkpt>
      <trkpt lat="46.78208" lon="5.68115">
        <ele>561.6</ele>
        <time>2018-05-27T10:01:06Z</time>
      </trkpt>
      <trkpt lat="46.78218" lon="5.68118">
        <ele>561.7</ele>
        <time>2018-05-27T10:01:09Z</time>
      </trkpt>
      <trkpt lat="46.78227" lon="5.68124">
        <ele>561.7</ele>
        <time>2018-05-27T10:01:12Z</time>
      </trkpt>
      <trkpt lat="46.78237" lon="5.68131">
        <ele>561.8</ele>
        <time>2018-05-27T10:01:16Z</time>
      </trkpt>
      <trkpt lat="46.78246" lon="5.68132">
        <ele>561.8</ele>
        <time>2018-05-27T10:01:20Z</time>
      </trkpt>
      <trkpt lat="46.78256" lon="5.68134">
        <ele>561.8</ele>
        <time>2018-05-27T10:01:23Z</time>
      </trkpt>
      <trkpt lat="46.78267" lon="5.68139">
        <ele>561.8</ele>
        <time>2018-05-27T10:01:26Z</time>
      </trkpt>
      <trkpt lat="46.78275" lon="5.68142">
        <ele>561.8</ele>
        <time>2018-05-27T10:01:28Z</time>
      </trkpt>
      <trkpt lat="46.78288" lon="5.68146">
        <ele>561.8</ele>
        <time>2018-05-27T10:01:31Z</time>
      </trkpt>
      <trkpt lat="46.78297" lon="5.68151">
        <ele>561.8</ele>
        <time>2018-05-27T10:01:34Z</time>
      </trkpt>
      <trkpt lat="46.78305" lon="5.68158">
        <ele>561.7</ele>
        <time>2018-05-27T10:01:38Z</time>
      </trkpt>
      <trkpt lat="46.78316" lon="5.68171">
        <ele>561.7</ele>
        <time>2018-05-27T10:01:41Z</time>
      </trkpt>
      <trkpt lat="46.78326" lon="5.68179">
        <ele>561.7</ele>
        <time>2018-05-27T10:01:44Z</time>
      </trkpt>
      <trkpt lat="46.78334" lon="5.68188">
        <ele>561.8</ele>
        <time>2018-05-27T10:01:47Z</time>
      </trkpt>
      <trkpt lat="46.78341" lon="5.68196">
        <ele>561.9</ele>
        <time>2018-05-27T10:01:50Z</time>
      </trkpt>
      <trkpt lat="46.78351" lon="5.68204">
        <ele>562.1</ele>
        <time>2018-05-27T10:01:54Z</time>
      </trkpt>
      <trkpt lat="46.78359" lon="5.6821">
        <ele>562.3</ele>
        <time>2018-05-27T10:01:58Z</time>
      </trkpt>
      <trkpt lat="46.78368" lon="5.68216">
        <ele>562.4</ele>
        <time>2018-05-27T10:02:02Z</time>
      </trkpt>
      <trkpt lat="46.78375" lon="5.68225">
        <ele>562.5</ele>
        <time>2018-05-27T10:02:08Z</time>
      </trkpt>
      <trkpt lat="46.78384" lon="5.68232">
        <ele>562.6</ele>
        <time>2018-05-27T10:02:13Z</time>
      </trkpt>
      <trkpt lat="46.78394" lon="5.68231">
        <ele>562.6</ele>
        <time>2018-05-27T10:02:18Z</time>
      </trkpt>
      <trkpt lat="46.78405" lon="5.68231">
        <ele>562.6</ele>
        <time>2018-05-27T10:02:23Z</time>
      </trkpt>
      <trkpt lat="46.78417" lon="5.68233">
        <ele>562.6</ele>
        <time>2018-05-27T10:02:25Z</time>
      </trkpt>
      <trkpt lat="46.78429" lon="5.68238">
        <ele>562.6</ele>
        <time>2018-05-27T10:02:28Z</time>
      </trkpt>
      <trkpt lat="46.78439" lon="5.68241">
        <ele>562.8</ele>
        <time>2018-05-27T10:02:32Z</time>
      </trkpt>
      <trkpt lat="46.78446" lon="5.68255">
        <ele>563</ele>
        <time>2018-05-27T10:02:37Z</time>
      </trkpt>
      <trkpt lat="46.78452" lon="5.68267">
        <ele>563.1</ele>
        <time>2018-05-27T10:02:41Z</time>
      </trkpt>
      <trkpt lat="46.78458" lon="5.6828">
        <ele>563.3</ele>
        <time>2018-05-27T10:02:45Z</time>
      </trkpt>
      <trkpt lat="46.78464" lon="5.68291">
        <ele>563.5</ele>
        <time>2018-05-27T10:02:49Z</time>
      </trkpt>
      <trkpt lat="46.78473" lon="5.68301">
        <ele>563.7</ele>
        <time>2018-05-27T10:02:53Z</time>
      </trkpt>
      <trkpt lat="46.7848" lon="5.68315">
        <ele>563.8</ele>
        <time>2018-05-27T10:02:56Z</time>
      </trkpt>
      <trkpt lat="46.78489" lon="5.68328">
        <ele>563.8</ele>
        <time>2018-05-27T10:02:59Z</time>
      </trkpt>
      <trkpt lat="46.78501" lon="5.68339">
        <ele>563.9</ele>
        <time>2018-05-27T10:03:02Z</time>
      </trkpt>
      <trkpt lat="46.78508" lon="5.68351">
        <ele>564</ele>
        <time>2018-05-27T10:03:05Z</time>
      </trkpt>
      <trkpt lat="46.78515" lon="5.68364">
        <ele>564.1</ele>
        <time>2018-05-27T10:03:08Z</time>
      </trkpt>
      <trkpt lat="46.78524" lon="5.68375">
        <ele>564.3</ele>
        <time>2018-05-27T10:03:12Z</time>
      </trkpt>
      <trkpt lat="46.78532" lon="5.68383">
        <ele>564.5</ele>
        <time>2018-05-27T10:03:16Z</time>
      </trkpt>
      <trkpt lat="46.78541" lon="5.68396">
        <ele>564.8</ele>
        <time>2018-05-27T10:03:20Z</time>
      </trkpt>
      <trkpt lat="46.78548" lon="5.68404">
        <ele>565</ele>
        <time>2018-05-27T10:03:22Z</time>
      </trkpt>
      <trkpt lat="46.78553" lon="5.68421">
        <ele>565.2</ele>
        <time>2018-05-27T10:03:24Z</time>
      </trkpt>
      <trkpt lat="46.78559" lon="5.68437">
        <ele>565.3</ele>
        <time>2018-05-27T10:03:26Z</time>
      </trkpt>
      <trkpt lat="46.78569" lon="5.68447">
        <ele>565.5</ele>
        <time>2018-05-27T10:03:28Z</time>
      </trkpt>
      <trkpt lat="46.78581" lon="5.68453">
        <ele>565.7</ele>
        <time>2018-05-27T10:03:30Z</time>
      </trkpt>
      <trkpt lat="46.7859" lon="5.68458">
        <ele>565.8</ele>
        <time>2018-05-27T10:03:32Z</time>
      </trkpt>
      <trkpt lat="46.78603" lon="5.68463">
        <ele>566</ele>
        <time>2018-05-27T10:03:35Z</time>
      </trkpt>
      <trkpt lat="46.78614" lon="5.68469">
        <ele>566.1</ele>
        <time>2018-05-27T10:03:38Z</time>
      </trkpt>
      <trkpt lat="46.78626" lon="5.68475">
        <ele>566.3</ele>
        <time>2018-05-27T10:03:41Z</time>
      </trkpt>
      <trkpt lat="46.78637" lon="5.68481">
        <ele>566.5</ele>
        <time>2018-05-27T10:03:44Z</time>
      </trkpt>
      <trkpt lat="46.78648" lon="5.68486">
        <ele>566.6</ele>
        <time>2018-05-27T10:03:47Z</time>
      </trkpt>
      <trkpt lat="46.7866" lon="5.6849">
        <ele>566.8</ele>
        <time>2018-05-27T10:03:50Z</time>
      </trkpt>
      <trkpt lat="46.78672" lon="5.68495">
        <ele>566.9</ele>
        <time>2018-05-27T10:03:53Z</time>
      </trkpt>
      <trkpt lat="46.78681" lon="5.68498">
        <ele>567</ele>
        <time>2018-05-27T10:03:55Z</time>
      </trkpt>
      <trkpt lat="46.7869" lon="5.68502">
        <ele>567.1</ele>
        <time>2018-05-27T10:03:57Z</time>
      </trkpt>
      <trkpt lat="46.78699" lon="5.68506">
        <ele>567.1</ele>
        <time>2018-05-27T10:03:59Z</time>
      </trkpt>
      <trkpt lat="46.78708" lon="5.68512">
        <ele>567.2</ele>
        <time>2018-05-27T10:04:01Z</time>
      </trkpt>
      <trkpt lat="46.78716" lon="5.68517">
        <ele>567.2</ele>
        <time>2018-05-27T10:04:03Z</time>
      </trkpt>
      <trkpt lat="46.78725" lon="5.68522">
        <ele>567.2</ele>
        <time>2018-05-27T10:04:05Z</time>
      </trkpt>
      <trkpt lat="46.78737" lon="5.68529">
        <ele>567.2</ele>
        <time>2018-05-27T10:04:08Z</time>
      </trkpt>
      <trkpt lat="46.78749" lon="5.68537">
        <ele>567.2</ele>
        <time>2018-05-27T10:04:11Z</time>
      </trkpt>
      <trkpt lat="46.78761" lon="5.68544">
        <ele>567.2</ele>
        <time>2018-05-27T10:04:14Z</time>
      </trkpt>
      <trkpt lat="46.78772" lon="5.68551">
        <ele>567.2</ele>
        <time>2018-05-27T10:04:17Z</time>
      </trkpt>
      <trkpt lat="46.78785" lon="5.68558">
        <ele>567.2</ele>
        <time>2018-05-27T10:04:20Z</time>
      </trkpt>
      <trkpt lat="46.78794" lon="5.68561">
        <ele>567.2</ele>
        <time>2018-05-27T10:04:22Z</time>
      </trkpt>
      <trkpt lat="46.78803" lon="5.68563">
        <ele>567.2</ele>
        <time>2018-05-27T10:04:24Z</time>
      </trkpt>
      <trkpt lat="46.78813" lon="5.68562">
        <ele>567.2</ele>
        <time>2018-05-27T10:04:26Z</time>
      </trkpt>
      <trkpt lat="46.78823" lon="5.68559">
        <ele>567.1</ele>
        <time>2018-05-27T10:04:28Z</time>
      </trkpt>
      <trkpt lat="46.78833" lon="5.68555">
        <ele>567.1</ele>
        <time>2018-05-27T10:04:30Z</time>
      </trkpt>
      <trkpt lat="46.78844" lon="5.68552">
        <ele>567.1</ele>
        <time>2018-05-27T10:04:32Z</time>
      </trkpt>
      <trkpt lat="46.78854" lon="5.68549">
        <ele>567.1</ele>
        <time>2018-05-27T10:04:34Z</time>
      </trkpt>
      <trkpt lat="46.78863" lon="5.68546">
        <ele>567.1</ele>
        <time>2018-05-27T10:04:36Z</time>
      </trkpt>
      <trkpt lat="46.78873" lon="5.68543">
        <ele>567</ele>
        <time>2018-05-27T10:04:38Z</time>
      </trkpt>
      <trkpt lat="46.78882" lon="5.6854">
        <ele>567</ele>
        <time>2018-05-27T10:04:40Z</time>
      </trkpt>
      <trkpt lat="46.78891" lon="5.68537">
        <ele>567</ele>
        <time>2018-05-27T10:04:42Z</time>
      </trkpt>
      <trkpt lat="46.789" lon="5.68534">
        <ele>566.9</ele>
        <time>2018-05-27T10:04:44Z</time>
      </trkpt>
      <trkpt lat="46.78909" lon="5.6853">
        <ele>566.9</ele>
        <time>2018-05-27T10:04:46Z</time>
      </trkpt>
      <trkpt lat="46.78921" lon="5.68525">
        <ele>566.9</ele>
        <time>2018-05-27T10:04:49Z</time>
      </trkpt>
      <trkpt lat="46.78933" lon="5.68519">
        <ele>566.8</ele>
        <time>2018-05-27T10:04:52Z</time>
      </trkpt>
      <trkpt lat="46.78942" lon="5.68513">
        <ele>566.8</ele>
        <time>2018-05-27T10:04:55Z</time>
      </trkpt>
      <trkpt lat="46.78951" lon="5.68508">
        <ele>566.9</ele>
        <time>2018-05-27T10:04:58Z</time>
      </trkpt>
      <trkpt lat="46.78959" lon="5.68502">
        <ele>567</ele>
        <time>2018-05-27T10:05:01Z</time>
      </trkpt>
      <trkpt lat="46.78968" lon="5.68496">
        <ele>567.2</ele>
        <time>2018-05-27T10:05:04Z</time>
      </trkpt>
      <trkpt lat="46.78978" lon="5.6849">
        <ele>567.3</ele>
        <time>2018-05-27T10:05:07Z</time>
      </trkpt>
      <trkpt lat="46.78989" lon="5.68484">
        <ele>567.4</ele>
        <time>2018-05-27T10:05:10Z</time>
      </trkpt>
      <trkpt lat="46.78999" lon="5.68479">
        <ele>567.6</ele>
        <time>2018-05-27T10:05:13Z</time>
      </trkpt>
      <trkpt lat="46.79009" lon="5.68473">
        <ele>567.7</ele>
        <time>2018-05-27T10:05:16Z</time>
      </trkpt>
      <trkpt lat="46.7902" lon="5.68468">
        <ele>567.9</ele>
        <time>2018-05-27T10:05:19Z</time>
      </trkpt>
      <trkpt lat="46.79031" lon="5.68464">
        <ele>568</ele>
        <time>2018-05-27T10:05:22Z</time>
      </trkpt>
      <trkpt lat="46.79042" lon="5.68459">
        <ele>568.1</ele>
        <time>2018-05-27T10:05:25Z</time>
      </trkpt>
      <trkpt lat="46.79054" lon="5.68455">
        <ele>568.1</ele>
        <time>2018-05-27T10:05:28Z</time>
      </trkpt>
      <trkpt lat="46.79063" lon="5.68454">
        <ele>568.1</ele>
        <time>2018-05-27T10:05:30Z</time>
      </trkpt>
      <trkpt lat="46.79075" lon="5.68451">
        <ele>568.2</ele>
        <time>2018-05-27T10:05:33Z</time>
      </trkpt>
      <trkpt lat="46.79087" lon="5.68449">
        <ele>568.2</ele>
        <time>2018-05-27T10:05:36Z</time>
      </trkpt>
      <trkpt lat="46.79098" lon="5.68446">
        <ele>568.2</ele>
        <time>2018-05-27T10:05:39Z</time>
      </trkpt>
      <trkpt lat="46.7911" lon="5.68445">
        <ele>568.2</ele>
        <time>2018-05-27T10:05:42Z</time>
      </trkpt>
      <trkpt lat="46.79122" lon="5.68443">
        <ele>568.2</ele>
        <time>2018-05-27T10:05:45Z</time>
      </trkpt>
      <trkpt lat="46.79134" lon="5.68442">
        <ele>568.3</ele>
        <time>2018-05-27T10:05:48Z</time>
      </trkpt>
      <trkpt lat="46.79146" lon="5.68443">
        <ele>568.3</ele>
        <time>2018-05-27T10:05:51Z</time>
      </trkpt>
      <trkpt lat="46.79158" lon="5.68443">
        <ele>568.3</ele>
        <time>2018-05-27T10:05:54Z</time>
      </trkpt>
      <trkpt lat="46.7917" lon="5.68444">
        <ele>568.4</ele>
        <time>2018-05-27T10:05:57Z</time>
      </trkpt>
      <trkpt lat="46.79181" lon="5.68446">
        <ele>568.5</ele>
        <time>2018-05-27T10:06:00Z</time>
      </trkpt>
      <trkpt lat="46.79191" lon="5.68447">
        <ele>568.6</ele>
        <time>2018-05-27T10:06:03Z</time>
      </trkpt>
      <trkpt lat="46.792" lon="5.68448">
        <ele>568.8</ele>
        <time>2018-05-27T10:06:06Z</time>
      </trkpt>
      <trkpt lat="46.7921" lon="5.68449">
        <ele>568.9</ele>
        <time>2018-05-27T10:06:09Z</time>
      </trkpt>
      <trkpt lat="46.79219" lon="5.6845">
        <ele>569.1</ele>
        <time>2018-05-27T10:06:12Z</time>
      </trkpt>
      <trkpt lat="46.79229" lon="5.68451">
        <ele>569.4</ele>
        <time>2018-05-27T10:06:15Z</time>
      </trkpt>
      <trkpt lat="46.79239" lon="5.68453">
        <ele>569.6</ele>
        <time>2018-05-27T10:06:18Z</time>
      </trkpt>
      <trkpt lat="46.79249" lon="5.68454">
        <ele>569.9</ele>
        <time>2018-05-27T10:06:21Z</time>
      </trkpt>
      <trkpt lat="46.79259" lon="5.68454">
        <ele>570.1</ele>
        <time>2018-05-27T10:06:24Z</time>
      </trkpt>
      <trkpt lat="46.79267" lon="5.68447">
        <ele>570.3</ele>
        <time>2018-05-27T10:06:27Z</time>
      </trkpt>
      <trkpt lat="46.79275" lon="5.68435">
        <ele>570.6</ele>
        <time>2018-05-27T10:06:31Z</time>
      </trkpt>
      <trkpt lat="46.79283" lon="5.68426">
        <ele>571</ele>
        <time>2018-05-27T10:06:36Z</time>
      </trkpt>
      <trkpt lat="46.79291" lon="5.68416">
        <ele>571.6</ele>
        <time>2018-05-27T10:06:41Z</time>
      </trkpt>
      <trkpt lat="46.79299" lon="5.68407">
        <ele>572.2</ele>
        <time>2018-05-27T10:06:46Z</time>
      </trkpt>
      <trkpt lat="46.79306" lon="5.68398">
        <ele>573.1</ele>
        <time>2018-05-27T10:06:52Z</time>
      </trkpt>
      <trkpt lat="46.79313" lon="5.68387">
        <ele>574.1</ele>
        <time>2018-05-27T10:06:59Z</time>
      </trkpt>
      <trkpt lat="46.7932" lon="5.68377">
        <ele>575.4</ele>
        <time>2018-05-27T10:07:07Z</time>
      </trkpt>
      <trkpt lat="46.79328" lon="5.68368">
        <ele>576.4</ele>
        <time>2018-05-27T10:07:13Z</time>
      </trkpt>
      <trkpt lat="46.79335" lon="5.68357">
        <ele>577.6</ele>
        <time>2018-05-27T10:07:20Z</time>
      </trkpt>
      <trkpt lat="46.79342" lon="5.68347">
        <ele>578.6</ele>
        <time>2018-05-27T10:07:27Z</time>
      </trkpt>
      <trkpt lat="46.79349" lon="5.68338">
        <ele>579.5</ele>
        <time>2018-05-27T10:07:33Z</time>
      </trkpt>
      <trkpt lat="46.79355" lon="5.68326">
        <ele>580.6</ele>
        <time>2018-05-27T10:07:40Z</time>
      </trkpt>
      <trkpt lat="46.79362" lon="5.68316">
        <ele>581.5</ele>
        <time>2018-05-27T10:07:46Z</time>
      </trkpt>
      <trkpt lat="46.79369" lon="5.68306">
        <ele>582.3</ele>
        <time>2018-05-27T10:07:52Z</time>
      </trkpt>
      <trkpt lat="46.79376" lon="5.68296">
        <ele>583.1</ele>
        <time>2018-05-27T10:07:58Z</time>
      </trkpt>
      <trkpt lat="46.79383" lon="5.68286">
        <ele>584</ele>
        <time>2018-05-27T10:08:04Z</time>
      </trkpt>
      <trkpt lat="46.79391" lon="5.68278">
        <ele>584.8</ele>
        <time>2018-05-27T10:08:10Z</time>
      </trkpt>
      <trkpt lat="46.79398" lon="5.68267">
        <ele>585.5</ele>
        <time>2018-05-27T10:08:16Z</time>
      </trkpt>
      <trkpt lat="46.79405" lon="5.68257">
        <ele>586.2</ele>
        <time>2018-05-27T10:08:22Z</time>
      </trkpt>
      <trkpt lat="46.79413" lon="5.68246">
        <ele>586.9</ele>
        <time>2018-05-27T10:08:28Z</time>
      </trkpt>
      <trkpt lat="46.7942" lon="5.68237">
        <ele>587.5</ele>
        <time>2018-05-27T10:08:33Z</time>
      </trkpt>
      <trkpt lat="46.79427" lon="5.68228">
        <ele>588.1</ele>
        <time>2018-05-27T10:08:38Z</time>
      </trkpt>
      <trkpt lat="46.79434" lon="5.68219">
        <ele>588.7</ele>
        <time>2018-05-27T10:08:43Z</time>
      </trkpt>
      <trkpt lat="46.79441" lon="5.6821">
        <ele>589.2</ele>
        <time>2018-05-27T10:08:48Z</time>
      </trkpt>
      <trkpt lat="46.79445" lon="5.68198">
        <ele>590.4</ele>
        <time>2018-05-27T10:09:07Z</time>
      </trkpt>
      <trkpt lat="46.79452" lon="5.68189">
        <ele>590.5</ele>
        <time>2018-05-27T10:09:13Z</time>
      </trkpt>
      <trkpt lat="46.79458" lon="5.6818">
        <ele>590.6</ele>
        <time>2018-05-27T10:09:17Z</time>
      </trkpt>
      <trkpt lat="46.79467" lon="5.6817">
        <ele>590.6</ele>
        <time>2018-05-27T10:09:21Z</time>
      </trkpt>
      <trkpt lat="46.79475" lon="5.68159">
        <ele>590.7</ele>
        <time>2018-05-27T10:09:25Z</time>
      </trkpt>
      <trkpt lat="46.79484" lon="5.68149">
        <ele>590.8</ele>
        <time>2018-05-27T10:09:29Z</time>
      </trkpt>
      <trkpt lat="46.79493" lon="5.6814">
        <ele>591</ele>
        <time>2018-05-27T10:09:33Z</time>
      </trkpt>
      <trkpt lat="46.79501" lon="5.6813">
        <ele>591.2</ele>
        <time>2018-05-27T10:09:37Z</time>
      </trkpt>
      <trkpt lat="46.79508" lon="5.68121">
        <ele>591.5</ele>
        <time>2018-05-27T10:09:41Z</time>
      </trkpt>
      <trkpt lat="46.79516" lon="5.68112">
        <ele>591.8</ele>
        <time>2018-05-27T10:09:45Z</time>
      </trkpt>
      <trkpt lat="46.79526" lon="5.68106">
        <ele>592.1</ele>
        <time>2018-05-27T10:09:49Z</time>
      </trkpt>
      <trkpt lat="46.79536" lon="5.68107">
        <ele>592.5</ele>
        <time>2018-05-27T10:09:53Z</time>
      </trkpt>
      <trkpt lat="46.79547" lon="5.6811">
        <ele>592.8</ele>
        <time>2018-05-27T10:09:57Z</time>
      </trkpt>
      <trkpt lat="46.79557" lon="5.68113">
        <ele>593.1</ele>
        <time>2018-05-27T10:10:01Z</time>
      </trkpt>
      <trkpt lat="46.79568" lon="5.68118">
        <ele>593.4</ele>
        <time>2018-05-27T10:10:05Z</time>
      </trkpt>
      <trkpt lat="46.79578" lon="5.68126">
        <ele>593.6</ele>
        <time>2018-05-27T10:10:09Z</time>
      </trkpt>
      <trkpt lat="46.79588" lon="5.68134">
        <ele>594</ele>
        <time>2018-05-27T10:10:13Z</time>
      </trkpt>
      <trkpt lat="46.79598" lon="5.6814">
        <ele>594.3</ele>
        <time>2018-05-27T10:10:17Z</time>
      </trkpt>
      <trkpt lat="46.79607" lon="5.68148">
        <ele>594.7</ele>
        <time>2018-05-27T10:10:21Z</time>
      </trkpt>
      <trkpt lat="46.79617" lon="5.68156">
        <ele>595.2</ele>
        <time>2018-05-27T10:10:25Z</time>
      </trkpt>
      <trkpt lat="46.79626" lon="5.68163">
        <ele>595.6</ele>
        <time>2018-05-27T10:10:29Z</time>
      </trkpt>
      <trkpt lat="46.79635" lon="5.68171">
        <ele>596.1</ele>
        <time>2018-05-27T10:10:33Z</time>
      </trkpt>
      <trkpt lat="46.79645" lon="5.68178">
        <ele>596.6</ele>
        <time>2018-05-27T10:10:37Z</time>
      </trkpt>
      <trkpt lat="46.79653" lon="5.68184">
        <ele>596.8</ele>
        <time>2018-05-27T10:10:40Z</time>
      </trkpt>
      <trkpt lat="46.79661" lon="5.68191">
        <ele>597.1</ele>
        <time>2018-05-27T10:10:43Z</time>
      </trkpt>
      <trkpt lat="46.79669" lon="5.68198">
        <ele>597.4</ele>
        <time>2018-05-27T10:10:46Z</time>
      </trkpt>
      <trkpt lat="46.79678" lon="5.68208">
        <ele>597.7</ele>
        <time>2018-05-27T10:10:50Z</time>
      </trkpt>
      <trkpt lat="46.79687" lon="5.68218">
        <ele>598</ele>
        <time>2018-05-27T10:10:54Z</time>
      </trkpt>
      <trkpt lat="46.79696" lon="5.68226">
        <ele>598.2</ele>
        <time>2018-05-27T10:10:58Z</time>
      </trkpt>
      <trkpt lat="46.79706" lon="5.68233">
        <ele>598.3</ele>
        <time>2018-05-27T10:11:02Z</time>
      </trkpt>
      <trkpt lat="46.79715" lon="5.68237">
        <ele>598.5</ele>
        <time>2018-05-27T10:11:06Z</time>
      </trkpt>
      <trkpt lat="46.79727" lon="5.68237">
        <ele>598.6</ele>
        <time>2018-05-27T10:11:10Z</time>
      </trkpt>
      <trkpt lat="46.79737" lon="5.68234">
        <ele>598.7</ele>
        <time>2018-05-27T10:11:14Z</time>
      </trkpt>
      <trkpt lat="46.79747" lon="5.68226">
        <ele>598.7</ele>
        <time>2018-05-27T10:11:18Z</time>
      </trkpt>
      <trkpt lat="46.79758" lon="5.68218">
        <ele>598.7</ele>
        <time>2018-05-27T10:11:22Z</time>
      </trkpt>
      <trkpt lat="46.79766" lon="5.6821">
        <ele>598.7</ele>
        <time>2018-05-27T10:11:25Z</time>
      </trkpt>
      <trkpt lat="46.79773" lon="5.68201">
        <ele>598.7</ele>
        <time>2018-05-27T10:11:28Z</time>
      </trkpt>
      <trkpt lat="46.79782" lon="5.68194">
        <ele>598.8</ele>
        <time>2018-05-27T10:11:31Z</time>
      </trkpt>
      <trkpt lat="46.7979" lon="5.68187">
        <ele>598.9</ele>
        <time>2018-05-27T10:11:34Z</time>
      </trkpt>
      <trkpt lat="46.79795" lon="5.68175">
        <ele>598.9</ele>
        <time>2018-05-27T10:11:37Z</time>
      </trkpt>
      <trkpt lat="46.79804" lon="5.68164">
        <ele>599.1</ele>
        <time>2018-05-27T10:11:41Z</time>
      </trkpt>
      <trkpt lat="46.79813" lon="5.68162">
        <ele>599.3</ele>
        <time>2018-05-27T10:11:44Z</time>
      </trkpt>
      <trkpt lat="46.79823" lon="5.68166">
        <ele>599.5</ele>
        <time>2018-05-27T10:11:47Z</time>
      </trkpt>
      <trkpt lat="46.79837" lon="5.68172">
        <ele>599.7</ele>
        <time>2018-05-27T10:11:50Z</time>
      </trkpt>
      <trkpt lat="46.79847" lon="5.68177">
        <ele>599.7</ele>
        <time>2018-05-27T10:11:52Z</time>
      </trkpt>
      <trkpt lat="46.79859" lon="5.68184">
        <ele>599.8</ele>
        <time>2018-05-27T10:11:54Z</time>
      </trkpt>
      <trkpt lat="46.79872" lon="5.68191">
        <ele>599.7</ele>
        <time>2018-05-27T10:11:56Z</time>
      </trkpt>
      <trkpt lat="46.79884" lon="5.68199">
        <ele>599.5</ele>
        <time>2018-05-27T10:11:58Z</time>
      </trkpt>
      <trkpt lat="46.79896" lon="5.68206">
        <ele>599.3</ele>
        <time>2018-05-27T10:12:00Z</time>
      </trkpt>
      <trkpt lat="46.79908" lon="5.68215">
        <ele>599</ele>
        <time>2018-05-27T10:12:02Z</time>
      </trkpt>
      <trkpt lat="46.7992" lon="5.68225">
        <ele>598.7</ele>
        <time>2018-05-27T10:12:04Z</time>
      </trkpt>
      <trkpt lat="46.79932" lon="5.68234">
        <ele>598.5</ele>
        <time>2018-05-27T10:12:06Z</time>
      </trkpt>
      <trkpt lat="46.79943" lon="5.68241">
        <ele>598.2</ele>
        <time>2018-05-27T10:12:08Z</time>
      </trkpt>
      <trkpt lat="46.79952" lon="5.68247">
        <ele>598</ele>
        <time>2018-05-27T10:12:10Z</time>
      </trkpt>
      <trkpt lat="46.79961" lon="5.68255">
        <ele>597.8</ele>
        <time>2018-05-27T10:12:12Z</time>
      </trkpt>
      <trkpt lat="46.7997" lon="5.68264">
        <ele>597.5</ele>
        <time>2018-05-27T10:12:14Z</time>
      </trkpt>
      <trkpt lat="46.7998" lon="5.68273">
        <ele>597.3</ele>
        <time>2018-05-27T10:12:16Z</time>
      </trkpt>
      <trkpt lat="46.79992" lon="5.68282">
        <ele>597</ele>
        <time>2018-05-27T10:12:18Z</time>
      </trkpt>
      <trkpt lat="46.80005" lon="5.68294">
        <ele>596.6</ele>
        <time>2018-05-27T10:12:20Z</time>
      </trkpt>
      <trkpt lat="46.80018" lon="5.68305">
        <ele>596.2</ele>
        <time>2018-05-27T10:12:22Z</time>
      </trkpt>
      <trkpt lat="46.80029" lon="5.68319">
        <ele>595.6</ele>
        <time>2018-05-27T10:12:24Z</time>
      </trkpt>
      <trkpt lat="46.80039" lon="5.68335">
        <ele>594.8</ele>
        <time>2018-05-27T10:12:26Z</time>
      </trkpt>
      <trkpt lat="46.80048" lon="5.68356">
        <ele>593.9</ele>
        <time>2018-05-27T10:12:28Z</time>
      </trkpt>
      <trkpt lat="46.80057" lon="5.68377">
        <ele>593.1</ele>
        <time>2018-05-27T10:12:30Z</time>
      </trkpt>
      <trkpt lat="46.80068" lon="5.68395">
        <ele>592.2</ele>
        <time>2018-05-27T10:12:32Z</time>
      </trkpt>
      <trkpt lat="46.80083" lon="5.68404">
        <ele>591.4</ele>
        <time>2018-05-27T10:12:34Z</time>
      </trkpt>
      <trkpt lat="46.80098" lon="5.68409">
        <ele>590.6</ele>
        <time>2018-05-27T10:12:36Z</time>
      </trkpt>
      <trkpt lat="46.80112" lon="5.68416">
        <ele>589.9</ele>
        <time>2018-05-27T10:12:38Z</time>
      </trkpt>
      <trkpt lat="46.80125" lon="5.68423">
        <ele>589.2</ele>
        <time>2018-05-27T10:12:40Z</time>
      </trkpt>
      <trkpt lat="46.80139" lon="5.6843">
        <ele>588.6</ele>
        <time>2018-05-27T10:12:42Z</time>
      </trkpt>
      <trkpt lat="46.80155" lon="5.6844">
        <ele>587.9</ele>
        <time>2018-05-27T10:12:44Z</time>
      </trkpt>
      <trkpt lat="46.8017" lon="5.68447">
        <ele>587.2</ele>
        <time>2018-05-27T10:12:46Z</time>
      </trkpt>
      <trkpt lat="46.80185" lon="5.68453">
        <ele>586.6</ele>
        <time>2018-05-27T10:12:48Z</time>
      </trkpt>
      <trkpt lat="46.80199" lon="5.68458">
        <ele>586</ele>
        <time>2018-05-27T10:12:50Z</time>
      </trkpt>
      <trkpt lat="46.8021" lon="5.6846">
        <ele>585.5</ele>
        <time>2018-05-27T10:12:52Z</time>
      </trkpt>
      <trkpt lat="46.80223" lon="5.68459">
        <ele>584.8</ele>
        <time>2018-05-27T10:12:55Z</time>
      </trkpt>
      <trkpt lat="46.80234" lon="5.68457">
        <ele>584.2</ele>
        <time>2018-05-27T10:12:58Z</time>
      </trkpt>
      <trkpt lat="46.80243" lon="5.68454">
        <ele>583.7</ele>
        <time>2018-05-27T10:13:01Z</time>
      </trkpt>
      <trkpt lat="46.80252" lon="5.68452">
        <ele>583.5</ele>
        <time>2018-05-27T10:13:04Z</time>
      </trkpt>
      <trkpt lat="46.80262" lon="5.68455">
        <ele>583.2</ele>
        <time>2018-05-27T10:13:08Z</time>
      </trkpt>
      <trkpt lat="46.80273" lon="5.68453">
        <ele>583</ele>
        <time>2018-05-27T10:13:11Z</time>
      </trkpt>
      <trkpt lat="46.80282" lon="5.68451">
        <ele>582.9</ele>
        <time>2018-05-27T10:13:13Z</time>
      </trkpt>
      <trkpt lat="46.80292" lon="5.68449">
        <ele>582.8</ele>
        <time>2018-05-27T10:13:15Z</time>
      </trkpt>
      <trkpt lat="46.80301" lon="5.68448">
        <ele>582.7</ele>
        <time>2018-05-27T10:13:17Z</time>
      </trkpt>
      <trkpt lat="46.80313" lon="5.68443">
        <ele>582.3</ele>
        <time>2018-05-27T10:13:20Z</time>
      </trkpt>
      <trkpt lat="46.80324" lon="5.68437">
        <ele>581.9</ele>
        <time>2018-05-27T10:13:23Z</time>
      </trkpt>
      <trkpt lat="46.80333" lon="5.68433">
        <ele>581.5</ele>
        <time>2018-05-27T10:13:26Z</time>
      </trkpt>
      <trkpt lat="46.80342" lon="5.68432">
        <ele>578.6</ele>
        <time>2018-05-27T10:13:45Z</time>
      </trkpt>
      <trkpt lat="46.8035" lon="5.68425">
        <ele>575.3</ele>
        <time>2018-05-27T10:15:48Z</time>
      </trkpt>
      <trkpt lat="46.80362" lon="5.68418">
        <ele>575.2</ele>
        <time>2018-05-27T10:15:52Z</time>
      </trkpt>
      <trkpt lat="46.80373" lon="5.68409">
        <ele>575.1</ele>
        <time>2018-05-27T10:15:55Z</time>
      </trkpt>
      <trkpt lat="46.80382" lon="5.68402">
        <ele>574.9</ele>
        <time>2018-05-27T10:15:57Z</time>
      </trkpt>
      <trkpt lat="46.80392" lon="5.68395">
        <ele>574.7</ele>
        <time>2018-05-27T10:15:59Z</time>
      </trkpt>
      <trkpt lat="46.80401" lon="5.68389">
        <ele>574.4</ele>
        <time>2018-05-27T10:16:01Z</time>
      </trkpt>
      <trkpt lat="46.80412" lon="5.68385">
        <ele>574.2</ele>
        <time>2018-05-27T10:16:03Z</time>
      </trkpt>
      <trkpt lat="46.80424" lon="5.68384">
        <ele>573.8</ele>
        <time>2018-05-27T10:16:05Z</time>
      </trkpt>
      <trkpt lat="46.80436" lon="5.68385">
        <ele>573.4</ele>
        <time>2018-05-27T10:16:07Z</time>
      </trkpt>
      <trkpt lat="46.80448" lon="5.68388">
        <ele>573</ele>
        <time>2018-05-27T10:16:09Z</time>
      </trkpt>
      <trkpt lat="46.80461" lon="5.68391">
        <ele>572.6</ele>
        <time>2018-05-27T10:16:11Z</time>
      </trkpt>
      <trkpt lat="46.80474" lon="5.68393">
        <ele>572.3</ele>
        <time>2018-05-27T10:16:13Z</time>
      </trkpt>
      <trkpt lat="46.80486" lon="5.68395">
        <ele>571.9</ele>
        <time>2018-05-27T10:16:15Z</time>
      </trkpt>
      <trkpt lat="46.80497" lon="5.68398">
        <ele>571.5</ele>
        <time>2018-05-27T10:16:17Z</time>
      </trkpt>
      <trkpt lat="46.80509" lon="5.684">
        <ele>571.1</ele>
        <time>2018-05-27T10:16:19Z</time>
      </trkpt>
      <trkpt lat="46.8052" lon="5.68401">
        <ele>570.7</ele>
        <time>2018-05-27T10:16:21Z</time>
      </trkpt>
      <trkpt lat="46.8053" lon="5.68402">
        <ele>570.3</ele>
        <time>2018-05-27T10:16:23Z</time>
      </trkpt>
      <trkpt lat="46.8054" lon="5.68403">
        <ele>569.9</ele>
        <time>2018-05-27T10:16:25Z</time>
      </trkpt>
      <trkpt lat="46.80551" lon="5.68405">
        <ele>569.2</ele>
        <time>2018-05-27T10:16:28Z</time>
      </trkpt>
      <trkpt lat="46.80552" lon="5.68406">
        <ele>563.8</ele>
        <time>2018-05-27T10:17:33Z</time>
      </trkpt>
    </trkseg>
  </trk>
</gpx>